# Wetter Temperatur Luftdruck Luftfeuchtigkeit Sichtweite Windgeschwindigkeit Windrichtung Zeit
1 Snow -16 1026 77 10000 1 350 22:25 24.01.2020
2 Snow -17 1026 84 10000 2 350 21:43 24.01.2020
3 Snow -17 1026 84 10000 2 350 21:21 24.01.2020
4 Snow -17 1025 77 10000 1 340 20:59 24.01.2020
5 Snow -17 1025 77 10000 1 340 20:40 24.01.2020
6 Snow -17 1025 77 10000 1 340 20:20 24.01.2020
7 Clouds -18 1025 77 10000 1 280 19:57 24.01.2020
8 Clouds -18 1025 77 10000 1 280 19:38 24.01.2020
9 Clouds -18 1025 77 10000 1 280 19:20 24.01.2020
10 Clouds -18 1025 84 10000 1 320 18:43 24.01.2020
11 Clouds -18 1025 84 10000 1 320 18:24 24.01.2020
12 Clouds -19 1025 84 10000 1 340 17:56 24.01.2020
13 Clouds -19 1025 84 10000 1 340 17:38 24.01.2020
14 Clouds -19 1025 84 10000 1 340 17:18 24.01.2020
15 Clouds -19 1025 84 10000 2 300 16:39 24.01.2020
16 Clouds -19 1025 84 10000 2 300 16:20 24.01.2020
17 Clouds -19 1025 84 10000 1 270 15:43 24.01.2020
18 Clouds -19 1025 84 10000 1 270 15:23 24.01.2020
19 Snow -20 1025 83 10000 1 300 14:58 24.01.2020
20 Snow -20 1025 83 10000 1 300 14:40 24.01.2020
21 Snow -20 1025 83 10000 1 300 14:21 24.01.2020
22 Snow -20 1025 76 3600 1 270 13:43 24.01.2020
23 Snow -20 1025 76 3600 1 270 13:23 24.01.2020
24 Snow -21 1025 83 1600 2 270 12:45 24.01.2020
25 Snow -21 1025 83 1600 2 270 12:23 24.01.2020
26 Snow -21 1024 83 1700 2 280 11:57 24.01.2020
27 Snow -21 1024 83 1700 2 280 11:39 24.01.2020
28 Snow -21 1024 83 1700 2 280 11:18 24.01.2020
29 Snow -20 1024 76 2700 2 300 10:42 24.01.2020
30 Snow -20 1024 76 2700 2 300 10:21 24.01.2020
31 Snow -20 1023 83 3600 4 340 09:54 24.01.2020
32 Snow -20 1023 83 3600 4 340 09:36 24.01.2020
33 Snow -20 1023 83 3600 4 340 09:18 24.01.2020
34 Snow -21 1023 83 2000 5 350 08:39 24.01.2020
35 Snow -21 1023 83 2000 5 350 08:39 24.01.2020
36 Snow -21 1023 83 2000 5 350 08:19 24.01.2020
37 Snow -20 1023 76 1800 6 350 07:47 24.01.2020
38 Snow -20 1023 76 1800 6 350 07:22 24.01.2020
39 Snow -21 1023 76 1100 7 350 06:45 24.01.2020
40 Snow -21 1022 83 750 6 350 06:24 24.01.2020
41 Snow -21 1022 76 5000 4 360 05:33 24.01.2020
42 Snow -23 1023 76 1800 5 360 03:36 24.01.2020
43 Snow -24 1023 83 1200 6 350 02:40 24.01.2020
44 Snow -25 1023 83 1200 6 350 02:21 24.01.2020
45 Snow -24 1023 75 1400 7 360 01:39 24.01.2020
46 Snow -26 1023 75 1700 9 360 00:49 24.01.2020
47 Snow -26 1022 75 2000 7 360 00:19 24.01.2020
48 Snow -26 1023 75 1500 7 350 23:42 23.01.2020
49 Snow -27 1022 82 2800 8 350 23:23 23.01.2020
50 Snow -26 1022 75 5000 6 350 22:58 23.01.2020
51 Snow -25 1022 75 4500 6 360 22:37 23.01.2020
52 Snow -25 1022 75 4500 6 360 22:37 23.01.2020
53 Snow -25 1022 75 4500 6 360 22:18 23.01.2020
54 Snow -25 1022 75 8000 5 10 21:55 23.01.2020
55 Snow -25 1022 75 10000 6 10 21:37 23.01.2020
56 Snow -25 1022 75 10000 6 10 21:19 23.01.2020
57 Snow -25 1022 75 10000 6 10 21:19 23.01.2020
58 Snow -26 1021 75 8000 5 360 20:55 23.01.2020
59 Snow -26 1021 75 8000 5 360 20:37 23.01.2020
60 Snow -26 1021 75 8000 5 360 20:18 23.01.2020
61 Snow -27 1021 75 9000 5 10 19:42 23.01.2020
62 Snow -27 1021 75 9000 5 10 19:23 23.01.2020
63 Snow -27 1021 75 8000 5 340 18:58 23.01.2020
64 Snow -27 1021 75 8000 5 340 18:38 23.01.2020
65 Snow -27 1021 75 8000 5 340 18:19 23.01.2020
66 Snow -27 1021 75 9000 6 10 17:55 23.01.2020
67 Snow -27 1021 75 9000 6 10 17:37 23.01.2020
68 Snow -27 1021 75 9000 6 10 17:18 23.01.2020
69 Snow -29 1021 75 8000 5 10 16:39 23.01.2020
70 Snow -29 1021 75 8000 5 10 16:20 23.01.2020
71 Snow -29 1021 75 8000 5 10 16:20 23.01.2020
72 Snow -28 1021 75 8000 4 20 15:58 23.01.2020
73 Snow -28 1021 75 8000 4 20 15:39 23.01.2020
74 Snow -28 1021 75 8000 4 20 15:19 23.01.2020
75 Snow -29 1020 75 4100 3 320 14:58 23.01.2020
76 Snow -29 1020 75 4100 3 320 14:40 23.01.2020
77 Snow -29 1020 75 4100 3 320 14:22 23.01.2020
78 Snow -29 1020 75 1500 5 340 13:55 23.01.2020
79 Snow -29 1020 75 1500 5 340 13:37 23.01.2020
80 Snow -29 1020 75 1500 5 340 13:18 23.01.2020
81 Snow -29 1019 75 2500 5 10 12:42 23.01.2020
82 Snow -29 1019 75 2500 5 10 12:24 23.01.2020
83 Snow -30 1019 74 2600 5 20 11:56 23.01.2020
84 Snow -30 1019 74 2600 5 20 11:37 23.01.2020
85 Snow -30 1019 74 2600 5 20 11:18 23.01.2020
86 Snow -32 1019 74 4800 3 340 10:42 23.01.2020
87 Snow -32 1019 74 4800 3 340 10:19 23.01.2020
88 Clouds -32 1019 74 10000 2 340 09:42 23.01.2020
89 Clouds -32 1019 74 10000 2 340 09:24 23.01.2020
90 Clouds -32 1018 74 10000 2 360 08:58 23.01.2020
91 Clouds -32 1018 74 10000 2 360 08:40 23.01.2020
92 Clear -32 1018 74 10000 2 360 08:21 23.01.2020
93 Clear -32 1018 67 10000 2 340 07:44 23.01.2020
94 Clear -32 1018 67 10000 2 340 07:24 23.01.2020
95 Clear -32 1017 74 10000 4 20 06:51 23.01.2020
96 Clear -32 1017 74 10000 4 20 06:51 23.01.2020
97 Clear -32 1017 67 10000 3 10 06:20 23.01.2020
98 Clear -34 1017 66 10000 2 30 05:37 23.01.2020
99 Clear -33 1017 74 10000 2 10 04:22 23.01.2020
100 Clear -31 1016 74 10000 3 350 02:33 23.01.2020
101 Clouds -32 1016 74 10000 2 40 00:58 23.01.2020
102 Clouds -33 1016 74 10000 2 30 00:27 23.01.2020
103 Clouds -33 1015 67 10000 2 60 23:47 22.01.2020
104 Clouds -33 1015 67 10000 2 30 23:29 22.01.2020
105 Clouds -33 1015 67 10000 2 340 22:58 22.01.2020
106 Clouds -33 1014 67 10000 2 360 22:39 22.01.2020
107 Clouds -33 1014 67 10000 2 360 22:21 22.01.2020
108 Clouds -33 1014 74 10000 3 20 21:39 22.01.2020
109 Clouds -33 1014 74 10000 3 20 21:21 22.01.2020
110 Clouds -34 1012 66 10000 3 20 20:56 22.01.2020
111 Clouds -34 1012 66 10000 3 20 20:37 22.01.2020
112 Clear -34 1012 66 10000 3 20 20:18 22.01.2020
113 Clear -34 1012 73 10000 3 50 19:55 22.01.2020
114 Clear -34 1012 73 10000 3 50 19:37 22.01.2020
115 Clear -34 1012 73 10000 3 50 19:18 22.01.2020
116 Clear -33 1011 74 10000 3 40 18:56 22.01.2020
117 Clear -33 1011 74 10000 3 40 18:37 22.01.2020
118 Clear -33 1011 74 10000 3 40 18:18 22.01.2020
119 Clear -33 1011 74 10000 2 40 17:40 22.01.2020
120 Clear -33 1011 74 10000 2 40 17:21 22.01.2020
121 Clear -31 1011 74 10000 3 10 16:58 22.01.2020
122 Clear -31 1011 74 10000 3 10 16:58 22.01.2020
123 Clear -31 1011 74 10000 3 10 16:39 22.01.2020
124 Clear -31 1011 74 10000 3 10 16:21 22.01.2020
125 Clear -31 1010 74 10000 3 20 15:56 22.01.2020
126 Clear -31 1010 74 10000 3 20 15:38 22.01.2020
127 Clear -31 1010 74 10000 3 20 15:18 22.01.2020
128 Clear -30 1010 67 10000 2 360 14:39 22.01.2020
129 Clouds -30 1010 67 10000 2 360 14:20 22.01.2020
130 Clouds -31 1009 67 10000 3 360 13:58 22.01.2020
131 Clouds -31 1009 67 10000 3 360 13:38 22.01.2020
132 Clouds -31 1009 67 10000 3 360 13:19 22.01.2020
133 Snow -30 1009 74 10000 1 350 12:57 22.01.2020
134 Snow -30 1009 74 10000 1 350 12:39 22.01.2020
135 Snow -30 1009 74 10000 1 350 12:19 22.01.2020
136 Snow -30 1008 74 10000 2 360 11:58 22.01.2020
137 Snow -30 1008 74 10000 2 360 11:39 22.01.2020
138 Snow -30 1008 74 10000 2 360 11:19 22.01.2020
139 Snow -30 1008 74 10000 2 360 11:19 22.01.2020
140 Snow -30 1008 74 10000 2 360 11:19 22.01.2020
141 Clouds -31 1007 74 10000 1 30 10:54 22.01.2020
142 Clouds -31 1007 74 10000 1 30 10:36 22.01.2020
143 Clouds -31 1007 74 10000 1 30 10:18 22.01.2020
144 Clouds -31 1007 74 10000 2 20 09:41 22.01.2020
145 Clouds -31 1007 74 10000 2 20 09:23 22.01.2020
146 Clouds -30 1006 74 10000 3 10 08:57 22.01.2020
147 Clouds -30 1006 74 10000 3 10 08:38 22.01.2020
148 Clouds -30 1006 74 10000 3 10 08:20 22.01.2020
149 Clouds -31 1006 74 10000 3 10 07:46 22.01.2020
150 Clouds -31 1006 74 10000 3 10 07:27 22.01.2020
151 Clouds -32 1005 74 10000 3 10 06:38 22.01.2020
152 Clouds -33 1005 74 10000 3 10 06:20 22.01.2020
153 Clouds -33 1005 74 10000 3 20 05:19 22.01.2020
154 Clouds -30 1004 74 10000 2 40 03:29 22.01.2020
155 Clouds -29 1004 75 10000 2 10 02:49 22.01.2020
156 Clouds -29 1004 75 10000 2 20 01:42 22.01.2020
157 Clouds -29 1004 68 10000 2 360 00:43 22.01.2020
158 Clouds -30 1004 74 10000 3 20 00:25 22.01.2020
159 Clouds -29 1003 68 10000 2 340 23:38 21.01.2020
160 Clouds -29 1003 68 10000 2 340 23:38 21.01.2020
161 Clouds -29 1003 68 10000 2 340 23:20 21.01.2020
162 Clouds -29 1003 75 10000 2 330 22:55 21.01.2020
163 Clouds -29 1003 75 10000 2 350 22:36 21.01.2020
164 Clouds -29 1003 75 10000 2 350 22:18 21.01.2020
165 Clouds -29 1002 75 10000 3 350 21:55 21.01.2020
166 Clouds -29 1002 75 10000 2 320 21:36 21.01.2020
167 Clouds -29 1002 75 10000 2 320 21:18 21.01.2020
168 Clouds -30 1002 74 10000 1 10 20:39 21.01.2020
169 Clear -30 1002 74 10000 1 10 20:20 21.01.2020
170 Clouds -28 1001 75 10000 2 10 19:58 21.01.2020
171 Clouds -28 1001 75 10000 2 10 19:58 21.01.2020
172 Clouds -28 1001 75 10000 2 10 19:40 21.01.2020
173 Clouds -28 1001 75 10000 2 10 19:21 21.01.2020
174 Clouds -28 1001 82 6000 1 330 18:57 21.01.2020
175 Clouds -28 1001 82 6000 1 330 18:39 21.01.2020
176 Clouds -28 1001 82 6000 1 330 18:21 21.01.2020
177 Clouds -27 1001 75 10000 1 40 17:57 21.01.2020
178 Clouds -27 1001 75 10000 1 40 17:38 21.01.2020
179 Clouds -27 1001 75 10000 1 40 17:18 21.01.2020
180 Clear -28 1000 75 10000 3 350 16:38 21.01.2020
181 Clear -28 1000 75 10000 3 350 16:19 21.01.2020
182 Clear -30 1000 74 9000 2 340 15:59 21.01.2020
183 Clear -30 1000 74 9000 2 340 15:39 21.01.2020
184 Clear -30 1000 74 9000 2 340 15:19 21.01.2020
185 Clear -30 1000 74 10000 2 350 14:40 21.01.2020
186 Clouds -30 1000 74 10000 2 350 14:22 21.01.2020
187 Clouds -27 999 75 10000 1 30 13:55 21.01.2020
188 Clouds -27 999 75 10000 1 30 13:37 21.01.2020
189 Clouds -27 999 75 10000 1 30 13:18 21.01.2020
190 Clouds -28 999 75 10000 1 30 12:42 21.01.2020
191 Clouds -28 999 75 10000 1 30 12:24 21.01.2020
192 Clouds -29 999 75 10000 1 30 11:56 21.01.2020
193 Clouds -29 999 75 10000 1 30 11:38 21.01.2020
194 Clouds -29 999 75 10000 1 30 11:19 21.01.2020
195 Clouds -28 999 75 9000 2 340 10:43 21.01.2020
196 Clouds -28 999 75 9000 2 340 10:23 21.01.2020
197 Clouds -28 998 75 9000 3 330 09:56 21.01.2020
198 Clouds -28 998 75 9000 3 330 09:38 21.01.2020
199 Clouds -28 998 75 9000 3 330 09:19 21.01.2020
200 Clouds -28 998 75 10000 3 350 08:41 21.01.2020
201 Clouds -28 998 75 10000 3 350 08:22 21.01.2020
202 Fog -26 997 83 10000 2 10 07:43 21.01.2020
203 Fog -26 997 83 10000 2 10 07:24 21.01.2020
204 Fog -26 997 75 10000 3 10 06:57 21.01.2020
205 Clouds -26 997 83 9000 3 360 06:38 21.01.2020
206 Fog -25 997 75 10000 2 10 05:53 21.01.2020
207 Clouds -26 997 75 7000 3 10 05:32 21.01.2020
208 Clouds -26 997 75 7000 4 360 04:37 21.01.2020
209 Clouds -26 996 75 10000 1 40 02:27 21.01.2020
210 Clouds -26 996 75 10000 2 20 01:36 21.01.2020
211 Clouds -26 996 75 10000 2 20 00:45 21.01.2020
212 Fog -27 996 75 10000 1 50 00:25 21.01.2020
213 Fog -27 996 82 10000 2 10 23:56 20.01.2020
214 Fog -26 996 75 10000 3 20 23:36 20.01.2020
215 Fog -26 996 75 10000 3 20 23:18 20.01.2020
216 Fog -26 995 83 10000 3 20 22:40 20.01.2020
217 Fog -26 995 83 10000 3 20 22:21 20.01.2020
218 Fog -26 995 83 10000 2 10 21:58 20.01.2020
219 Fog -25 995 75 10000 2 40 21:38 20.01.2020
220 Fog -25 995 75 10000 2 40 21:20 20.01.2020
221 Fog -25 995 75 10000 2 350 20:59 20.01.2020
222 Fog -25 995 75 10000 2 350 20:41 20.01.2020
223 Fog -25 995 75 10000 2 350 20:20 20.01.2020
224 Clouds -25 994 83 10000 2 30 19:58 20.01.2020
225 Clouds -25 994 83 10000 2 30 19:40 20.01.2020
226 Clouds -25 994 83 10000 2 30 19:19 20.01.2020
227 Clouds -25 994 75 10000 2 10 18:54 20.01.2020
228 Clouds -25 994 75 10000 2 10 18:36 20.01.2020
229 Clouds -25 994 75 10000 2 10 18:18 20.01.2020
230 Clouds -26 994 75 10000 3 10 17:38 20.01.2020
231 Clouds -26 994 75 10000 3 10 17:19 20.01.2020
232 Clouds -26 994 83 10000 3 360 16:46 20.01.2020
233 Clouds -26 994 83 10000 3 360 16:26 20.01.2020
234 Clouds -26 994 83 10000 2 350 15:59 20.01.2020
235 Clouds -26 994 83 10000 2 350 15:40 20.01.2020
236 Clouds -26 994 83 10000 2 350 15:22 20.01.2020
237 Clouds -25 994 75 10000 3 340 14:56 20.01.2020
238 Clouds -25 994 75 10000 3 340 14:37 20.01.2020
239 Clouds -25 994 75 10000 3 340 14:37 20.01.2020
240 Clouds -25 994 75 10000 3 340 14:19 20.01.2020
241 Clouds -26 994 75 10000 2 340 13:42 20.01.2020
242 Clouds -26 994 75 10000 2 340 13:24 20.01.2020
243 Clouds -26 994 83 10000 1 20 12:58 20.01.2020
244 Clouds -26 994 83 10000 1 20 12:40 20.01.2020
245 Clouds -26 994 83 10000 1 20 12:21 20.01.2020
246 Clouds -23 994 76 10000 4 330 11:43 20.01.2020
247 Clouds -23 994 76 10000 4 330 11:24 20.01.2020
248 Clouds -24 994 83 10000 2 320 10:58 20.01.2020
249 Clouds -24 994 83 10000 2 320 10:40 20.01.2020
250 Clouds -24 994 83 10000 2 320 10:20 20.01.2020
251 Clouds -23 994 83 10000 1 40 09:41 20.01.2020
252 Clouds -24 994 83 10000 1 40 09:22 20.01.2020
253 Clouds -25 994 75 10000 3 20 08:54 20.01.2020
254 Clouds -24 994 76 10000 1 40 08:31 20.01.2020
255 Clouds -26 994 83 10000 2 20 07:55 20.01.2020
256 Clouds -25 994 75 10000 2 10 07:36 20.01.2020
257 Clouds -25 994 75 10000 2 10 07:18 20.01.2020
258 Clouds -25 994 75 10000 3 40 06:35 20.01.2020
259 Fog -27 994 75 10000 3 20 05:56 20.01.2020
260 Clouds -27 994 82 10000 2 40 05:37 20.01.2020
261 Clear -27 994 82 10000 2 40 05:18 20.01.2020
262 Fog -27 994 82 10000 1 320 03:46 20.01.2020
263 Fog -27 994 75 900 1 270 01:58 20.01.2020
264 Mist -27 994 75 3500 3 320 01:38 20.01.2020
265 Clouds -26 993 83 10000 4 360 00:46 20.01.2020
266 Clouds -26 993 75 10000 3 10 00:27 20.01.2020
267 Clouds -26 994 83 10000 2 40 23:55 19.01.2020
268 Clouds -27 993 75 10000 5 350 23:36 19.01.2020
269 Clouds -27 993 75 10000 5 350 23:18 19.01.2020
270 Clouds -27 994 82 10000 3 330 22:54 19.01.2020
271 Clouds -26 993 83 10000 3 10 22:36 19.01.2020
272 Clouds -25 993 83 10000 3 10 22:18 19.01.2020
273 Clouds -26 994 75 10000 2 40 21:55 19.01.2020
274 Clouds -26 994 75 10000 2 40 21:55 19.01.2020
275 Clouds -26 994 75 10000 2 40 21:55 19.01.2020
276 Clouds -26 994 82 10000 2 30 21:37 19.01.2020
277 Clouds -27 994 82 10000 2 30 21:19 19.01.2020
278 Clouds -25 993 75 10000 2 290 20:55 19.01.2020
279 Clouds -25 993 75 10000 2 290 20:55 19.01.2020
280 Clouds -25 993 75 10000 2 290 20:37 19.01.2020
281 Clouds -25 993 75 10000 2 290 20:18 19.01.2020
282 Clouds -24 993 76 10000 2 20 19:54 19.01.2020
283 Clouds -24 993 76 10000 2 20 19:36 19.01.2020
284 Clouds -24 993 76 10000 2 20 19:18 19.01.2020
285 Clouds -22 994 83 10000 2 360 18:54 19.01.2020
286 Clouds -22 994 83 10000 2 360 18:36 19.01.2020
287 Clouds -22 994 83 10000 2 360 18:18 19.01.2020
288 Clouds -25 994 83 10000 1 40 17:56 19.01.2020
289 Clouds -25 994 83 10000 1 40 17:38 19.01.2020
290 Clear -25 994 83 10000 1 40 17:18 19.01.2020
291 Clear -22 995 76 10000 1 230 16:54 19.01.2020
292 Clear -22 995 76 10000 1 230 16:36 19.01.2020
293 Clear -22 995 76 10000 1 230 16:18 19.01.2020
294 Clear -23 995 76 10000 1 360 15:41 19.01.2020
295 Clear -23 995 76 10000 1 360 15:22 19.01.2020
296 Clear -23 995 83 10000 2 20 14:59 19.01.2020
297 Clear -23 995 83 10000 2 20 14:40 19.01.2020
298 Clouds -23 995 83 10000 2 20 14:20 19.01.2020
299 Clouds -24 995 83 10000 1 100 13:59 19.01.2020
300 Clouds -24 995 83 10000 1 100 13:40 19.01.2020
301 Clouds -24 995 83 10000 1 100 13:21 19.01.2020
302 Clouds -21 996 76 10000 2 290 12:59 19.01.2020
303 Clouds -21 996 76 10000 2 290 12:40 19.01.2020
304 Clouds -21 996 76 10000 2 290 12:21 19.01.2020
305 Clouds -21 996 76 10000 5 20 11:57 19.01.2020
306 Clouds -21 996 76 10000 5 20 11:37 19.01.2020
307 Clouds -21 996 76 10000 5 20 11:18 19.01.2020
308 Clouds -21 996 83 10000 1 30 10:40 19.01.2020
309 Clouds -21 996 83 10000 1 30 10:20 19.01.2020
310 Clouds -20 997 76 10000 4 340 09:57 19.01.2020
311 Clouds -20 997 76 10000 4 340 09:38 19.01.2020
312 Clouds -20 997 76 10000 4 340 09:20 19.01.2020
313 Clouds -18 997 77 10000 3 350 08:55 19.01.2020
314 Clouds -18 997 77 10000 3 350 08:33 19.01.2020
315 Clouds -17 997 77 10000 5 10 07:55 19.01.2020
316 Clouds -17 997 77 10000 5 10 07:29 19.01.2020
317 Clouds -15 997 77 10000 7 10 06:55 19.01.2020
318 Clouds -15 997 77 10000 7 10 06:22 19.01.2020
319 Snow -11 997 78 10000 5 30 03:58 19.01.2020
320 Clouds -13 998 78 10000 2 80 02:34 19.01.2020
321 Clouds -13 999 84 10000 1 270 01:42 19.01.2020
322 Clouds -13 999 84 10000 1 270 01:20 19.01.2020
323 Clouds -12 999 78 10000 1 170 00:44 19.01.2020
324 Clouds -12 1000 78 10000 4 260 00:21 19.01.2020
325 Clouds -12 1000 78 10000 4 260 23:54 18.01.2020
326 Clouds -12 1000 78 10000 2 210 23:36 18.01.2020
327 Clouds -11 1000 78 10000 2 210 23:18 18.01.2020
328 Clouds -10 1000 72 10000 4 90 22:41 18.01.2020
329 Clouds -9 1000 72 10000 4 90 22:23 18.01.2020
330 Clouds -8 1001 67 10000 2 60 21:58 18.01.2020
331 Snow -9 1001 78 10000 1 280 21:39 18.01.2020
332 Snow -9 1001 78 10000 1 280 21:20 18.01.2020
333 Clouds -8 1001 78 10000 3 60 20:57 18.01.2020
334 Clouds -8 1001 78 10000 3 60 20:39 18.01.2020
335 Clouds -8 1001 78 10000 3 60 20:39 18.01.2020
336 Clouds -8 1001 78 10000 3 60 20:19 18.01.2020
337 Clouds -8 1001 72 10000 7 30 19:43 18.01.2020
338 Clouds -8 1001 72 10000 7 30 19:24 18.01.2020
339 Clouds -6 1002 67 10000 2 120 18:43 18.01.2020
340 Clouds -6 1002 67 10000 2 120 18:25 18.01.2020
341 Clouds -6 1002 73 10000 3 40 17:59 18.01.2020
342 Clouds -6 1002 73 10000 3 40 17:40 18.01.2020
343 Clouds -6 1002 73 10000 3 40 17:20 18.01.2020
344 Clouds -6 1002 79 10000 6 80 16:57 18.01.2020
345 Clouds -6 1002 79 10000 6 80 16:38 18.01.2020
346 Clouds -6 1002 79 10000 6 80 16:38 18.01.2020
347 Clouds -6 1002 79 10000 6 80 16:19 18.01.2020
348 Clouds -6 1002 79 10000 8 70 15:44 18.01.2020
349 Clouds -6 1002 79 10000 8 70 15:26 18.01.2020
350 Clouds -5 1002 79 10000 9 100 14:59 18.01.2020
351 Clouds -5 1002 79 10000 9 100 14:40 18.01.2020
352 Clouds -5 1002 79 10000 9 100 14:19 18.01.2020
353 Clouds -4 1002 79 9000 11 90 13:56 18.01.2020
354 Clouds -4 1002 79 9000 11 90 13:36 18.01.2020
355 Clouds -4 1002 79 9000 11 90 13:18 18.01.2020
356 Clouds -4 1002 79 9000 11 90 13:18 18.01.2020
357 Snow -4 1003 79 6000 10 100 12:41 18.01.2020
358 Snow -4 1003 79 6000 10 100 12:21 18.01.2020
359 Snow -4 1003 85 900 14 100 11:56 18.01.2020
360 Snow -4 1003 85 900 14 100 11:38 18.01.2020
361 Snow -4 1003 85 900 14 100 11:19 18.01.2020
362 Snow -4 1003 92 750 15 100 10:41 18.01.2020
363 Snow -4 1003 92 750 15 100 10:20 18.01.2020
364 Snow -4 1003 92 750 15 100 10:20 18.01.2020
365 Snow -4 1003 92 1400 14 90 09:54 18.01.2020
366 Snow -4 1003 92 1400 14 90 09:36 18.01.2020
367 Snow -5 1003 92 9000 9 100 08:59 18.01.2020
368 Snow -5 1003 92 9000 9 100 08:41 18.01.2020
369 Snow -5 1003 92 9000 9 100 08:20 18.01.2020
370 Snow -4 1003 85 4400 12 100 07:52 18.01.2020
371 Snow -4 1003 85 4400 12 100 07:32 18.01.2020
372 Snow -3 1003 86 4300 12 100 06:48 18.01.2020
373 Snow -3 1003 86 4300 12 100 06:19 18.01.2020
374 Snow -3 1003 86 4300 12 100 06:19 18.01.2020
375 Snow -3 1003 86 1700 14 90 05:31 18.01.2020
376 Snow -3 1003 92 1100 13 90 03:46 18.01.2020
377 Snow -3 1003 92 1100 12 110 02:20 18.01.2020
378 Snow -2 1003 92 1200 10 100 01:36 18.01.2020
379 Snow -3 1003 92 5000 4 20 00:38 18.01.2020
380 Snow -4 1003 92 5000 4 20 00:19 18.01.2020
381 Snow -5 1004 92 2100 3 360 23:44 17.01.2020
382 Snow -5 1004 85 10000 3 10 23:21 17.01.2020
383 Clouds -2 1004 79 10000 4 30 22:59 17.01.2020
384 Snow -2 1004 79 10000 5 90 22:40 17.01.2020
385 Snow -2 1004 79 10000 5 90 22:19 17.01.2020
386 Snow -2 1004 86 9000 5 100 21:42 17.01.2020
387 Clouds -2 1004 79 10000 3 100 21:24 17.01.2020
388 Clouds -3 1003 79 10000 6 110 20:59 17.01.2020
389 Clouds -3 1003 79 10000 6 110 20:40 17.01.2020
390 Clouds -3 1003 79 10000 6 110 20:20 17.01.2020
391 Clouds -3 1003 79 10000 6 110 20:20 17.01.2020
392 Clouds -4 1003 85 10000 3 80 19:57 17.01.2020
393 Clouds -4 1003 85 10000 3 80 19:38 17.01.2020
394 Clouds -4 1003 85 10000 3 80 19:19 17.01.2020
395 Clouds -4 1003 79 10000 4 110 18:57 17.01.2020
396 Clouds -4 1003 79 10000 4 110 18:37 17.01.2020
397 Clouds -4 1003 79 10000 4 110 18:19 17.01.2020
398 Clouds -3 1002 79 10000 7 100 17:39 17.01.2020
399 Clouds -3 1002 79 10000 7 100 17:21 17.01.2020
400 Clouds -3 1002 86 10000 7 110 16:44 17.01.2020
401 Clouds -3 1002 86 10000 7 110 16:21 17.01.2020
402 Clouds -2 1002 79 10000 8 110 15:58 17.01.2020
403 Clouds -2 1002 79 10000 8 110 15:58 17.01.2020
404 Clouds -2 1002 79 10000 8 110 15:40 17.01.2020
405 Clouds -2 1002 79 10000 8 110 15:21 17.01.2020
406 Clouds -3 1001 86 10000 9 110 14:43 17.01.2020
407 Clouds -3 1001 86 10000 9 110 14:24 17.01.2020
408 Clouds -3 1001 79 10000 9 110 13:45 17.01.2020
409 Clouds -3 1001 79 10000 9 110 13:23 17.01.2020
410 Clouds -2 1000 74 10000 7 120 12:48 17.01.2020
411 Clouds -2 1000 74 10000 7 120 12:23 17.01.2020
412 Clouds -3 999 73 10000 7 120 11:56 17.01.2020
413 Clouds -3 999 73 10000 7 120 11:37 17.01.2020
414 Clouds -3 999 73 10000 7 120 11:18 17.01.2020
415 Clear -3 999 73 10000 8 130 10:41 17.01.2020
416 Clear -3 999 73 10000 8 130 10:22 17.01.2020
417 Clear -3 999 68 10000 7 140 09:56 17.01.2020
418 Clear -3 999 68 10000 7 140 09:37 17.01.2020
419 Clear -3 999 68 10000 7 140 09:18 17.01.2020
420 Clear -4 998 73 10000 6 140 08:42 17.01.2020
421 Clouds -4 998 73 10000 6 140 08:23 17.01.2020
422 Clouds -4 996 79 10000 5 140 07:51 17.01.2020
423 Clouds -4 996 79 10000 5 140 07:31 17.01.2020
424 Clouds -4 996 79 10000 5 140 06:56 17.01.2020
425 Clouds -4 996 73 10000 5 150 06:37 17.01.2020
426 Clouds -5 994 79 10000 4 160 05:27 17.01.2020
427 Clouds -4 991 85 0 5.2 186 03:38 17.01.2020
428 Clouds -9 993 84 0 5.2 186 02:44 17.01.2020
429 Snow -3 989 86 0 6.71 180 01:46 17.01.2020
430 Snow -2 988 92 0 6.71 160 01:27 17.01.2020
431 Snow -1 987 86 0 7.6 160 00:43 17.01.2020
432 Snow -1 986 100 1500 14 140 00:20 17.01.2020
433 Snow -1 986 100 1500 14 140 23:42 16.01.2020
434 Snow -1 986 100 1500 14 140 23:24 16.01.2020
435 Snow -1 986 100 1000 16 130 22:43 16.01.2020
436 Snow -1 986 100 650 16 130 22:22 16.01.2020
437 Snow -1 986 92 1000 17 130 21:57 16.01.2020
438 Snow -1 986 92 1000 17 130 21:57 16.01.2020
439 Snow -1 986 92 800 17 120 21:39 16.01.2020
440 Snow -1 986 92 800 17 120 21:19 16.01.2020
441 Snow -1 987 92 800 17 130 20:59 16.01.2020
442 Snow -1 987 92 800 17 130 20:39 16.01.2020
443 Snow -1 987 92 800 17 130 20:20 16.01.2020
444 Snow -1 988 92 900 17 130 19:57 16.01.2020
445 Snow -1 988 92 900 17 130 19:39 16.01.2020
446 Snow -1 988 92 900 17 130 19:20 16.01.2020
447 Snow -1 988 92 600 17 130 18:56 16.01.2020
448 Snow -1 988 92 600 17 130 18:37 16.01.2020
449 Snow -1 988 92 600 17 130 18:18 16.01.2020
450 Snow -1 988 92 600 17 130 18:18 16.01.2020
451 Snow -1 988 92 600 17 130 18:18 16.01.2020
452 Snow -1 988 92 700 17 130 17:55 16.01.2020
453 Snow -1 988 92 700 17 130 17:37 16.01.2020
454 Snow -1 988 92 700 17 130 17:18 16.01.2020
455 Snow -1 989 92 550 18 130 16:40 16.01.2020
456 Snow -1 989 92 550 18 130 16:21 16.01.2020
457 Snow -1 990 92 450 18 130 15:55 16.01.2020
458 Snow -1 990 92 450 18 130 15:37 16.01.2020
459 Snow -1 990 92 450 18 130 15:18 16.01.2020
460 Snow -1 990 92 450 19 130 14:41 16.01.2020
461 Snow -1 990 92 450 19 130 14:23 16.01.2020
462 Snow -1 991 92 550 17 130 13:46 16.01.2020
463 Snow -1 991 92 550 17 130 13:28 16.01.2020
464 Snow -1 992 92 450 17 130 12:57 16.01.2020
465 Snow -1 992 92 450 17 130 12:38 16.01.2020
466 Snow -1 992 92 450 17 130 12:20 16.01.2020
467 Snow -1 993 92 650 18 130 11:41 16.01.2020
468 Snow -1 993 92 650 18 130 11:23 16.01.2020
469 Snow -1 994 100 550 17 130 10:55 16.01.2020
470 Snow -1 994 100 550 17 130 10:55 16.01.2020
471 Snow -1 994 100 550 17 130 10:37 16.01.2020
472 Snow -1 994 100 550 17 130 10:19 16.01.2020
473 Snow -1 994 100 750 16 130 09:43 16.01.2020
474 Snow -1 994 100 750 16 130 09:24 16.01.2020
475 Snow -1 995 100 650 16 130 08:58 16.01.2020
476 Snow -1 995 100 650 16 130 08:40 16.01.2020
477 Snow -1 995 100 650 16 130 08:19 16.01.2020
478 Snow 0 996 96 800 15 130 07:42 16.01.2020
479 Snow 0 996 96 800 15 130 07:23 16.01.2020
480 Snow 0 996 96 900 15 130 06:52 16.01.2020
481 Snow 0 997 96 900 15 130 06:34 16.01.2020
482 Snow 0 997 96 1000 13 130 05:49 16.01.2020
483 Snow 0 997 90 1100 13 140 04:50 16.01.2020
484 Snow 0 998 90 1300 11 130 03:57 16.01.2020
485 Clouds 0 999 90 7000 10 130 02:47 16.01.2020
486 Snow 0 1000 95 5000 11 130 01:34 16.01.2020
487 Clouds 0 1000 97 6000 12 130 00:43 16.01.2020
488 Clouds 0 1000 97 5000 11 130 00:23 16.01.2020
489 Snow 0 1000 97 4300 11 130 23:45 15.01.2020
490 Snow 0 1000 93 1900 12 130 23:22 15.01.2020
491 Snow 0 1000 93 2300 12 130 22:56 15.01.2020
492 Snow 0 1000 93 3000 12 130 22:38 15.01.2020
493 Snow 0 1000 93 3000 12 130 22:18 15.01.2020
494 Snow 0 1000 93 2300 13 130 21:56 15.01.2020
495 Snow 0 999 93 1800 19 140 21:37 15.01.2020
496 Snow 0 999 93 1800 19 140 21:37 15.01.2020
497 Snow 0 999 93 1800 19 140 21:18 15.01.2020
498 Snow 0 999 93 1500 19 140 20:55 15.01.2020
499 Snow 0 999 93 1500 19 140 20:37 15.01.2020
500 Snow 0 999 93 1500 19 140 20:18 15.01.2020
501 Snow 0 999 93 1300 19 140 19:54 15.01.2020
502 Snow 0 999 93 1300 19 140 19:36 15.01.2020
503 Snow 0 999 93 1300 19 140 19:18 15.01.2020
504 Snow 0 999 93 1300 19 140 19:18 15.01.2020
505 Snow 0 1000 93 1700 20 140 18:55 15.01.2020
506 Snow 0 1000 93 1700 20 140 18:37 15.01.2020
507 Snow 0 1000 93 1700 20 140 18:19 15.01.2020
508 Snow 0 999 93 650 23 140 17:41 15.01.2020
509 Snow 0 999 93 650 23 140 17:22 15.01.2020
510 Clouds 0 1000 91 600 22 130 16:59 15.01.2020
511 Clouds 0 1000 91 600 22 130 16:39 15.01.2020
512 Clouds 0 1000 91 600 22 130 16:21 15.01.2020
513 Snow 0 1001 91 350 23 130 15:43 15.01.2020
514 Snow 0 1001 91 350 23 130 15:21 15.01.2020
515 Snow 0 1001 91 350 23 130 15:21 15.01.2020
516 Snow 0 1002 91 250 23 130 14:58 15.01.2020
517 Snow 0 1002 91 250 23 130 14:39 15.01.2020
518 Snow 0 1002 95 250 23 130 14:18 15.01.2020
519 Snow -1 1003 92 200 23 130 13:45 15.01.2020
520 Snow -1 1003 92 200 23 130 13:26 15.01.2020
521 Snow -1 1004 92 200 24 120 12:58 15.01.2020
522 Snow -1 1004 92 200 24 120 12:39 15.01.2020
523 Snow -1 1004 92 200 24 120 12:19 15.01.2020
524 Snow -2 1006 92 250 22 120 11:56 15.01.2020
525 Snow -2 1006 92 250 22 120 11:36 15.01.2020
526 Snow -2 1006 92 250 22 120 11:18 15.01.2020
527 Snow -2 1006 100 150 23 120 10:41 15.01.2020
528 Snow -2 1006 100 150 23 120 10:23 15.01.2020
529 Snow -2 1008 92 250 21 110 09:42 15.01.2020
530 Snow -2 1008 92 250 21 110 09:22 15.01.2020
531 Snow -2 1010 92 250 22 110 08:55 15.01.2020
532 Snow -2 1010 92 250 22 110 08:37 15.01.2020
533 Snow -2 1010 92 250 22 110 08:19 15.01.2020
534 Snow -1 1012 86 450 21 120 07:43 15.01.2020
535 Snow -1 1012 86 450 21 120 07:24 15.01.2020
536 Snow -1 1013 86 400 21 120 06:44 15.01.2020
537 Snow -1 1013 86 400 21 120 06:18 15.01.2020
538 Clouds -1 1016 92 750 15 110 04:34 15.01.2020
539 Clouds -2 1020 86 2900 13 110 02:30 15.01.2020
540 Clouds -2 1022 86 7000 10 110 01:25 15.01.2020
541 Clouds -3 1022 92 5000 9 110 00:45 15.01.2020
542 Clouds -2 1023 86 5000 10 110 00:26 15.01.2020
543 Clouds -2 1023 86 2000 12 120 23:48 14.01.2020
544 Clouds -2 1022 86 3600 11 120 23:29 14.01.2020
545 Clouds -3 1023 92 7000 11 110 22:59 14.01.2020
546 Clouds -3 1024 86 10000 10 120 22:40 14.01.2020
547 Clouds -2 1024 86 10000 10 120 22:19 14.01.2020
548 Clouds -1 1024 80 10000 10 120 21:58 14.01.2020
549 Clouds -2 1024 79 10000 10 130 21:39 14.01.2020
550 Clouds -2 1024 79 10000 10 130 21:20 14.01.2020
551 Clouds -3 1024 86 10000 10 120 20:57 14.01.2020
552 Clouds -3 1024 86 0 8.94 120 20:39 14.01.2020
553 Clouds -3 1024 79 10000 11 120 20:19 14.01.2020
554 Clouds -2 1024 79 10000 11 120 19:55 14.01.2020
555 Clouds -2 1024 79 10000 11 120 19:37 14.01.2020
556 Clouds -2 1024 79 10000 11 120 19:18 14.01.2020
557 Clouds -1 1025 74 0 7.6 120 18:41 14.01.2020
558 Clouds -2 1026 74 10000 10 140 18:20 14.01.2020
559 Clouds -2 1026 74 10000 10 140 17:59 14.01.2020
560 Clouds -2 1026 74 10000 10 140 17:37 14.01.2020
561 Clouds -2 1026 74 10000 10 140 17:18 14.01.2020
562 Clouds -3 1026 73 10000 10 100 16:55 14.01.2020
563 Clouds -3 1026 73 10000 10 100 16:37 14.01.2020
564 Clouds -3 1026 73 10000 10 100 16:18 14.01.2020
565 Clouds -2 1026 68 10000 6 140 15:42 14.01.2020
566 Clouds -2 1026 68 10000 6 140 15:19 14.01.2020
567 Clouds -2 1026 63 10000 7 140 14:47 14.01.2020
568 Clouds -2 1026 63 10000 7 140 14:23 14.01.2020
569 Clouds -3 1027 68 10000 6 170 13:59 14.01.2020
570 Clouds -3 1027 68 10000 6 170 13:40 14.01.2020
571 Clouds -3 1027 68 10000 6 170 13:19 14.01.2020
572 Clouds -3 1027 68 10000 6 170 13:19 14.01.2020
573 Clouds -5 1026 67 10000 4 170 12:42 14.01.2020
574 Clouds -5 1026 67 10000 4 170 12:23 14.01.2020
575 Clouds -6 1026 73 10000 2 140 11:57 14.01.2020
576 Clouds -6 1026 73 10000 2 140 11:38 14.01.2020
577 Clouds -6 1026 73 10000 2 140 11:20 14.01.2020
578 Clouds -6 1026 62 10000 4 170 10:55 14.01.2020
579 Clouds -6 1026 62 10000 4 170 10:36 14.01.2020
580 Clouds -6 1026 62 10000 4 170 10:18 14.01.2020
581 Clouds -6 1026 62 10000 4 170 10:18 14.01.2020
582 Clouds -7 1026 67 10000 3 170 09:42 14.01.2020
583 Clouds -7 1026 67 10000 3 170 09:21 14.01.2020
584 Clouds -8 1025 67 10000 5 170 08:57 14.01.2020
585 Clouds -8 1025 67 10000 5 170 08:39 14.01.2020
586 Clouds -8 1025 67 10000 5 170 08:20 14.01.2020
587 Clouds -9 1025 66 10000 3 150 07:38 14.01.2020
588 Clouds -9 1025 66 10000 4 140 06:59 14.01.2020
589 Clouds -10 1024 66 10000 3 130 06:40 14.01.2020
590 Clouds -10 1024 66 10000 3 140 05:35 14.01.2020
591 Clear -10 1023 66 10000 2 130 04:23 14.01.2020
592 Clear -11 1023 66 10000 3 150 03:43 14.01.2020
593 Clear -11 1022 66 10000 3 140 02:26 14.01.2020
594 Clear -12 1022 66 10000 3 150 01:18 14.01.2020
595 Clear -13 1021 65 10000 2 130 00:39 14.01.2020
596 Clear -13 1021 65 10000 2 130 00:21 14.01.2020
597 Clear -13 1020 71 10000 3 140 23:38 13.01.2020
598 Clear -15 1020 71 10000 3 140 23:18 13.01.2020
599 Clouds -16 1020 84 10000 2 130 22:54 13.01.2020
600 Clear -16 1020 77 10000 2 100 22:36 13.01.2020
601 Clear -16 1020 77 10000 2 100 22:18 13.01.2020
602 Clear -17 1019 84 10000 3 100 21:54 13.01.2020
603 Clear -17 1019 84 10000 3 100 21:54 13.01.2020
604 Clear -17 1019 84 10000 3 100 21:54 13.01.2020
605 Clear -17 1019 77 10000 2 60 21:36 13.01.2020
606 Clear -17 1019 77 10000 2 60 21:18 13.01.2020
607 Clear -16 1018 77 10000 3 300 20:42 13.01.2020
608 Clear -16 1018 77 10000 3 300 20:22 13.01.2020
609 Clear -15 1017 77 10000 3 280 19:59 13.01.2020
610 Clear -15 1017 77 10000 3 280 19:40 13.01.2020
611 Clear -15 1017 77 10000 3 280 19:20 13.01.2020
612 Clear -14 1017 77 10000 5 240 18:58 13.01.2020
613 Clear -14 1017 77 10000 5 240 18:37 13.01.2020
614 Clear -14 1017 77 10000 5 240 18:19 13.01.2020
615 Clear -16 1016 84 10000 3 300 17:55 13.01.2020
616 Clear -16 1016 84 10000 3 300 17:36 13.01.2020
617 Clear -16 1016 84 10000 3 300 17:18 13.01.2020
618 Clear -15 1014 77 0 2.68 270 16:40 13.01.2020
619 Clear -15 1014 77 0 2.68 270 16:21 13.01.2020
620 Clear -14 1014 71 0 7.58 242 15:55 13.01.2020
621 Clear -14 1014 71 0 7.58 242 15:36 13.01.2020
622 Clear -14 1014 71 0 7.58 242 15:18 13.01.2020
623 Clear -14 1013 71 0 2.68 250 14:42 13.01.2020
624 Clear -14 1013 71 0 2.68 250 14:23 13.01.2020
625 Clouds -15 1012 84 0 8.25 244 13:57 13.01.2020
626 Clouds -15 1012 84 0 8.25 244 13:38 13.01.2020
627 Clouds -15 1012 84 0 8.39 245 13:20 13.01.2020
628 Clouds -14 1011 84 0 7.6 300 12:43 13.01.2020
629 Snow -14 1011 84 10000 2 290 12:23 13.01.2020
630 Snow -13 1011 84 10000 2 290 11:59 13.01.2020
631 Snow -13 1011 84 10000 2 290 11:39 13.01.2020
632 Snow -13 1011 84 10000 2 290 11:19 13.01.2020
633 Clouds -13 1009 84 9000 7 270 10:57 13.01.2020
634 Clouds -13 1009 84 9000 7 270 10:38 13.01.2020
635 Clouds -13 1009 84 9000 7 270 10:20 13.01.2020
636 Clouds -13 1008 84 3100 11 280 09:55 13.01.2020
637 Clouds -13 1008 84 3100 11 280 09:37 13.01.2020
638 Clouds -13 1008 84 3100 11 280 09:19 13.01.2020
639 Snow -13 1006 84 1300 14 280 08:39 13.01.2020
640 Snow -13 1006 84 1300 14 280 08:20 13.01.2020
641 Snow -12 1005 85 900 14 280 07:46 13.01.2020
642 Snow -12 1005 85 900 14 280 07:27 13.01.2020
643 Snow -12 1004 92 1200 15 280 06:39 13.01.2020
644 Snow -11 1004 92 1200 15 280 06:18 13.01.2020
645 Snow -11 1002 85 600 16 280 05:20 13.01.2020
646 Snow -10 999 92 450 17 280 03:47 13.01.2020
647 Snow -10 998 92 350 16 290 02:51 13.01.2020
648 Snow -8 997 92 350 16 290 02:31 13.01.2020
649 Snow -7 996 92 450 15 290 01:47 13.01.2020
650 Snow -4 994 92 1600 5 330 00:59 13.01.2020
651 Snow -4 994 92 3100 6 330 00:37 13.01.2020
652 Snow -4 994 92 3100 6 330 00:19 13.01.2020
653 Snow -4 992 92 10000 4 350 23:41 12.01.2020
654 Snow -4 992 92 10000 4 350 23:22 12.01.2020
655 Snow -4 991 92 10000 4 340 22:57 12.01.2020
656 Clouds -5 991 100 10000 4 340 22:39 12.01.2020
657 Clouds -5 991 100 10000 4 340 22:20 12.01.2020
658 Snow -5 990 92 10000 3 20 21:54 12.01.2020
659 Snow -5 990 92 10000 3 20 21:54 12.01.2020
660 Snow -5 990 92 10000 3 20 21:54 12.01.2020
661 Snow -5 990 92 9000 1 340 21:36 12.01.2020
662 Snow -5 990 92 9000 1 340 21:36 12.01.2020
663 Snow -4 990 92 9000 1 340 21:18 12.01.2020
664 Snow -3 989 92 8000 3 10 20:54 12.01.2020
665 Snow -3 989 92 8000 3 10 20:36 12.01.2020
666 Snow -3 989 92 8000 3 10 20:18 12.01.2020
667 Snow -3 989 92 9000 4 10 19:54 12.01.2020
668 Snow -3 989 92 9000 4 10 19:54 12.01.2020
669 Snow -3 989 92 9000 4 10 19:36 12.01.2020
670 Snow -3 989 92 9000 4 10 19:18 12.01.2020
671 Snow -2 988 92 9000 4 30 18:54 12.01.2020
672 Snow -2 988 92 9000 4 30 18:36 12.01.2020
673 Snow -2 988 92 9000 4 30 18:18 12.01.2020
674 Snow -1 988 86 10000 6 40 17:42 12.01.2020
675 Snow -1 988 86 10000 6 40 17:21 12.01.2020
676 Snow -1 987 86 7000 10 90 16:57 12.01.2020
677 Snow -1 987 86 7000 10 90 16:38 12.01.2020
678 Snow -1 987 86 7000 10 90 16:20 12.01.2020
679 Snow -1 988 92 1900 9 90 15:55 12.01.2020
680 Snow -1 988 92 1900 9 90 15:36 12.01.2020
681 Snow -1 988 92 1900 9 90 15:18 12.01.2020
682 Snow -1 988 92 4600 9 90 14:42 12.01.2020
683 Snow -1 988 92 4600 9 90 14:22 12.01.2020
684 Snow -1 988 92 1800 12 90 13:56 12.01.2020
685 Snow -1 988 92 1800 12 90 13:38 12.01.2020
686 Snow -1 988 92 1800 12 90 13:20 12.01.2020
687 Snow -1 988 92 1800 12 90 13:20 12.01.2020
688 Snow -1 987 92 1100 11 100 12:44 12.01.2020
689 Snow -1 987 92 1100 11 100 12:21 12.01.2020
690 Snow -1 987 92 1100 13 100 11:59 12.01.2020
691 Snow -1 987 92 1100 13 100 11:40 12.01.2020
692 Snow -1 987 92 1100 13 100 11:21 12.01.2020
693 Snow -1 987 92 1100 14 110 10:56 12.01.2020
694 Snow -1 987 92 1100 14 110 10:37 12.01.2020
695 Snow -1 987 92 1100 14 110 10:18 12.01.2020
696 Snow -1 988 92 1600 11 100 09:41 12.01.2020
697 Snow -1 988 92 1600 11 100 09:21 12.01.2020
698 Clouds -1 988 92 4800 11 100 08:47 12.01.2020
699 Clouds -1 988 92 4800 11 100 08:21 12.01.2020
700 Clouds -1 988 92 1800 14 110 07:46 12.01.2020
701 Clouds -1 988 92 1800 14 110 07:25 12.01.2020
702 Clouds -1 988 92 1100 16 120 06:50 12.01.2020
703 Clouds -1 988 92 1100 16 120 06:32 12.01.2020
704 Clouds -1 988 92 1200 16 130 05:49 12.01.2020
705 Clouds -1 988 92 3100 14 120 04:53 12.01.2020
706 Snow -1 988 92 1100 14 100 03:33 12.01.2020
707 Clouds -2 988 92 3700 14 100 02:43 12.01.2020
708 Clouds -2 988 92 3700 14 100 02:22 12.01.2020
709 Clouds -2 989 92 4000 13 110 01:30 12.01.2020
710 Clouds -3 989 92 1800 15 110 00:45 12.01.2020
711 Clouds -3 989 92 1800 15 110 00:22 12.01.2020
712 Clouds -4 989 85 1300 15 110 23:56 11.01.2020
713 Clouds -4 989 85 1300 15 110 23:37 11.01.2020
714 Clouds -4 989 85 1300 15 110 23:18 11.01.2020
715 Clouds -5 988 85 2300 14 110 22:56 11.01.2020
716 Clouds -5 988 85 2300 14 110 22:37 11.01.2020
717 Clouds -5 988 85 2300 14 110 22:18 11.01.2020
718 Clouds -5 988 85 1100 15 100 21:43 11.01.2020
719 Clouds -5 988 85 1100 15 100 21:19 11.01.2020
720 Clouds -6 988 85 350 18 100 20:55 11.01.2020
721 Clouds -6 988 85 350 18 100 20:37 11.01.2020
722 Clouds -6 988 85 350 18 100 20:18 11.01.2020
723 Clouds -7 988 92 200 21 90 19:55 11.01.2020
724 Clouds -7 988 92 200 21 90 19:36 11.01.2020
725 Clouds -7 988 92 200 21 90 19:18 11.01.2020
726 Clouds -7 987 85 150 20 90 18:54 11.01.2020
727 Clouds -7 987 85 150 20 90 18:36 11.01.2020
728 Clouds -7 987 85 150 20 90 18:18 11.01.2020
729 Clouds -8 988 92 350 21 100 17:54 11.01.2020
730 Clouds -8 988 92 350 21 100 17:36 11.01.2020
731 Clouds -8 988 92 350 21 100 17:18 11.01.2020
732 Clouds -8 990 85 400 22 100 16:41 11.01.2020
733 Clouds -8 990 85 400 22 100 16:22 11.01.2020
734 Clouds -8 990 85 400 22 100 16:22 11.01.2020
735 Clouds -8 987 85 100 23 100 15:42 11.01.2020
736 Clouds -8 987 85 100 23 100 15:24 11.01.2020
737 Clouds -8 989 85 100 25 90 14:58 11.01.2020
738 Clouds -8 989 85 100 25 90 14:40 11.01.2020
739 Clouds -8 989 85 100 25 90 14:22 11.01.2020
740 Clouds -8 989 85 100 26 90 13:55 11.01.2020
741 Clouds -8 989 85 100 26 90 13:37 11.01.2020
742 Clouds -8 989 85 100 26 90 13:18 11.01.2020
743 Clouds -8 989 85 50 25 90 12:42 11.01.2020
744 Clouds -8 989 85 50 25 90 12:24 11.01.2020
745 Snow -6 989 85 150 23 90 11:54 11.01.2020
746 Snow -6 989 85 150 23 90 11:36 11.01.2020
747 Snow -6 989 85 150 23 90 11:18 11.01.2020
748 Snow -6 989 85 150 23 90 11:18 11.01.2020
749 Snow -5 990 85 800 17 80 10:42 11.01.2020
750 Snow -5 990 85 800 17 80 10:42 11.01.2020
751 Snow -5 990 85 800 17 80 10:23 11.01.2020
752 Snow -6 991 85 650 17 90 09:39 11.01.2020
753 Snow -6 991 85 650 17 90 09:21 11.01.2020
754 Snow -6 991 85 650 17 90 09:21 11.01.2020
755 Snow -7 992 85 400 18 90 08:43 11.01.2020
756 Snow -7 992 85 400 18 90 08:23 11.01.2020
757 Snow -7 993 79 650 16 90 07:45 11.01.2020
758 Snow -7 993 79 650 16 90 07:26 11.01.2020
759 Snow -8 994 85 800 16 90 06:55 11.01.2020
760 Snow -8 994 85 800 16 90 06:22 11.01.2020
761 Snow -8 995 85 150 21 100 04:48 11.01.2020
762 Snow -8 995 85 150 21 100 04:30 11.01.2020
763 Snow -9 995 85 150 22 100 03:49 11.01.2020
764 Snow -9 996 85 250 20 90 02:41 11.01.2020
765 Snow -9 997 85 300 19 90 01:44 11.01.2020
766 Snow -9 997 85 300 19 90 01:20 11.01.2020
767 Snow -9 998 85 400 19 90 00:46 11.01.2020
768 Snow -9 998 85 400 19 90 00:20 11.01.2020
769 Snow -10 999 85 750 19 80 23:41 10.01.2020
770 Snow -10 999 85 750 19 80 23:22 10.01.2020
771 Snow -10 1000 85 600 19 90 22:59 10.01.2020
772 Snow -10 1000 85 600 19 90 22:40 10.01.2020
773 Snow -10 1000 85 600 19 90 22:21 10.01.2020
774 Snow -9 1000 78 400 22 90 21:58 10.01.2020
775 Snow -9 1000 78 400 22 90 21:39 10.01.2020
776 Snow -9 1000 78 400 22 90 21:19 10.01.2020
777 Snow -10 1000 85 300 23 90 20:55 10.01.2020
778 Snow -10 1000 85 300 23 90 20:37 10.01.2020
779 Snow -10 1000 85 300 23 90 20:18 10.01.2020
780 Snow -10 1001 85 300 21 90 19:39 10.01.2020
781 Snow -10 1001 85 300 21 90 19:20 10.01.2020
782 Clouds -10 1000 85 150 23 90 18:54 10.01.2020
783 Clouds -10 1000 85 150 23 90 18:36 10.01.2020
784 Clouds -10 1000 85 150 23 90 18:18 10.01.2020
785 Clouds -11 1001 85 150 22 90 17:55 10.01.2020
786 Clouds -11 1001 85 150 22 90 17:37 10.01.2020
787 Clouds -11 1001 85 150 22 90 17:18 10.01.2020
788 Clouds -11 1002 85 200 16 90 16:41 10.01.2020
789 Clouds -11 1002 85 200 16 90 16:21 10.01.2020
790 Snow -11 1004 85 2500 8 30 15:56 10.01.2020
791 Snow -11 1004 85 2500 8 30 15:37 10.01.2020
792 Snow -11 1004 85 2500 8 30 15:19 10.01.2020
793 Snow -11 1005 85 4500 11 30 14:56 10.01.2020
794 Snow -11 1005 85 4500 11 30 14:38 10.01.2020
795 Snow -11 1005 85 4500 11 30 14:19 10.01.2020
796 Snow -10 1006 78 9000 12 50 13:45 10.01.2020
797 Snow -10 1006 78 9000 12 50 13:27 10.01.2020
798 Snow -10 1007 78 8000 13 70 12:59 10.01.2020
799 Snow -10 1007 78 8000 13 70 12:40 10.01.2020
800 Snow -10 1007 78 8000 13 70 12:21 10.01.2020
801 Snow -11 1006 78 1000 19 90 11:57 10.01.2020
802 Snow -11 1006 78 1000 19 90 11:39 10.01.2020
803 Snow -11 1006 78 1000 19 90 11:19 10.01.2020
804 Snow -11 1006 78 650 19 90 10:58 10.01.2020
805 Snow -11 1006 78 650 19 90 10:38 10.01.2020
806 Snow -11 1006 78 650 19 90 10:18 10.01.2020
807 Snow -11 1006 72 1200 11 90 09:45 10.01.2020
808 Snow -11 1006 72 1200 11 90 09:26 10.01.2020
809 Snow -11 1008 72 9000 10 40 08:56 10.01.2020
810 Snow -11 1008 72 9000 10 40 08:37 10.01.2020
811 Snow -11 1008 72 9000 10 40 08:37 10.01.2020
812 Snow -11 1008 72 9000 10 40 08:18 10.01.2020
813 Clouds -11 1008 66 10000 10 70 07:41 10.01.2020
814 Clouds -11 1008 66 10000 10 70 07:19 10.01.2020
815 Clouds -11 1010 61 10000 5 20 06:37 10.01.2020
816 Clouds -11 1010 61 10000 5 20 06:19 10.01.2020
817 Clouds -12 1010 72 10000 6 50 05:19 10.01.2020
818 Clouds -12 1009 72 10000 3 180 03:31 10.01.2020
819 Clouds -12 1009 72 10000 3 180 03:31 10.01.2020
820 Clouds -12 1009 66 5000 13 90 02:52 10.01.2020
821 Clouds -12 1009 60 6000 14 90 02:19 10.01.2020
822 Clouds -11 1011 51 10000 7 50 01:30 10.01.2020
823 Clouds -13 1011 60 10000 4 50 00:49 10.01.2020
824 Clouds -14 1011 65 10000 6 30 00:31 10.01.2020
825 Clouds -15 1012 71 10000 8 20 23:55 09.01.2020
826 Clouds -15 1012 65 10000 8 20 23:36 09.01.2020
827 Clouds -14 1012 65 10000 8 20 23:18 09.01.2020
828 Clouds -14 1012 65 10000 9 30 22:54 09.01.2020
829 Clouds -14 1012 65 10000 10 20 22:36 09.01.2020
830 Clouds -14 1012 65 10000 10 20 22:18 09.01.2020
831 Clouds -12 1012 60 10000 7 30 21:54 09.01.2020
832 Clouds -12 1012 60 10000 8 20 21:36 09.01.2020
833 Clouds -12 1012 60 10000 8 20 21:18 09.01.2020
834 Clouds -12 1012 60 10000 8 20 21:18 09.01.2020
835 Clouds -12 1012 60 10000 6 20 20:54 09.01.2020
836 Clouds -12 1012 60 10000 6 20 20:36 09.01.2020
837 Clouds -12 1012 60 10000 6 20 20:18 09.01.2020
838 Clouds -12 1012 51 10000 3 40 19:39 09.01.2020
839 Clouds -12 1012 51 10000 3 40 19:20 09.01.2020
840 Clouds -12 1012 51 10000 6 50 18:56 09.01.2020
841 Clouds -12 1012 51 10000 6 50 18:38 09.01.2020
842 Clouds -12 1012 51 10000 6 50 18:20 09.01.2020
843 Clouds -12 1013 51 10000 6 50 17:41 09.01.2020
844 Clouds -12 1013 51 10000 6 50 17:19 09.01.2020
845 Clouds -12 1014 51 10000 5 50 16:56 09.01.2020
846 Clouds -12 1014 51 10000 5 50 16:38 09.01.2020
847 Clouds -12 1014 51 10000 5 50 16:20 09.01.2020
848 Clouds -13 1014 55 10000 7 60 15:43 09.01.2020
849 Clouds -13 1014 55 10000 7 60 15:22 09.01.2020
850 Clouds -14 1015 65 10000 10 80 14:57 09.01.2020
851 Clouds -14 1015 65 10000 10 80 14:38 09.01.2020
852 Clouds -14 1015 65 10000 10 80 14:18 09.01.2020
853 Clouds -13 1015 60 10000 12 80 13:55 09.01.2020
854 Clouds -13 1015 60 10000 12 80 13:37 09.01.2020
855 Clouds -13 1015 60 10000 12 80 13:18 09.01.2020
856 Clouds -14 1016 65 10000 7 70 12:42 09.01.2020
857 Clouds -14 1016 65 10000 7 70 12:24 09.01.2020
858 Clouds -13 1017 65 10000 2 330 11:59 09.01.2020
859 Clouds -13 1017 65 10000 2 330 11:41 09.01.2020
860 Clouds -13 1017 65 10000 2 330 11:23 09.01.2020
861 Clouds -13 1017 65 10000 3 10 10:56 09.01.2020
862 Clouds -13 1017 65 10000 3 10 10:37 09.01.2020
863 Clouds -13 1017 65 10000 3 10 10:19 09.01.2020
864 Clouds -14 1017 77 10000 3 70 09:41 09.01.2020
865 Clouds -14 1017 77 10000 3 70 09:41 09.01.2020
866 Clouds -14 1017 77 10000 3 70 09:23 09.01.2020
867 Clouds -14 1018 77 10000 3 360 08:56 09.01.2020
868 Clouds -14 1018 77 10000 3 360 08:38 09.01.2020
869 Clouds -14 1018 77 10000 3 360 08:19 09.01.2020
870 Clouds -14 1018 77 10000 5 60 07:45 09.01.2020
871 Clouds -14 1018 77 10000 5 60 07:27 09.01.2020
872 Clouds -14 1019 77 10000 8 70 06:39 09.01.2020
873 Clouds -14 1019 77 10000 6 80 06:21 09.01.2020
874 Clouds -14 1019 77 10000 5 50 05:50 09.01.2020
875 Clouds -14 1019 77 10000 3 40 04:46 09.01.2020
876 Clouds -13 1020 78 10000 2 110 03:55 09.01.2020
877 Clouds -14 1020 77 10000 8 80 03:26 09.01.2020
878 Clouds -13 1020 84 10000 8 90 02:31 09.01.2020
879 Clouds -13 1020 78 10000 9 80 01:41 09.01.2020
880 Clouds -13 1021 84 10000 6 100 00:44 09.01.2020
881 Clouds -13 1021 84 10000 8 90 00:23 09.01.2020
882 Clouds -13 1021 84 10000 9 90 23:58 08.01.2020
883 Clouds -13 1021 84 10000 7 100 23:38 08.01.2020
884 Clouds -13 1021 84 10000 7 100 23:19 08.01.2020
885 Clouds -13 1020 84 10000 7 90 22:40 08.01.2020
886 Clouds -13 1020 84 10000 7 90 22:40 08.01.2020
887 Snow -13 1021 84 6000 9 100 22:21 08.01.2020
888 Snow -12 1021 85 2100 10 110 21:58 08.01.2020
889 Snow -12 1021 85 2100 10 110 21:40 08.01.2020
890 Snow -12 1021 85 2100 10 110 21:20 08.01.2020
891 Snow -12 1021 85 8000 8 100 20:59 08.01.2020
892 Snow -12 1021 85 8000 8 100 20:40 08.01.2020
893 Snow -12 1021 85 8000 8 100 20:20 08.01.2020
894 Clouds -15 1021 84 10000 1 10 19:57 08.01.2020
895 Clouds -15 1021 84 10000 1 10 19:38 08.01.2020
896 Clouds -15 1021 84 10000 1 10 19:19 08.01.2020
897 Clouds -19 1021 84 10000 3.73 355 18:57 08.01.2020
898 Clouds -19 1021 84 10000 3.73 355 18:38 08.01.2020
899 Clouds -19 1021 84 10000 3.73 355 18:18 08.01.2020
900 Clouds -24 1022 76 10000 1 340 17:56 08.01.2020
901 Clouds -24 1022 76 10000 1 340 17:37 08.01.2020
902 Clouds -24 1022 76 10000 1 340 17:18 08.01.2020
903 Clouds -24 1022 76 10000 1 340 17:18 08.01.2020
904 Clouds -22 1021 83 10000 1 290 16:55 08.01.2020
905 Clouds -22 1021 83 10000 1 290 16:37 08.01.2020
906 Clouds -22 1021 83 10000 1 290 16:18 08.01.2020
907 Mist -23 1022 83 9000 2 320 15:42 08.01.2020
908 Mist -23 1022 83 9000 2 320 15:21 08.01.2020
909 Mist -23 1022 83 10000 1 270 14:57 08.01.2020
910 Mist -23 1022 83 10000 1 270 14:39 08.01.2020
911 Mist -23 1022 83 10000 1 270 14:20 08.01.2020
912 Mist -22 1022 76 4600 2 320 13:40 08.01.2020
913 Mist -22 1022 76 4600 2 320 13:19 08.01.2020
914 Mist -21 1021 83 5000 1 270 12:43 08.01.2020
915 Mist -21 1021 83 5000 1 270 12:20 08.01.2020
916 Clouds -19 1022 77 10000 2 300 11:59 08.01.2020
917 Clouds -19 1022 77 10000 2 300 11:40 08.01.2020
918 Clouds -19 1022 77 10000 2 300 11:19 08.01.2020
919 Clouds -19 1022 77 10000 2 300 11:19 08.01.2020
920 Snow -16 1021 77 10000 4 140 10:55 08.01.2020
921 Snow -16 1021 77 10000 4 140 10:37 08.01.2020
922 Snow -16 1021 77 10000 4 140 10:37 08.01.2020
923 Snow -16 1021 77 10000 4 140 10:37 08.01.2020
924 Snow -16 1021 77 10000 4 140 10:18 08.01.2020
925 Mist -18 1021 84 4600 1 220 09:41 08.01.2020
926 Mist -18 1021 84 4600 1 220 09:19 08.01.2020
927 Clouds -22 1021 83 10000 2 300 08:57 08.01.2020
928 Clouds -22 1021 83 10000 2 300 08:37 08.01.2020
929 Clouds -22 1021 83 10000 2 300 08:19 08.01.2020
930 Snow -22 1021 76 10000 1 290 07:48 08.01.2020
931 Snow -22 1021 76 10000 1 290 07:29 08.01.2020
932 Snow -23 1020 83 10000 3 320 06:45 08.01.2020
933 Snow -23 1020 83 10000 3 320 06:22 08.01.2020
934 Clouds -23 1020 76 10000 3 330 05:41 08.01.2020
935 Clouds -23 1020 76 10000 4 320 04:56 08.01.2020
936 Clouds -23 1020 76 10000 4 320 04:24 08.01.2020
937 Clouds -23 1020 83 10000 5 110 02:45 08.01.2020
938 Clouds -23 1020 83 10000 5 110 02:22 08.01.2020
939 Clouds -17 1020 84 10000 2 150 01:48 08.01.2020
940 Clouds -17 1020 84 10000 2 150 01:19 08.01.2020
941 Clouds -24 1020 76 10000 2 350 00:28 08.01.2020
942 Snow -21 1020 83 10000 4 110 23:57 07.01.2020
943 Snow -21 1020 83 10000 4 110 23:39 07.01.2020
944 Snow -21 1020 83 10000 4 110 23:20 07.01.2020
945 Snow -21 1020 83 10000 4 110 23:20 07.01.2020
946 Snow -24 1020 83 10000 3 10 22:40 07.01.2020
947 Snow -24 1020 83 10000 3 10 22:20 07.01.2020
948 Snow -20 1020 76 10000 4 20 21:56 07.01.2020
949 Snow -20 1020 76 10000 4 20 21:38 07.01.2020
950 Snow -20 1020 76 10000 4 20 21:20 07.01.2020
951 Snow -22 1020 76 10000 3 10 20:55 07.01.2020
952 Snow -22 1020 76 10000 3 10 20:36 07.01.2020
953 Snow -22 1020 76 10000 3 10 20:36 07.01.2020
954 Snow -22 1020 76 10000 3 10 20:18 07.01.2020
955 Snow -27 1020 75 10000 2 350 19:38 07.01.2020
956 Snow -27 1020 75 10000 2 350 19:19 07.01.2020
957 Snow -27 1020 82 10000 5 100 18:58 07.01.2020
958 Snow -27 1020 82 10000 5 100 18:58 07.01.2020
959 Snow -27 1020 82 10000 5 100 18:40 07.01.2020
960 Snow -27 1020 82 10000 5 100 18:19 07.01.2020
961 Snow -25 1020 75 10000 4 120 17:58 07.01.2020
962 Snow -25 1020 75 10000 4 120 17:39 07.01.2020
963 Snow -25 1020 75 10000 4 120 17:20 07.01.2020
964 Snow -30 1021 74 10000 1 290 16:56 07.01.2020
965 Snow -30 1021 74 10000 1 290 16:37 07.01.2020
966 Snow -30 1021 74 10000 1 290 16:37 07.01.2020
967 Snow -30 1021 74 10000 1 290 16:19 07.01.2020
968 Snow -28 1021 75 10000 3 10 15:57 07.01.2020
969 Snow -28 1021 75 10000 3 10 15:38 07.01.2020
970 Snow -28 1021 75 10000 3 10 15:19 07.01.2020
971 Clouds -30 1021 74 10000 1 80 14:42 07.01.2020
972 Clouds -30 1021 74 10000 1 80 14:24 07.01.2020
973 Clear -31 1022 74 10000 3 60 13:57 07.01.2020
974 Clear -31 1022 74 10000 3 60 13:39 07.01.2020
975 Clear -31 1022 74 10000 3 60 13:18 07.01.2020
976 Clear -30 1022 74 10000 1 70 12:41 07.01.2020
977 Clear -30 1022 74 10000 1 70 12:19 07.01.2020
978 Clear -30 1022 67 10000 1 70 11:45 07.01.2020
979 Clear -30 1022 67 10000 1 70 11:23 07.01.2020
980 Clouds -30 1022 74 10000 2 110 10:59 07.01.2020
981 Clouds -30 1022 74 10000 2 110 10:41 07.01.2020
982 Clouds -30 1022 74 10000 2 110 10:23 07.01.2020
983 Clear -31 1022 74 10000 3 90 09:56 07.01.2020
984 Clear -31 1022 74 10000 3 90 09:38 07.01.2020
985 Clear -31 1022 74 10000 3 90 09:19 07.01.2020
986 Clear -31 1022 74 10000 2 60 08:42 07.01.2020
987 Clear -31 1022 74 10000 2 60 08:22 07.01.2020
988 Clear -30 1023 74 10000 3 80 07:54 07.01.2020
989 Clear -30 1023 74 10000 3 80 07:27 07.01.2020
990 Clear -30 1023 74 10000 2 20 06:53 07.01.2020
991 Clear -30 1023 74 10000 2 20 06:32 07.01.2020
992 Clear -30 1023 74 10000 3 20 05:49 07.01.2020
993 Clear -32 1024 74 10000 2 10 04:33 07.01.2020
994 Clear -31 1023 74 10000 2 40 03:26 07.01.2020
995 Clear -30 1024 67 10000 3 20 02:21 07.01.2020
996 Clear -30 1024 74 10000 4 10 01:51 07.01.2020
997 Clear -31 1024 67 10000 2 20 01:26 07.01.2020
998 Clear -32 1024 67 10000 3 20 00:37 07.01.2020
999 Clear -32 1024 67 10000 3 20 00:18 07.01.2020
1000 Clear -34 1025 73 10000 3 20 23:39 06.01.2020
1001 Clear -34 1025 73 10000 3 20 23:39 06.01.2020
1002 Clear -33 1025 67 10000 2 350 23:21 06.01.2020
1003 Clear -34 1025 73 10000 2 350 22:58 06.01.2020
1004 Clear -34 1025 73 10000 2 350 22:38 06.01.2020
1005 Clear -34 1025 73 10000 2 350 22:20 06.01.2020
1006 Clear -34 1025 73 10000 2 360 21:56 06.01.2020
1007 Clear -34 1025 73 10000 2 360 21:37 06.01.2020
1008 Clear -34 1025 73 10000 2 360 21:19 06.01.2020
1009 Clear -35 1025 73 10000 2 350 20:56 06.01.2020
1010 Clear -35 1025 73 10000 2 350 20:37 06.01.2020
1011 Clear -35 1025 73 10000 2 350 20:19 06.01.2020
1012 Clear -35 1025 66 10000 2 10 19:55 06.01.2020
1013 Clear -35 1025 66 10000 2 10 19:37 06.01.2020
1014 Clear -35 1025 66 10000 2 10 19:18 06.01.2020
1015 Clear -36 1025 73 10000 4 340 18:44 06.01.2020
1016 Clear -36 1025 73 10000 4 340 18:21 06.01.2020
1017 Clear -35 1025 73 10000 3 340 17:40 06.01.2020
1018 Clear -35 1025 73 10000 3 340 17:20 06.01.2020
1019 Clear -35 1025 73 10000 3 350 16:58 06.01.2020
1020 Clear -35 1025 73 10000 3 350 16:40 06.01.2020
1021 Clear -35 1025 73 10000 3 350 16:22 06.01.2020
1022 Clear -35 1025 66 10000 3 330 15:59 06.01.2020
1023 Clear -35 1025 66 10000 3 330 15:37 06.01.2020
1024 Clear -35 1025 66 10000 3 330 15:18 06.01.2020
1025 Clear -36 1025 73 10000 4 360 14:41 06.01.2020
1026 Clear -36 1025 73 10000 4 360 14:22 06.01.2020
1027 Clear -36 1026 73 10000 4 340 13:59 06.01.2020
1028 Clear -36 1026 73 10000 4 340 13:39 06.01.2020
1029 Clear -36 1026 73 10000 4 340 13:21 06.01.2020
1030 Clear -35 1025 66 10000 3 330 12:55 06.01.2020
1031 Clear -35 1025 66 10000 3 330 12:37 06.01.2020
1032 Clear -35 1025 66 10000 3 330 12:37 06.01.2020
1033 Clear -35 1025 66 10000 3 330 12:18 06.01.2020
1034 Clear -35 1025 73 10000 3 340 11:42 06.01.2020
1035 Clear -35 1025 73 10000 3 340 11:24 06.01.2020
1036 Clear -35 1025 73 10000 4 330 10:59 06.01.2020
1037 Clear -35 1025 73 10000 4 330 10:40 06.01.2020
1038 Clear -35 1025 73 10000 4 330 10:20 06.01.2020
1039 Clear -35 1025 73 10000 2 350 09:39 06.01.2020
1040 Clear -35 1025 73 10000 2 350 09:21 06.01.2020
1041 Clear -35 1025 73 10000 2 10 08:52 06.01.2020
1042 Clear -35 1025 73 10000 2 10 08:34 06.01.2020
1043 Clear -34 1025 73 10000 2 20 07:57 06.01.2020
1044 Clear -34 1025 73 10000 2 20 07:37 06.01.2020
1045 Clear -34 1025 73 10000 3 360 06:49 06.01.2020
1046 Fog -33 1025 67 10000 3 10 06:30 06.01.2020
1047 Fog -35 1025 73 10000 3 350 05:48 06.01.2020
1048 Fog -34 1025 66 10000 3 10 04:55 06.01.2020
1049 Fog -34 1025 66 10000 3 360 04:21 06.01.2020
1050 Fog -34 1025 66 10000 3 20 03:25 06.01.2020
1051 Fog -33 1024 74 10000 4 360 02:25 06.01.2020
1052 Fog -33 1025 74 10000 3 360 01:46 06.01.2020
1053 Fog -33 1025 74 10000 3 360 01:28 06.01.2020
1054 Fog -33 1025 74 10000 4 330 00:44 06.01.2020
1055 Fog -33 1025 74 10000 4 330 00:44 06.01.2020
1056 Fog -33 1025 74 10000 4 330 00:24 06.01.2020
1057 Fog -34 1024 73 10000 5 350 23:43 05.01.2020
1058 Fog -34 1024 73 10000 5 350 23:23 05.01.2020
1059 Clouds -34 1025 66 10000 5 350 22:58 05.01.2020
1060 Clouds -34 1025 66 10000 5 350 22:39 05.01.2020
1061 Clouds -34 1025 66 10000 5 350 22:20 05.01.2020
1062 Clouds -34 1024 73 10000 2 10 21:56 05.01.2020
1063 Clouds -34 1024 73 10000 2 10 21:37 05.01.2020
1064 Clouds -34 1024 73 10000 2 10 21:37 05.01.2020
1065 Clouds -34 1024 73 10000 2 10 21:19 05.01.2020
1066 Clear -34 1024 66 10000 4 330 20:56 05.01.2020
1067 Clear -34 1024 66 10000 4 330 20:37 05.01.2020
1068 Clear -34 1024 66 10000 4 330 20:19 05.01.2020
1069 Clear -34 1024 66 10000 5 340 19:56 05.01.2020
1070 Clear -34 1024 66 10000 5 340 19:37 05.01.2020
1071 Clear -34 1024 66 10000 5 340 19:19 05.01.2020
1072 Clear -34 1024 66 10000 5 340 18:55 05.01.2020
1073 Clear -34 1024 66 10000 5 340 18:36 05.01.2020
1074 Clear -34 1024 66 10000 5 340 18:18 05.01.2020
1075 Clear -35 1025 73 10000 5 340 17:57 05.01.2020
1076 Clear -35 1025 73 10000 5 340 17:37 05.01.2020
1077 Clear -35 1025 73 10000 5 340 17:18 05.01.2020
1078 Clear -34 1024 66 10000 3 340 16:55 05.01.2020
1079 Clear -34 1024 66 10000 3 340 16:36 05.01.2020
1080 Clear -34 1024 66 10000 3 340 16:18 05.01.2020
1081 Clear -35 1024 66 10000 4 350 15:37 05.01.2020
1082 Clear -35 1024 66 10000 4 350 15:36 05.01.2020
1083 Clear -35 1024 66 10000 4 350 15:36 05.01.2020
1084 Clear -35 1024 66 10000 4 350 15:18 05.01.2020
1085 Clear -35 1024 73 10000 6 340 14:54 05.01.2020
1086 Clear -35 1024 73 10000 6 340 14:36 05.01.2020
1087 Clear -35 1024 73 10000 6 340 14:18 05.01.2020
1088 Clear -34 1024 73 10000 6 340 13:40 05.01.2020
1089 Clear -34 1024 73 10000 6 340 13:21 05.01.2020
1090 Clear -35 1024 73 10000 4 350 12:58 05.01.2020
1091 Clear -35 1024 73 10000 4 350 12:39 05.01.2020
1092 Clear -35 1024 73 10000 4 350 12:21 05.01.2020
1093 Clear -36 1024 66 10000 5 350 11:55 05.01.2020
1094 Clear -36 1024 66 10000 5 350 11:37 05.01.2020
1095 Clear -36 1024 66 10000 5 350 11:19 05.01.2020
1096 Clear -36 1024 73 10000 5 320 10:56 05.01.2020
1097 Clear -36 1024 73 10000 5 320 10:36 05.01.2020
1098 Clear -36 1024 73 10000 5 320 10:36 05.01.2020
1099 Clear -36 1024 73 10000 5 320 10:18 05.01.2020
1100 Clear -36 1024 66 10000 5 330 09:41 05.01.2020
1101 Clear -36 1024 66 10000 5 330 09:21 05.01.2020
1102 Clear -36 1024 73 10000 5 350 08:46 05.01.2020
1103 Clear -36 1024 73 10000 5 350 08:27 05.01.2020
1104 Clear -35 1024 73 10000 6 330 07:55 05.01.2020
1105 Clear -35 1024 73 10000 6 330 07:35 05.01.2020
1106 Clear -35 1025 66 10000 5 340 06:59 05.01.2020
1107 Fog -35 1025 66 10000 6 350 05:58 05.01.2020
1108 Fog -35 1025 66 10000 6 350 05:30 05.01.2020
1109 Fog -35 1025 66 10000 6 350 05:30 05.01.2020
1110 Fog -34 1024 66 10000 3 350 04:34 05.01.2020
1111 Clear -35 1024 73 10000 2 320 03:47 05.01.2020
1112 Clear -35 1024 66 10000 6 350 02:45 05.01.2020
1113 Clear -35 1025 73 10000 7 330 02:20 05.01.2020
1114 Clear -34 1024 66 10000 6 350 01:40 05.01.2020
1115 Clear -35 1024 73 10000 4 310 01:18 05.01.2020
1116 Clear -34 1024 66 10000 4 340 00:41 05.01.2020
1117 Clear -35 1024 73 10000 4 340 00:22 05.01.2020
1118 Clear -35 1025 66 10000 2 350 23:59 04.01.2020
1119 Clear -35 1025 66 10000 2 350 23:39 04.01.2020
1120 Clear -36 1025 66 10000 5 350 23:19 04.01.2020
1121 Clear -36 1026 66 10000 6 350 22:39 04.01.2020
1122 Clear -35 1025 66 10000 2 360 22:21 04.01.2020
1123 Clear -35 1025 66 10000 4 340 21:57 04.01.2020
1124 Clear -35 1025 66 10000 4 340 21:38 04.01.2020
1125 Clear -35 1025 66 10000 5 340 21:19 04.01.2020
1126 Clear -35 1025 66 10000 5 330 20:57 04.01.2020
1127 Clear -35 1025 66 10000 5 330 20:38 04.01.2020
1128 Clear -35 1025 66 10000 5 330 20:20 04.01.2020
1129 Clear -35 1026 66 10000 4 10 19:42 04.01.2020
1130 Clear -35 1026 66 10000 4 10 19:42 04.01.2020
1131 Clear -35 1026 66 10000 4 10 19:24 04.01.2020
1132 Clear -36 1026 66 10000 3 360 18:59 04.01.2020
1133 Clear -36 1026 66 10000 3 360 18:40 04.01.2020
1134 Clear -36 1026 66 10000 3 360 18:22 04.01.2020
1135 Clear -36 1025 66 10000 2 360 17:59 04.01.2020
1136 Clear -36 1025 66 10000 2 360 17:40 04.01.2020
1137 Clear -36 1025 66 10000 2 360 17:22 04.01.2020
1138 Clear -35 1025 66 10000 5 330 16:54 04.01.2020
1139 Clear -35 1025 66 10000 5 330 16:36 04.01.2020
1140 Clear -35 1025 66 10000 5 330 16:18 04.01.2020
1141 Clear -35 1025 66 10000 4 330 15:42 04.01.2020
1142 Clear -35 1025 66 10000 4 330 15:42 04.01.2020
1143 Clear -35 1025 66 10000 4 330 15:20 04.01.2020
1144 Clear -36 1025 73 10000 3 10 14:58 04.01.2020
1145 Clear -36 1025 73 10000 3 10 14:40 04.01.2020
1146 Clear -36 1025 73 10000 3 10 14:20 04.01.2020
1147 Clear -36 1026 66 10000 4 20 13:56 04.01.2020
1148 Clear -36 1026 66 10000 4 20 13:37 04.01.2020
1149 Clear -36 1026 66 10000 4 20 13:37 04.01.2020
1150 Clear -36 1026 66 10000 4 20 13:19 04.01.2020
1151 Clear -36 1026 66 10000 5 330 12:42 04.01.2020
1152 Clear -36 1026 66 10000 5 330 12:20 04.01.2020
1153 Clear -36 1025 66 10000 3 330 11:59 04.01.2020
1154 Clear -36 1025 66 10000 3 330 11:40 04.01.2020
1155 Clear -36 1025 66 10000 3 330 11:40 04.01.2020
1156 Clear -36 1025 66 10000 3 330 11:20 04.01.2020
1157 Clear -36 1026 66 8000 5 340 10:59 04.01.2020
1158 Clear -36 1026 66 8000 5 340 10:38 04.01.2020
1159 Clear -36 1026 66 8000 5 340 10:19 04.01.2020
1160 Clear -36 1026 73 9000 5 330 09:43 04.01.2020
1161 Clear -36 1026 73 9000 5 330 09:25 04.01.2020
1162 Clear -35 1026 66 10000 3 340 08:47 04.01.2020
1163 Clear -35 1026 66 10000 3 340 08:28 04.01.2020
1164 Fog -36 1026 73 10000 4 330 07:51 04.01.2020
1165 Fog -36 1026 73 10000 4 330 07:33 04.01.2020
1166 Fog -36 1026 66 10000 4 330 06:43 04.01.2020
1167 Clear -36 1026 73 7000 2 350 05:52 04.01.2020
1168 Clear -35 1026 66 10000 3 350 04:48 04.01.2020
1169 Clear -35 1026 66 10000 3 350 04:28 04.01.2020
1170 Clear -35 1026 66 10000 2 330 03:20 04.01.2020
1171 Fog -35 1027 66 10000 6 350 02:38 04.01.2020
1172 Fog -35 1027 66 10000 6 350 02:18 04.01.2020
1173 Fog -36 1027 73 10000 7 330 01:37 04.01.2020
1174 Fog -36 1027 73 10000 7 330 01:18 04.01.2020
1175 Fog -35 1027 73 10000 6 340 00:29 04.01.2020
1176 Fog -36 1028 73 10000 6 350 23:57 03.01.2020
1177 Fog -36 1028 73 10000 6 350 23:29 03.01.2020
1178 Clear -36 1028 66 10000 5 350 22:57 03.01.2020
1179 Clear -36 1028 66 10000 5 350 22:57 03.01.2020
1180 Clear -36 1028 66 10000 5 350 22:39 03.01.2020
1181 Clear -36 1028 66 10000 5 350 22:18 03.01.2020
1182 Clear -36 1028 73 10000 6 350 21:57 03.01.2020
1183 Clear -36 1028 73 10000 6 350 21:37 03.01.2020
1184 Clear -36 1028 73 10000 6 350 21:18 03.01.2020
1185 Clear -35 1028 66 6000 7 320 20:54 03.01.2020
1186 Clear -35 1028 66 6000 7 320 20:54 03.01.2020
1187 Clear -35 1028 66 6000 7 320 20:36 03.01.2020
1188 Clear -35 1028 66 6000 7 320 20:18 03.01.2020
1189 Clear -36 1029 73 10000 5 330 19:42 03.01.2020
1190 Clear -36 1029 73 10000 5 330 19:23 03.01.2020
1191 Clear -35 1029 66 10000 6 350 18:54 03.01.2020
1192 Clear -35 1029 66 10000 6 350 18:36 03.01.2020
1193 Clear -35 1029 66 10000 6 350 18:18 03.01.2020
1194 Clear -34 1030 66 10000 5 340 17:41 03.01.2020
1195 Clear -34 1030 66 10000 5 340 17:21 03.01.2020
1196 Clear -35 1030 73 10000 5 340 16:58 03.01.2020
1197 Clear -35 1030 73 10000 5 340 16:39 03.01.2020
1198 Clear -35 1030 73 10000 5 340 16:20 03.01.2020
1199 Clear -35 1030 73 10000 5 330 15:41 03.01.2020
1200 Clear -35 1030 73 10000 5 330 15:19 03.01.2020
1201 Clear -35 1030 66 10000 1 300 14:40 03.01.2020
1202 Clear -35 1030 66 10000 1 300 14:40 03.01.2020
1203 Clear -35 1030 66 10000 1 300 14:20 03.01.2020
1204 Mist -36 1031 73 8000 3 290 13:59 03.01.2020
1205 Mist -36 1031 73 8000 3 290 13:40 03.01.2020
1206 Mist -36 1031 73 8000 3 290 13:21 03.01.2020
1207 Clear -36 1032 66 8000 3 310 12:41 03.01.2020
1208 Clear -36 1032 66 8000 3 310 12:22 03.01.2020
1209 Clear -36 1032 73 10000 5 330 11:54 03.01.2020
1210 Clear -36 1032 73 10000 5 330 11:35 03.01.2020
1211 Clear -36 1033 73 10000 5 340 10:58 03.01.2020
1212 Clear -36 1033 73 10000 5 340 10:39 03.01.2020
1213 Clear -36 1033 73 10000 5 340 10:21 03.01.2020
1214 Clear -36 1033 66 10000 4 10 09:55 03.01.2020
1215 Clear -36 1033 66 10000 4 10 09:37 03.01.2020
1216 Clear -36 1033 66 10000 4 10 09:19 03.01.2020
1217 Mist -36 1034 73 10000 3 350 08:45 03.01.2020
1218 Mist -36 1034 73 10000 3 350 08:23 03.01.2020
1219 Clear -36 1034 66 10000 3 330 07:56 03.01.2020
1220 Clear -36 1034 66 10000 3 330 07:37 03.01.2020
1221 Clear -36 1034 66 10000 3 330 07:18 03.01.2020
1222 Mist -37 1034 73 6000 4 340 06:42 03.01.2020
1223 Mist -37 1034 73 6000 4 340 06:22 03.01.2020
1224 Mist -37 1034 73 4500 5 320 04:59 03.01.2020
1225 Clear -36 1034 66 6000 6 340 03:42 03.01.2020
1226 Clouds -36 1035 73 8000 4 360 02:53 03.01.2020
1227 Clouds -36 1036 73 6000 4 360 01:51 03.01.2020
1228 Mist -36 1035 73 2700 7 330 01:33 03.01.2020
1229 Mist -35 1035 66 10000 5 340 00:43 03.01.2020
1230 Fog -35 1035 73 10000 6 360 00:24 03.01.2020
1231 Clear -36 1036 66 8000 7 10 23:39 02.01.2020
1232 Clear -36 1036 66 8000 7 10 23:20 02.01.2020
1233 Clear -36 1036 73 9000 7 340 22:59 02.01.2020
1234 Clear -36 1036 73 9000 7 340 22:41 02.01.2020
1235 Clear -36 1036 73 9000 7 340 22:20 02.01.2020
1236 Mist -35 1036 73 5000 7 350 21:57 02.01.2020
1237 Mist -35 1036 73 5000 7 350 21:38 02.01.2020
1238 Mist -35 1036 73 5000 7 350 21:19 02.01.2020
1239 Mist -36 1037 73 5000 6 360 20:56 02.01.2020
1240 Mist -36 1037 73 5000 6 360 20:37 02.01.2020
1241 Mist -36 1037 73 5000 6 360 20:19 02.01.2020
1242 Mist -37 1037 65 3300 7 340 19:54 02.01.2020
1243 Mist -37 1037 65 3300 7 340 19:54 02.01.2020
1244 Mist -37 1037 65 3300 7 340 19:36 02.01.2020
1245 Mist -37 1037 65 3300 7 340 19:18 02.01.2020
1246 Fog -34 1037 73 10000 5 360 18:43 02.01.2020
1247 Fog -34 1037 73 10000 5 360 18:25 02.01.2020
1248 Mist -34 1037 66 5000 5 20 17:58 02.01.2020
1249 Mist -34 1037 66 5000 5 20 17:39 02.01.2020
1250 Mist -34 1037 66 5000 5 20 17:20 02.01.2020
1251 Clouds -35 1037 73 7000 4 330 16:58 02.01.2020
1252 Clouds -35 1037 73 7000 4 330 16:58 02.01.2020
1253 Clouds -35 1037 73 7000 4 330 16:40 02.01.2020
1254 Clouds -35 1037 73 7000 4 330 16:20 02.01.2020
1255 Mist -36 1037 66 2100 9 330 15:58 02.01.2020
1256 Mist -36 1037 66 2100 9 330 15:58 02.01.2020
1257 Mist -36 1037 66 2100 9 330 15:40 02.01.2020
1258 Mist -35 1037 73 5000 6 330 15:21 02.01.2020
1259 Mist -35 1037 73 5000 6 330 14:57 02.01.2020
1260 Mist -35 1037 73 5000 6 330 14:36 02.01.2020
1261 Mist -35 1037 73 5000 6 330 14:36 02.01.2020
1262 Mist -35 1037 73 5000 6 330 14:18 02.01.2020
1263 Mist -36 1037 73 4700 8 350 13:49 02.01.2020
1264 Mist -36 1037 73 4700 8 350 13:31 02.01.2020
1265 Fog -35 1037 73 10000 5 360 12:46 02.01.2020
1266 Fog -35 1038 66 10000 5 340 12:26 02.01.2020
1267 Fog -35 1038 66 10000 5 340 11:59 02.01.2020
1268 Fog -35 1038 66 10000 5 340 11:40 02.01.2020
1269 Fog -35 1038 66 10000 5 340 11:20 02.01.2020
1270 Clear -36 1038 73 9000 6 20 10:44 02.01.2020
1271 Clear -36 1038 73 9000 6 20 10:26 02.01.2020
1272 Fog -36 1037 73 10000 7 340 09:51 02.01.2020
1273 Fog -36 1037 73 10000 7 340 09:33 02.01.2020
1274 Fog -34 1037 73 10000 4 360 08:47 02.01.2020
1275 Fog -34 1037 73 10000 4 360 08:27 02.01.2020
1276 Fog -35 1037 66 10000 3 10 07:54 02.01.2020
1277 Fog -35 1037 66 10000 3 10 07:30 02.01.2020
1278 Clear -36 1037 73 9000 6 340 06:55 02.01.2020
1279 Clear -36 1037 73 9000 6 340 06:36 02.01.2020
1280 Fog -35 1036 66 10000 6 360 05:35 02.01.2020
1281 Fog -35 1036 73 10000 5 350 04:33 02.01.2020
1282 Fog -33 1036 67 10000 5 360 02:54 02.01.2020
1283 Fog -32 1035 67 10000 5 40 01:59 02.01.2020
1284 Fog -32 1035 67 10000 5 40 01:39 02.01.2020
1285 Fog -35 1035 73 10000 4 360 00:59 02.01.2020
1286 Fog -35 1035 73 10000 4 360 00:34 02.01.2020
1287 Fog -34 1035 66 10000 6 10 23:56 01.01.2020
1288 Fog -34 1035 66 10000 6 10 23:37 01.01.2020
1289 Fog -34 1035 66 10000 6 10 23:18 01.01.2020
1290 Fog -33 1034 67 10000 5 360 22:38 01.01.2020
1291 Fog -33 1034 67 10000 5 360 22:19 01.01.2020
1292 Fog -33 1033 74 10000 6 360 21:56 01.01.2020
1293 Fog -33 1033 74 10000 6 360 21:38 01.01.2020
1294 Fog -33 1033 74 10000 6 360 21:19 01.01.2020
1295 Fog -33 1033 74 10000 6 360 21:19 01.01.2020
1296 Clear -32 1033 74 10000 5 350 20:55 01.01.2020
1297 Clear -32 1033 74 10000 5 350 20:37 01.01.2020
1298 Clear -32 1033 74 10000 5 350 20:19 01.01.2020
1299 Clear -32 1033 74 10000 5 350 20:19 01.01.2020
1300 Clear -31 1032 74 10000 6 350 19:55 01.01.2020
1301 Clear -31 1032 74 10000 6 350 19:37 01.01.2020
1302 Clear -31 1032 74 10000 6 350 19:19 01.01.2020
1303 Clear -32 1032 74 10000 5 10 18:55 01.01.2020
1304 Clear -32 1032 74 10000 5 10 18:36 01.01.2020
1305 Clear -32 1032 74 10000 5 10 18:18 01.01.2020
1306 Clear -32 1032 74 10000 6 20 17:56 01.01.2020
1307 Clear -32 1032 74 10000 6 20 17:56 01.01.2020
1308 Clear -32 1032 74 10000 6 20 17:37 01.01.2020
1309 Clear -32 1032 74 10000 6 20 17:18 01.01.2020
1310 Fog -32 1031 74 10000 5 10 16:40 01.01.2020
1311 Fog -32 1031 74 10000 5 10 16:40 01.01.2020
1312 Fog -32 1031 74 10000 5 10 16:21 01.01.2020
1313 Fog -32 1031 74 10000 5 10 15:57 01.01.2020
1314 Fog -32 1031 74 10000 5 10 15:39 01.01.2020
1315 Fog -32 1031 74 10000 5 10 15:20 01.01.2020
1316 Fog -33 1031 67 10000 4 20 14:58 01.01.2020
1317 Fog -33 1031 67 10000 4 20 14:58 01.01.2020
1318 Fog -33 1031 67 10000 4 20 14:40 01.01.2020
1319 Fog -33 1031 67 10000 4 20 14:21 01.01.2020
1320 Fog -33 1031 67 10000 4 20 14:21 01.01.2020
1321 Fog -32 1031 67 10000 4 360 13:56 01.01.2020
1322 Fog -32 1031 67 10000 4 360 13:37 01.01.2020
1323 Fog -32 1031 67 10000 4 360 13:37 01.01.2020
1324 Fog -32 1031 67 10000 4 360 13:37 01.01.2020
1325 Fog -32 1031 67 10000 4 360 13:37 01.01.2020
1326 Fog -32 1031 67 10000 4 360 13:18 01.01.2020
1327 Fog -32 1030 74 10000 7 10 12:55 01.01.2020
1328 Fog -32 1030 74 10000 7 10 12:37 01.01.2020
1329 Fog -32 1030 74 10000 7 10 12:18 01.01.2020
1330 Fog -33 1030 74 10000 4 20 11:43 01.01.2020
1331 Fog -33 1030 74 10000 4 20 11:22 01.01.2020
1332 Fog -32 1029 74 10000 7 10 10:59 01.01.2020
1333 Fog -32 1029 74 10000 7 10 10:40 01.01.2020
1334 Fog -32 1029 74 10000 7 10 10:20 01.01.2020
1335 Fog -32 1029 74 10000 5 360 09:56 01.01.2020
1336 Fog -32 1029 74 10000 5 360 09:37 01.01.2020
1337 Fog -32 1029 74 10000 5 360 09:18 01.01.2020
1338 Clouds -32 1029 74 9000 6 350 08:55 01.01.2020
1339 Clouds -32 1029 74 9000 6 350 08:36 01.01.2020
1340 Clouds -32 1029 74 9000 6 350 08:36 01.01.2020
1341 Clouds -32 1029 74 9000 6 350 08:36 01.01.2020
1342 Clouds -32 1029 74 9000 6 350 08:18 01.01.2020
1343 Mist -30 1028 74 2200 5 330 07:48 01.01.2020
1344 Mist -30 1028 74 2200 5 330 07:30 01.01.2020
1345 Mist -30 1028 74 2700 6 340 06:44 01.01.2020
1346 Mist -30 1028 74 2700 6 340 06:20 01.01.2020
1347 Mist -30 1027 74 2500 6 340 05:21 01.01.2020
1348 Mist -31 1027 74 3400 4 350 03:43 01.01.2020
1349 Mist -31 1027 74 3400 4 350 03:22 01.01.2020
1350 Mist -31 1027 74 3400 4 350 03:22 01.01.2020
1351 Mist -31 1027 67 3400 4 360 02:56 01.01.2020
1352 Mist -31 1027 67 3400 4 360 02:33 01.01.2020
1353 Fog -33 1027 74 10000 3 10 01:45 01.01.2020
1354 Fog -33 1027 74 10000 3 10 01:25 01.01.2020
1355 Fog -33 1027 74 10000 2 340 00:57 01.01.2020
1356 Fog -33 1027 74 10000 2 340 00:38 01.01.2020
1357 Fog -33 1027 74 10000 2 340 00:20 01.01.2020
1358 Fog -33 1026 74 10000 4 10 23:40 31.12.2019
1359 Fog -33 1026 74 10000 4 10 23:21 31.12.2019
1360 Fog -33 1026 74 10000 2 20 22:57 31.12.2019
1361 Fog -33 1026 74 10000 2 20 22:38 31.12.2019
1362 Fog -33 1026 74 10000 2 20 22:19 31.12.2019
1363 Clear -35 1025 66 10000 4 360 21:57 31.12.2019
1364 Clear -35 1025 66 10000 4 360 21:37 31.12.2019
1365 Clear -35 1025 66 10000 4 360 21:19 31.12.2019
1366 Clear -35 1025 66 10000 4 360 21:19 31.12.2019
1367 Clear -36 1025 73 10000 4 30 20:54 31.12.2019
1368 Clear -36 1025 73 10000 4 30 20:36 31.12.2019
1369 Clear -36 1025 73 10000 4 30 20:18 31.12.2019
1370 Clear -36 1025 73 10000 3 10 19:41 31.12.2019
1371 Clear -36 1025 73 10000 3 10 19:22 31.12.2019
1372 Clear -35 1024 66 10000 4 20 18:59 31.12.2019
1373 Clear -35 1024 66 10000 4 20 18:40 31.12.2019
1374 Clear -35 1024 66 10000 4 20 18:20 31.12.2019
1375 Clear -35 1023 66 10000 4 30 17:57 31.12.2019
1376 Clear -35 1023 66 10000 4 30 17:38 31.12.2019
1377 Clear -35 1023 66 10000 4 30 17:19 31.12.2019
1378 Fog -36 1023 73 10000 3 20 16:57 31.12.2019
1379 Fog -36 1023 73 10000 3 20 16:38 31.12.2019
1380 Fog -36 1023 73 10000 3 20 16:19 31.12.2019
1381 Fog -34 1022 73 10000 6 10 15:57 31.12.2019
1382 Fog -34 1022 73 10000 6 10 15:39 31.12.2019
1383 Fog -34 1022 73 10000 6 10 15:21 31.12.2019
1384 Fog -34 1022 73 10000 5 10 14:58 31.12.2019
1385 Fog -34 1022 73 10000 5 10 14:39 31.12.2019
1386 Fog -34 1022 73 10000 5 10 14:19 31.12.2019
1387 Fog -34 1021 66 10000 6 10 13:58 31.12.2019
1388 Fog -34 1021 66 10000 6 10 13:40 31.12.2019
1389 Fog -34 1021 66 10000 6 10 13:21 31.12.2019
1390 Fog -36 1021 66 10000 4 20 12:58 31.12.2019
1391 Fog -36 1021 66 10000 4 20 12:40 31.12.2019
1392 Fog -36 1021 66 10000 4 20 12:20 31.12.2019
1393 Fog -36 1021 73 10000 3 30 11:56 31.12.2019
1394 Fog -36 1021 73 10000 3 30 11:38 31.12.2019
1395 Fog -36 1021 73 10000 3 30 11:20 31.12.2019
1396 Fog -35 1020 73 10000 4 10 10:58 31.12.2019
1397 Fog -35 1020 73 10000 4 10 10:38 31.12.2019
1398 Fog -35 1020 73 10000 4 10 10:20 31.12.2019
1399 Fog -35 1020 73 10000 4 10 09:59 31.12.2019
1400 Fog -35 1020 73 10000 4 10 09:39 31.12.2019
1401 Fog -35 1020 73 10000 4 10 09:39 31.12.2019
1402 Fog -35 1020 73 10000 4 10 09:21 31.12.2019
1403 Fog -36 1019 66 10000 3 10 08:57 31.12.2019
1404 Fog -36 1019 66 10000 3 10 08:39 31.12.2019
1405 Fog -36 1019 66 10000 3 10 08:19 31.12.2019
1406 Clouds -35 1019 73 9000 4 360 07:43 31.12.2019
1407 Clouds -35 1019 73 9000 4 360 07:21 31.12.2019
1408 Fog -36 1019 73 10000 5 360 06:50 31.12.2019
1409 Fog -34 1019 73 10000 4 360 05:58 31.12.2019
1410 Fog -36 1019 73 10000 4 10 04:30 31.12.2019
1411 Fog -35 1019 73 10000 3 10 03:38 31.12.2019
1412 Fog -34 1019 73 10000 2 30 02:55 31.12.2019
1413 Fog -31 1019 74 10000 3 20 02:19 31.12.2019
1414 Fog -32 1019 67 10000 4 360 01:48 31.12.2019
1415 Fog -34 1019 73 10000 4 340 01:27 31.12.2019
1416 Fog -33 1019 74 10000 3 350 00:46 31.12.2019
1417 Fog -33 1019 74 10000 4 20 00:22 31.12.2019
1418 Fog -32 1019 74 10000 4 360 23:56 30.12.2019
1419 Fog -32 1019 67 10000 4 360 23:38 30.12.2019
1420 Fog -32 1019 67 10000 4 360 23:20 30.12.2019
1421 Fog -32 1019 74 10000 4 360 22:58 30.12.2019
1422 Fog -32 1019 74 10000 4 360 22:39 30.12.2019
1423 Fog -32 1019 67 10000 5 10 22:20 30.12.2019
1424 Fog -33 1019 67 10000 5 20 21:57 30.12.2019
1425 Fog -33 1019 67 10000 5 20 21:38 30.12.2019
1426 Fog -33 1019 67 10000 5 20 21:38 30.12.2019
1427 Fog -33 1019 67 10000 5 20 21:38 30.12.2019
1428 Fog -33 1019 74 10000 5 30 21:19 30.12.2019
1429 Fog -32 1019 74 10000 5 10 20:56 30.12.2019
1430 Fog -32 1019 74 10000 5 10 20:56 30.12.2019
1431 Fog -32 1019 74 10000 5 10 20:38 30.12.2019
1432 Fog -32 1019 74 10000 5 10 20:20 30.12.2019
1433 Clear -32 1019 74 10000 6 360 19:57 30.12.2019
1434 Clear -32 1019 74 10000 6 360 19:37 30.12.2019
1435 Clear -32 1019 74 10000 6 360 19:19 30.12.2019
1436 Fog -34 1019 73 10000 5 350 18:56 30.12.2019
1437 Fog -34 1019 73 10000 5 350 18:38 30.12.2019
1438 Fog -34 1019 73 10000 5 350 18:20 30.12.2019
1439 Fog -33 1019 74 10000 5 10 17:55 30.12.2019
1440 Fog -33 1019 74 10000 5 10 17:37 30.12.2019
1441 Fog -33 1019 74 10000 5 10 17:18 30.12.2019
1442 Fog -34 1018 73 10000 3 360 16:56 30.12.2019
1443 Fog -34 1018 73 10000 3 360 16:36 30.12.2019
1444 Fog -34 1018 73 10000 3 360 16:18 30.12.2019
1445 Fog -34 1018 73 10000 3 10 15:55 30.12.2019
1446 Fog -34 1018 73 10000 3 10 15:36 30.12.2019
1447 Fog -34 1018 73 10000 3 10 15:18 30.12.2019
1448 Fog -33 1018 74 10000 4 30 14:42 30.12.2019
1449 Fog -33 1018 74 10000 4 30 14:19 30.12.2019
1450 Fog -33 1018 74 10000 3 30 13:56 30.12.2019
1451 Fog -33 1018 74 10000 3 30 13:37 30.12.2019
1452 Fog -33 1018 74 10000 3 30 13:19 30.12.2019
1453 Clouds -35 1019 73 10000 3 30 12:43 30.12.2019
1454 Clouds -35 1019 73 10000 3 30 12:20 30.12.2019
1455 Snow -34 1018 73 10000 2 10 11:59 30.12.2019
1456 Snow -34 1018 73 10000 2 10 11:40 30.12.2019
1457 Snow -34 1018 73 10000 2 10 11:19 30.12.2019
1458 Snow -34 1018 73 10000 2 10 11:19 30.12.2019
1459 Fog -33 1018 67 10000 4 10 10:45 30.12.2019
1460 Fog -33 1018 67 10000 4 10 10:22 30.12.2019
1461 Fog -35 1018 73 10000 4 20 09:59 30.12.2019
1462 Fog -35 1018 73 10000 4 20 09:41 30.12.2019
1463 Fog -35 1018 73 10000 4 20 09:20 30.12.2019
1464 Fog -35 1018 73 10000 4 10 08:54 30.12.2019
1465 Fog -35 1018 73 10000 4 10 08:36 30.12.2019
1466 Fog -35 1018 73 10000 4 10 08:18 30.12.2019
1467 Fog -34 1018 73 10000 4 20 07:39 30.12.2019
1468 Fog -34 1018 66 10000 2 50 06:52 30.12.2019
1469 Mist -32 1017 74 4500 4 10 05:24 30.12.2019
1470 Mist -32 1017 74 2300 6 20 03:58 30.12.2019
1471 Mist -31 1017 67 4500 6 30 03:19 30.12.2019
1472 Mist -32 1017 74 3000 6 30 02:40 30.12.2019
1473 Clouds -31 1017 74 6000 5 20 01:55 30.12.2019
1474 Clouds -31 1017 74 9000 6 10 01:23 30.12.2019
1475 Fog -31 1018 74 10000 5 10 00:45 30.12.2019
1476 Fog -32 1018 74 10000 5 10 00:19 30.12.2019
1477 Fog -31 1019 67 10000 6 360 23:39 29.12.2019
1478 Fog -31 1019 67 10000 6 360 23:21 29.12.2019
1479 Fog -31 1019 67 10000 6 360 22:55 29.12.2019
1480 Fog -31 1019 74 10000 6 360 22:37 29.12.2019
1481 Fog -32 1019 74 10000 6 360 22:18 29.12.2019
1482 Fog -31 1019 67 10000 5 360 21:43 29.12.2019
1483 Fog -31 1019 74 10000 6 360 21:21 29.12.2019
1484 Fog -32 1019 67 10000 6 10 20:57 29.12.2019
1485 Fog -32 1019 67 10000 6 10 20:39 29.12.2019
1486 Fog -32 1019 67 10000 6 10 20:21 29.12.2019
1487 Fog -31 1020 74 10000 4 350 19:59 29.12.2019
1488 Fog -31 1020 74 10000 4 350 19:40 29.12.2019
1489 Fog -31 1020 74 10000 4 350 19:40 29.12.2019
1490 Fog -31 1020 74 10000 4 350 19:21 29.12.2019
1491 Fog -31 1021 67 10000 4 10 18:58 29.12.2019
1492 Fog -31 1021 67 10000 4 10 18:39 29.12.2019
1493 Fog -31 1021 67 10000 4 10 18:20 29.12.2019
1494 Fog -33 1021 74 10000 4 10 17:58 29.12.2019
1495 Fog -33 1021 74 10000 4 10 17:39 29.12.2019
1496 Fog -33 1021 74 10000 4 10 17:20 29.12.2019
1497 Fog -32 1022 74 10000 5 10 16:57 29.12.2019
1498 Fog -32 1022 74 10000 5 10 16:38 29.12.2019
1499 Fog -32 1022 74 10000 5 10 16:38 29.12.2019
1500 Fog -32 1022 74 10000 5 10 16:38 29.12.2019
1501 Fog -32 1022 74 10000 5 10 16:20 29.12.2019
1502 Fog -31 1022 74 10000 6 10 15:58 29.12.2019
1503 Fog -31 1022 74 10000 6 10 15:39 29.12.2019
1504 Fog -31 1022 74 10000 6 10 15:20 29.12.2019
1505 Fog -32 1023 74 10000 5 360 14:58 29.12.2019
1506 Fog -32 1023 74 10000 5 360 14:38 29.12.2019
1507 Fog -32 1023 74 10000 5 360 14:18 29.12.2019
1508 Clear -32 1024 74 9000 5 10 13:57 29.12.2019
1509 Clear -32 1024 74 9000 5 10 13:38 29.12.2019
1510 Clear -32 1024 74 9000 5 10 13:20 29.12.2019
1511 Fog -31 1025 74 10000 5 10 12:46 29.12.2019
1512 Fog -31 1025 74 10000 5 10 12:27 29.12.2019
1513 Fog -31 1026 74 10000 5 30 11:59 29.12.2019
1514 Fog -31 1026 74 10000 5 30 11:40 29.12.2019
1515 Fog -31 1026 74 10000 5 30 11:20 29.12.2019
1516 Fog -30 1026 67 10000 4 20 10:55 29.12.2019
1517 Fog -30 1026 67 10000 4 20 10:37 29.12.2019
1518 Fog -30 1026 67 10000 4 20 10:18 29.12.2019
1519 Fog -31 1027 74 10000 5 50 09:43 29.12.2019
1520 Fog -31 1027 74 10000 5 50 09:25 29.12.2019
1521 Fog -31 1028 67 10000 4 30 08:50 29.12.2019
1522 Fog -31 1028 67 10000 4 30 08:29 29.12.2019
1523 Fog -31 1029 74 10000 6 20 07:58 29.12.2019
1524 Fog -31 1029 74 10000 6 20 07:31 29.12.2019
1525 Fog -31 1029 74 10000 8 20 06:57 29.12.2019
1526 Fog -31 1029 74 10000 8 20 06:27 29.12.2019
1527 Clear -32 1030 74 9000 5 10 05:54 29.12.2019
1528 Fog -32 1030 74 10000 7 350 04:47 29.12.2019
1529 Fog -32 1030 74 10000 7 350 04:28 29.12.2019
1530 Fog -31 1031 74 10000 4 10 03:28 29.12.2019
1531 Fog -32 1031 74 10000 3 360 02:22 29.12.2019
1532 Fog -33 1032 67 10000 1 10 01:42 29.12.2019
1533 Fog -33 1032 67 10000 1 10 01:23 29.12.2019
1534 Fog -33 1032 74 10000 4 350 00:44 29.12.2019
1535 Fog -33 1032 74 10000 4 350 00:24 29.12.2019
1536 Fog -33 1032 67 10000 2 30 23:45 28.12.2019
1537 Fog -33 1032 67 10000 2 30 23:19 28.12.2019
1538 Fog -33 1032 67 10000 2 30 23:19 28.12.2019
1539 Clear -33 1032 74 10000 2 20 22:54 28.12.2019
1540 Clear -33 1032 74 10000 2 20 22:36 28.12.2019
1541 Clear -33 1032 74 10000 2 20 22:18 28.12.2019
1542 Clear -33 1032 74 10000 2 10 21:55 28.12.2019
1543 Clear -33 1032 74 10000 2 10 21:36 28.12.2019
1544 Clear -33 1032 74 10000 2 10 21:18 28.12.2019
1545 Clear -32 1032 74 10000 2 340 20:40 28.12.2019
1546 Clear -32 1032 74 10000 2 340 20:22 28.12.2019
1547 Clear -31 1033 67 10000 2 20 19:59 28.12.2019
1548 Clear -31 1033 67 10000 2 20 19:40 28.12.2019
1549 Clear -31 1033 67 10000 2 20 19:22 28.12.2019
1550 Clear -31 1033 74 10000 3 20 18:59 28.12.2019
1551 Clear -31 1033 74 10000 3 20 18:40 28.12.2019
1552 Clear -31 1033 74 10000 3 20 18:19 28.12.2019
1553 Clear -31 1033 74 10000 2 20 17:56 28.12.2019
1554 Clear -31 1033 74 10000 2 20 17:38 28.12.2019
1555 Clear -31 1033 74 10000 2 20 17:19 28.12.2019
1556 Clear -31 1034 74 10000 2 30 16:46 28.12.2019
1557 Clear -31 1034 74 10000 2 30 16:26 28.12.2019
1558 Clear -30 1034 74 10000 3 20 15:57 28.12.2019
1559 Clear -30 1034 74 10000 3 20 15:39 28.12.2019
1560 Clear -30 1034 74 10000 3 20 15:19 28.12.2019
1561 Clear -29 1034 68 10000 4 10 14:44 28.12.2019
1562 Clear -29 1034 68 10000 4 10 14:24 28.12.2019
1563 Clear -29 1034 68 10000 4 10 14:24 28.12.2019
1564 Clear -30 1034 74 10000 3 10 13:57 28.12.2019
1565 Clear -30 1034 74 10000 3 10 13:38 28.12.2019
1566 Clear -30 1034 74 10000 3 10 13:19 28.12.2019
1567 Clear -30 1034 74 10000 3 10 13:19 28.12.2019
1568 Clear -30 1034 67 10000 2 10 12:43 28.12.2019
1569 Clear -30 1034 67 10000 2 10 12:24 28.12.2019
1570 Clear -30 1034 67 10000 2 10 12:24 28.12.2019
1571 Clear -32 1034 74 10000 4 10 11:58 28.12.2019
1572 Clear -32 1034 74 10000 4 10 11:39 28.12.2019
1573 Clear -32 1034 74 10000 4 10 11:20 28.12.2019
1574 Clear -31 1035 74 10000 4 10 10:46 28.12.2019
1575 Clear -31 1035 74 10000 4 10 10:46 28.12.2019
1576 Clear -31 1035 74 10000 4 10 10:22 28.12.2019
1577 Clear -31 1035 74 10000 4 10 10:22 28.12.2019
1578 Clear -31 1035 74 10000 4 10 10:22 28.12.2019
1579 Clear -31 1035 74 10000 4 10 10:22 28.12.2019
1580 Clear -31 1035 74 10000 4 20 09:58 28.12.2019
1581 Clear -31 1035 74 10000 4 20 09:40 28.12.2019
1582 Clear -31 1035 74 10000 4 20 09:20 28.12.2019
1583 Clear -33 1035 74 10000 3 360 08:44 28.12.2019
1584 Clear -33 1035 74 10000 3 360 08:26 28.12.2019
1585 Clear -35 1036 73 10000 2 360 07:55 28.12.2019
1586 Clear -35 1036 73 10000 2 360 07:32 28.12.2019
1587 Clear -35 1035 66 8000 2 40 06:41 28.12.2019
1588 Fog -35 1035 73 10000 4 340 04:59 28.12.2019
1589 Clear -34 1036 66 9000 3 350 03:47 28.12.2019
1590 Mist -33 1036 67 5000 3 350 02:49 28.12.2019
1591 Clouds -34 1036 73 9000 4 330 01:59 28.12.2019
1592 Clouds -34 1036 73 9000 4 330 01:31 28.12.2019
1593 Clouds -35 1036 73 9000 3 340 00:58 28.12.2019
1594 Clouds -35 1036 73 9000 3 340 00:40 28.12.2019
1595 Clouds -35 1036 73 9000 3 340 00:20 28.12.2019
1596 Fog -35 1035 73 9000 4 350 23:44 27.12.2019
1597 Fog -35 1035 73 9000 4 350 23:20 27.12.2019
1598 Clouds -35 1035 73 9000 4 340 22:58 27.12.2019
1599 Clouds -35 1035 73 9000 4 340 22:39 27.12.2019
1600 Clouds -35 1035 73 9000 4 340 22:20 27.12.2019
1601 Mist -36 1035 73 4100 4 310 21:56 27.12.2019
1602 Mist -36 1035 73 4100 4 310 21:37 27.12.2019
1603 Mist -36 1035 73 4100 4 310 21:19 27.12.2019
1604 Clouds -36 1034 73 9000 3 330 20:42 27.12.2019
1605 Clouds -36 1034 73 9000 3 330 20:23 27.12.2019
1606 Mist -37 1034 73 4700 2 260 19:43 27.12.2019
1607 Mist -37 1034 73 4700 2 260 19:21 27.12.2019
1608 Mist -36 1034 66 2100 5 340 18:59 27.12.2019
1609 Mist -36 1034 66 2100 5 340 18:40 27.12.2019
1610 Mist -36 1034 66 2100 5 340 18:21 27.12.2019
1611 Mist -35 1034 66 2000 4 340 17:58 27.12.2019
1612 Mist -35 1034 66 2000 4 340 17:40 27.12.2019
1613 Mist -35 1034 66 2000 4 340 17:19 27.12.2019
1614 Mist -35 1033 66 1900 2 360 16:59 27.12.2019
1615 Mist -35 1033 66 1900 2 360 16:39 27.12.2019
1616 Mist -35 1033 66 1900 2 360 16:20 27.12.2019
1617 Mist -36 1033 73 1100 3 350 15:45 27.12.2019
1618 Mist -36 1033 73 1100 3 350 15:23 27.12.2019
1619 Clouds -36 1033 73 9000 1 360 14:58 27.12.2019
1620 Clouds -36 1033 73 9000 1 360 14:40 27.12.2019
1621 Clouds -36 1033 73 9000 1 360 14:21 27.12.2019
1622 Fog -37 1033 73 10000 2 10 13:57 27.12.2019
1623 Fog -37 1033 73 10000 2 10 13:39 27.12.2019
1624 Fog -37 1033 73 10000 2 10 13:21 27.12.2019
1625 Mist -36 1033 66 2800 1 10 12:44 27.12.2019
1626 Mist -36 1033 66 2800 1 10 12:24 27.12.2019
1627 Fog -36 1033 73 10000 2 340 11:46 27.12.2019
1628 Fog -36 1033 73 10000 2 340 11:27 27.12.2019
1629 Fog -34 1032 66 10000 2 340 10:59 27.12.2019
1630 Fog -34 1032 66 10000 2 340 10:41 27.12.2019
1631 Fog -34 1032 66 10000 2 340 10:23 27.12.2019
1632 Fog -35 1032 66 10000 1 30 09:49 27.12.2019
1633 Fog -35 1032 66 10000 1 30 09:22 27.12.2019
1634 Fog -35 1032 73 10000 2 340 08:59 27.12.2019
1635 Fog -35 1032 73 10000 2 340 08:40 27.12.2019
1636 Fog -35 1032 73 10000 2 340 08:18 27.12.2019
1637 Fog -33 1031 67 10000 3 10 07:38 27.12.2019
1638 Fog -33 1032 67 10000 2 360 06:43 27.12.2019
1639 Fog -33 1031 74 10000 2 20 06:22 27.12.2019
1640 Fog -34 1031 66 10000 3 350 04:33 27.12.2019
1641 Fog -33 1030 74 10000 2 350 02:28 27.12.2019
1642 Fog -33 1031 74 10000 2 30 01:42 27.12.2019
1643 Fog -33 1030 67 10000 1 30 01:20 27.12.2019
1644 Fog -34 1030 66 10000 2 40 00:46 27.12.2019
1645 Fog -33 1030 67 10000 3 20 00:25 27.12.2019
1646 Clear -34 1030 73 8000 3 10 23:54 26.12.2019
1647 Mist -34 1030 73 9000 2 350 23:36 26.12.2019
1648 Mist -34 1030 73 9000 2 350 23:18 26.12.2019
1649 Mist -33 1029 74 10000 1 10 22:38 26.12.2019
1650 Mist -33 1029 74 2800 2 340 22:18 26.12.2019
1651 Mist -35 1029 73 10000 3 340 21:40 26.12.2019
1652 Mist -34 1028 73 5000 3 320 21:21 26.12.2019
1653 Clear -33 1028 74 10000 4 350 20:57 26.12.2019
1654 Clear -33 1028 74 10000 4 350 20:38 26.12.2019
1655 Clear -33 1028 74 10000 4 350 20:19 26.12.2019
1656 Fog -32 1028 67 10000 2 360 19:55 26.12.2019
1657 Fog -32 1028 67 10000 2 360 19:37 26.12.2019
1658 Fog -32 1028 67 10000 2 360 19:19 26.12.2019
1659 Fog -33 1027 74 10000 3 40 18:55 26.12.2019
1660 Fog -33 1027 74 10000 3 40 18:36 26.12.2019
1661 Fog -33 1027 74 10000 3 40 18:18 26.12.2019
1662 Fog -32 1027 74 10000 2 30 17:41 26.12.2019
1663 Fog -32 1027 74 10000 2 30 17:21 26.12.2019
1664 Fog -32 1027 74 10000 2 30 17:21 26.12.2019
1665 Mist -32 1027 74 10000 5 360 16:49 26.12.2019
1666 Mist -32 1027 74 10000 5 360 16:26 26.12.2019
1667 Fog -31 1027 74 10000 2 360 15:57 26.12.2019
1668 Fog -31 1027 74 10000 2 360 15:38 26.12.2019
1669 Fog -31 1027 74 10000 2 360 15:19 26.12.2019
1670 Clear -30 1026 74 10000 5 10 14:41 26.12.2019
1671 Clear -30 1026 74 10000 5 10 14:23 26.12.2019
1672 Clouds -32 1026 74 10000 2 20 13:55 26.12.2019
1673 Clouds -32 1026 74 10000 2 20 13:36 26.12.2019
1674 Clouds -32 1026 74 10000 2 20 13:18 26.12.2019
1675 Clouds -33 1026 74 10000 2 20 12:45 26.12.2019
1676 Clouds -33 1026 74 10000 2 20 12:25 26.12.2019
1677 Fog -32 1025 74 10000 3 30 11:59 26.12.2019
1678 Fog -32 1025 74 10000 3 30 11:40 26.12.2019
1679 Fog -32 1025 74 10000 3 30 11:21 26.12.2019
1680 Fog -32 1024 74 10000 1 40 10:50 26.12.2019
1681 Fog -32 1024 74 10000 1 40 10:27 26.12.2019
1682 Fog -30 1024 74 10000 3 360 09:55 26.12.2019
1683 Fog -30 1024 74 10000 3 360 09:36 26.12.2019
1684 Fog -30 1024 74 10000 3 360 09:18 26.12.2019
1685 Fog -30 1023 74 10000 3 20 08:39 26.12.2019
1686 Fog -30 1023 74 10000 3 20 08:21 26.12.2019
1687 Fog -33 1023 74 10000 3 40 07:44 26.12.2019
1688 Fog -33 1023 74 10000 3 40 07:24 26.12.2019
1689 Fog -32 1023 74 10000 3 30 06:39 26.12.2019
1690 Fog -32 1022 74 10000 3 20 06:20 26.12.2019
1691 Fog -33 1022 74 10000 3 30 05:43 26.12.2019
1692 Fog -29 1021 74 10000 2 10 04:36 26.12.2019
1693 Fog -28 1021 82 10000 1 310 03:32 26.12.2019
1694 Clouds -28 1020 75 10000 1 40 02:47 26.12.2019
1695 Fog -29 1020 75 10000 1 100 02:29 26.12.2019
1696 Fog -29 1020 75 10000 2 40 01:44 26.12.2019
1697 Fog -29 1020 82 10000 1 50 01:25 26.12.2019
1698 Fog -31 1020 74 10000 1 50 00:44 26.12.2019
1699 Fog -27 1020 75 10000 1 10 00:23 26.12.2019
1700 Fog -27 1020 75 10000 2 340 23:58 25.12.2019
1701 Fog -27 1019 82 10000 2 340 23:37 25.12.2019
1702 Fog -27 1019 82 10000 2 340 23:19 25.12.2019
1703 Fog -27 1019 82 10000 2 340 23:19 25.12.2019
1704 Fog -26 1019 83 10000 3 360 22:57 25.12.2019
1705 Fog -25 1018 75 10000 4 360 22:37 25.12.2019
1706 Fog -25 1018 75 10000 4 360 22:19 25.12.2019
1707 Clouds -26 1018 83 10000 4 10 21:57 25.12.2019
1708 Clouds -26 1018 83 10000 4 10 21:39 25.12.2019
1709 Clouds -26 1018 75 10000 3 20 21:19 25.12.2019
1710 Clouds -30 1018 82 10000 4 20 20:41 25.12.2019
1711 Clouds -30 1018 82 10000 4 20 20:41 25.12.2019
1712 Clouds -30 1018 82 10000 4 20 20:21 25.12.2019
1713 Clouds -30 1017 74 10000 2 40 19:59 25.12.2019
1714 Clouds -30 1017 74 10000 2 40 19:41 25.12.2019
1715 Clouds -30 1017 74 10000 2 40 19:21 25.12.2019
1716 Clouds -28 1017 75 10000 3 340 18:40 25.12.2019
1717 Clouds -28 1017 75 10000 3 340 18:21 25.12.2019
1718 Clouds -28 1016 75 10000 2 360 17:58 25.12.2019
1719 Clouds -28 1016 75 10000 2 360 17:39 25.12.2019
1720 Clouds -28 1016 75 10000 2 360 17:18 25.12.2019
1721 Clouds -28 1016 75 10000 3 360 16:55 25.12.2019
1722 Clouds -28 1016 75 10000 3 360 16:55 25.12.2019
1723 Clouds -28 1016 75 10000 3 360 16:36 25.12.2019
1724 Clouds -28 1016 75 10000 3 360 16:18 25.12.2019
1725 Clouds -27 1016 75 10000 3 10 15:56 25.12.2019
1726 Clouds -27 1016 75 10000 3 10 15:37 25.12.2019
1727 Clouds -27 1016 75 10000 3 10 15:18 25.12.2019
1728 Clouds -27 1016 75 10000 4 360 14:54 25.12.2019
1729 Clouds -27 1016 75 10000 4 360 14:36 25.12.2019
1730 Clouds -27 1016 75 10000 4 360 14:18 25.12.2019
1731 Clouds -27 1016 75 10000 1 20 13:41 25.12.2019
1732 Clouds -27 1016 75 10000 1 20 13:20 25.12.2019
1733 Clouds -27 1015 82 10000 3 340 12:43 25.12.2019
1734 Clouds -27 1015 82 10000 3 340 12:22 25.12.2019
1735 Clouds -26 1015 83 10000 1 40 11:58 25.12.2019
1736 Clouds -26 1015 83 10000 1 40 11:58 25.12.2019
1737 Clouds -26 1015 83 10000 1 40 11:40 25.12.2019
1738 Clouds -26 1015 83 10000 1 40 11:20 25.12.2019
1739 Clouds -27 1015 75 10000 3 10 10:39 25.12.2019
1740 Clouds -27 1015 75 10000 3 10 10:21 25.12.2019
1741 Clouds -26 1015 83 10000 3 350 09:58 25.12.2019
1742 Clouds -26 1015 83 10000 3 350 09:40 25.12.2019
1743 Clouds -26 1015 83 10000 3 350 09:40 25.12.2019
1744 Clouds -26 1015 83 10000 3 350 09:21 25.12.2019
1745 Clouds -25 1015 75 10000 3 340 08:42 25.12.2019
1746 Clouds -25 1015 75 10000 3 340 08:23 25.12.2019
1747 Clouds -25 1015 75 10000 3 340 08:23 25.12.2019
1748 Clouds -25 1015 83 10000 3 340 07:43 25.12.2019
1749 Clouds -25 1015 83 10000 3 340 07:22 25.12.2019
1750 Clouds -22 1015 76 10000 3 10 06:24 25.12.2019
1751 Snow -22 1015 83 10000 2 20 05:50 25.12.2019
1752 Snow -21 1014 76 10000 2 20 04:44 25.12.2019
1753 Snow -19 1014 84 10000 1 30 04:24 25.12.2019
1754 Snow -19 1014 84 9000 3.39 327 03:44 25.12.2019
1755 Snow -19 1014 84 9000 3.39 327 03:44 25.12.2019
1756 Snow -19 1014 84 10000 1 30 02:59 25.12.2019
1757 Snow -20 1015 83 10000 1 30 02:30 25.12.2019
1758 Snow -20 1015 83 10000 1 30 01:53 25.12.2019
1759 Snow -19 1015 77 9000 1 360 01:22 25.12.2019
1760 Snow -19 1015 77 9000 1 30 00:42 25.12.2019
1761 Snow -18 1015 84 8000 2 10 00:23 25.12.2019
1762 Snow -18 1015 77 9000 1 10 23:40 24.12.2019
1763 Snow -18 1015 84 7000 3.34 320 23:20 24.12.2019
1764 Snow -18 1015 84 6000 1 360 22:55 24.12.2019
1765 Snow -18 1015 84 8000 1 50 22:37 24.12.2019
1766 Snow -18 1015 84 8000 1 50 22:19 24.12.2019
1767 Snow -18 1015 84 7000 1 60 21:41 24.12.2019
1768 Snow -19 1014 84 8000 1 20 21:22 24.12.2019
1769 Snow -19 1014 77 8000 1 20 20:43 24.12.2019
1770 Snow -19 1014 77 8000 1 20 20:24 24.12.2019
1771 Snow -20 1014 83 9000 2 350 19:57 24.12.2019
1772 Snow -20 1014 83 9000 2 350 19:37 24.12.2019
1773 Snow -20 1014 83 9000 2 350 19:18 24.12.2019
1774 Snow -20 1014 83 10000 1 360 18:42 24.12.2019
1775 Snow -20 1014 83 10000 1 360 18:19 24.12.2019
1776 Snow -20 1014 76 8000 1 10 17:45 24.12.2019
1777 Snow -20 1014 76 8000 1 10 17:23 24.12.2019
1778 Snow -21 1014 83 10000 1 330 16:59 24.12.2019
1779 Snow -21 1014 83 10000 1 330 16:59 24.12.2019
1780 Snow -21 1014 83 10000 1 330 16:40 24.12.2019
1781 Snow -21 1014 83 10000 1 330 16:22 24.12.2019
1782 Snow -21 1014 83 10000 2 10 15:58 24.12.2019
1783 Snow -21 1014 83 10000 2 10 15:58 24.12.2019
1784 Snow -21 1014 83 10000 2 10 15:38 24.12.2019
1785 Snow -21 1014 83 10000 2 10 15:20 24.12.2019
1786 Snow -20 1014 76 10000 3 360 14:59 24.12.2019
1787 Snow -20 1014 76 10000 3 360 14:40 24.12.2019
1788 Snow -20 1014 76 10000 3 360 14:22 24.12.2019
1789 Snow -21 1014 83 10000 3 360 13:57 24.12.2019
1790 Snow -21 1014 83 10000 3 360 13:39 24.12.2019
1791 Snow -21 1014 83 10000 3 360 13:20 24.12.2019
1792 Clouds -24 1014 83 10000 3 360 12:57 24.12.2019
1793 Clouds -24 1014 83 10000 3 360 12:38 24.12.2019
1794 Clouds -24 1014 83 10000 3 360 12:38 24.12.2019
1795 Clouds -24 1014 83 10000 3 360 12:19 24.12.2019
1796 Clear -24 1014 76 10000 2 10 11:58 24.12.2019
1797 Clear -24 1014 76 10000 2 10 11:38 24.12.2019
1798 Clear -24 1014 76 10000 2 10 11:38 24.12.2019
1799 Clear -24 1014 76 10000 2 10 11:20 24.12.2019
1800 Clear -25 1014 83 10000 3 40 10:57 24.12.2019
1801 Clear -25 1014 83 10000 3 40 10:38 24.12.2019
1802 Clear -25 1014 83 10000 3 40 10:20 24.12.2019
1803 Clear -23 1014 76 10000 2 40 09:58 24.12.2019
1804 Clear -23 1014 76 10000 2 40 09:40 24.12.2019
1805 Clear -23 1014 76 10000 2 40 09:21 24.12.2019
1806 Clear -25 1014 83 10000 2 10 08:47 24.12.2019
1807 Clear -25 1014 83 10000 2 10 08:25 24.12.2019
1808 Fog -26 1013 75 10000 2 10 07:59 24.12.2019
1809 Fog -26 1013 75 10000 2 10 07:39 24.12.2019
1810 Fog -26 1013 75 10000 2 10 07:21 24.12.2019
1811 Fog -25 1013 75 10000 2 20 06:40 24.12.2019
1812 Fog -24 1013 83 10000 3 360 06:22 24.12.2019
1813 Fog -24 1013 76 10000 2 360 05:53 24.12.2019
1814 Fog -24 1013 76 10000 4 40 05:19 24.12.2019
1815 Clear -22 1013 83 10000 5 350 04:21 24.12.2019
1816 Clear -22 1013 83 10000 5 340 03:48 24.12.2019
1817 Clear -19 1013 77 10000 3 320 02:29 24.12.2019
1818 Clear -18 1013 77 10000 7 360 01:57 24.12.2019
1819 Clear -17 1013 77 10000 6 360 01:26 24.12.2019
1820 Clear -16 1012 77 10000 4 330 00:58 24.12.2019
1821 Clear -16 1012 77 10000 4 330 00:40 24.12.2019
1822 Clear -17 1012 84 10000 4 350 00:20 24.12.2019
1823 Clouds -17 1012 84 10000 4 330 23:43 23.12.2019
1824 Clouds -17 1013 77 10000 9 350 23:24 23.12.2019
1825 Clear -18 1012 77 10000 9 360 22:57 23.12.2019
1826 Clear -18 1012 77 10000 9 360 22:38 23.12.2019
1827 Clear -18 1012 77 10000 9 360 22:38 23.12.2019
1828 Snow -18 1012 84 10000 8 360 22:20 23.12.2019
1829 Snow -18 1012 77 10000 4 360 21:57 23.12.2019
1830 Snow -18 1012 77 10000 4 360 21:57 23.12.2019
1831 Snow -18 1012 77 10000 3 330 21:37 23.12.2019
1832 Snow -18 1012 77 10000 3 330 21:19 23.12.2019
1833 Snow -19 1012 84 10000 7 340 20:59 23.12.2019
1834 Snow -19 1012 84 10000 7 340 20:40 23.12.2019
1835 Snow -19 1012 84 10000 7 340 20:19 23.12.2019
1836 Snow -19 1012 77 10000 5 340 19:58 23.12.2019
1837 Snow -19 1012 77 10000 5 340 19:40 23.12.2019
1838 Snow -19 1012 77 10000 5 340 19:21 23.12.2019
1839 Snow -19 1012 84 10000 4 350 18:58 23.12.2019
1840 Snow -19 1012 84 10000 4 350 18:58 23.12.2019
1841 Snow -19 1012 84 10000 4 350 18:39 23.12.2019
1842 Snow -19 1012 84 10000 4 350 18:21 23.12.2019
1843 Snow -19 1012 77 10000 5 340 17:59 23.12.2019
1844 Snow -19 1012 77 10000 5 340 17:40 23.12.2019
1845 Snow -19 1012 77 10000 5 340 17:19 23.12.2019
1846 Snow -20 1011 83 10000 4 350 16:57 23.12.2019
1847 Snow -20 1011 83 10000 4 350 16:39 23.12.2019
1848 Snow -20 1011 83 10000 4 350 16:19 23.12.2019
1849 Snow -20 1011 83 10000 4 350 16:19 23.12.2019
1850 Snow -21 1011 83 10000 4 350 15:57 23.12.2019
1851 Snow -21 1011 83 10000 4 350 15:37 23.12.2019
1852 Snow -21 1011 83 10000 4 350 15:19 23.12.2019
1853 Clouds -23 1011 76 10000 5 350 14:56 23.12.2019
1854 Clouds -23 1011 76 10000 5 350 14:38 23.12.2019
1855 Clouds -23 1011 76 10000 5 350 14:19 23.12.2019
1856 Clouds -25 1010 75 10000 3 340 13:56 23.12.2019
1857 Clouds -25 1010 75 10000 3 340 13:38 23.12.2019
1858 Clouds -25 1010 75 10000 3 340 13:20 23.12.2019
1859 Clear -26 1010 75 6000 2 340 12:55 23.12.2019
1860 Clear -26 1010 75 6000 2 340 12:36 23.12.2019
1861 Clear -26 1010 75 6000 2 340 12:18 23.12.2019
1862 Clear -25 1010 83 10000 4 360 11:42 23.12.2019
1863 Clear -25 1010 83 10000 4 360 11:24 23.12.2019
1864 Clear -25 1009 75 10000 4 350 10:56 23.12.2019
1865 Clear -25 1009 75 10000 4 350 10:38 23.12.2019
1866 Clear -25 1009 75 10000 4 350 10:20 23.12.2019
1867 Clear -25 1009 75 10000 4 340 09:58 23.12.2019
1868 Clear -25 1009 75 10000 4 340 09:39 23.12.2019
1869 Clear -25 1009 75 10000 4 340 09:19 23.12.2019
1870 Clear -27 1009 75 10000 4 350 08:42 23.12.2019
1871 Clear -27 1009 75 10000 4 350 08:23 23.12.2019
1872 Clouds -24 1008 76 10000 4 350 07:57 23.12.2019
1873 Clouds -24 1008 76 10000 4 350 07:38 23.12.2019
1874 Clouds -25 1008 75 10000 3 350 07:19 23.12.2019
1875 Clouds -26 1008 75 10000 3 350 06:43 23.12.2019
1876 Clouds -24 1008 76 10000 3 10 06:22 23.12.2019
1877 Clouds -25 1008 75 10000 2 360 05:46 23.12.2019
1878 Clouds -26 1008 83 10000 3 10 05:18 23.12.2019
1879 Clouds -26 1007 75 10000 4 360 04:19 23.12.2019
1880 Clouds -26 1007 75 10000 2 350 02:48 23.12.2019
1881 Clouds -25 1007 75 10000 3 10 02:20 23.12.2019
1882 Clouds -26 1007 75 10000 3 20 01:51 23.12.2019
1883 Clouds -26 1007 75 10000 1 30 01:32 23.12.2019
1884 Clouds -26 1007 75 10000 1 30 01:32 23.12.2019
1885 Clouds -25 1007 69 10000 1 20 00:54 23.12.2019
1886 Clouds -24 1007 69 10000 3 310 00:35 23.12.2019
1887 Clouds -24 1007 69 10000 3 360 23:57 22.12.2019
1888 Clouds -24 1007 69 10000 3 360 23:38 22.12.2019
1889 Clouds -24 1007 69 10000 3 30 23:20 22.12.2019
1890 Clouds -25 1007 69 10000 2 20 22:57 22.12.2019
1891 Clouds -25 1007 69 10000 4 20 22:38 22.12.2019
1892 Clouds -24 1007 69 10000 4 20 22:19 22.12.2019
1893 Clouds -24 1007 63 10000 3 20 21:56 22.12.2019
1894 Clouds -24 1007 63 10000 3 20 21:38 22.12.2019
1895 Clouds -24 1006 69 10000 2 20 21:20 22.12.2019
1896 Clouds -26 1006 75 10000 3 360 20:41 22.12.2019
1897 Clouds -26 1006 75 10000 3 360 20:19 22.12.2019
1898 Clouds -25 1006 75 10000 6 340 19:58 22.12.2019
1899 Clouds -25 1006 75 10000 6 340 19:40 22.12.2019
1900 Clouds -25 1006 75 10000 6 340 19:20 22.12.2019
1901 Clouds -21 1006 58 10000 7 340 18:58 22.12.2019
1902 Clouds -21 1006 58 10000 7 340 18:38 22.12.2019
1903 Clouds -21 1006 58 10000 7 340 18:19 22.12.2019
1904 Clouds -21 1006 63 10000 9 360 17:55 22.12.2019
1905 Clouds -21 1006 63 10000 9 360 17:36 22.12.2019
1906 Clouds -21 1006 63 10000 9 360 17:18 22.12.2019
1907 Clouds -16 1005 54 10000 10 10 16:42 22.12.2019
1908 Clouds -16 1005 54 10000 10 10 16:23 22.12.2019
1909 Clouds -16 1005 54 10000 10 10 16:23 22.12.2019
1910 Clouds -20 1006 64 10000 7 360 15:58 22.12.2019
1911 Clouds -20 1006 64 10000 7 360 15:39 22.12.2019
1912 Clouds -20 1006 64 10000 7 360 15:21 22.12.2019
1913 Clouds -20 1006 64 10000 5 360 14:59 22.12.2019
1914 Clouds -20 1006 64 10000 5 360 14:38 22.12.2019
1915 Clouds -20 1006 64 10000 5 360 14:19 22.12.2019
1916 Clouds -22 1006 69 10000 6 350 13:56 22.12.2019
1917 Clouds -22 1006 69 10000 6 350 13:38 22.12.2019
1918 Clouds -22 1006 69 10000 6 350 13:19 22.12.2019
1919 Clouds -21 1006 70 10000 3 350 12:57 22.12.2019
1920 Clouds -21 1006 70 10000 3 350 12:57 22.12.2019
1921 Clouds -21 1006 70 10000 3 350 12:38 22.12.2019
1922 Clouds -21 1006 70 10000 3 350 12:19 22.12.2019
1923 Clouds -21 1006 70 10000 3 350 12:19 22.12.2019
1924 Clouds -21 1006 70 10000 3 350 12:19 22.12.2019
1925 Clouds -22 1006 76 10000 6 20 11:58 22.12.2019
1926 Clouds -22 1006 76 10000 6 20 11:39 22.12.2019
1927 Clouds -22 1006 76 10000 6 20 11:19 22.12.2019
1928 Clouds -21 1006 70 10000 4 30 10:57 22.12.2019
1929 Clouds -21 1006 70 10000 4 30 10:38 22.12.2019
1930 Clouds -21 1006 70 10000 4 30 10:19 22.12.2019
1931 Clouds -22 1006 76 10000 5 40 09:58 22.12.2019
1932 Clouds -22 1006 76 10000 5 40 09:39 22.12.2019
1933 Clouds -22 1006 76 10000 5 40 09:21 22.12.2019
1934 Clouds -20 1006 76 10000 3 30 08:45 22.12.2019
1935 Clouds -20 1006 76 10000 3 30 08:23 22.12.2019
1936 Clouds -22 1006 76 10000 3 30 07:50 22.12.2019
1937 Clouds -22 1006 76 10000 3 30 07:21 22.12.2019
1938 Clouds -22 1006 76 10000 3 30 07:21 22.12.2019
1939 Clouds -19 1007 70 10000 1 50 06:56 22.12.2019
1940 Clouds -19 1007 70 10000 1 50 06:27 22.12.2019
1941 Clouds -20 1007 76 10000 3.5 8 05:41 22.12.2019
1942 Clouds -20 1007 76 10000 3.7 8 05:20 22.12.2019
1943 Clouds -15 1007 71 10000 3 40 04:26 22.12.2019
1944 Fog -23 1007 76 10000 3 30 02:56 22.12.2019
1945 Fog -23 1007 76 10000 3 30 02:34 22.12.2019
1946 Fog -23 1007 83 10000 1 20 01:32 22.12.2019
1947 Fog -21 1007 83 10000 2 160 00:57 22.12.2019
1948 Fog -21 1007 83 10000 2 160 00:38 22.12.2019
1949 Fog -21 1007 83 10000 2 160 00:20 22.12.2019
1950 Fog -25 1007 75 10000 2 130 23:41 21.12.2019
1951 Fog -25 1007 75 10000 2 130 23:22 21.12.2019
1952 Clear -18 1007 84 10000 2 120 22:57 21.12.2019
1953 Clear -18 1007 84 10000 2 120 22:39 21.12.2019
1954 Clear -18 1007 84 10000 2 120 22:18 21.12.2019
1955 Clear -22 1006 76 10000 4 100 21:56 21.12.2019
1956 Clear -22 1006 76 10000 4 100 21:37 21.12.2019
1957 Clear -22 1006 76 10000 4 100 21:18 21.12.2019
1958 Clear -17 1006 77 10000 2 110 20:57 21.12.2019
1959 Clear -17 1006 77 10000 2 110 20:37 21.12.2019
1960 Clear -17 1006 77 10000 2 110 20:37 21.12.2019
1961 Clear -17 1006 77 10000 2 110 20:19 21.12.2019
1962 Clear -17 1005 84 10000 4 170 19:56 21.12.2019
1963 Clear -17 1005 84 10000 4 170 19:36 21.12.2019
1964 Clear -17 1005 84 10000 4 170 19:18 21.12.2019
1965 Clear -20 1004 83 10000 3 160 18:42 21.12.2019
1966 Clear -20 1004 83 10000 3 160 18:23 21.12.2019
1967 Clear -27 1004 82 10000 1 120 17:56 21.12.2019
1968 Clear -27 1004 82 10000 1 120 17:56 21.12.2019
1969 Clear -27 1004 82 10000 1 120 17:38 21.12.2019
1970 Clear -27 1004 82 10000 1 120 17:20 21.12.2019
1971 Clear -20 1004 76 10000 1 50 16:57 21.12.2019
1972 Clear -20 1004 76 10000 1 50 16:38 21.12.2019
1973 Clear -20 1004 76 10000 1 50 16:18 21.12.2019
1974 Clear -25 1003 83 10000 2 80 15:55 21.12.2019
1975 Clear -25 1003 83 10000 2 80 15:37 21.12.2019
1976 Clear -25 1003 83 10000 2 80 15:18 21.12.2019
1977 Clear -24 1003 83 10000 3 90 14:42 21.12.2019
1978 Clear -24 1003 83 10000 3 90 14:23 21.12.2019
1979 Clear -23 1002 76 10000 3 90 13:58 21.12.2019
1980 Clear -23 1002 76 10000 3 90 13:39 21.12.2019
1981 Clear -23 1002 76 10000 3 90 13:19 21.12.2019
1982 Clear -19 1001 84 10000 2 250 12:56 21.12.2019
1983 Clear -19 1001 84 10000 2 250 12:38 21.12.2019
1984 Clear -19 1001 84 10000 2 250 12:38 21.12.2019
1985 Clear -19 1001 84 10000 2 250 12:38 21.12.2019
1986 Clear -19 1001 84 10000 2 250 12:20 21.12.2019
1987 Clear -17 1000 77 10000 4 170 11:48 21.12.2019
1988 Clear -17 1000 77 10000 4 170 11:27 21.12.2019
1989 Clear -17 999 84 10000 6 170 10:59 21.12.2019
1990 Clear -17 999 84 10000 6 170 10:41 21.12.2019
1991 Clear -17 999 84 10000 6 170 10:22 21.12.2019
1992 Clouds -17 998 84 10000 5 160 09:58 21.12.2019
1993 Clouds -17 998 84 10000 5 160 09:39 21.12.2019
1994 Clouds -17 998 84 10000 5 160 09:19 21.12.2019
1995 Clouds -16 997 77 10000 4 160 08:51 21.12.2019
1996 Clouds -16 997 77 10000 4 160 08:27 21.12.2019
1997 Clear -17 997 77 10000 2 180 07:58 21.12.2019
1998 Clear -17 997 77 10000 2 180 07:58 21.12.2019
1999 Clear -17 997 77 10000 2 180 07:39 21.12.2019
2000 Clear -17 997 77 10000 2 180 07:20 21.12.2019
2001 Clouds -14 996 71 10000 4 260 06:40 21.12.2019
2002 Clouds -14 996 71 10000 4 260 06:22 21.12.2019
2003 Clouds -13 994 78 10000 4 260 05:25 21.12.2019
2004 Snow -14 994 84 4500 1 20 04:34 21.12.2019
2005 Snow -14 993 84 5000 1 10 03:56 21.12.2019
2006 Snow -14 991 77 10000 2 40 02:25 21.12.2019
2007 Snow -12 990 78 10000 6.2 237 01:50 21.12.2019
2008 Clouds -13 990 84 10000 6.14 235 01:25 21.12.2019
2009 Clouds -12 989 78 10000 1 220 00:48 21.12.2019
2010 Clouds -12 989 78 10000 4 270 00:28 21.12.2019
2011 Snow -11 989 78 10000 5 260 23:39 20.12.2019
2012 Snow -11 989 78 10000 5 260 23:39 20.12.2019
2013 Snow -10 988 78 10000 2 220 23:21 20.12.2019
2014 Snow -10 987 92 10000 2 340 22:59 20.12.2019
2015 Snow -10 987 92 10000 2 340 22:39 20.12.2019
2016 Snow -10 987 92 10000 2 340 22:19 20.12.2019
2017 Snow -9 986 85 10000 5 290 21:42 20.12.2019
2018 Snow -9 986 85 10000 5 290 21:21 20.12.2019
2019 Snow -8 985 85 5000 4 260 20:59 20.12.2019
2020 Snow -8 985 85 5000 4 260 20:38 20.12.2019
2021 Snow -8 985 85 5000 4 260 20:19 20.12.2019
2022 Snow -7 984 85 2000 2 200 19:56 20.12.2019
2023 Snow -7 984 85 2000 2 200 19:38 20.12.2019
2024 Snow -7 984 85 2000 2 200 19:18 20.12.2019
2025 Snow -7 982 92 1200 4 250 18:41 20.12.2019
2026 Snow -7 982 92 1200 4 250 18:23 20.12.2019
2027 Snow -7 981 85 10000 4 300 17:58 20.12.2019
2028 Snow -7 981 85 10000 4 300 17:40 20.12.2019
2029 Snow -7 981 85 10000 4 300 17:20 20.12.2019
2030 Clouds -7 980 85 10000 6 270 16:57 20.12.2019
2031 Clouds -7 980 85 10000 6 270 16:38 20.12.2019
2032 Clouds -7 980 85 10000 6 270 16:19 20.12.2019
2033 Clouds -8 979 85 10000 5 200 15:55 20.12.2019
2034 Clouds -8 979 85 10000 5 200 15:37 20.12.2019
2035 Clouds -8 979 85 10000 5 200 15:37 20.12.2019
2036 Clouds -8 979 85 10000 5 200 15:18 20.12.2019
2037 Clouds -6 978 85 10000 7 200 14:42 20.12.2019
2038 Clouds -6 978 85 10000 7 200 14:24 20.12.2019
2039 Clouds -3 977 86 10000 7 200 13:57 20.12.2019
2040 Clouds -3 977 86 10000 7 200 13:38 20.12.2019
2041 Clouds -3 977 86 10000 7 200 13:19 20.12.2019
2042 Snow -2 977 92 10000 3 170 12:57 20.12.2019
2043 Snow -2 977 92 10000 3 170 12:37 20.12.2019
2044 Snow -2 977 92 10000 3 170 12:18 20.12.2019
2045 Snow -2 977 100 1800 3 190 11:57 20.12.2019
2046 Snow -2 977 100 1800 3 190 11:39 20.12.2019
2047 Snow -2 977 100 1800 3 190 11:18 20.12.2019
2048 Snow -2 977 100 1800 3 190 11:18 20.12.2019
2049 Snow -1 976 92 1600 1 170 10:56 20.12.2019
2050 Snow -1 976 92 1600 1 170 10:38 20.12.2019
2051 Snow -1 976 92 1600 1 170 10:19 20.12.2019
2052 Snow -1 976 92 2000 3 210 09:43 20.12.2019
2053 Snow -1 976 92 2000 3 210 09:21 20.12.2019
2054 Snow 0 976 90 1000 9 120 08:57 20.12.2019
2055 Snow 0 976 90 1000 9 120 08:38 20.12.2019
2056 Snow 0 976 98 1000 9 120 08:20 20.12.2019
2057 Snow 0 976 98 1000 9 120 08:20 20.12.2019
2058 Snow 0 976 98 750 13 100 07:57 20.12.2019
2059 Snow 0 976 98 750 13 100 07:37 20.12.2019
2060 Snow 0 976 98 750 13 100 07:18 20.12.2019
2061 Snow -1 976 92 700 15 110 06:44 20.12.2019
2062 Clouds -1 976 92 400 15 110 06:26 20.12.2019
2063 Clouds -1 977 92 200 20 100 05:47 20.12.2019
2064 Clouds -1 977 92 150 21 100 05:18 20.12.2019
2065 Clouds -2 978 92 100 26 100 03:49 20.12.2019
2066 Clouds -2 979 92 100 26 100 03:20 20.12.2019
2067 Clouds -3 981 92 100 25 100 02:20 20.12.2019
2068 Clouds -4 983 92 50 27 90 01:36 20.12.2019
2069 Clouds -4 984 92 50 26 90 00:56 20.12.2019
2070 Clouds -4 986 92 50 26 90 00:35 20.12.2019
2071 Clouds -4 987 92 100 23 100 23:58 19.12.2019
2072 Clouds -4 987 92 100 23 100 23:58 19.12.2019
2073 Clouds -4 988 92 100 23 100 23:40 19.12.2019
2074 Clouds -4 988 92 100 23 100 23:19 19.12.2019
2075 Clouds -4 990 92 50 22 100 22:40 19.12.2019
2076 Clouds -4 990 92 50 22 100 22:22 19.12.2019
2077 Clouds -5 991 92 100 21 100 21:59 19.12.2019
2078 Clouds -5 991 92 100 21 100 21:59 19.12.2019
2079 Clouds -5 992 92 100 19 100 21:41 19.12.2019
2080 Clouds -5 992 92 100 19 100 21:19 19.12.2019
2081 Snow -5 994 92 150 17 100 20:57 19.12.2019
2082 Snow -5 994 92 150 17 100 20:38 19.12.2019
2083 Snow -5 994 92 150 17 100 20:20 19.12.2019
2084 Snow -5 996 92 200 11 100 19:58 19.12.2019
2085 Snow -5 996 92 200 11 100 19:40 19.12.2019
2086 Snow -5 996 92 200 11 100 19:40 19.12.2019
2087 Snow -5 996 92 200 11 100 19:19 19.12.2019
2088 Snow -5 996 92 200 11 100 19:19 19.12.2019
2089 Snow -5 996 92 200 11 100 19:19 19.12.2019
2090 Snow -5 996 92 200 11 100 19:19 19.12.2019
2091 Snow -6 997 92 250 11 100 18:58 19.12.2019
2092 Snow -6 997 92 250 11 100 18:40 19.12.2019
2093 Snow -8 997 92 250 11 100 18:20 19.12.2019
2094 Snow -8 999 92 500 10 90 17:56 19.12.2019
2095 Snow -8 999 92 500 10 90 17:38 19.12.2019
2096 Snow -8 999 92 500 10 90 17:18 19.12.2019
2097 Snow -8 1001 92 550 11 100 16:56 19.12.2019
2098 Snow -8 1001 92 550 11 100 16:37 19.12.2019
2099 Snow -8 1001 92 550 11 100 16:37 19.12.2019
2100 Snow -8 1001 92 550 11 100 16:19 19.12.2019
2101 Snow -8 1002 92 400 10 90 15:57 19.12.2019
2102 Snow -8 1002 92 400 10 90 15:57 19.12.2019
2103 Snow -8 1002 92 400 10 90 15:37 19.12.2019
2104 Snow -8 1002 92 400 10 90 15:19 19.12.2019
2105 Snow -8 1002 92 400 10 90 15:19 19.12.2019
2106 Fog -9 1004 92 600 10 100 14:54 19.12.2019
2107 Fog -9 1004 92 600 10 100 14:36 19.12.2019
2108 Fog -9 1004 92 600 10 100 14:18 19.12.2019
2109 Fog -9 1005 85 550 8 90 13:38 19.12.2019
2110 Fog -9 1005 85 550 8 90 13:20 19.12.2019
2111 Fog -9 1006 85 750 7 90 12:58 19.12.2019
2112 Fog -9 1006 85 750 7 90 12:40 19.12.2019
2113 Fog -9 1006 85 750 7 90 12:19 19.12.2019
2114 Fog -9 1006 85 750 7 90 12:19 19.12.2019
2115 Fog -9 1006 85 750 7 90 12:19 19.12.2019
2116 Snow -9 1007 85 1300 3 110 11:59 19.12.2019
2117 Snow -9 1007 85 1300 3 110 11:40 19.12.2019
2118 Snow -9 1007 85 1300 3 110 11:18 19.12.2019
2119 Snow -9 1007 85 2000 2 80 10:58 19.12.2019
2120 Snow -9 1007 85 2000 2 80 10:58 19.12.2019
2121 Snow -9 1007 85 2000 2 80 10:38 19.12.2019
2122 Snow -9 1007 85 2000 2 80 10:20 19.12.2019
2123 Snow -15 1008 84 900 1 360 09:56 19.12.2019
2124 Snow -15 1008 84 900 1 360 09:37 19.12.2019
2125 Snow -15 1008 84 900 1 360 09:19 19.12.2019
2126 Snow -17 1008 84 9000 3 30 08:55 19.12.2019
2127 Snow -17 1008 84 9000 3 30 08:36 19.12.2019
2128 Snow -17 1008 84 9000 3 30 08:18 19.12.2019
2129 Mist -18 1008 84 5000 3 360 07:40 19.12.2019
2130 Mist -18 1008 84 5000 3 360 07:22 19.12.2019
2131 Clouds -17 1009 84 7000 2 360 06:55 19.12.2019
2132 Mist -17 1009 84 2100 2 350 06:37 19.12.2019
2133 Mist -17 1009 84 2100 2 350 06:18 19.12.2019
2134 Fog -18 1009 84 450 2 20 05:42 19.12.2019
2135 Fog -18 1009 84 450 2 20 05:19 19.12.2019
2136 Mist -17 1010 91 3600 2 360 03:51 19.12.2019
2137 Snow -17 1010 84 10000 2 360 02:28 19.12.2019
2138 Snow -16 1011 84 10000 3 330 01:24 19.12.2019
2139 Snow -16 1011 84 10000 3 320 00:57 19.12.2019
2140 Snow -16 1011 84 10000 3 340 00:38 19.12.2019
2141 Snow -16 1011 84 10000 3 340 00:19 19.12.2019
2142 Snow -16 1011 84 10000 3 340 00:19 19.12.2019
2143 Snow -16 1011 84 10000 3 350 23:44 18.12.2019
2144 Snow -16 1011 84 10000 3 350 23:19 18.12.2019
2145 Clouds -16 1011 84 10000 2 340 22:56 18.12.2019
2146 Clouds -18 1011 84 10000 3 340 22:38 18.12.2019
2147 Clouds -19 1011 84 10000 3 340 22:20 18.12.2019
2148 Clouds -19 1011 84 10000 4 340 21:58 18.12.2019
2149 Clouds -18 1010 84 10000 2 330 21:39 18.12.2019
2150 Clouds -18 1010 84 10000 2 330 21:39 18.12.2019
2151 Clouds -17 1010 84 10000 2 330 21:20 18.12.2019
2152 Snow -16 1010 84 9000 3 340 20:56 18.12.2019
2153 Snow -16 1010 84 9000 3 340 20:38 18.12.2019
2154 Snow -16 1010 84 9000 3 340 20:20 18.12.2019
2155 Snow -15 1011 84 10000 3 340 19:56 18.12.2019
2156 Snow -15 1011 84 10000 3 340 19:38 18.12.2019
2157 Snow -15 1011 84 10000 3 340 19:38 18.12.2019
2158 Snow -15 1011 84 10000 3 340 19:18 18.12.2019
2159 Snow -15 1010 84 10000 3 350 18:54 18.12.2019
2160 Snow -15 1010 84 10000 3 350 18:36 18.12.2019
2161 Snow -15 1010 84 10000 3 350 18:18 18.12.2019
2162 Snow -15 1010 84 10000 4 350 17:55 18.12.2019
2163 Snow -15 1010 84 10000 4 350 17:37 18.12.2019
2164 Snow -15 1010 84 10000 4 350 17:18 18.12.2019
2165 Snow -15 1010 84 5000 4 340 16:42 18.12.2019
2166 Snow -15 1010 84 5000 4 340 16:23 18.12.2019
2167 Snow -14 1009 84 3400 4 330 15:57 18.12.2019
2168 Snow -14 1009 84 3400 4 330 15:39 18.12.2019
2169 Snow -14 1009 84 3400 4 330 15:21 18.12.2019
2170 Snow -14 1009 92 1300 3 340 14:56 18.12.2019
2171 Snow -14 1009 92 1300 3 340 14:36 18.12.2019
2172 Snow -14 1009 92 1300 3 340 14:18 18.12.2019
2173 Snow -13 1009 84 1300 3 350 13:54 18.12.2019
2174 Snow -13 1009 84 1300 3 350 13:36 18.12.2019
2175 Snow -13 1009 84 1300 3 350 13:18 18.12.2019
2176 Snow -13 1009 84 1300 3 350 13:18 18.12.2019
2177 Snow -13 1009 84 2000 4 330 12:40 18.12.2019
2178 Snow -13 1009 84 2000 4 330 12:40 18.12.2019
2179 Snow -13 1009 84 2000 4 330 12:21 18.12.2019
2180 Snow -13 1009 84 1800 4 340 11:57 18.12.2019
2181 Snow -13 1009 84 1800 4 340 11:39 18.12.2019
2182 Snow -13 1009 84 1800 4 340 11:20 18.12.2019
2183 Snow -13 1008 92 1400 4 340 10:58 18.12.2019
2184 Snow -13 1008 92 1400 4 340 10:39 18.12.2019
2185 Snow -13 1008 92 1400 4 340 10:20 18.12.2019
2186 Snow -13 1008 92 2100 3 340 09:57 18.12.2019
2187 Snow -13 1008 92 2100 3 340 09:20 18.12.2019
2188 Snow -13 1008 92 5000 2 10 08:43 18.12.2019
2189 Snow -13 1008 92 5000 2 10 08:24 18.12.2019
2190 Snow -13 1007 84 9000 2 20 07:57 18.12.2019
2191 Snow -13 1007 84 9000 2 20 07:39 18.12.2019
2192 Snow -13 1007 84 9000 2 20 07:20 18.12.2019
2193 Snow -13 1007 84 10000 3 10 06:52 18.12.2019
2194 Snow -13 1007 84 9000 1 20 06:24 18.12.2019
2195 Snow -13 1007 84 10000 1 20 05:35 18.12.2019
2196 Snow -13 1007 84 10000 1 20 05:35 18.12.2019
2197 Snow -13 1006 84 10000 1 10 03:49 18.12.2019
2198 Clouds -14 1006 92 10000 1 10 02:46 18.12.2019
2199 Clouds -14 1006 84 10000 1 20 02:27 18.12.2019
2200 Clouds -14 1006 84 10000 1 10 01:44 18.12.2019
2201 Clouds -14 1006 84 10000 1 20 01:25 18.12.2019
2202 Snow -14 1006 84 10000 1 10 00:42 18.12.2019
2203 Snow -14 1006 84 10000 1 10 00:24 18.12.2019
2204 Snow -14 1006 84 10000 1 360 23:59 17.12.2019
2205 Snow -14 1006 84 10000 1 360 23:59 17.12.2019
2206 Snow -14 1006 84 10000 1 360 23:59 17.12.2019
2207 Snow -15 1006 92 10000 1 10 23:40 17.12.2019
2208 Snow -15 1006 92 10000 1 10 23:21 17.12.2019
2209 Snow -14 1006 84 10000 1 350 22:57 17.12.2019
2210 Snow -14 1006 84 10000 1 350 22:57 17.12.2019
2211 Snow -14 1005 84 10000 2 360 22:39 17.12.2019
2212 Snow -14 1005 84 10000 2 360 22:19 17.12.2019
2213 Snow -14 1005 84 6000 2 340 21:57 17.12.2019
2214 Snow -14 1005 84 10000 2 360 21:38 17.12.2019
2215 Snow -14 1005 84 10000 2 360 21:20 17.12.2019
2216 Snow -14 1005 84 4200 1 350 20:59 17.12.2019
2217 Snow -14 1005 84 4200 1 350 20:39 17.12.2019
2218 Snow -14 1005 84 4200 1 350 20:19 17.12.2019
2219 Snow -14 1004 84 7000 1 350 19:57 17.12.2019
2220 Snow -14 1004 84 7000 1 350 19:39 17.12.2019
2221 Snow -14 1004 84 7000 1 350 19:19 17.12.2019
2222 Mist -14 1004 84 4400 1 340 18:57 17.12.2019
2223 Mist -14 1004 84 4400 1 340 18:57 17.12.2019
2224 Mist -14 1004 84 4400 1 340 18:37 17.12.2019
2225 Mist -14 1004 84 4400 1 340 18:19 17.12.2019
2226 Clouds -14 1003 84 0 5.8 323 17:54 17.12.2019
2227 Clouds -14 1003 84 0 5.8 323 17:36 17.12.2019
2228 Snow -14 1003 84 1600 3 350 17:18 17.12.2019
2229 Snow -14 1003 84 1600 3 350 16:54 17.12.2019
2230 Snow -14 1003 84 1600 3 350 16:36 17.12.2019
2231 Snow -14 1003 84 1600 3 350 16:18 17.12.2019
2232 Snow -14 1003 84 3700 3 330 15:38 17.12.2019
2233 Snow -14 1003 84 3700 3 330 15:20 17.12.2019
2234 Mist -15 1003 92 3000 4 340 14:56 17.12.2019
2235 Mist -15 1003 92 3000 4 340 14:38 17.12.2019
2236 Mist -15 1003 92 3000 4 340 14:19 17.12.2019
2237 Fog -15 1003 92 800 4 340 13:56 17.12.2019
2238 Fog -15 1003 92 800 4 340 13:38 17.12.2019
2239 Fog -15 1003 92 800 4 340 13:19 17.12.2019
2240 Snow -15 1003 92 650 4 340 12:58 17.12.2019
2241 Snow -15 1003 92 650 4 340 12:38 17.12.2019
2242 Snow -15 1003 92 650 4 340 12:38 17.12.2019
2243 Snow -15 1003 92 650 4 340 12:18 17.12.2019
2244 Fog -15 1003 84 7000 3 330 11:56 17.12.2019
2245 Fog -15 1003 84 7000 3 330 11:36 17.12.2019
2246 Fog -15 1003 84 7000 3 330 11:36 17.12.2019
2247 Fog -15 1003 84 7000 3 330 11:18 17.12.2019
2248 Snow -15 1003 84 9000 4 340 10:56 17.12.2019
2249 Snow -15 1003 84 9000 4 340 10:37 17.12.2019
2250 Snow -15 1003 84 9000 4 340 10:19 17.12.2019
2251 Snow -15 1003 84 10000 4 340 09:42 17.12.2019
2252 Snow -15 1003 84 10000 4 340 09:22 17.12.2019
2253 Snow -16 1003 84 3800 4 340 08:58 17.12.2019
2254 Snow -16 1003 84 3800 4 340 08:40 17.12.2019
2255 Snow -16 1003 84 3800 4 340 08:21 17.12.2019
2256 Snow -15 1002 92 6000 3 350 07:58 17.12.2019
2257 Snow -15 1002 92 6000 3 350 07:39 17.12.2019
2258 Snow -15 1002 92 6000 3 350 07:20 17.12.2019
2259 Mist -15 1003 84 1800 3 350 06:42 17.12.2019
2260 Mist -15 1003 84 1800 3 350 06:24 17.12.2019
2261 Clouds -14 1002 84 10000 3 330 05:41 17.12.2019
2262 Mist -15 1002 84 10000 3 330 04:51 17.12.2019
2263 Mist -16 1002 84 1100 3 340 03:40 17.12.2019
2264 Snow -16 1002 84 3200 1 330 02:22 17.12.2019
2265 Fog -17 1002 84 10000 2 340 01:21 17.12.2019
2266 Fog -18 1002 91 10000 1 340 00:45 17.12.2019
2267 Fog -18 1003 91 10000 2 10 00:21 17.12.2019
2268 Fog -18 1002 84 10000 3 10 23:44 16.12.2019
2269 Fog -17 1002 84 10000 2 50 23:20 16.12.2019
2270 Clouds -17 1003 84 10000 2 340 22:58 16.12.2019
2271 Clouds -16 1003 84 10000 2 340 22:38 16.12.2019
2272 Clouds -16 1003 84 10000 2 340 22:38 16.12.2019
2273 Clouds -15 1003 84 10000 2 340 22:20 16.12.2019
2274 Snow -14 1003 84 10000 1 330 21:57 16.12.2019
2275 Snow -14 1003 84 10000 2 10 21:39 16.12.2019
2276 Snow -13 1003 84 10000 2 10 21:20 16.12.2019
2277 Snow -14 1002 92 10000 2 330 20:58 16.12.2019
2278 Snow -14 1002 92 10000 2 330 20:39 16.12.2019
2279 Snow -14 1002 92 10000 2 330 20:39 16.12.2019
2280 Snow -14 1002 92 10000 2 330 20:19 16.12.2019
2281 Snow -13 1002 84 9000 1 340 19:56 16.12.2019
2282 Snow -13 1002 84 9000 1 340 19:37 16.12.2019
2283 Snow -13 1002 84 9000 1 340 19:19 16.12.2019
2284 Snow -13 1002 84 10000 1 350 18:59 16.12.2019
2285 Snow -13 1002 84 10000 1 350 18:40 16.12.2019
2286 Snow -13 1002 84 10000 1 350 18:20 16.12.2019
2287 Snow -13 1003 92 10000 2 360 17:58 16.12.2019
2288 Snow -13 1003 92 10000 2 360 17:39 16.12.2019
2289 Snow -13 1003 92 10000 2 360 17:21 16.12.2019
2290 Clouds -13 1002 84 10000 1 30 16:57 16.12.2019
2291 Clouds -13 1002 84 10000 1 30 16:39 16.12.2019
2292 Clouds -13 1002 84 10000 1 30 16:20 16.12.2019
2293 Snow -15 1002 92 9000 2 40 15:59 16.12.2019
2294 Snow -15 1002 92 9000 2 40 15:59 16.12.2019
2295 Snow -15 1002 92 9000 2 40 15:39 16.12.2019
2296 Snow -15 1002 92 9000 2 40 15:20 16.12.2019
2297 Snow -17 1003 84 10000 1 40 14:57 16.12.2019
2298 Snow -17 1003 84 10000 1 40 14:37 16.12.2019
2299 Snow -17 1003 84 10000 1 40 14:37 16.12.2019
2300 Snow -17 1003 84 10000 1 40 14:19 16.12.2019
2301 Snow -17 1003 84 10000 1 40 14:19 16.12.2019
2302 Snow -17 1003 84 10000 1 40 14:19 16.12.2019
2303 Snow -17 1003 84 10000 1 40 14:19 16.12.2019
2304 Snow -18 1003 84 10000 2 20 13:56 16.12.2019
2305 Snow -18 1003 84 10000 2 20 13:37 16.12.2019
2306 Snow -18 1003 84 10000 2 20 13:19 16.12.2019
2307 Snow -15 1003 84 1900 1 20 12:57 16.12.2019
2308 Snow -15 1003 84 1900 1 20 12:39 16.12.2019
2309 Snow -15 1003 84 1900 1 20 12:19 16.12.2019
2310 Snow -15 1003 84 10000 1 60 11:58 16.12.2019
2311 Snow -15 1003 84 10000 1 60 11:40 16.12.2019
2312 Snow -15 1003 84 10000 1 60 11:20 16.12.2019
2313 Clouds -13 1003 84 10000 1 360 10:56 16.12.2019
2314 Clouds -13 1003 84 10000 1 360 10:38 16.12.2019
2315 Clouds -13 1003 84 10000 1 360 10:19 16.12.2019
2316 Mist -14 1003 92 2700 1 50 09:45 16.12.2019
2317 Mist -14 1003 92 2700 1 50 09:27 16.12.2019
2318 Clouds -14 1003 84 10000 2 330 08:55 16.12.2019
2319 Clouds -14 1003 84 10000 2 330 08:37 16.12.2019
2320 Clouds -14 1003 84 10000 2 330 08:18 16.12.2019
2321 Clouds -11 1003 92 10000 1 50 07:42 16.12.2019
2322 Clouds -11 1003 92 10000 1 50 07:21 16.12.2019
2323 Clouds -11 1003 92 10000 1.97 307 06:45 16.12.2019
2324 Clouds -13 1003 84 10000 1 120 06:22 16.12.2019
2325 Clouds -14 1003 92 10000 1 150 05:49 16.12.2019
2326 Clouds -12 1003 92 10000 1 160 05:30 16.12.2019
2327 Snow -12 1003 85 8000 1 170 04:22 16.12.2019
2328 Snow -11 1003 85 2400 1 360 02:19 16.12.2019
2329 Snow -12 1003 92 2900 1 330 01:44 16.12.2019
2330 Snow -13 1003 84 10000 3 360 00:43 16.12.2019
2331 Snow -13 1003 84 10000 3 360 00:25 16.12.2019
2332 Snow -13 1003 84 10000 4 350 23:58 15.12.2019
2333 Snow -13 1003 84 4300 4 350 23:38 15.12.2019
2334 Snow -13 1003 84 4300 4 350 23:20 15.12.2019
2335 Snow -13 1003 84 4200 4 350 22:56 15.12.2019
2336 Snow -13 1003 84 5000 4 350 22:37 15.12.2019
2337 Snow -13 1003 84 5000 4 350 22:18 15.12.2019
2338 Snow -14 1003 92 4300 5 360 21:56 15.12.2019
2339 Snow -14 1003 92 4300 5 360 21:56 15.12.2019
2340 Snow -14 1003 92 2000 5 360 21:37 15.12.2019
2341 Snow -14 1003 92 2000 5 360 21:37 15.12.2019
2342 Snow -14 1003 92 2000 5 360 21:19 15.12.2019
2343 Snow -14 1003 84 6000 6 360 20:56 15.12.2019
2344 Snow -14 1003 84 6000 6 360 20:37 15.12.2019
2345 Snow -14 1003 84 6000 6 360 20:18 15.12.2019
2346 Snow -15 1002 84 2100 6 350 19:57 15.12.2019
2347 Snow -15 1002 84 2100 6 350 19:57 15.12.2019
2348 Snow -15 1002 84 2100 6 350 19:38 15.12.2019
2349 Snow -15 1002 84 2100 6 350 19:18 15.12.2019
2350 Snow -16 1003 84 2500 6 350 18:56 15.12.2019
2351 Snow -16 1003 84 2500 6 350 18:56 15.12.2019
2352 Snow -16 1003 84 2500 6 350 18:38 15.12.2019
2353 Snow -16 1003 84 2500 6 350 18:18 15.12.2019
2354 Snow -16 1003 84 2500 6 350 18:18 15.12.2019
2355 Snow -17 1003 84 1100 4 350 17:56 15.12.2019
2356 Snow -17 1003 84 1100 4 350 17:37 15.12.2019
2357 Snow -17 1003 84 1100 4 350 17:18 15.12.2019
2358 Snow -18 1003 91 3800 4 330 16:54 15.12.2019
2359 Snow -18 1003 91 3800 4 330 16:36 15.12.2019
2360 Snow -18 1003 91 3800 4 330 16:18 15.12.2019
2361 Snow -17 1003 84 10000 3 350 15:54 15.12.2019
2362 Snow -17 1003 84 10000 3 350 15:36 15.12.2019
2363 Snow -17 1003 84 10000 3 350 15:18 15.12.2019
2364 Clouds -18 1002 84 9000 4 340 14:54 15.12.2019
2365 Clouds -18 1002 84 9000 4 340 14:36 15.12.2019
2366 Clouds -18 1002 84 9000 4 340 14:18 15.12.2019
2367 Clouds -18 1002 84 9000 4 340 14:18 15.12.2019
2368 Clouds -17 1002 84 4500 3 10 13:54 15.12.2019
2369 Clouds -17 1002 84 4500 3 10 13:36 15.12.2019
2370 Clouds -17 1002 84 4500 3 10 13:18 15.12.2019
2371 Clouds -17 1002 84 10000 4 360 12:54 15.12.2019
2372 Clouds -17 1002 84 10000 4 360 12:36 15.12.2019
2373 Clouds -17 1002 84 10000 4 360 12:18 15.12.2019
2374 Clouds -16 1002 84 8000 5 10 11:38 15.12.2019
2375 Clouds -16 1002 84 8000 5 10 11:38 15.12.2019
2376 Clouds -16 1002 84 8000 5 10 11:38 15.12.2019
2377 Clouds -16 1002 84 8000 5 10 11:19 15.12.2019
2378 Clouds -16 1002 91 10000 4 10 10:56 15.12.2019
2379 Clouds -16 1002 91 10000 4 10 10:38 15.12.2019
2380 Clouds -16 1002 91 10000 4 10 10:19 15.12.2019
2381 Snow -14 1001 84 9000 4 10 09:57 15.12.2019
2382 Snow -14 1001 84 9000 4 10 09:37 15.12.2019
2383 Snow -14 1001 84 9000 4 10 09:19 15.12.2019
2384 Snow -13 1001 84 10000 4 10 08:42 15.12.2019
2385 Snow -13 1001 84 10000 4 10 08:23 15.12.2019
2386 Snow -14 1001 92 3800 4 10 07:59 15.12.2019
2387 Snow -14 1001 92 3800 4 10 07:38 15.12.2019
2388 Snow -14 1001 92 3800 4 10 07:19 15.12.2019
2389 Snow -14 1000 84 2600 3 10 06:24 15.12.2019
2390 Snow -14 999 84 10000 5 20 05:42 15.12.2019
2391 Snow -14 999 84 10000 5 20 05:20 15.12.2019
2392 Snow -14 999 84 10000 4 360 04:20 15.12.2019
2393 Snow -13 999 84 10000 4 10 02:50 15.12.2019
2394 Snow -13 999 84 10000 4 10 02:31 15.12.2019
2395 Snow -13 999 84 10000 3 10 01:40 15.12.2019
2396 Snow -14 999 92 10000 3 10 01:18 15.12.2019
2397 Snow -13 998 84 10000 4 10 00:49 15.12.2019
2398 Snow -13 998 92 10000 4 10 00:31 15.12.2019
2399 Snow -13 998 84 5000 4 350 23:41 14.12.2019
2400 Snow -13 998 84 5000 4 350 23:22 14.12.2019
2401 Snow -13 998 84 7000 4 350 22:59 14.12.2019
2402 Snow -13 998 84 7000 4 350 22:41 14.12.2019
2403 Snow -12 998 85 10000 2 350 22:22 14.12.2019
2404 Snow -11 997 85 10000 2 360 21:58 14.12.2019
2405 Snow -11 997 85 8000 4 350 21:39 14.12.2019
2406 Snow -11 997 85 8000 4 350 21:19 14.12.2019
2407 Snow -10 997 85 6000 2 350 20:59 14.12.2019
2408 Snow -10 997 85 6000 2 350 20:41 14.12.2019
2409 Snow -10 997 85 6000 2 350 20:20 14.12.2019
2410 Snow -10 997 85 7000 2 360 19:57 14.12.2019
2411 Snow -10 997 85 7000 2 360 19:39 14.12.2019
2412 Snow -10 997 85 7000 2 360 19:20 14.12.2019
2413 Snow -10 996 92 9000 3 30 18:56 14.12.2019
2414 Snow -10 996 92 9000 3 30 18:38 14.12.2019
2415 Snow -10 996 92 9000 3 30 18:19 14.12.2019
2416 Clouds -9 996 85 10000 3 360 17:44 14.12.2019
2417 Clouds -9 996 85 10000 3 360 17:24 14.12.2019
2418 Snow -9 996 92 10000 4 10 16:59 14.12.2019
2419 Snow -9 996 92 10000 4 10 16:40 14.12.2019
2420 Snow -9 996 92 10000 4 10 16:19 14.12.2019
2421 Snow -9 996 92 10000 4 10 16:19 14.12.2019
2422 Snow -8 996 85 10000 5 360 15:43 14.12.2019
2423 Snow -8 996 85 10000 5 360 15:25 14.12.2019
2424 Snow -8 995 92 8000 4 350 14:59 14.12.2019
2425 Snow -8 995 92 8000 4 350 14:39 14.12.2019
2426 Snow -8 995 92 8000 4 350 14:20 14.12.2019
2427 Snow -7 995 92 7000 5 340 13:58 14.12.2019
2428 Snow -7 995 92 7000 5 340 13:39 14.12.2019
2429 Snow -7 995 92 7000 5 340 13:19 14.12.2019
2430 Snow -5 995 85 10000 5 20 12:56 14.12.2019
2431 Snow -5 995 85 10000 5 20 12:37 14.12.2019
2432 Snow -5 995 85 10000 5 20 12:19 14.12.2019
2433 Snow -5 995 85 10000 5 20 11:56 14.12.2019
2434 Snow -5 995 85 10000 5 20 11:37 14.12.2019
2435 Snow -5 995 85 10000 5 20 11:18 14.12.2019
2436 Clouds -5 995 79 10000 4 40 10:55 14.12.2019
2437 Clouds -5 995 79 10000 4 40 10:55 14.12.2019
2438 Clouds -5 995 79 10000 4 40 10:37 14.12.2019
2439 Clouds -5 995 79 10000 4 40 10:19 14.12.2019
2440 Clouds -5 995 85 10000 6 20 09:42 14.12.2019
2441 Clouds -5 995 85 10000 6 20 09:21 14.12.2019
2442 Clouds -3 994 68 10000 4 60 08:56 14.12.2019
2443 Clouds -3 994 68 10000 4 60 08:56 14.12.2019
2444 Clouds -3 994 68 10000 4 60 08:37 14.12.2019
2445 Clouds -3 994 68 10000 4 60 08:18 14.12.2019
2446 Clouds -5 995 85 10000 6 10 07:40 14.12.2019
2447 Clouds -5 995 85 10000 6 10 07:20 14.12.2019
2448 Snow -5 994 85 10000 2 120 06:45 14.12.2019
2449 Snow -5 994 85 10000 2 120 06:22 14.12.2019
2450 Snow -6 995 85 10000 4 30 05:43 14.12.2019
2451 Snow -5 994 85 10000 7 40 03:44 14.12.2019
2452 Snow -4 994 85 8000 7 40 02:23 14.12.2019
2453 Snow -5 994 85 10000 8 30 01:44 14.12.2019
2454 Snow -4 994 79 10000 13 30 00:59 14.12.2019
2455 Snow -4 995 85 9000 10 30 00:40 14.12.2019
2456 Snow -4 995 85 9000 10 30 00:20 14.12.2019
2457 Snow -4 995 85 9000 7 20 23:41 13.12.2019
2458 Snow -4 995 85 9000 7 20 23:19 13.12.2019
2459 Snow -4 995 85 9000 6 20 22:56 13.12.2019
2460 Snow -4 995 85 9000 6 20 22:37 13.12.2019
2461 Snow -4 995 85 9000 6 20 22:18 13.12.2019
2462 Snow -3 995 79 9000 5 10 21:44 13.12.2019
2463 Snow -3 995 79 9000 5 10 21:22 13.12.2019
2464 Snow -3 995 79 8000 7 30 20:59 13.12.2019
2465 Snow -3 995 79 0 6.71 20 20:40 13.12.2019
2466 Snow -4 995 92 5000 8 30 20:20 13.12.2019
2467 Snow -4 995 92 5000 8 30 19:57 13.12.2019
2468 Snow -4 995 92 5000 8 30 19:39 13.12.2019
2469 Snow -4 995 92 5000 8 30 19:20 13.12.2019
2470 Snow -3 995 86 7000 5 50 18:55 13.12.2019
2471 Snow -3 995 86 7000 5 50 18:36 13.12.2019
2472 Snow -3 995 86 7000 5 50 18:18 13.12.2019
2473 Snow -3 995 86 2700 4 70 17:40 13.12.2019
2474 Snow -3 995 86 2700 4 70 17:19 13.12.2019
2475 Snow -2 995 79 4300 6 60 16:58 13.12.2019
2476 Snow -2 995 79 4300 6 60 16:39 13.12.2019
2477 Snow -2 995 79 4300 6 60 16:20 13.12.2019
2478 Snow -2 995 74 10000 9 60 15:43 13.12.2019
2479 Snow -2 995 74 10000 9 60 15:22 13.12.2019
2480 Snow -2 996 79 10000 8 50 14:58 13.12.2019
2481 Snow -2 996 79 10000 8 50 14:39 13.12.2019
2482 Snow -2 996 79 10000 8 50 14:20 13.12.2019
2483 Clouds -1 996 74 10000 8 50 13:56 13.12.2019
2484 Clouds -1 996 74 10000 8 50 13:37 13.12.2019
2485 Clouds -1 996 74 10000 8 50 13:18 13.12.2019
2486 Clouds -1 996 74 10000 5 30 12:42 13.12.2019
2487 Clouds -1 996 74 10000 5 30 12:19 13.12.2019
2488 Snow 0 996 95 10000 11 50 11:57 13.12.2019
2489 Snow 0 996 95 10000 11 50 11:39 13.12.2019
2490 Snow 0 996 95 10000 11 50 11:19 13.12.2019
2491 Snow -2 996 86 10000 13 40 10:41 13.12.2019
2492 Snow -2 996 86 10000 13 40 10:21 13.12.2019
2493 Clouds -2 996 79 10000 9 40 09:43 13.12.2019
2494 Clouds -2 996 79 10000 9 40 09:22 13.12.2019
2495 Clouds -2 997 79 10000 6 360 08:59 13.12.2019
2496 Clouds -2 997 79 10000 6 360 08:40 13.12.2019
2497 Clouds -2 997 79 10000 6 360 08:22 13.12.2019
2498 Clouds -3 997 86 10000 4 360 07:43 13.12.2019
2499 Clouds -3 997 86 10000 4 360 07:20 13.12.2019
2500 Clouds -2 997 86 10000 1 80 06:50 13.12.2019
2501 Clouds -3 997 86 10000 5 10 06:28 13.12.2019
2502 Clouds -3 997 86 10000 4 340 05:43 13.12.2019
2503 Clouds -3 997 86 10000 4 340 05:20 13.12.2019
2504 Clouds -3 997 86 10000 5 330 04:35 13.12.2019
2505 Clouds -3 997 86 10000 3 40 03:30 13.12.2019
2506 Clouds -4 997 85 10000 7 20 02:32 13.12.2019
2507 Clouds -4 997 85 10000 7 20 02:32 13.12.2019
2508 Clouds -5 998 85 10000 6 10 01:42 13.12.2019
2509 Clouds -5 998 85 10000 6 10 00:53 13.12.2019
2510 Clouds -5 998 85 10000 4 360 00:34 13.12.2019
2511 Clouds -5 999 92 10000 4 350 23:57 12.12.2019
2512 Clouds -5 999 92 10000 5 350 23:37 12.12.2019
2513 Clouds -5 999 92 10000 5 350 23:19 12.12.2019
2514 Clouds -5 999 92 10000 5 340 22:42 12.12.2019
2515 Clouds -5 999 92 10000 5 340 22:23 12.12.2019
2516 Clouds -4 999 85 10000 4 340 21:56 12.12.2019
2517 Clouds -4 999 85 10000 4 340 21:56 12.12.2019
2518 Clouds -4 999 85 10000 3 360 21:38 12.12.2019
2519 Clouds -4 999 85 10000 3 360 21:20 12.12.2019
2520 Clouds -4 999 85 10000 7 30 20:59 12.12.2019
2521 Clouds -4 999 85 10000 7 30 20:41 12.12.2019
2522 Clouds -4 999 85 10000 7 30 20:23 12.12.2019
2523 Clouds -4 999 85 10000 7 30 20:23 12.12.2019
2524 Clouds -4 999 85 10000 5 340 19:59 12.12.2019
2525 Clouds -4 999 85 10000 5 340 19:41 12.12.2019
2526 Clouds -4 999 85 10000 5 340 19:21 12.12.2019
2527 Clouds -4 1000 85 10000 4 10 18:57 12.12.2019
2528 Clouds -4 1000 85 10000 4 10 18:57 12.12.2019
2529 Clouds -4 1000 85 10000 4 10 18:57 12.12.2019
2530 Clouds -4 1000 85 10000 4 10 18:38 12.12.2019
2531 Clouds -4 1000 85 10000 4 10 18:20 12.12.2019
2532 Clouds -4 1000 85 10000 3 310 17:57 12.12.2019
2533 Clouds -4 1000 85 10000 3 310 17:39 12.12.2019
2534 Clouds -4 1000 85 10000 3 310 17:20 12.12.2019
2535 Clouds -1 1000 80 10000 2 80 16:57 12.12.2019
2536 Clouds -1 1000 80 10000 2 80 16:38 12.12.2019
2537 Clouds -1 1000 80 10000 2 80 16:20 12.12.2019
2538 Clouds -1 1000 86 10000 2 40 15:54 12.12.2019
2539 Clouds -1 1000 86 10000 2 40 15:36 12.12.2019
2540 Clouds -1 1000 86 10000 2 40 15:18 12.12.2019
2541 Clouds -1 1000 92 10000 5 100 14:38 12.12.2019
2542 Clouds -1 1000 92 10000 5 100 14:20 12.12.2019
2543 Clouds -1 1000 92 10000 7 100 13:57 12.12.2019
2544 Clouds -1 1000 92 10000 7 100 13:39 12.12.2019
2545 Clouds -1 1000 92 10000 7 100 13:21 12.12.2019
2546 Clouds -1 1000 92 10000 7 100 12:58 12.12.2019
2547 Clouds -1 1000 92 10000 7 100 12:40 12.12.2019
2548 Clouds -1 1000 92 10000 7 100 12:21 12.12.2019
2549 Clouds -1 1000 92 8000 7 100 11:56 12.12.2019
2550 Clouds -1 1000 92 8000 7 100 11:37 12.12.2019
2551 Clouds -1 1000 92 8000 7 100 11:19 12.12.2019
2552 Clouds -1 999 92 10000 8 100 10:55 12.12.2019
2553 Clouds -1 999 92 10000 8 100 10:55 12.12.2019
2554 Clouds -1 999 92 10000 8 100 10:37 12.12.2019
2555 Clouds -1 999 92 10000 8 100 10:19 12.12.2019
2556 Clouds -1 999 92 10000 8 110 09:42 12.12.2019
2557 Clouds -1 999 92 10000 8 110 09:24 12.12.2019
2558 Clouds -1 998 92 10000 8 110 08:58 12.12.2019
2559 Clouds -1 998 92 10000 8 110 08:38 12.12.2019
2560 Clouds -1 998 92 10000 8 110 08:38 12.12.2019
2561 Clouds -1 998 92 10000 8 110 08:20 12.12.2019
2562 Clouds -1 998 92 10000 7 110 07:46 12.12.2019
2563 Clouds 0 998 95 10000 8 100 07:25 12.12.2019
2564 Clouds -1 998 92 10000 8 110 06:54 12.12.2019
2565 Clouds 0 997 95 10000 8 110 06:33 12.12.2019
2566 Clouds -1 996 92 10000 9 110 05:40 12.12.2019
2567 Clouds -1 996 92 10000 7 110 04:52 12.12.2019
2568 Clouds -1 996 92 10000 7 110 04:52 12.12.2019
2569 Snow -5 995 92 10000 5 350 03:31 12.12.2019
2570 Snow -7 994 92 2800 5 10 02:38 12.12.2019
2571 Snow -6 994 92 2800 5 10 02:20 12.12.2019
2572 Snow -6 993 92 2500 5 360 01:40 12.12.2019
2573 Snow -6 993 92 2500 5 360 01:22 12.12.2019
2574 Snow -6 993 92 2300 5 360 00:46 12.12.2019
2575 Snow -7 993 92 5000 5 350 00:20 12.12.2019
2576 Snow -7 992 92 6000 5 360 23:44 11.12.2019
2577 Snow -6 992 92 6000 5 360 23:21 11.12.2019
2578 Snow -6 991 92 6000 5 360 22:57 11.12.2019
2579 Snow -6 991 92 2000 5 10 22:39 11.12.2019
2580 Snow -6 991 92 2000 5 10 22:20 11.12.2019
2581 Clouds -6 990 92 10000 4 20 21:57 11.12.2019
2582 Snow -6 989 92 10000 2 120 21:38 11.12.2019
2583 Snow -5 989 92 10000 2 120 21:20 11.12.2019
2584 Snow -5 988 92 1600 3 160 20:56 11.12.2019
2585 Snow -5 988 92 1600 3 160 20:37 11.12.2019
2586 Snow -5 988 92 1600 3 160 20:37 11.12.2019
2587 Snow -5 988 92 1600 3 160 20:19 11.12.2019
2588 Snow -5 987 100 10000 3 170 19:58 11.12.2019
2589 Snow -5 987 100 10000 3 170 19:39 11.12.2019
2590 Snow -5 987 100 10000 3 170 19:19 11.12.2019
2591 Snow -4 985 92 2100 4 150 18:42 11.12.2019
2592 Snow -4 985 92 2100 4 150 18:22 11.12.2019
2593 Snow -2 983 100 1600 4 180 17:57 11.12.2019
2594 Snow -2 983 100 1600 4 180 17:39 11.12.2019
2595 Snow -2 983 100 1600 4 180 17:19 11.12.2019
2596 Drizzle -2 981 100 700 5 160 16:57 11.12.2019
2597 Drizzle -2 981 100 700 5 160 16:39 11.12.2019
2598 Drizzle -2 981 100 700 5 160 16:21 11.12.2019
2599 Fog -2 978 92 1200 7 170 15:59 11.12.2019
2600 Fog -2 978 92 1200 7 170 15:40 11.12.2019
2601 Fog -2 978 92 1200 7 170 15:22 11.12.2019
2602 Mist -1 976 92 4000 6 170 14:56 11.12.2019
2603 Mist -1 976 92 4000 6 170 14:38 11.12.2019
2604 Mist -1 976 92 4000 6 170 14:20 11.12.2019
2605 Snow -1 974 92 2100 3 190 13:55 11.12.2019
2606 Snow -1 974 92 2100 3 190 13:37 11.12.2019
2607 Snow -1 974 92 2100 3 190 13:18 11.12.2019
2608 Snow 0 973 94 5000 3 340 12:56 11.12.2019
2609 Snow 0 973 94 5000 3 340 12:38 11.12.2019
2610 Snow 0 973 94 5000 3 340 12:19 11.12.2019
2611 Snow 0 972 94 3000 6 360 11:57 11.12.2019
2612 Snow 0 972 94 3000 6 360 11:38 11.12.2019
2613 Snow 0 972 95 3000 6 360 11:18 11.12.2019
2614 Snow 0 972 95 3400 9 10 10:45 11.12.2019
2615 Snow 0 972 95 3400 9 10 10:27 11.12.2019
2616 Snow 0 972 95 10000 9 20 09:59 11.12.2019
2617 Snow 0 972 95 10000 9 20 09:39 11.12.2019
2618 Snow 0 972 95 10000 9 20 09:20 11.12.2019
2619 Clouds -1 973 92 10000 9 20 08:57 11.12.2019
2620 Clouds -1 973 92 10000 9 20 08:38 11.12.2019
2621 Clouds -1 973 92 10000 9 20 08:19 11.12.2019
2622 Clouds 1 973 80 10000 6 50 07:47 11.12.2019
2623 Clouds 1 973 80 10000 6 50 07:28 11.12.2019
2624 Clouds 1 973 80 10000 4 50 06:59 11.12.2019
2625 Clouds 0 973 95 10000 7 360 06:40 11.12.2019
2626 Clouds 0 973 95 10000 7 360 06:21 11.12.2019
2627 Clouds 0 973 95 10000 9 20 05:41 11.12.2019
2628 Clouds 0 973 91 10000 9 20 05:18 11.12.2019
2629 Snow -1 973 92 1600 9 20 03:50 11.12.2019
2630 Snow 0 974 91 3000 7 20 02:49 11.12.2019
2631 Snow 0 975 95 5000 13 30 01:25 11.12.2019
2632 Snow 0 975 95 9000 13 30 00:47 11.12.2019
2633 Snow -2 975 92 4700 11 20 00:21 11.12.2019
2634 Snow -3 976 92 2700 9 10 23:49 10.12.2019
2635 Snow -4 976 100 600 10 360 23:30 10.12.2019
2636 Snow -4 977 100 450 10 10 22:58 10.12.2019
2637 Snow -4 977 92 300 11 10 22:40 10.12.2019
2638 Snow -4 977 92 300 11 10 22:40 10.12.2019
2639 Snow -4 977 92 300 11 10 22:22 10.12.2019
2640 Snow -4 977 92 350 12 10 21:56 10.12.2019
2641 Snow -4 978 92 800 11 360 21:38 10.12.2019
2642 Snow -4 978 92 800 11 360 21:38 10.12.2019
2643 Snow -4 978 92 800 11 360 21:38 10.12.2019
2644 Snow -4 978 92 800 11 360 21:19 10.12.2019
2645 Snow -4 979 100 1800 5 340 20:57 10.12.2019
2646 Snow -4 979 100 1800 5 340 20:37 10.12.2019
2647 Snow -4 979 100 1800 5 340 20:37 10.12.2019
2648 Snow -4 979 100 1800 5 340 20:19 10.12.2019
2649 Snow -3 980 92 1000 4 360 19:55 10.12.2019
2650 Snow -3 980 92 1000 4 360 19:37 10.12.2019
2651 Snow -3 980 92 1000 4 360 19:18 10.12.2019
2652 Snow -3 980 92 5000 5 350 18:40 10.12.2019
2653 Snow -3 980 92 5000 5 350 18:20 10.12.2019
2654 Snow -2 979 86 4300 14 40 17:58 10.12.2019
2655 Snow -2 979 86 4300 14 40 17:39 10.12.2019
2656 Snow -2 979 86 4300 14 40 17:20 10.12.2019
2657 Snow -2 979 92 1200 18 40 16:54 10.12.2019
2658 Snow -2 979 92 1200 18 40 16:36 10.12.2019
2659 Snow -2 979 92 1200 18 40 16:18 10.12.2019
2660 Snow -2 979 92 1200 18 40 16:18 10.12.2019
2661 Snow -2 980 92 2600 12 30 15:38 10.12.2019
2662 Snow -2 980 92 2600 12 30 15:18 10.12.2019
2663 Snow -3 982 92 800 5 360 14:56 10.12.2019
2664 Snow -3 982 92 800 5 360 14:37 10.12.2019
2665 Snow -3 982 92 800 5 360 14:19 10.12.2019
2666 Snow -3 982 92 1800 10 20 13:56 10.12.2019
2667 Snow -3 982 92 1800 10 20 13:38 10.12.2019
2668 Snow -3 982 92 1800 10 20 13:19 10.12.2019
2669 Snow -3 983 92 1500 11 30 12:47 10.12.2019
2670 Snow -3 983 92 1500 11 30 12:26 10.12.2019
2671 Snow -3 984 92 450 13 10 11:55 10.12.2019
2672 Snow -3 984 92 450 13 10 11:36 10.12.2019
2673 Snow -3 984 92 450 13 10 11:18 10.12.2019
2674 Snow -3 984 92 350 14 10 10:42 10.12.2019
2675 Snow -3 984 92 350 14 10 10:23 10.12.2019
2676 Snow -3 985 92 800 13 10 09:56 10.12.2019
2677 Snow -3 985 92 800 13 10 09:56 10.12.2019
2678 Snow -3 986 86 1100 10 10 09:38 10.12.2019
2679 Snow -3 986 86 1100 10 10 09:20 10.12.2019
2680 Snow -3 987 86 2700 11 10 08:57 10.12.2019
2681 Snow -3 988 86 9000 10 10 08:39 10.12.2019
2682 Snow -3 988 86 9000 10 10 08:19 10.12.2019
2683 Clouds -4 988 85 10000 8 10 07:44 10.12.2019
2684 Clouds -4 988 79 10000 11 10 07:26 10.12.2019
2685 Clouds -4 988 79 10000 11 10 07:26 10.12.2019
2686 Clouds -5 988 85 10000 12 20 06:49 10.12.2019
2687 Clouds -4 988 79 10000 9 30 06:24 10.12.2019
2688 Clouds -4 989 79 10000 3 60 05:56 10.12.2019
2689 Clouds -4 989 85 10000 8 10 05:33 10.12.2019
2690 Clouds -1 991 63 10000 2 350 03:54 10.12.2019
2691 Clouds -2 991 74 10000 9 30 02:57 10.12.2019
2692 Clouds -2 991 74 10000 8 10 01:54 10.12.2019
2693 Clouds -2 992 74 10000 5 40 01:27 10.12.2019
2694 Clouds -1 992 74 10000 4 70 00:51 10.12.2019
2695 Clouds 0 992 96 10000 8 60 00:24 10.12.2019
2696 Clouds -1 992 80 10000 6 80 23:55 09.12.2019
2697 Clouds 0 992 96 10000 8 90 23:36 09.12.2019
2698 Clouds 0 992 94 10000 8 90 23:18 09.12.2019
2699 Snow 0 992 94 9000 10 80 22:54 09.12.2019
2700 Snow 0 992 94 2100 4 60 22:36 09.12.2019
2701 Snow 0 992 94 2100 4 60 22:18 09.12.2019
2702 Snow -4 993 92 1200 2 340 21:54 09.12.2019
2703 Snow -4 993 92 3600 3.86 309 21:36 09.12.2019
2704 Snow -4 993 92 3600 3.86 309 21:18 09.12.2019
2705 Snow -4 992 92 3400 3.86 309 20:54 09.12.2019
2706 Snow -4 992 92 3400 3.86 309 20:36 09.12.2019
2707 Snow -4 992 92 3400 2.59 296 20:18 09.12.2019
2708 Snow -3 992 86 10000 2 190 19:54 09.12.2019
2709 Snow -3 992 86 10000 2 190 19:36 09.12.2019
2710 Snow -3 992 86 10000 2 190 19:18 09.12.2019
2711 Snow -3 991 92 500 4 160 18:40 09.12.2019
2712 Snow -3 991 92 500 4 160 18:20 09.12.2019
2713 Snow -3 991 92 2100 8 140 17:59 09.12.2019
2714 Snow -3 991 92 2100 8 140 17:59 09.12.2019
2715 Snow -3 991 92 2100 8 140 17:41 09.12.2019
2716 Snow -3 991 92 2100 8 140 17:21 09.12.2019
2717 Snow -2 990 86 4600 11 140 16:57 09.12.2019
2718 Snow -2 990 86 4600 11 140 16:39 09.12.2019
2719 Snow -2 990 86 4600 11 140 16:20 09.12.2019
2720 Clouds -3 989 86 4600 13 130 15:56 09.12.2019
2721 Clouds -3 989 86 4600 13 130 15:38 09.12.2019
2722 Clouds -3 989 86 4600 13 130 15:19 09.12.2019
2723 Snow -4 988 92 1400 12 130 14:59 09.12.2019
2724 Snow -4 988 92 1400 12 130 14:40 09.12.2019
2725 Snow -4 988 92 1400 12 130 14:18 09.12.2019
2726 Snow -8 987 92 1700 12 150 13:55 09.12.2019
2727 Snow -8 987 92 1700 12 150 13:36 09.12.2019
2728 Snow -8 987 92 1700 12 150 13:18 09.12.2019
2729 Snow -5 985 85 350 19 130 12:54 09.12.2019
2730 Snow -5 985 85 350 19 130 12:36 09.12.2019
2731 Snow -5 985 85 350 19 130 12:18 09.12.2019
2732 Snow -5 984 92 200 21 130 11:40 09.12.2019
2733 Snow -5 984 92 200 21 130 11:22 09.12.2019
2734 Snow -2 979 92 200 20 100 10:59 09.12.2019
2735 Snow -2 979 92 200 20 100 10:39 09.12.2019
2736 Snow -2 979 92 200 20 100 10:39 09.12.2019
2737 Snow -2 979 92 200 20 100 10:19 09.12.2019
2738 Snow -1 981 86 2300 11 80 09:45 09.12.2019
2739 Snow -1 981 86 2300 11 80 09:25 09.12.2019
2740 Snow -1 981 92 2300 11 80 08:57 09.12.2019
2741 Snow -1 981 92 2300 11 80 08:39 09.12.2019
2742 Snow -1 981 92 2300 11 80 08:20 09.12.2019
2743 Snow 0 981 95 4500 11 70 07:49 09.12.2019
2744 Snow 0 981 95 4500 11 70 07:30 09.12.2019
2745 Snow -1 981 92 3800 12 70 06:55 09.12.2019
2746 Snow -1 981 92 9000 9 50 06:30 09.12.2019
2747 Clouds -1 981 86 10000 4 10 05:42 09.12.2019
2748 Clouds -1 981 86 10000 4 10 05:20 09.12.2019
2749 Snow -1 981 86 10000 7 30 04:27 09.12.2019
2750 Snow -1 981 86 10000 7 30 04:27 09.12.2019
2751 Snow -3 981 86 4400 15 40 02:29 09.12.2019
2752 Snow -4 981 92 600 18 30 01:46 09.12.2019
2753 Snow -5 981 92 450 19 30 00:58 09.12.2019
2754 Snow -5 982 92 350 19 40 00:33 09.12.2019
2755 Snow -5 982 85 1000 14 20 23:55 08.12.2019
2756 Snow -5 983 92 1600 12 30 23:37 08.12.2019
2757 Snow -6 983 92 1600 12 30 23:19 08.12.2019
2758 Snow -7 984 85 1500 8 10 22:56 08.12.2019
2759 Snow -7 984 85 800 11 360 22:38 08.12.2019
2760 Snow -7 984 85 800 11 360 22:18 08.12.2019
2761 Snow -7 984 85 1000 10 360 21:56 08.12.2019
2762 Snow -8 984 92 1000 12 360 21:37 08.12.2019
2763 Snow -8 984 92 1000 12 360 21:19 08.12.2019
2764 Snow -8 984 92 1000 12 360 21:19 08.12.2019
2765 Snow -8 985 92 1000 8 350 20:55 08.12.2019
2766 Snow -8 985 92 1000 8 350 20:37 08.12.2019
2767 Snow -8 985 92 1000 8 350 20:19 08.12.2019
2768 Snow -9 986 92 900 10 350 19:55 08.12.2019
2769 Snow -9 986 92 900 10 350 19:36 08.12.2019
2770 Snow -9 986 92 900 10 350 19:18 08.12.2019
2771 Snow -9 986 85 500 8 340 18:54 08.12.2019
2772 Snow -9 986 85 500 8 340 18:54 08.12.2019
2773 Snow -9 986 85 500 8 340 18:36 08.12.2019
2774 Snow -9 986 85 500 8 340 18:18 08.12.2019
2775 Snow -12 987 85 550 10 320 17:54 08.12.2019
2776 Snow -12 987 85 550 10 320 17:36 08.12.2019
2777 Snow -12 987 85 550 10 320 17:18 08.12.2019
2778 Snow -12 987 85 550 10 320 17:18 08.12.2019
2779 Snow -13 988 84 900 7 310 16:55 08.12.2019
2780 Snow -13 988 84 900 7 310 16:37 08.12.2019
2781 Snow -13 988 84 900 7 310 16:18 08.12.2019
2782 Snow -13 988 84 550 10 330 15:37 08.12.2019
2783 Snow -13 988 84 550 10 330 15:18 08.12.2019
2784 Snow -14 989 84 550 10 340 14:57 08.12.2019
2785 Snow -14 989 84 550 10 340 14:38 08.12.2019
2786 Snow -14 989 84 550 10 340 14:20 08.12.2019
2787 Snow -15 990 84 600 11 350 13:42 08.12.2019
2788 Snow -15 990 84 600 11 350 13:23 08.12.2019
2789 Snow -16 990 77 2700 11 360 12:59 08.12.2019
2790 Snow -16 990 77 2700 11 360 12:41 08.12.2019
2791 Snow -16 990 77 2700 11 360 12:41 08.12.2019
2792 Snow -16 990 77 2700 11 360 12:41 08.12.2019
2793 Snow -16 990 77 2700 11 360 12:22 08.12.2019
2794 Snow -16 991 71 10000 7 350 11:59 08.12.2019
2795 Snow -16 991 71 10000 7 350 11:38 08.12.2019
2796 Snow -16 991 71 10000 7 350 11:19 08.12.2019
2797 Clouds -17 992 77 10000 8 360 10:57 08.12.2019
2798 Clouds -17 992 77 10000 8 360 10:38 08.12.2019
2799 Clouds -17 992 77 10000 8 360 10:38 08.12.2019
2800 Clouds -17 992 77 10000 8 360 10:19 08.12.2019
2801 Clouds -17 993 70 10000 8 360 09:55 08.12.2019
2802 Clouds -17 993 70 10000 8 360 09:37 08.12.2019
2803 Clouds -17 993 70 10000 8 360 09:19 08.12.2019
2804 Clouds -18 993 77 10000 9 360 08:43 08.12.2019
2805 Clouds -18 993 77 10000 9 360 08:23 08.12.2019
2806 Clear -18 995 70 10000 6 360 07:58 08.12.2019
2807 Clear -18 995 70 10000 6 360 07:40 08.12.2019
2808 Clear -18 995 70 10000 6 360 07:19 08.12.2019
2809 Clear -17 995 77 10000 7 360 06:41 08.12.2019
2810 Clear -17 995 77 10000 7 360 06:21 08.12.2019
2811 Clear -17 995 77 10000 6 350 05:27 08.12.2019
2812 Clouds -15 996 77 10000 7 10 04:54 08.12.2019
2813 Clouds -16 997 77 10000 7 10 03:41 08.12.2019
2814 Clouds -16 997 77 10000 8 360 02:52 08.12.2019
2815 Clouds -16 997 77 10000 8 360 02:27 08.12.2019
2816 Clouds -17 998 84 10000 5 360 01:48 08.12.2019
2817 Clouds -17 999 77 10000 4 10 00:56 08.12.2019
2818 Clouds -17 999 77 10000 4 10 00:37 08.12.2019
2819 Clouds -17 999 77 10000 4 10 00:18 08.12.2019
2820 Clear -16 1000 77 10000 4 20 23:39 07.12.2019
2821 Clear -16 1000 77 10000 4 20 23:20 07.12.2019
2822 Clear -16 1000 84 10000 3 30 22:56 07.12.2019
2823 Clear -16 1000 84 10000 3 30 22:37 07.12.2019
2824 Clear -16 1000 84 10000 3 30 22:19 07.12.2019
2825 Clear -16 1001 84 10000 6 360 21:56 07.12.2019
2826 Clear -16 1001 84 10000 6 360 21:37 07.12.2019
2827 Clear -16 1001 84 10000 6 360 21:19 07.12.2019
2828 Clear -16 1001 84 10000 6 360 21:19 07.12.2019
2829 Clear -15 1001 84 10000 5 340 20:54 07.12.2019
2830 Clear -15 1001 84 10000 5 340 20:36 07.12.2019
2831 Clouds -15 1001 84 10000 5 340 20:18 07.12.2019
2832 Clouds -14 1001 77 10000 5 330 19:54 07.12.2019
2833 Clouds -14 1001 77 10000 5 330 19:36 07.12.2019
2834 Clouds -14 1001 77 10000 5 330 19:18 07.12.2019
2835 Clouds -15 1001 84 10000 8 350 18:42 07.12.2019
2836 Clouds -15 1001 84 10000 8 350 18:18 07.12.2019
2837 Clouds -13 1002 78 10000 9 350 17:56 07.12.2019
2838 Clouds -13 1002 78 10000 9 350 17:37 07.12.2019
2839 Clouds -13 1002 78 10000 9 350 17:19 07.12.2019
2840 Clouds -14 1002 77 10000 8 340 16:56 07.12.2019
2841 Clouds -14 1002 77 10000 8 340 16:37 07.12.2019
2842 Clouds -14 1002 77 10000 8 340 16:18 07.12.2019
2843 Clouds -13 1002 78 10000 8 350 15:41 07.12.2019
2844 Clouds -13 1002 78 10000 8 350 15:41 07.12.2019
2845 Clouds -13 1002 78 10000 8 350 15:23 07.12.2019
2846 Clouds -13 1002 78 10000 4 60 14:57 07.12.2019
2847 Clouds -13 1002 78 10000 4 60 14:38 07.12.2019
2848 Clouds -13 1002 78 10000 4 60 14:18 07.12.2019
2849 Clouds -13 1003 71 10000 6 20 13:40 07.12.2019
2850 Clouds -13 1003 71 10000 6 20 13:21 07.12.2019
2851 Clouds -13 1004 78 10000 4 80 12:56 07.12.2019
2852 Clouds -13 1004 78 10000 4 80 12:37 07.12.2019
2853 Clouds -13 1004 78 10000 4 80 12:19 07.12.2019
2854 Clouds -13 1004 78 10000 3 60 11:55 07.12.2019
2855 Clouds -13 1004 78 10000 3 60 11:37 07.12.2019
2856 Clouds -13 1004 78 10000 3 60 11:19 07.12.2019
2857 Clouds -14 1005 71 10000 8 30 10:37 07.12.2019
2858 Clouds -14 1005 71 10000 8 30 10:19 07.12.2019
2859 Clouds -14 1005 77 10000 6 30 09:41 07.12.2019
2860 Clouds -14 1005 77 10000 6 30 09:22 07.12.2019
2861 Clouds -12 1005 78 10000 4 320 08:47 07.12.2019
2862 Clouds -12 1005 78 10000 4 320 08:25 07.12.2019
2863 Clouds -11 1005 78 10000 7 270 07:57 07.12.2019
2864 Clouds -11 1005 78 10000 7 270 07:38 07.12.2019
2865 Clouds -11 1005 78 10000 7 270 07:19 07.12.2019
2866 Clouds -12 1005 78 10000 5 320 06:45 07.12.2019
2867 Clouds -12 1005 78 10000 5 320 06:24 07.12.2019
2868 Clouds -9 1003 66 9000 16 40 04:49 07.12.2019
2869 Clouds -9 1003 66 8000 18 50 03:54 07.12.2019
2870 Clouds -9 1003 66 5000 18 50 02:50 07.12.2019
2871 Clouds -9 1003 66 5000 18 50 02:19 07.12.2019
2872 Clouds -10 1004 72 5000 19 40 01:31 07.12.2019
2873 Clouds -10 1004 72 1900 19 50 00:43 07.12.2019
2874 Clouds -10 1004 72 1900 19 50 00:19 07.12.2019
2875 Clouds -10 1005 66 7000 16 50 23:47 06.12.2019
2876 Clouds -10 1005 66 7000 16 50 23:24 06.12.2019
2877 Clouds -10 1005 72 5000 14 60 22:58 06.12.2019
2878 Clouds -10 1005 72 5000 14 60 22:37 06.12.2019
2879 Clouds -10 1005 72 5000 14 60 22:18 06.12.2019
2880 Clouds -10 1004 66 9000 15 60 21:56 06.12.2019
2881 Clouds -10 1004 66 9000 15 60 21:37 06.12.2019
2882 Clouds -10 1004 66 9000 15 60 21:19 06.12.2019
2883 Clouds -10 1005 66 3900 18 60 20:42 06.12.2019
2884 Clouds -10 1005 66 3900 18 60 20:22 06.12.2019
2885 Clouds -10 1005 66 10000 14 60 19:57 06.12.2019
2886 Clouds -10 1005 66 10000 14 60 19:38 06.12.2019
2887 Clouds -10 1005 66 10000 14 60 19:20 06.12.2019
2888 Clouds -10 1006 66 10000 13 60 18:44 06.12.2019
2889 -273 0 0 0 0 0 18:23 06.12.2019
2890 Clouds -10 1006 66 10000 13 60 18:23 06.12.2019
2891 Clouds -10 1006 66 10000 10 50 17:58 06.12.2019
2892 Clouds -10 1006 66 10000 10 50 17:40 06.12.2019
2893 Clouds -10 1006 66 10000 10 50 17:22 06.12.2019
2894 Clouds -10 1007 66 10000 8 50 16:59 06.12.2019
2895 Clouds -10 1007 66 10000 8 50 16:40 06.12.2019
2896 Clouds -10 1007 66 10000 8 50 16:21 06.12.2019
2897 Clouds -10 1007 66 10000 5 70 15:42 06.12.2019
2898 Clouds -10 1007 66 10000 5 70 15:24 06.12.2019
2899 Clouds -12 1007 78 10000 3 20 14:59 06.12.2019
2900 Clouds -12 1007 78 10000 3 20 14:41 06.12.2019
2901 Clouds -12 1007 78 10000 3 20 14:20 06.12.2019
2902 Clouds -10 1008 72 10000 6 60 13:58 06.12.2019
2903 Clouds -10 1008 72 10000 6 60 13:40 06.12.2019
2904 Clouds -10 1008 72 10000 6 60 13:40 06.12.2019
2905 Clouds -10 1008 72 10000 6 60 13:21 06.12.2019
2906 Clouds -10 1008 72 10000 6 60 13:21 06.12.2019
2907 Snow -10 1008 72 10000 9 50 12:40 06.12.2019
2908 Snow -10 1008 72 10000 9 50 12:21 06.12.2019
2909 Clouds -10 1008 72 10000 9 60 11:43 06.12.2019
2910 Clouds -10 1008 72 10000 9 60 11:23 06.12.2019
2911 Clouds -10 1009 72 10000 8 50 10:59 06.12.2019
2912 Clouds -10 1009 72 10000 8 50 10:40 06.12.2019
2913 Clouds -10 1009 72 10000 8 50 10:21 06.12.2019
2914 Clouds -9 1009 66 10000 9 70 09:56 06.12.2019
2915 Clouds -9 1009 66 10000 9 70 09:37 06.12.2019
2916 Clouds -9 1009 66 10000 9 70 09:19 06.12.2019
2917 Clouds -9 1009 72 10000 6 40 08:44 06.12.2019
2918 Clouds -9 1009 72 10000 6 40 08:44 06.12.2019
2919 Clouds -9 1009 72 10000 6 40 08:44 06.12.2019
2920 Clouds -9 1009 72 10000 6 40 08:25 06.12.2019
2921 Snow -9 1010 78 10000 11 50 07:44 06.12.2019
2922 Snow -9 1010 78 10000 11 50 07:23 06.12.2019
2923 Snow -9 1010 78 10000 10 60 06:55 06.12.2019
2924 Snow -8 1010 72 10000 8 70 06:26 06.12.2019
2925 Clouds -8 1009 72 10000 12 80 05:52 06.12.2019
2926 Snow -8 1008 72 10000 10 80 04:34 06.12.2019
2927 Snow -7 1009 73 10000 9 80 01:48 06.12.2019
2928 Snow -8 1009 78 6000 12 80 00:57 06.12.2019
2929 Snow -8 1009 78 10000 12 80 00:37 06.12.2019
2930 Snow -8 1009 78 10000 12 80 00:19 06.12.2019
2931 Snow -8 1009 78 9000 13 80 23:37 05.12.2019
2932 Snow -8 1009 78 9000 13 80 23:18 05.12.2019
2933 Snow -8 1009 78 9000 12 80 22:55 05.12.2019
2934 Snow -8 1009 78 9000 13 80 22:36 05.12.2019
2935 Snow -8 1009 78 9000 13 80 22:18 05.12.2019
2936 Snow -8 1009 78 8000 13 80 21:42 05.12.2019
2937 Snow -8 1009 78 8000 13 80 21:24 05.12.2019
2938 Snow -8 1008 78 9000 13 80 20:58 05.12.2019
2939 Snow -8 1008 78 9000 13 80 20:40 05.12.2019
2940 Snow -8 1008 78 9000 13 80 20:20 05.12.2019
2941 Snow -8 1008 78 9000 12 70 19:44 05.12.2019
2942 Snow -8 1008 78 9000 12 70 19:44 05.12.2019
2943 Snow -8 1008 78 9000 12 70 19:26 05.12.2019
2944 Snow -8 1009 72 8000 13 80 18:59 05.12.2019
2945 Snow -8 1009 72 8000 13 80 18:39 05.12.2019
2946 Snow -8 1009 72 8000 13 80 18:39 05.12.2019
2947 Snow -8 1009 72 8000 13 80 18:21 05.12.2019
2948 Snow -8 1009 72 8000 13 80 18:21 05.12.2019
2949 Snow -8 1009 72 8000 13 80 18:21 05.12.2019
2950 Snow -8 1009 72 9000 14 80 17:59 05.12.2019
2951 Snow -8 1009 72 9000 14 80 17:38 05.12.2019
2952 Snow -8 1009 72 9000 14 80 17:19 05.12.2019
2953 Snow -8 1009 72 7000 15 90 16:55 05.12.2019
2954 Snow -8 1009 72 7000 15 90 16:37 05.12.2019
2955 Snow -8 1009 72 7000 15 90 16:18 05.12.2019
2956 Snow -9 1010 78 10000 11 80 15:55 05.12.2019
2957 Snow -9 1010 78 10000 11 80 15:37 05.12.2019
2958 Snow -9 1010 78 10000 11 80 15:18 05.12.2019
2959 Snow -8 1010 72 9000 12 80 14:54 05.12.2019
2960 Snow -8 1010 72 9000 12 80 14:36 05.12.2019
2961 Snow -8 1010 72 9000 12 80 14:18 05.12.2019
2962 Snow -9 1010 78 9000 12 70 13:55 05.12.2019
2963 Snow -9 1010 78 9000 12 70 13:36 05.12.2019
2964 Snow -9 1010 78 9000 12 70 13:18 05.12.2019
2965 Snow -9 1011 78 9000 10 70 12:43 05.12.2019
2966 Snow -9 1011 78 9000 10 70 12:23 05.12.2019
2967 Snow -9 1011 78 9000 12 70 11:56 05.12.2019
2968 Snow -9 1011 78 9000 12 70 11:38 05.12.2019
2969 Snow -9 1011 78 9000 12 70 11:20 05.12.2019
2970 Snow -9 1011 78 9000 12 70 11:20 05.12.2019
2971 Snow -9 1012 78 10000 9 50 10:56 05.12.2019
2972 Snow -9 1012 78 10000 9 50 10:38 05.12.2019
2973 Snow -9 1012 78 10000 9 50 10:18 05.12.2019
2974 Snow -9 1012 72 10000 8 60 09:45 05.12.2019
2975 Snow -9 1012 72 10000 8 60 09:21 05.12.2019
2976 Snow -9 1013 72 10000 6 30 08:58 05.12.2019
2977 Snow -9 1013 72 10000 6 30 08:38 05.12.2019
2978 Snow -9 1013 72 10000 6 30 08:38 05.12.2019
2979 Snow -9 1013 72 10000 6 30 08:19 05.12.2019
2980 Snow -9 1013 66 10000 8 70 07:50 05.12.2019
2981 Snow -9 1013 66 10000 8 70 07:32 05.12.2019
2982 Snow -9 1013 66 10000 8 70 07:32 05.12.2019
2983 Snow -9 1013 66 10000 9 50 06:57 05.12.2019
2984 Snow -9 1013 72 10000 8 60 06:38 05.12.2019
2985 Snow -9 1013 72 10000 8 60 06:19 05.12.2019
2986 Snow -9 1013 72 10000 10 60 05:47 05.12.2019
2987 Snow -9 1013 72 8000 12 70 05:22 05.12.2019
2988 Snow -9 1014 78 10000 10 50 03:59 05.12.2019
2989 Snow -9 1014 78 10000 10 50 03:59 05.12.2019
2990 Snow -9 1014 78 5000 13 70 02:43 05.12.2019
2991 Snow -9 1015 78 2400 14 70 02:24 05.12.2019
2992 Clouds -9 1015 78 6000 13 70 01:52 05.12.2019
2993 Clouds -9 1015 78 3400 14 80 01:24 05.12.2019
2994 Clouds -9 1015 78 2500 13 70 00:50 05.12.2019
2995 Clouds -9 1015 78 1400 16 80 00:31 05.12.2019
2996 Clouds -9 1015 78 1500 16 80 23:57 04.12.2019
2997 Clouds -9 1016 78 1800 14 70 23:39 04.12.2019
2998 Clouds -9 1016 78 1800 14 70 23:20 04.12.2019
2999 Clouds -9 1016 78 3900 12 70 22:55 04.12.2019
3000 Clouds -9 1017 78 8000 11 60 22:36 04.12.2019
3001 Clouds -9 1017 78 8000 11 60 22:18 04.12.2019
3002 Clouds -9 1017 78 7000 12 70 21:54 04.12.2019
3003 Clouds -9 1018 78 6000 14 80 21:36 04.12.2019
3004 Clouds -9 1018 78 6000 14 80 21:18 04.12.2019
3005 Clouds -8 1017 72 2200 17 90 20:54 04.12.2019
3006 Clouds -8 1017 72 2200 17 90 20:36 04.12.2019
3007 Clouds -8 1017 72 2200 17 90 20:18 04.12.2019
3008 Clouds -8 1017 72 2200 17 90 20:18 04.12.2019
3009 Clouds -8 1017 72 2200 17 90 20:18 04.12.2019
3010 Clouds -8 1017 78 1200 18 90 19:39 04.12.2019
3011 Clouds -8 1017 78 1200 18 90 19:21 04.12.2019
3012 Clouds -8 1019 78 4600 16 80 18:57 04.12.2019
3013 Clouds -8 1019 78 4600 16 80 18:39 04.12.2019
3014 Clouds -8 1019 78 4600 16 80 18:21 04.12.2019
3015 Clouds -8 1020 78 9000 13 80 17:40 04.12.2019
3016 Clouds -8 1020 78 9000 13 80 17:22 04.12.2019
3017 Clouds -8 1020 78 9000 12 70 16:59 04.12.2019
3018 Clouds -8 1020 78 9000 12 70 16:40 04.12.2019
3019 Clouds -8 1020 78 9000 12 70 16:20 04.12.2019
3020 Clouds -7 1020 79 3600 15 80 15:56 04.12.2019
3021 Clouds -7 1020 79 3600 15 80 15:38 04.12.2019
3022 Clouds -7 1020 79 3600 15 80 15:19 04.12.2019
3023 Clouds -7 1021 79 10000 14 90 14:54 04.12.2019
3024 Clouds -7 1021 79 10000 14 90 14:36 04.12.2019
3025 Clouds -7 1021 79 10000 14 90 14:18 04.12.2019
3026 Clouds -7 1022 79 10000 14 90 13:38 04.12.2019
3027 Clouds -7 1022 79 10000 14 90 13:20 04.12.2019
3028 Clouds -7 1022 79 10000 14 90 13:20 04.12.2019
3029 Clouds -7 1022 79 5000 15 90 12:58 04.12.2019
3030 Clouds -7 1022 79 5000 15 90 12:40 04.12.2019
3031 Clouds -7 1022 79 5000 15 90 12:22 04.12.2019
3032 Snow -7 1022 79 10000 8 70 11:41 04.12.2019
3033 Snow -7 1022 79 10000 8 70 11:23 04.12.2019
3034 Snow -7 1022 79 10000 8 40 10:44 04.12.2019
3035 Snow -7 1022 79 10000 8 40 10:24 04.12.2019
3036 Clouds -7 1023 85 10000 6 20 09:58 04.12.2019
3037 Clouds -7 1023 85 10000 6 20 09:39 04.12.2019
3038 Clouds -7 1023 85 10000 6 20 09:21 04.12.2019
3039 Fog -14 1023 92 10000 4 30 08:43 04.12.2019
3040 Fog -14 1023 92 10000 4 30 08:24 04.12.2019
3041 Fog -23 1023 76 10000 3 10 07:51 04.12.2019
3042 Fog -23 1023 76 10000 3 10 07:31 04.12.2019
3043 Fog -23 1023 83 10000 3 30 06:57 04.12.2019
3044 Fog -24 1024 83 10000 3 10 06:31 04.12.2019
3045 Clouds -25 1024 83 10000 3 10 05:43 04.12.2019
3046 Fog -23 1023 76 10000 2 20 04:33 04.12.2019
3047 Fog -23 1023 76 10000 4 350 03:29 04.12.2019
3048 Fog -22 1024 83 10000 5 10 01:25 04.12.2019
3049 Fog -25 1024 75 10000 5 10 00:47 04.12.2019
3050 Clouds -22 1024 76 8000 5 360 00:20 04.12.2019
3051 Mist -23 1024 76 4900 4 350 23:41 03.12.2019
3052 Clouds -23 1023 76 10000 5 350 23:20 03.12.2019
3053 Clouds -22 1023 83 10000 6 360 22:57 03.12.2019
3054 Clouds -23 1024 83 10000 5 360 22:38 03.12.2019
3055 Clouds -24 1024 83 10000 5 360 22:18 03.12.2019
3056 Clouds -24 1024 83 10000 3 10 21:55 03.12.2019
3057 Clouds -23 1024 76 10000 2 10 21:36 03.12.2019
3058 Clouds -23 1024 76 10000 2 10 21:18 03.12.2019
3059 Clouds -23 1023 76 10000 3 40 20:41 03.12.2019
3060 Clouds -23 1023 76 10000 3 40 20:20 03.12.2019
3061 Clouds -22 1023 83 10000 3 330 19:57 03.12.2019
3062 Clouds -22 1023 83 10000 3 330 19:38 03.12.2019
3063 Clouds -22 1023 83 10000 3 330 19:20 03.12.2019
3064 Clouds -20 1022 76 10000 4 10 18:58 03.12.2019
3065 Clouds -20 1022 76 10000 4 10 18:40 03.12.2019
3066 Clouds -20 1022 76 10000 4 10 18:21 03.12.2019
3067 Clouds -20 1022 83 10000 4 360 17:58 03.12.2019
3068 Clouds -20 1022 83 10000 4 360 17:38 03.12.2019
3069 Clouds -20 1022 83 10000 4 360 17:18 03.12.2019
3070 Clouds -20 1022 83 10000 6 10 16:57 03.12.2019
3071 Clouds -20 1022 83 10000 6 10 16:39 03.12.2019
3072 Clouds -20 1022 83 10000 6 10 16:20 03.12.2019
3073 Clouds -20 1022 83 10000 6 10 16:20 03.12.2019
3074 Clouds -19 1022 77 10000 4 10 15:56 03.12.2019
3075 Clouds -19 1022 77 10000 4 10 15:38 03.12.2019
3076 Clouds -19 1022 77 10000 4 10 15:19 03.12.2019
3077 Clouds -19 1021 77 10000 5 10 14:42 03.12.2019
3078 Clouds -19 1021 77 10000 5 10 14:20 03.12.2019
3079 Clouds -19 1020 77 10000 5 10 13:56 03.12.2019
3080 Clouds -19 1020 77 10000 5 10 13:37 03.12.2019
3081 Clouds -19 1020 77 10000 5 10 13:19 03.12.2019
3082 Clouds -20 1019 83 10000 5 20 12:41 03.12.2019
3083 Clouds -20 1019 83 10000 5 20 12:19 03.12.2019
3084 Clouds -20 1019 76 10000 2 10 11:58 03.12.2019
3085 Clouds -20 1019 76 10000 2 10 11:39 03.12.2019
3086 Clouds -20 1019 76 10000 2 10 11:21 03.12.2019
3087 Clouds -23 1018 83 10000 4 30 10:59 03.12.2019
3088 Clouds -23 1018 83 10000 4 30 10:41 03.12.2019
3089 Clouds -23 1018 83 10000 4 30 10:20 03.12.2019
3090 Clouds -22 1018 76 10000 3 30 09:46 03.12.2019
3091 Clouds -22 1018 76 10000 3 30 09:46 03.12.2019
3092 Clouds -22 1018 76 10000 3 30 09:25 03.12.2019
3093 Clouds -23 1017 83 10000 4 20 08:59 03.12.2019
3094 Clouds -23 1017 83 10000 4 20 08:59 03.12.2019
3095 Clouds -23 1017 83 10000 4 20 08:40 03.12.2019
3096 Clouds -23 1017 83 10000 4 20 08:22 03.12.2019
3097 Clouds -22 1016 83 10000 3 360 07:54 03.12.2019
3098 Clouds -22 1016 83 10000 3 360 07:30 03.12.2019
3099 Clouds -21 1016 76 10000 5 360 06:59 03.12.2019
3100 Clouds -20 1015 76 10000 5 360 06:22 03.12.2019
3101 Clouds -20 1015 83 10000 4 10 05:57 03.12.2019
3102 Fog -21 1014 83 10000 4 10 04:48 03.12.2019
3103 Fog -22 1013 76 10000 5 10 03:36 03.12.2019
3104 Fog -22 1013 76 10000 5 10 03:18 03.12.2019
3105 Fog -22 1013 83 10000 5 10 02:43 03.12.2019
3106 Fog -20 1013 76 10000 4 10 02:24 03.12.2019
3107 Fog -20 1012 76 10000 3 30 01:41 03.12.2019
3108 Fog -21 1012 83 10000 5 20 01:21 03.12.2019
3109 Fog -21 1012 83 10000 4 20 00:44 03.12.2019
3110 Fog -21 1011 83 10000 5 30 00:26 03.12.2019
3111 Fog -21 1011 83 10000 5 20 23:57 02.12.2019
3112 Fog -21 1011 83 10000 5 20 23:39 02.12.2019
3113 Fog -21 1011 83 10000 5 20 23:19 02.12.2019
3114 Fog -21 1010 83 10000 5 360 22:39 02.12.2019
3115 Clouds -21 1010 83 10000 5 10 22:21 02.12.2019
3116 Clouds -21 1010 76 10000 5 10 21:57 02.12.2019
3117 Clouds -21 1009 83 10000 5 10 21:36 02.12.2019
3118 Clouds -21 1009 83 10000 5 10 21:18 02.12.2019
3119 Snow -20 1008 83 10000 5 10 20:55 02.12.2019
3120 Snow -20 1008 83 10000 5 10 20:37 02.12.2019
3121 Snow -20 1008 83 10000 5 10 20:19 02.12.2019
3122 Snow -19 1008 77 10000 6 10 19:42 02.12.2019
3123 Snow -19 1008 77 10000 6 10 19:21 02.12.2019
3124 Snow -19 1008 77 10000 6 10 19:21 02.12.2019
3125 Snow -19 1007 84 10000 6 10 18:57 02.12.2019
3126 Snow -19 1007 84 10000 6 10 18:57 02.12.2019
3127 Snow -19 1007 84 10000 6 10 18:38 02.12.2019
3128 Snow -19 1007 84 10000 6 10 18:19 02.12.2019
3129 Snow -19 1007 84 10000 6 10 17:57 02.12.2019
3130 Snow -19 1007 84 10000 6 10 17:57 02.12.2019
3131 Snow -19 1007 84 10000 6 10 17:38 02.12.2019
3132 Snow -19 1007 84 10000 6 10 17:18 02.12.2019
3133 Snow -18 1006 77 10000 3 10 16:40 02.12.2019
3134 Snow -18 1006 77 10000 3 10 16:19 02.12.2019
3135 Clouds -19 1006 84 10000 3 360 15:58 02.12.2019
3136 Clouds -19 1006 84 10000 3 360 15:39 02.12.2019
3137 Clouds -19 1006 84 10000 3 360 15:21 02.12.2019
3138 Snow -18 1005 84 10000 2 350 14:56 02.12.2019
3139 Snow -18 1005 84 10000 2 350 14:56 02.12.2019
3140 Snow -18 1005 84 10000 2 350 14:37 02.12.2019
3141 Snow -18 1005 84 10000 2 350 14:19 02.12.2019
3142 Clouds -17 1005 84 10000 3 350 13:56 02.12.2019
3143 Clouds -17 1005 84 10000 3 350 13:38 02.12.2019
3144 Clouds -17 1005 84 10000 3 350 13:19 02.12.2019
3145 Clouds -16 1004 84 10000 4 350 12:42 02.12.2019
3146 Clouds -16 1004 84 10000 4 350 12:21 02.12.2019
3147 Snow -16 1004 84 10000 6 350 11:58 02.12.2019
3148 Snow -16 1004 84 10000 6 350 11:38 02.12.2019
3149 Snow -16 1004 84 10000 6 350 11:19 02.12.2019
3150 Snow -15 1003 84 8000 4 350 10:57 02.12.2019
3151 Snow -15 1003 84 8000 4 350 10:39 02.12.2019
3152 Snow -15 1003 84 8000 4 350 10:21 02.12.2019
3153 Snow -15 1003 84 7000 6 340 09:56 02.12.2019
3154 Snow -14 1002 84 5000 7 350 09:38 02.12.2019
3155 Snow -14 1002 84 5000 7 350 09:18 02.12.2019
3156 Snow -14 1002 84 4500 5 350 08:55 02.12.2019
3157 Snow -13 1002 84 2000 5 330 08:36 02.12.2019
3158 Snow -13 1002 84 2000 5 330 08:18 02.12.2019
3159 Snow -13 1001 84 10000 3 340 07:38 02.12.2019
3160 Snow -13 1001 84 10000 3 340 07:20 02.12.2019
3161 Snow -13 1001 84 7000 4 350 06:42 02.12.2019
3162 Snow -13 1000 92 2900 3 20 05:45 02.12.2019
3163 Snow -13 1000 92 4800 3 350 05:19 02.12.2019
3164 Snow -12 999 92 9000 6 320 03:28 02.12.2019
3165 Snow -11 999 85 9000 4 330 02:50 02.12.2019
3166 Snow -11 998 92 10000 5 340 01:47 02.12.2019
3167 Snow -11 998 92 5000 5 330 01:21 02.12.2019
3168 Snow -9 998 85 10000 4 330 00:37 02.12.2019
3169 Snow -9 998 85 10000 4 330 00:19 02.12.2019
3170 Snow -9 997 85 10000 4 340 23:42 01.12.2019
3171 Snow -9 997 92 10000 4 340 23:21 01.12.2019
3172 Snow -9 997 92 10000 4 330 22:56 01.12.2019
3173 Snow -9 996 92 10000 3 350 22:38 01.12.2019
3174 Snow -9 996 92 10000 3 350 22:19 01.12.2019
3175 Snow -9 996 92 10000 4 340 21:56 01.12.2019
3176 Snow -9 996 92 10000 4 340 21:56 01.12.2019
3177 Snow -9 996 92 10000 4 340 21:38 01.12.2019
3178 Snow -9 996 92 10000 4 340 21:38 01.12.2019
3179 Snow -9 996 92 10000 4 330 21:19 01.12.2019
3180 Snow -9 995 92 10000 4 330 20:58 01.12.2019
3181 Snow -9 995 92 10000 4 330 20:39 01.12.2019
3182 Snow -9 995 92 10000 4 330 20:21 01.12.2019
3183 Snow -8 995 85 8000 5 340 19:57 01.12.2019
3184 Snow -8 995 85 8000 5 340 19:38 01.12.2019
3185 Snow -8 995 85 8000 5 340 19:20 01.12.2019
3186 Snow -8 995 92 10000 4 360 18:56 01.12.2019
3187 Snow -8 995 92 10000 4 360 18:37 01.12.2019
3188 Snow -8 995 92 10000 4 360 18:37 01.12.2019
3189 Snow -8 995 92 10000 4 360 18:18 01.12.2019
3190 Clouds -10 995 92 10000 3 10 17:56 01.12.2019
3191 Clouds -10 995 92 10000 3 10 17:38 01.12.2019
3192 Clouds -10 995 92 10000 3 10 17:19 01.12.2019
3193 Clouds -10 994 92 10000 4 30 16:44 01.12.2019
3194 Clouds -10 994 92 10000 4 30 16:25 01.12.2019
3195 Snow -8 995 92 10000 1 30 15:58 01.12.2019
3196 Snow -8 995 92 10000 1 30 15:58 01.12.2019
3197 Snow -8 995 92 10000 1 30 15:40 01.12.2019
3198 Snow -8 995 92 10000 1 30 15:40 01.12.2019
3199 Snow -8 995 92 10000 1 30 15:22 01.12.2019
3200 Snow -8 995 92 10000 1 30 15:22 01.12.2019
3201 Snow -8 995 92 10000 1 30 15:22 01.12.2019
3202 Snow -9 995 92 10000 1 70 14:38 01.12.2019
3203 Snow -9 995 92 10000 1 70 14:19 01.12.2019
3204 Snow -8 995 92 10000 1 320 13:40 01.12.2019
3205 Snow -8 995 92 10000 1 320 13:22 01.12.2019
3206 Snow -8 995 92 10000 3.48 321 12:58 01.12.2019
3207 Snow -8 995 92 10000 3.48 321 12:40 01.12.2019
3208 Snow -8 995 92 10000 3.48 321 12:40 01.12.2019
3209 Snow -8 995 92 10000 3.48 321 12:40 01.12.2019
3210 Snow -8 995 92 10000 3.48 321 12:40 01.12.2019
3211 Snow -8 995 92 10000 3.48 321 12:40 01.12.2019
3212 Snow -8 995 92 10000 3.48 321 11:46 01.12.2019
3213 Snow -8 995 92 10000 3.48 321 11:46 01.12.2019
3214 Snow -8 995 92 10000 3.48 321 11:25 01.12.2019
3215 Snow -9 995 92 10000 1 360 10:57 01.12.2019
3216 Snow -9 995 92 10000 1 360 10:39 01.12.2019
3217 Snow -9 995 92 10000 1 360 10:19 01.12.2019
3218 Clouds -10 994 92 10000 1 80 09:41 01.12.2019
3219 Clouds -10 994 92 10000 1 80 09:23 01.12.2019
3220 Snow -8 994 92 10000 2 50 08:55 01.12.2019
3221 Snow -8 994 92 10000 2 50 08:55 01.12.2019
3222 Snow -8 994 92 10000 2 50 08:36 01.12.2019
3223 Snow -8 994 92 10000 2 50 08:18 01.12.2019
3224 Clouds -7 994 92 10000 2 40 07:43 01.12.2019
3225 Clouds -7 994 92 10000 2 40 07:23 01.12.2019
3226 Fog -8 994 92 900 1 40 06:51 01.12.2019
3227 Fog -10 994 92 100 1 350 05:58 01.12.2019
3228 Fog -9 994 92 300 2 240 04:55 01.12.2019
3229 Fog -9 994 92 300 2 240 04:27 01.12.2019
3230 Fog -7 993 92 10000 3 130 02:44 01.12.2019
3231 Fog -6 993 85 10000 2 160 02:26 01.12.2019
3232 Clouds -6 993 92 10000 1 100 01:53 01.12.2019
3233 Clouds -5 993 85 10000 2 130 01:30 01.12.2019
3234 Clouds -5 993 85 10000 4 150 00:45 01.12.2019
3235 Clouds -5 993 85 10000 2 120 00:26 01.12.2019
3236 Clouds -6 993 92 10000 1 80 23:47 30.11.2019
3237 Clouds -6 993 92 10000 3 70 23:25 30.11.2019
3238 Clouds -8 993 85 10000 2 150 22:59 30.11.2019
3239 Clouds -8 993 85 10000 2 150 22:40 30.11.2019
3240 Clouds -7 993 92 10000 1 280 22:20 30.11.2019
3241 Clouds -7 993 92 10000 1 280 22:20 30.11.2019
3242 Clouds -6 992 79 10000 2 50 21:47 30.11.2019
3243 Clear -7 992 85 10000 2 80 21:28 30.11.2019
3244 Clouds -7 991 85 10000 5 110 20:58 30.11.2019
3245 Clouds -7 991 85 10000 5 110 20:40 30.11.2019
3246 Clouds -7 991 85 10000 5 110 20:20 30.11.2019
3247 Clouds -7 991 85 10000 6 110 19:57 30.11.2019
3248 Clouds -7 991 85 10000 6 110 19:39 30.11.2019
3249 Clouds -7 991 85 10000 6 110 19:39 30.11.2019
3250 Clouds -7 991 85 10000 6 110 19:20 30.11.2019
3251 Clouds -5 991 85 10000 5 120 18:59 30.11.2019
3252 Clouds -5 991 85 10000 5 120 18:39 30.11.2019
3253 Clouds -5 991 85 10000 5 120 18:20 30.11.2019
3254 Clouds -4 991 85 10000 6 110 17:58 30.11.2019
3255 Clouds -4 991 85 10000 6 110 17:39 30.11.2019
3256 Clouds -4 991 85 10000 6 110 17:21 30.11.2019
3257 Clouds -4 990 85 10000 6 100 16:58 30.11.2019
3258 Clouds -4 990 85 10000 6 100 16:40 30.11.2019
3259 Clouds -4 990 85 10000 6 100 16:20 30.11.2019
3260 Clouds -3 990 86 10000 5 110 15:42 30.11.2019
3261 Clouds -3 990 86 10000 5 110 15:20 30.11.2019
3262 Clouds -3 990 92 10000 5 130 14:58 30.11.2019
3263 Clouds -3 990 92 10000 5 130 14:38 30.11.2019
3264 Clouds -3 990 92 10000 5 130 14:19 30.11.2019
3265 Clouds -3 989 86 10000 3 150 13:58 30.11.2019
3266 Clouds -3 989 86 10000 3 150 13:38 30.11.2019
3267 Clouds -3 989 86 10000 3 150 13:20 30.11.2019
3268 Clouds -3 989 92 10000 2 120 12:47 30.11.2019
3269 Clouds -3 989 92 10000 2 120 12:29 30.11.2019
3270 Clouds -3 989 86 10000 3 50 11:59 30.11.2019
3271 Clouds -3 989 86 10000 3 50 11:40 30.11.2019
3272 Clouds -3 989 86 10000 3 50 11:18 30.11.2019
3273 Clouds -3 989 92 10000 4 140 10:45 30.11.2019
3274 Clouds -3 989 92 10000 4 140 10:21 30.11.2019
3275 Snow -2 987 92 2100 5 190 09:59 30.11.2019
3276 Snow -2 987 92 2100 5 190 09:41 30.11.2019
3277 Snow -2 987 92 2100 5 190 09:20 30.11.2019
3278 Snow -3 987 100 800 4 140 08:41 30.11.2019
3279 Snow -3 987 100 800 4 140 08:19 30.11.2019
3280 Snow -2 987 86 2900 4 110 07:44 30.11.2019
3281 Snow -2 987 86 2900 4 110 07:44 30.11.2019
3282 Snow -2 987 86 2900 4 110 07:25 30.11.2019
3283 Snow -2 987 92 2600 10 130 06:49 30.11.2019
3284 Snow -2 987 92 2600 10 130 06:28 30.11.2019
3285 Snow -2 984 92 250 24 100 05:30 30.11.2019
3286 Snow -2 986 92 250 19 110 03:40 30.11.2019
3287 Snow -2 985 92 200 21 100 02:39 30.11.2019
3288 Snow -2 985 92 200 21 100 02:20 30.11.2019
3289 Snow -2 984 92 100 25 100 01:25 30.11.2019
3290 Snow -2 984 92 100 24 100 00:47 30.11.2019
3291 Snow -2 984 92 100 24 100 00:28 30.11.2019
3292 Snow -2 985 92 100 24 100 23:55 29.11.2019
3293 Snow -2 985 92 100 24 100 23:37 29.11.2019
3294 Snow -2 985 92 100 24 100 23:18 29.11.2019
3295 Snow -2 985 92 100 24 100 22:39 29.11.2019
3296 Snow -2 985 92 100 24 100 22:21 29.11.2019
3297 Snow -2 985 92 100 22 100 21:42 29.11.2019
3298 Snow -2 985 92 100 22 100 21:22 29.11.2019
3299 Snow -2 985 92 100 25 100 20:57 29.11.2019
3300 Snow -2 985 92 100 25 100 20:37 29.11.2019
3301 Snow -2 985 92 100 25 100 20:18 29.11.2019
3302 Snow -3 985 92 100 26 100 19:56 29.11.2019
3303 Snow -3 985 92 100 26 100 19:38 29.11.2019
3304 Snow -3 985 92 100 26 100 19:19 29.11.2019
3305 Snow -3 986 92 100 26 110 18:54 29.11.2019
3306 Snow -3 986 92 100 26 110 18:36 29.11.2019
3307 Snow -3 986 92 100 26 110 18:18 29.11.2019
3308 Snow -3 987 92 100 26 110 17:41 29.11.2019
3309 Snow -3 987 92 100 26 110 17:22 29.11.2019
3310 Snow -3 988 92 100 25 110 16:44 29.11.2019
3311 Snow -3 988 92 100 25 110 16:21 29.11.2019
3312 Snow -3 990 92 150 25 110 15:59 29.11.2019
3313 Snow -3 990 92 150 25 110 15:39 29.11.2019
3314 Snow -3 990 92 150 25 110 15:21 29.11.2019
3315 Snow -2 991 86 500 23 110 14:42 29.11.2019
3316 Snow -2 991 86 500 23 110 14:22 29.11.2019
3317 Snow -2 993 86 900 19 110 13:58 29.11.2019
3318 Snow -2 993 86 900 19 110 13:38 29.11.2019
3319 Snow -2 993 86 900 19 110 13:20 29.11.2019
3320 Snow -3 995 86 1400 17 100 12:44 29.11.2019
3321 Snow -3 995 86 1400 17 100 12:25 29.11.2019
3322 Snow -3 995 86 1400 17 100 12:25 29.11.2019
3323 Clouds -3 997 86 2000 16 110 11:59 29.11.2019
3324 Clouds -3 997 86 2000 16 110 11:40 29.11.2019
3325 Clouds -3 997 86 2000 16 110 11:19 29.11.2019
3326 Clouds -3 998 86 3300 16 110 10:58 29.11.2019
3327 Clouds -3 998 86 3300 16 110 10:39 29.11.2019
3328 Clouds -3 998 86 3300 16 110 10:21 29.11.2019
3329 Snow -3 999 79 2400 17 120 09:59 29.11.2019
3330 Snow -3 999 79 2400 17 120 09:40 29.11.2019
3331 Snow -3 999 79 2400 17 120 09:22 29.11.2019
3332 Clouds -3 1000 86 1500 17 110 08:57 29.11.2019
3333 Clouds -3 1000 86 1500 17 110 08:37 29.11.2019
3334 Clouds -3 1000 86 1500 17 110 08:19 29.11.2019
3335 Clouds -3 1001 79 10000 12 110 07:42 29.11.2019
3336 Clouds -3 1001 79 10000 12 110 07:23 29.11.2019
3337 Clouds -4 1002 79 10000 12 100 06:55 29.11.2019
3338 Clouds -4 1002 79 9000 12 110 06:36 29.11.2019
3339 Clouds -5 1003 85 4400 14 110 05:47 29.11.2019
3340 Clouds -5 1003 79 5000 12 120 05:23 29.11.2019
3341 Clouds -7 1004 79 2200 10 130 03:58 29.11.2019
3342 Clouds -7 1004 79 2200 10 130 03:58 29.11.2019
3343 Clouds -9 1004 85 5000 8 110 03:19 29.11.2019
3344 Clouds -11 1006 66 10000 9 110 02:28 29.11.2019
3345 Clear -11 1006 56 10000 6 120 01:51 29.11.2019
3346 Clear -14 1007 55 10000 2 80 01:25 29.11.2019
3347 Clear -21 1007 76 10000 3 330 00:42 29.11.2019
3348 Clear -21 1008 70 10000 3 340 00:20 29.11.2019
3349 Clear -22 1008 69 10000 3 30 23:45 28.11.2019
3350 Clear -22 1007 69 10000 5 10 23:22 28.11.2019
3351 Clear -21 1008 70 10000 4 360 22:58 28.11.2019
3352 Clear -22 1008 76 10000 5 20 22:38 28.11.2019
3353 Clear -22 1008 76 10000 5 20 22:20 28.11.2019
3354 Clear -25 1008 75 10000 4 20 21:58 28.11.2019
3355 Clear -25 1008 75 10000 4 20 21:39 28.11.2019
3356 Clear -22 1008 76 10000 4 20 21:19 28.11.2019
3357 Clear -25 1009 75 10000 1 30 20:55 28.11.2019
3358 Clear -25 1009 75 10000 1 30 20:37 28.11.2019
3359 Clear -25 1009 75 10000 1 30 20:18 28.11.2019
3360 Clear -25 1008 75 10000 3 40 19:41 28.11.2019
3361 Clear -25 1008 75 10000 3 40 19:22 28.11.2019
3362 Clouds -22 1008 76 10000 4 50 18:59 28.11.2019
3363 Clouds -22 1008 76 10000 4 50 18:40 28.11.2019
3364 Clouds -22 1008 76 10000 4 50 18:19 28.11.2019
3365 Clouds -21 1007 76 10000 2 20 17:59 28.11.2019
3366 Clouds -21 1007 76 10000 2 20 17:41 28.11.2019
3367 Clouds -21 1007 76 10000 2 20 17:23 28.11.2019
3368 Clear -22 1007 76 10000 3 40 16:58 28.11.2019
3369 Clear -22 1007 76 10000 3 40 16:38 28.11.2019
3370 Clear -22 1007 76 10000 3 40 16:19 28.11.2019
3371 Clouds -21 1007 76 10000 3 360 15:43 28.11.2019
3372 Clouds -21 1007 76 10000 3 360 15:21 28.11.2019
3373 Clouds -19 1005 77 10000 4 350 14:59 28.11.2019
3374 Clouds -19 1005 77 10000 4 350 14:41 28.11.2019
3375 Clouds -19 1005 77 10000 4 350 14:41 28.11.2019
3376 Clouds -19 1005 77 10000 4 350 14:22 28.11.2019
3377 Clouds -16 1005 77 10000 4 330 13:59 28.11.2019
3378 Clouds -16 1005 77 10000 4 330 13:40 28.11.2019
3379 Clouds -16 1005 77 10000 4 330 13:21 28.11.2019
3380 Snow -15 1004 71 10000 3 320 12:48 28.11.2019
3381 Snow -15 1004 71 10000 3 320 12:29 28.11.2019
3382 Snow -15 1003 77 10000 4 310 11:59 28.11.2019
3383 Snow -15 1003 77 10000 4 310 11:40 28.11.2019
3384 Snow -15 1003 77 10000 4 310 11:21 28.11.2019
3385 Snow -15 1001 77 10000 5 310 10:57 28.11.2019
3386 Snow -15 1001 77 10000 5 310 10:38 28.11.2019
3387 Snow -15 1001 77 10000 5 310 10:18 28.11.2019
3388 Snow -14 999 84 10000 8 300 09:41 28.11.2019
3389 Snow -14 999 84 10000 8 300 09:23 28.11.2019
3390 Snow -11 998 78 10000 7 300 08:58 28.11.2019
3391 Snow -11 998 78 10000 7 300 08:58 28.11.2019
3392 Snow -11 998 78 10000 7 300 08:38 28.11.2019
3393 Snow -11 998 78 10000 7 300 08:20 28.11.2019
3394 Snow -11 997 78 10000 5 300 07:42 28.11.2019
3395 Snow -11 997 78 10000 4 340 07:24 28.11.2019
3396 Snow -11 997 78 10000 4 340 07:24 28.11.2019
3397 Snow -11 997 78 10000 4 340 07:23 28.11.2019
3398 Snow -11 996 78 10000 5 340 06:44 28.11.2019
3399 Snow -11 996 78 10000 5 330 06:22 28.11.2019
3400 Snow -12 995 85 10000 6 320 05:46 28.11.2019
3401 Snow -11 994 78 10000 7 320 04:58 28.11.2019
3402 Snow -12 991 92 10000 4 10 02:37 28.11.2019
3403 Snow -12 991 92 7000 4 360 01:40 28.11.2019
3404 Snow -11 990 85 10000 3 320 00:44 28.11.2019
3405 Clouds -11 990 85 10000 4 320 00:22 28.11.2019
3406 Clouds -12 989 85 10000 5 310 23:54 27.11.2019
3407 Clouds -12 989 92 10000 4 340 23:36 27.11.2019
3408 Clouds -12 989 92 10000 4 340 23:18 27.11.2019
3409 Snow -10 988 92 10000 1 120 22:38 27.11.2019
3410 Snow -9 988 92 10000 1 120 22:20 27.11.2019
3411 Snow -9 988 92 10000 3 140 21:56 27.11.2019
3412 Snow -9 988 92 10000 3 160 21:37 27.11.2019
3413 Snow -9 988 92 10000 3 160 21:37 27.11.2019
3414 Snow -9 988 92 10000 3 160 21:19 27.11.2019
3415 Snow -10 988 92 10000 3 150 20:58 27.11.2019
3416 Snow -10 988 92 10000 3 150 20:58 27.11.2019
3417 Snow -10 988 92 10000 3 150 20:38 27.11.2019
3418 Snow -10 988 92 10000 3 150 20:20 27.11.2019
3419 Snow -11 987 92 9000 4 160 19:57 27.11.2019
3420 Snow -11 987 92 9000 4 160 19:39 27.11.2019
3421 Snow -11 987 92 9000 4 160 19:19 27.11.2019
3422 Snow -10 987 85 10000 4 180 18:58 27.11.2019
3423 Snow -10 987 85 10000 4 180 18:37 27.11.2019
3424 Snow -10 987 85 10000 4 180 18:19 27.11.2019
3425 Snow -10 987 85 10000 4 180 17:56 27.11.2019
3426 Snow -10 987 85 10000 4 180 17:37 27.11.2019
3427 Snow -10 987 85 10000 4 180 17:19 27.11.2019
3428 Snow -9 987 85 10000 3 190 16:56 27.11.2019
3429 Snow -9 987 85 10000 3 190 16:36 27.11.2019
3430 Snow -9 987 85 10000 3 190 16:18 27.11.2019
3431 Snow -10 986 92 9000 4 190 15:56 27.11.2019
3432 -273 0 0 0 0 0 15:56 27.11.2019
3433 Snow -10 986 92 9000 4 190 15:56 27.11.2019
3434 Snow -10 986 92 9000 4 190 15:38 27.11.2019
3435 Snow -10 986 92 9000 4 190 15:20 27.11.2019
3436 Snow -10 986 92 550 5 210 14:56 27.11.2019
3437 Snow -10 986 92 550 5 210 14:38 27.11.2019
3438 Snow -10 986 92 550 5 210 14:19 27.11.2019
3439 Snow -10 986 85 10000 5 210 13:55 27.11.2019
3440 Snow -10 986 85 10000 5 210 13:37 27.11.2019
3441 Snow -10 986 85 10000 5 210 13:18 27.11.2019
3442 Snow -10 986 85 10000 5 210 13:18 27.11.2019
3443 Snow -10 985 92 3300 7 210 12:41 27.11.2019
3444 Snow -10 985 92 3300 7 210 12:22 27.11.2019
3445 Snow -9 984 85 5000 7 230 11:57 27.11.2019
3446 Snow -9 984 85 5000 7 230 11:37 27.11.2019
3447 Snow -9 983 85 4000 6 220 11:18 27.11.2019
3448 Snow -9 983 85 4000 6 220 10:46 27.11.2019
3449 Snow -9 983 85 4000 6 220 10:46 27.11.2019
3450 Snow -9 983 85 4000 6 220 10:46 27.11.2019
3451 Snow -9 983 85 4000 6 220 10:24 27.11.2019
3452 Snow -8 982 85 10000 7 230 09:58 27.11.2019
3453 Snow -8 982 85 10000 7 230 09:39 27.11.2019
3454 Snow -8 982 85 10000 7 230 09:21 27.11.2019
3455 Snow -8 981 85 8000 8 230 08:42 27.11.2019
3456 Snow -8 981 85 8000 8 230 08:42 27.11.2019
3457 Snow -8 981 85 8000 8 230 08:23 27.11.2019
3458 Snow -8 981 85 8000 8 230 08:23 27.11.2019
3459 Snow -8 979 85 3300 10 250 07:51 27.11.2019
3460 Snow -8 979 85 3300 10 250 07:30 27.11.2019
3461 Snow -8 978 92 1700 11 250 06:58 27.11.2019
3462 Snow -8 978 92 800 12 260 06:39 27.11.2019
3463 Snow -8 977 92 1900 12 260 05:55 27.11.2019
3464 Snow -8 976 92 600 13 260 05:26 27.11.2019
3465 Snow -8 975 92 400 12 250 04:55 27.11.2019
3466 Snow -8 974 92 800 12 260 04:36 27.11.2019
3467 Snow -7 973 85 1300 11 260 03:48 27.11.2019
3468 Clouds -7 972 92 750 14 260 03:21 27.11.2019
3469 Snow -6 971 92 450 15 270 02:48 27.11.2019
3470 Snow -5 968 92 1600 6 260 01:25 27.11.2019
3471 Snow -5 967 92 10000 6 230 00:42 27.11.2019
3472 Snow -4 967 92 10000 6 230 00:23 27.11.2019
3473 Snow -6 966 100 8000 6 200 23:42 26.11.2019
3474 Snow -6 966 100 8000 6 200 23:24 26.11.2019
3475 Snow -6 966 92 4500 9 190 22:55 26.11.2019
3476 Snow -6 965 85 2100 11 190 22:37 26.11.2019
3477 Snow -6 965 85 2100 11 190 22:18 26.11.2019
3478 Snow -7 964 92 450 12 210 21:39 26.11.2019
3479 Snow -7 964 92 450 12 210 21:21 26.11.2019
3480 Snow -6 963 92 450 11 210 20:58 26.11.2019
3481 Snow -6 963 92 450 11 210 20:39 26.11.2019
3482 Snow -4 963 92 450 11 210 20:19 26.11.2019
3483 Snow -4 962 85 1200 9 180 19:56 26.11.2019
3484 Snow -4 962 85 1200 9 180 19:38 26.11.2019
3485 Snow -4 962 85 1200 9 180 19:20 26.11.2019
3486 Snow -3 961 92 2500 6 160 18:58 26.11.2019
3487 Snow -3 961 92 2500 6 160 18:39 26.11.2019
3488 Snow -3 960 86 10000 8 120 18:21 26.11.2019
3489 Snow -3 960 86 10000 8 120 17:59 26.11.2019
3490 Snow -3 960 86 10000 8 120 17:41 26.11.2019
3491 Snow -3 960 86 10000 8 120 17:22 26.11.2019
3492 Snow -2 960 86 4000 11 120 16:57 26.11.2019
3493 Snow -2 960 86 4000 11 120 16:38 26.11.2019
3494 Snow -2 960 86 4000 11 120 16:19 26.11.2019
3495 Snow -2 960 92 1000 12 120 15:59 26.11.2019
3496 Snow -2 960 92 1000 12 120 15:38 26.11.2019
3497 Snow -2 960 92 1000 12 120 15:20 26.11.2019
3498 Clouds -2 961 92 10000 11 120 14:58 26.11.2019
3499 Clouds -2 961 92 10000 11 120 14:40 26.11.2019
3500 Clouds -2 961 92 10000 11 120 14:22 26.11.2019
3501 Clouds -1 961 86 10000 12 120 13:41 26.11.2019
3502 Clouds -1 961 86 10000 12 120 13:23 26.11.2019
3503 Clouds -1 961 86 10000 12 120 13:23 26.11.2019
3504 Clouds -1 961 86 10000 13 120 12:40 26.11.2019
3505 Clouds -1 961 86 10000 13 120 12:22 26.11.2019
3506 Clouds -1 961 92 10000 14 130 11:59 26.11.2019
3507 Clouds -1 961 92 10000 14 130 11:40 26.11.2019
3508 Clouds -1 961 92 10000 14 130 11:20 26.11.2019
3509 Snow 0 960 78 8000 13 130 10:59 26.11.2019
3510 Snow 0 960 78 8000 13 130 10:41 26.11.2019
3511 Snow 0 960 78 8000 13 130 10:21 26.11.2019
3512 Snow 1 960 78 5000 11 120 09:58 26.11.2019
3513 Snow 1 960 78 5000 11 120 09:39 26.11.2019
3514 Snow 1 960 78 5000 11 120 09:21 26.11.2019
3515 Snow 0 960 78 1100 19 90 08:46 26.11.2019
3516 Snow 0 960 89 1100 19 90 08:26 26.11.2019
3517 Snow 0 962 97 500 20 80 07:51 26.11.2019
3518 Snow 0 962 97 500 20 80 07:32 26.11.2019
3519 Snow 0 963 97 300 20 80 06:59 26.11.2019
3520 Snow 0 965 97 350 20 80 06:40 26.11.2019
3521 Snow 0 966 97 300 21 80 05:58 26.11.2019
3522 Snow 0 970 97 450 20 70 04:47 26.11.2019
3523 Snow 0 977 97 1800 21 80 02:53 26.11.2019
3524 Snow -1 981 86 2800 18 80 01:35 26.11.2019
3525 Snow -2 983 86 5000 19 80 00:53 26.11.2019
3526 Snow -2 985 86 5000 18 80 00:33 26.11.2019
3527 Snow -1 986 86 4100 18 80 23:56 25.11.2019
3528 Snow -1 987 86 3300 16 80 23:37 25.11.2019
3529 Snow -1 987 86 3300 16 80 23:18 25.11.2019
3530 Snow -1 989 97 2200 20 90 22:39 25.11.2019
3531 Snow 0 989 97 2200 20 90 22:19 25.11.2019
3532 Snow 0 990 97 2200 19 90 21:59 25.11.2019
3533 Snow 0 990 97 2200 19 90 21:41 25.11.2019
3534 Snow 0 991 97 2500 18 90 21:22 25.11.2019
3535 Snow -1 993 86 3800 16 100 20:58 25.11.2019
3536 Snow -1 993 86 3800 16 100 20:40 25.11.2019
3537 Snow -1 993 86 3800 16 100 20:20 25.11.2019
3538 Snow -1 994 80 9000 17 90 19:56 25.11.2019
3539 Snow -1 994 80 9000 17 90 19:38 25.11.2019
3540 Snow -1 994 80 9000 17 90 19:20 25.11.2019
3541 Snow -3 996 86 10000 13 100 18:57 25.11.2019
3542 Snow -3 996 86 10000 13 100 18:39 25.11.2019
3543 Clouds -3 999 79 10000 11 80 18:21 25.11.2019
3544 Clouds -3 999 79 10000 11 80 17:58 25.11.2019
3545 Clouds -3 999 79 10000 11 80 17:40 25.11.2019
3546 Clouds -3 999 79 10000 11 80 17:40 25.11.2019
3547 Snow -4 1002 85 10000 12 80 17:21 25.11.2019
3548 Snow -4 1002 85 10000 12 80 16:59 25.11.2019
3549 Snow -4 1002 85 10000 12 80 16:40 25.11.2019
3550 Snow -4 1002 85 10000 12 80 16:22 25.11.2019
3551 Snow -6 1004 85 10000 7 70 15:56 25.11.2019
3552 Snow -6 1004 85 10000 7 70 15:37 25.11.2019
3553 Snow -6 1004 85 10000 7 70 15:19 25.11.2019
3554 Clouds -8 1006 78 10000 7 80 14:43 25.11.2019
3555 Clouds -8 1006 78 10000 7 80 14:25 25.11.2019
3556 Clouds -9 1007 78 10000 9 100 13:57 25.11.2019
3557 Clouds -9 1007 78 10000 9 100 13:38 25.11.2019
3558 Clouds -9 1007 78 10000 9 100 13:20 25.11.2019
3559 Clouds -9 1007 78 10000 9 100 13:20 25.11.2019
3560 Snow -9 1010 78 10000 7 60 12:59 25.11.2019
3561 Snow -9 1010 78 10000 7 60 12:39 25.11.2019
3562 Snow -9 1010 78 10000 7 60 12:19 25.11.2019
3563 Snow -9 1010 78 10000 11 90 11:40 25.11.2019
3564 Snow -9 1010 78 10000 11 90 11:21 25.11.2019
3565 Snow -9 1011 78 10000 10 90 10:59 25.11.2019
3566 Snow -9 1011 78 10000 10 90 10:41 25.11.2019
3567 Snow -9 1011 78 10000 10 90 10:20 25.11.2019
3568 Snow -9 1011 78 10000 10 90 10:20 25.11.2019
3569 Snow -9 1012 78 10000 8 60 09:44 25.11.2019
3570 Snow -9 1012 78 10000 8 60 09:26 25.11.2019
3571 Snow -9 1012 78 10000 8 60 09:26 25.11.2019
3572 Snow -10 1014 78 10000 6 80 08:58 25.11.2019
3573 Snow -10 1014 78 10000 6 80 08:39 25.11.2019
3574 Snow -10 1014 78 10000 6 80 08:20 25.11.2019
3575 Snow -11 1014 85 10000 7 60 07:41 25.11.2019
3576 Snow -11 1014 85 10000 7 60 07:18 25.11.2019
3577 Clouds -11 1015 72 10000 4 70 06:43 25.11.2019
3578 Snow -12 1016 85 9000 5 90 06:19 25.11.2019
3579 Snow -12 1016 85 9000 5 90 06:19 25.11.2019
3580 Clouds -15 1016 70 10000 2 70 05:37 25.11.2019
3581 Clouds -20 1016 76 10000 1 350 04:50 25.11.2019
3582 Clouds -24 1017 76 10000 2 310 02:48 25.11.2019
3583 Clear -24 1018 76 10000 3 350 02:18 25.11.2019
3584 Clear -22 1018 76 10000 2 10 01:38 25.11.2019
3585 Clear -21 1018 76 10000 2 10 01:19 25.11.2019
3586 Clear -22 1019 69 10000 2 20 00:21 25.11.2019
3587 Clear -23 1018 76 10000 2 20 23:57 24.11.2019
3588 Clear -23 1019 76 10000 2 30 23:37 24.11.2019
3589 Clear -24 1019 76 10000 2 30 23:18 24.11.2019
3590 Clear -25 1019 75 10000 2 10 22:42 24.11.2019
3591 Clear -25 1019 75 10000 3 10 22:21 24.11.2019
3592 Clear -25 1019 75 10000 3 10 22:21 24.11.2019
3593 Clear -25 1019 75 10000 2 350 21:59 24.11.2019
3594 Clear -25 1019 75 10000 2 350 21:41 24.11.2019
3595 Clear -24 1019 69 10000 3 20 21:21 24.11.2019
3596 Clear -25 1019 69 10000 3 350 20:59 24.11.2019
3597 Clear -25 1019 69 10000 3 350 20:39 24.11.2019
3598 Clear -25 1019 69 10000 3 350 20:19 24.11.2019
3599 Clear -26 1018 75 10000 3 340 19:57 24.11.2019
3600 Clear -26 1018 75 10000 3 340 19:38 24.11.2019
3601 Clear -26 1018 75 10000 3 340 19:20 24.11.2019
3602 Clear -26 1018 75 10000 4 360 18:59 24.11.2019
3603 Clear -26 1018 75 10000 4 360 18:38 24.11.2019
3604 Clear -26 1018 75 10000 1 330 18:19 24.11.2019
3605 Clear -26 1018 75 10000 1 330 17:57 24.11.2019
3606 Clear -26 1018 75 10000 1 330 17:39 24.11.2019
3607 Clear -26 1018 75 10000 1 330 17:20 24.11.2019
3608 Clear -26 1018 75 10000 3 350 16:57 24.11.2019
3609 Clear -26 1018 75 10000 3 350 16:39 24.11.2019
3610 Clear -26 1018 75 10000 3 350 16:39 24.11.2019
3611 Clear -26 1018 75 10000 3 350 16:20 24.11.2019
3612 Clear -26 1018 75 10000 2 10 15:45 24.11.2019
3613 Clear -26 1018 75 10000 2 10 15:26 24.11.2019
3614 Clear -26 1018 68 10000 3 350 14:58 24.11.2019
3615 Clear -26 1018 68 10000 3 350 14:39 24.11.2019
3616 Clear -26 1018 68 10000 3 350 14:19 24.11.2019
3617 Clear -26 1018 75 10000 4 350 13:55 24.11.2019
3618 Clear -26 1018 75 10000 4 350 13:37 24.11.2019
3619 Clear -26 1018 75 10000 4 350 13:18 24.11.2019
3620 Clear -26 1018 75 10000 3 10 12:42 24.11.2019
3621 Clear -26 1018 75 10000 3 10 12:20 24.11.2019
3622 Clear -26 1018 75 10000 5 10 11:59 24.11.2019
3623 Clear -26 1018 75 10000 5 10 11:37 24.11.2019
3624 Clear -26 1018 75 10000 5 10 11:37 24.11.2019
3625 Clear -25 1017 69 10000 5 10 11:19 24.11.2019
3626 Clear -25 1017 69 10000 5 10 10:47 24.11.2019
3627 Clear -25 1017 69 10000 5 10 10:29 24.11.2019
3628 Clear -25 1017 69 10000 5 10 10:29 24.11.2019
3629 Clear -26 1017 75 10000 5 10 09:59 24.11.2019
3630 Clear -26 1017 75 10000 5 10 09:38 24.11.2019
3631 Clear -26 1017 75 10000 5 10 09:19 24.11.2019
3632 Clear -26 1017 75 10000 3 10 08:56 24.11.2019
3633 Clear -26 1017 75 10000 3 10 08:37 24.11.2019
3634 Clear -26 1017 75 10000 3 10 08:18 24.11.2019
3635 Clear -25 1017 75 10000 3 340 07:47 24.11.2019
3636 Clear -25 1017 75 10000 3 340 07:20 24.11.2019
3637 Clear -24 1016 76 10000 4 320 06:26 24.11.2019
3638 Clouds -24 1016 76 10000 4 360 04:54 24.11.2019
3639 Clouds -24 1016 76 10000 4 360 04:35 24.11.2019
3640 Clouds -23 1016 76 10000 3 340 02:35 24.11.2019
3641 Clouds -23 1015 76 10000 1 10 01:49 24.11.2019
3642 Clouds -23 1015 76 10000 1 10 01:27 24.11.2019
3643 Clouds -23 1015 76 10000 2 20 00:50 24.11.2019
3644 Clouds -23 1015 76 10000 2 20 00:24 24.11.2019
3645 Clouds -24 1015 76 10000 2 350 23:56 23.11.2019
3646 Clouds -24 1015 76 10000 2 350 23:56 23.11.2019
3647 Clouds -24 1015 76 10000 2 350 23:38 23.11.2019
3648 Clouds -24 1015 76 10000 2 350 23:19 23.11.2019
3649 Clear -24 1015 76 10000 2 350 22:55 23.11.2019
3650 Clear -24 1015 76 10000 2 350 22:37 23.11.2019
3651 Clear -24 1015 76 10000 2 350 22:18 23.11.2019
3652 Clouds -24 1014 76 10000 2 360 21:55 23.11.2019
3653 Clouds -24 1014 76 10000 2 360 21:36 23.11.2019
3654 Clouds -24 1014 76 10000 2 360 21:18 23.11.2019
3655 Clouds -24 1014 76 10000 3 10 20:38 23.11.2019
3656 Clouds -24 1014 76 10000 3 10 20:19 23.11.2019
3657 Clouds -25 1013 75 10000 3 10 19:56 23.11.2019
3658 Clouds -25 1013 75 10000 3 10 19:38 23.11.2019
3659 Clouds -25 1013 75 10000 3 10 19:18 23.11.2019
3660 Clouds -25 1013 75 10000 3 10 19:18 23.11.2019
3661 Clouds -25 1013 75 10000 3 10 19:18 23.11.2019
3662 Clouds -24 1013 76 10000 3 10 18:55 23.11.2019
3663 Clouds -24 1013 76 10000 3 10 18:36 23.11.2019
3664 Clouds -23 1013 76 10000 3 360 18:18 23.11.2019
3665 Clouds -23 1013 76 10000 3 360 17:41 23.11.2019
3666 Clouds -23 1013 76 10000 3 360 17:21 23.11.2019
3667 Clouds -23 1012 76 10000 4 360 16:56 23.11.2019
3668 Clouds -23 1012 76 10000 4 360 16:38 23.11.2019
3669 Clouds -23 1012 76 10000 4 360 16:38 23.11.2019
3670 Clouds -23 1012 76 10000 4 360 16:20 23.11.2019
3671 Clouds -23 1012 76 10000 4 360 15:58 23.11.2019
3672 Clouds -23 1012 76 10000 4 360 15:39 23.11.2019
3673 Clouds -23 1012 76 10000 4 360 15:19 23.11.2019
3674 Clouds -23 1011 76 10000 4 20 14:56 23.11.2019
3675 Clouds -23 1011 76 10000 4 20 14:56 23.11.2019
3676 Clouds -23 1011 76 10000 4 20 14:37 23.11.2019
3677 Clouds -23 1011 76 10000 4 20 14:18 23.11.2019
3678 Clouds -24 1011 83 10000 3 360 13:42 23.11.2019
3679 Clouds -24 1011 83 10000 3 360 13:20 23.11.2019
3680 Clouds -23 1010 76 10000 4 360 12:58 23.11.2019
3681 Clouds -23 1010 76 10000 4 360 12:39 23.11.2019
3682 Clouds -23 1010 76 10000 4 360 12:21 23.11.2019
3683 Clouds -23 1010 76 10000 3 10 11:42 23.11.2019
3684 Clouds -23 1010 76 10000 3 10 11:20 23.11.2019
3685 Clouds -23 1010 76 10000 4 10 10:45 23.11.2019
3686 Clouds -23 1010 76 10000 4 10 10:22 23.11.2019
3687 Clouds -23 1009 76 10000 3 360 09:42 23.11.2019
3688 Clouds -23 1009 76 10000 3 360 09:21 23.11.2019
3689 Clouds -23 1008 83 10000 3 360 08:45 23.11.2019
3690 Clouds -23 1008 83 10000 3 360 08:20 23.11.2019
3691 Clouds -23 1008 76 10000 5 20 07:54 23.11.2019
3692 Clouds -23 1008 76 10000 5 20 07:35 23.11.2019
3693 Clear -24 1008 76 10000 3 360 06:48 23.11.2019
3694 Clear -23 1007 76 10000 5 20 06:21 23.11.2019
3695 Clear -23 1007 76 10000 5 20 05:51 23.11.2019
3696 Clear -23 1007 76 10000 5 20 05:29 23.11.2019
3697 Clear -23 1007 76 10000 2 40 04:50 23.11.2019
3698 Clear -23 1007 76 10000 2 40 04:28 23.11.2019
3699 Clear -22 1006 76 10000 5 360 02:53 23.11.2019
3700 Clear -22 1006 76 10000 5 360 02:22 23.11.2019
3701 Clear -22 1006 83 10000 4 10 01:38 23.11.2019
3702 Clear -21 1006 76 10000 4 20 00:43 23.11.2019
3703 Clear -21 1006 76 10000 3 360 00:18 23.11.2019
3704 Clear -21 1006 76 10000 3 360 00:18 23.11.2019
3705 Clear -21 1006 76 10000 3 360 23:42 22.11.2019
3706 Clear -21 1006 76 10000 3 360 23:20 22.11.2019
3707 Clear -22 1006 83 10000 4 360 22:57 22.11.2019
3708 Clear -22 1006 83 10000 4 360 22:38 22.11.2019
3709 Clear -22 1006 83 10000 4 360 22:38 22.11.2019
3710 Clear -22 1006 83 10000 4 360 22:20 22.11.2019
3711 Clear -21 1006 76 10000 4 20 21:58 22.11.2019
3712 Clear -21 1006 76 10000 4 20 21:39 22.11.2019
3713 Clear -21 1006 76 10000 4 20 21:20 22.11.2019
3714 Clear -22 1006 76 10000 4 20 20:43 22.11.2019
3715 Clear -22 1006 76 10000 4 20 20:22 22.11.2019
3716 Clear -22 1006 76 10000 4 20 20:22 22.11.2019
3717 Clear -22 1006 76 10000 3 360 19:57 22.11.2019
3718 Clear -22 1006 76 10000 3 360 19:38 22.11.2019
3719 Clear -22 1006 76 10000 3 360 19:19 22.11.2019
3720 Clear -21 1006 76 10000 4 20 18:41 22.11.2019
3721 Clear -21 1006 76 10000 4 20 18:22 22.11.2019
3722 Clear -22 1006 76 10000 3 20 17:59 22.11.2019
3723 Clear -22 1006 76 10000 3 20 17:40 22.11.2019
3724 Clear -22 1006 76 10000 3 20 17:22 22.11.2019
3725 Clear -22 1005 76 10000 4 360 16:47 22.11.2019
3726 Clear -22 1005 76 10000 4 360 16:28 22.11.2019
3727 Clear -22 1005 83 10000 7 350 15:47 22.11.2019
3728 Clear -22 1005 83 10000 7 350 15:25 22.11.2019
3729 Clear -21 1006 76 10000 4 350 14:57 22.11.2019
3730 Clear -21 1006 76 10000 4 350 14:39 22.11.2019
3731 Clear -21 1006 76 10000 4 350 14:21 22.11.2019
3732 Clear -21 1006 76 10000 2 20 13:59 22.11.2019
3733 Clear -21 1006 76 10000 2 20 13:37 22.11.2019
3734 Clear -21 1006 76 10000 2 20 13:19 22.11.2019
3735 Clear -22 1006 83 10000 7 350 12:57 22.11.2019
3736 Clear -22 1006 83 10000 7 350 12:39 22.11.2019
3737 Clear -22 1006 83 10000 7 350 12:19 22.11.2019
3738 Clear -21 1006 76 10000 7 340 11:56 22.11.2019
3739 Clear -21 1006 76 10000 7 340 11:36 22.11.2019
3740 Clear -21 1006 76 10000 7 340 11:18 22.11.2019
3741 Clear -21 1006 76 10000 7 340 10:41 22.11.2019
3742 Clear -21 1006 76 10000 7 340 10:22 22.11.2019
3743 Clear -21 1005 76 10000 7 340 09:58 22.11.2019
3744 Clear -21 1005 76 10000 7 340 09:39 22.11.2019
3745 Clear -21 1005 76 10000 7 340 09:21 22.11.2019
3746 Clear -21 1005 76 10000 6 340 08:48 22.11.2019
3747 Clear -21 1005 76 10000 6 340 08:48 22.11.2019
3748 Clear -21 1005 76 10000 6 340 08:28 22.11.2019
3749 Clouds -22 1005 83 10000 5 350 07:58 22.11.2019
3750 Clouds -22 1005 83 10000 5 350 07:40 22.11.2019
3751 Clouds -22 1005 83 10000 5 350 07:19 22.11.2019
3752 Clouds -21 1005 76 10000 4 360 06:41 22.11.2019
3753 Clouds -21 1005 76 10000 5 350 05:57 22.11.2019
3754 Clouds -21 1005 83 10000 6 330 04:53 22.11.2019
3755 Clouds -20 1005 76 10000 4 320 02:57 22.11.2019
3756 Clouds -20 1004 76 10000 5 330 02:33 22.11.2019
3757 Clouds -20 1004 76 10000 6 340 01:46 22.11.2019
3758 Clouds -21 1004 76 10000 3 340 01:20 22.11.2019
3759 Clouds -21 1004 76 10000 5 340 00:54 22.11.2019
3760 Clouds -21 1004 76 10000 7 340 00:25 22.11.2019
3761 Clouds -22 1004 83 10000 7 340 23:57 21.11.2019
3762 Clouds -22 1004 83 10000 7 350 23:39 21.11.2019
3763 Clouds -22 1004 83 10000 7 350 23:21 21.11.2019
3764 Clouds -22 1004 83 10000 5 330 22:54 21.11.2019
3765 Clouds -22 1004 83 10000 4 350 22:36 21.11.2019
3766 Clouds -22 1004 83 10000 4 350 22:18 21.11.2019
3767 Clear -21 1004 76 10000 3 40 21:54 21.11.2019
3768 Clear -21 1004 76 10000 7 340 21:36 21.11.2019
3769 Clear -21 1004 76 10000 7 340 21:18 21.11.2019
3770 Clear -21 1004 76 10000 6 340 20:39 21.11.2019
3771 Clear -21 1004 76 10000 6 340 20:19 21.11.2019
3772 Clear -21 1004 76 10000 3 350 19:59 21.11.2019
3773 Clear -21 1004 76 10000 3 350 19:59 21.11.2019
3774 Clear -21 1004 76 10000 3 350 19:41 21.11.2019
3775 Clear -21 1004 76 10000 3 350 19:23 21.11.2019
3776 Clear -21 1004 76 10000 4 350 18:58 21.11.2019
3777 Clear -21 1004 76 10000 4 350 18:40 21.11.2019
3778 Clear -21 1004 76 10000 4 350 18:20 21.11.2019
3779 Clear -21 1004 83 10000 5 330 17:58 21.11.2019
3780 Clear -21 1004 83 10000 5 330 17:39 21.11.2019
3781 Clear -21 1004 83 10000 5 330 17:20 21.11.2019
3782 Clear -21 1004 83 10000 6 330 16:56 21.11.2019
3783 Clear -21 1004 83 10000 6 330 16:37 21.11.2019
3784 Clear -21 1004 83 10000 6 330 16:19 21.11.2019
3785 Clear -21 1004 83 10000 5 340 15:42 21.11.2019
3786 Clear -21 1004 83 10000 5 340 15:21 21.11.2019
3787 Clear -20 1004 76 10000 5 330 14:57 21.11.2019
3788 Clear -20 1004 76 10000 5 330 14:37 21.11.2019
3789 Clear -20 1004 76 10000 5 330 14:19 21.11.2019
3790 Clear -20 1004 83 10000 4 330 13:56 21.11.2019
3791 Clear -20 1004 83 10000 4 330 13:36 21.11.2019
3792 Clear -20 1004 83 10000 4 330 13:18 21.11.2019
3793 Clear -20 1004 83 10000 4 330 13:18 21.11.2019
3794 Clear -20 1005 83 10000 6 340 12:40 21.11.2019
3795 Clear -20 1005 83 10000 6 340 12:22 21.11.2019
3796 Clear -20 1005 83 10000 6 350 11:55 21.11.2019
3797 Clear -20 1005 83 10000 6 350 11:36 21.11.2019
3798 Clear -20 1005 83 10000 6 350 11:18 21.11.2019
3799 Clear -20 1005 83 10000 4 340 10:42 21.11.2019
3800 Clear -20 1005 83 10000 4 340 10:23 21.11.2019
3801 Clear -20 1005 83 10000 4 340 10:23 21.11.2019
3802 Clear -20 1005 83 10000 2 30 09:57 21.11.2019
3803 Clear -20 1005 83 10000 2 30 09:39 21.11.2019
3804 Clear -20 1005 83 10000 2 30 09:20 21.11.2019
3805 Clear -20 1005 83 10000 2 30 09:20 21.11.2019
3806 Clear -19 1005 84 10000 3 340 08:43 21.11.2019
3807 Clear -19 1005 84 10000 3 340 08:22 21.11.2019
3808 Clear -20 1005 83 10000 6 340 07:44 21.11.2019
3809 Clear -20 1005 83 10000 6 340 07:19 21.11.2019
3810 Clear -19 1005 84 10000 5 350 06:58 21.11.2019
3811 Clear -20 1005 83 10000 5 350 06:34 21.11.2019
3812 Clear -20 1005 83 10000 4 330 05:42 21.11.2019
3813 Clear -18 1006 84 10000 5 340 03:35 21.11.2019
3814 Clear -17 1006 84 10000 5 350 02:42 21.11.2019
3815 Clear -17 1006 77 10000 5 340 02:23 21.11.2019
3816 Clear -17 1006 84 10000 5 340 01:47 21.11.2019
3817 Clouds -17 1006 84 10000 6 340 01:20 21.11.2019
3818 Clouds -18 1006 84 10000 6 340 00:38 21.11.2019
3819 Clouds -18 1006 84 10000 6 340 00:19 21.11.2019
3820 Clouds -18 1006 84 10000 6 330 23:42 20.11.2019
3821 Clouds -18 1007 84 10000 4 340 23:21 20.11.2019
3822 Clouds -18 1006 84 10000 5 340 22:58 20.11.2019
3823 Clear -17 1006 77 10000 5 330 22:37 20.11.2019
3824 Clear -17 1006 77 10000 5 330 22:19 20.11.2019
3825 Clear -17 1006 77 10000 5 330 22:19 20.11.2019
3826 Clouds -17 1007 84 10000 5 340 21:57 20.11.2019
3827 Clouds -17 1007 84 10000 5 330 21:38 20.11.2019
3828 Clouds -17 1007 84 10000 5 330 21:38 20.11.2019
3829 Clouds -16 1007 84 10000 5 330 21:19 20.11.2019
3830 Clouds -16 1007 84 10000 5 330 21:19 20.11.2019
3831 Clouds -17 1007 84 10000 3 350 20:56 20.11.2019
3832 Clouds -17 1007 84 10000 3 350 20:38 20.11.2019
3833 Clouds -17 1007 84 10000 3 350 20:19 20.11.2019
3834 Clear -16 1007 84 10000 5 350 19:56 20.11.2019
3835 Clear -16 1007 84 10000 5 350 19:36 20.11.2019
3836 Clear -16 1007 84 10000 5 350 19:18 20.11.2019
3837 Clear -15 1007 84 10000 5 320 18:58 20.11.2019
3838 Clear -15 1007 84 10000 5 320 18:38 20.11.2019
3839 Clear -15 1007 84 10000 5 320 18:20 20.11.2019
3840 Clear -16 1006 84 10000 3 330 17:55 20.11.2019
3841 Clear -16 1006 84 10000 3 330 17:37 20.11.2019
3842 Clear -16 1006 84 10000 3 330 17:19 20.11.2019
3843 Clear -15 1007 84 10000 6 320 16:43 20.11.2019
3844 Clear -15 1007 84 10000 6 320 16:21 20.11.2019
3845 Clear -15 1007 84 10000 7 340 15:59 20.11.2019
3846 Clear -15 1007 84 10000 7 340 15:41 20.11.2019
3847 Clear -15 1007 84 10000 7 340 15:20 20.11.2019
3848 Clear -16 1007 84 10000 7 360 14:59 20.11.2019
3849 Clear -16 1007 84 10000 7 360 14:40 20.11.2019
3850 Clear -16 1007 84 10000 7 360 14:21 20.11.2019
3851 Clear -16 1008 84 10000 5 360 13:57 20.11.2019
3852 Clear -16 1008 84 10000 5 360 13:38 20.11.2019
3853 Clear -16 1008 84 10000 5 360 13:19 20.11.2019
3854 Clear -16 1008 84 10000 5 360 13:19 20.11.2019
3855 Clear -16 1008 84 10000 5 330 12:43 20.11.2019
3856 Clear -16 1008 84 10000 5 330 12:43 20.11.2019
3857 Clear -16 1008 84 10000 5 330 12:43 20.11.2019
3858 Clear -16 1008 84 10000 5 330 12:25 20.11.2019
3859 Clear -15 1008 84 10000 3 320 11:58 20.11.2019
3860 Clear -15 1008 84 10000 3 320 11:38 20.11.2019
3861 Clear -15 1008 84 10000 3 320 11:20 20.11.2019
3862 Clear -14 1008 84 10000 4 320 10:55 20.11.2019
3863 Clear -14 1008 84 10000 4 320 10:37 20.11.2019
3864 Clear -14 1008 84 10000 4 320 10:18 20.11.2019
3865 Clear -14 1009 84 10000 2 340 09:43 20.11.2019
3866 Clear -14 1009 84 10000 2 340 09:21 20.11.2019
3867 Clouds -14 1009 84 10000 3 340 08:56 20.11.2019
3868 Clouds -14 1009 84 10000 3 340 08:56 20.11.2019
3869 Clouds -14 1009 84 10000 3 340 08:37 20.11.2019
3870 Clouds -14 1009 84 10000 3 340 08:18 20.11.2019
3871 Clouds -14 1009 84 10000 5 20 07:42 20.11.2019
3872 Clouds -14 1009 84 10000 5 20 07:24 20.11.2019
3873 Clouds -14 1010 84 10000 5 360 06:47 20.11.2019
3874 Clouds -14 1010 84 10000 4 350 06:20 20.11.2019
3875 Clear -14 1010 84 10000 5 20 04:52 20.11.2019
3876 Clear -13 1010 84 10000 5 360 03:28 20.11.2019
3877 Clouds -11 1011 85 10000 7 350 02:18 20.11.2019
3878 Clouds -12 1011 85 10000 8 350 01:21 20.11.2019
3879 Clouds -13 1012 85 10000 4 350 00:40 20.11.2019
3880 Clouds -13 1012 84 10000 2 360 23:52 19.11.2019
3881 Clouds -14 1013 84 10000 4 350 23:25 19.11.2019
3882 Clouds -14 1013 84 10000 4 340 22:57 19.11.2019
3883 Clouds -14 1013 84 10000 4 340 22:57 19.11.2019
3884 Clouds -14 1013 84 10000 4 340 22:39 19.11.2019
3885 Clouds -14 1013 84 10000 4 340 22:39 19.11.2019
3886 Clouds -14 1013 84 10000 3 330 22:19 19.11.2019
3887 Clouds -14 1013 84 10000 3 330 22:19 19.11.2019
3888 Clouds -15 1013 84 10000 2 290 21:56 19.11.2019
3889 Clouds -15 1013 84 10000 3 320 21:37 19.11.2019
3890 Clouds -15 1013 84 10000 3 320 21:19 19.11.2019
3891 Clouds -15 1013 84 10000 3 320 21:19 19.11.2019
3892 Clouds -16 1014 84 10000 2 360 20:55 19.11.2019
3893 Clouds -16 1014 84 10000 2 360 20:37 19.11.2019
3894 Clouds -16 1014 84 10000 2 360 20:18 19.11.2019
3895 Clouds -15 1014 84 10000 2 320 19:55 19.11.2019
3896 Clouds -15 1014 84 10000 2 320 19:37 19.11.2019
3897 Clouds -15 1014 84 10000 2 320 19:18 19.11.2019
3898 Clouds -14 1015 84 10000 4 350 18:54 19.11.2019
3899 Clouds -14 1015 84 10000 4 350 18:36 19.11.2019
3900 Clouds -14 1015 84 10000 4 350 18:18 19.11.2019
3901 Snow -14 1015 84 10000 3 360 17:54 19.11.2019
3902 Snow -14 1015 84 10000 3 360 17:36 19.11.2019
3903 Snow -14 1015 84 10000 3 360 17:18 19.11.2019
3904 Snow -14 1015 77 10000 1 350 16:41 19.11.2019
3905 Snow -14 1015 77 10000 1 350 16:21 19.11.2019
3906 Snow -15 1016 84 10000 1 330 15:47 19.11.2019
3907 Snow -15 1016 84 10000 1 330 15:28 19.11.2019
3908 Snow -13 1017 84 10000 4 350 14:59 19.11.2019
3909 Snow -13 1017 84 10000 4 350 14:59 19.11.2019
3910 Snow -13 1017 84 10000 4 350 14:59 19.11.2019
3911 Snow -13 1017 84 10000 4 350 14:40 19.11.2019
3912 Snow -13 1017 84 10000 4 350 14:21 19.11.2019
3913 Clouds -14 1018 84 10000 4 360 13:59 19.11.2019
3914 Clouds -14 1018 84 10000 4 360 13:39 19.11.2019
3915 Clouds -14 1018 84 10000 4 360 13:39 19.11.2019
3916 Clouds -14 1018 84 10000 4 360 13:18 19.11.2019
3917 Snow -14 1018 84 10000 4 20 12:40 19.11.2019
3918 Snow -14 1018 84 10000 4 20 12:40 19.11.2019
3919 Snow -14 1018 84 10000 4 20 12:21 19.11.2019
3920 Clouds -16 1018 84 10000 5 360 11:57 19.11.2019
3921 Clouds -16 1018 84 10000 5 360 11:37 19.11.2019
3922 Clouds -16 1018 84 10000 5 360 11:19 19.11.2019
3923 Clouds -14 1018 84 10000 4 350 10:45 19.11.2019
3924 Clouds -14 1018 84 10000 4 350 10:22 19.11.2019
3925 Clouds -15 1019 84 10000 3 350 09:56 19.11.2019
3926 Clouds -15 1019 84 10000 3 350 09:38 19.11.2019
3927 Clouds -15 1019 84 10000 3 350 09:18 19.11.2019
3928 Clear -14 1019 84 10000 2 350 08:40 19.11.2019
3929 Clear -14 1019 84 10000 2 350 08:22 19.11.2019
3930 Clear -14 1019 84 10000 2 350 08:22 19.11.2019
3931 Clear -13 1019 78 10000 5 360 07:56 19.11.2019
3932 Clear -13 1019 78 10000 5 360 07:37 19.11.2019
3933 Clear -13 1019 78 10000 5 360 07:37 19.11.2019
3934 Clear -13 1019 78 10000 5 360 07:19 19.11.2019
3935 Clear -12 1019 78 10000 4 10 06:45 19.11.2019
3936 Clouds -11 1019 85 10000 5 10 06:27 19.11.2019
3937 Clouds -11 1019 92 10000 4 10 05:20 19.11.2019
3938 Snow -9 1019 85 10000 4 20 03:45 19.11.2019
3939 Snow -8 1019 78 10000 1 40 03:22 19.11.2019
3940 Snow -9 1019 85 10000 2 20 02:51 19.11.2019
3941 Snow -8 1019 78 10000 3 20 01:58 19.11.2019
3942 Snow -9 1019 78 10000 2 40 00:59 19.11.2019
3943 Clouds -8 1019 78 10000 3 40 00:21 19.11.2019
3944 Clouds -8 1019 78 10000 3 40 00:21 19.11.2019
3945 Snow -11 1019 85 10000 4 20 23:56 18.11.2019
3946 Snow -12 1019 85 10000 1 30 23:37 18.11.2019
3947 Snow -12 1019 85 10000 1 30 23:18 18.11.2019
3948 Snow -12 1019 85 10000 2 10 22:42 18.11.2019
3949 Clouds -13 1019 92 10000 2 10 22:23 18.11.2019
3950 Clouds -13 1018 84 10000 2 10 21:54 18.11.2019
3951 Clouds -13 1018 84 10000 3 10 21:36 18.11.2019
3952 Clouds -13 1018 84 10000 3 10 21:18 18.11.2019
3953 Clouds -14 1018 84 10000 2 10 20:42 18.11.2019
3954 Clouds -14 1018 84 10000 2 10 20:20 18.11.2019
3955 Clouds -13 1018 84 10000 2 360 19:58 18.11.2019
3956 Clouds -13 1018 84 10000 2 360 19:39 18.11.2019
3957 Clouds -13 1018 84 10000 2 360 19:21 18.11.2019
3958 Clouds -15 1018 84 10000 3 360 18:57 18.11.2019
3959 Clouds -15 1018 84 10000 3 360 18:38 18.11.2019
3960 Clouds -15 1018 84 10000 3 360 18:38 18.11.2019
3961 Clouds -15 1018 84 10000 3 360 18:20 18.11.2019
3962 Clouds -15 1018 84 10000 3 360 18:20 18.11.2019
3963 Clouds -14 1017 84 10000 3 360 17:59 18.11.2019
3964 Clouds -14 1017 84 10000 3 360 17:38 18.11.2019
3965 Clouds -14 1017 84 10000 3 360 17:19 18.11.2019
3966 Clouds -14 1017 84 10000 2 10 16:43 18.11.2019
3967 Clouds -14 1017 84 10000 2 10 16:25 18.11.2019
3968 Clouds -14 1017 84 10000 2 10 16:25 18.11.2019
3969 Clear -15 1017 84 10000 2 10 15:59 18.11.2019
3970 Clear -15 1017 84 10000 2 10 15:59 18.11.2019
3971 Clear -15 1017 84 10000 2 10 15:41 18.11.2019
3972 Clear -15 1017 84 10000 2 10 15:22 18.11.2019
3973 Clear -16 1016 84 10000 2 30 14:59 18.11.2019
3974 Clear -16 1016 84 10000 2 30 14:41 18.11.2019
3975 Clear -16 1016 84 10000 2 30 14:22 18.11.2019
3976 Clouds -15 1016 92 10000 3 350 13:45 18.11.2019
3977 Clouds -15 1016 92 10000 3 350 13:27 18.11.2019
3978 Clouds -15 1016 84 10000 1 350 12:57 18.11.2019
3979 Clouds -15 1016 84 10000 1 350 12:57 18.11.2019
3980 Clouds -15 1016 84 10000 1 350 12:37 18.11.2019
3981 Clouds -15 1016 84 10000 1 350 12:18 18.11.2019
3982 Clouds -14 1016 84 10000 3 360 11:42 18.11.2019
3983 Clouds -14 1016 84 10000 3 360 11:24 18.11.2019
3984 Clouds -14 1016 84 10000 3 360 10:45 18.11.2019
3985 Clouds -14 1016 84 10000 3 360 10:26 18.11.2019
3986 Clouds -14 1015 92 10000 3 30 09:59 18.11.2019
3987 Clouds -14 1015 92 10000 3 30 09:39 18.11.2019
3988 Clouds -14 1015 92 10000 3 30 09:21 18.11.2019
3989 Clear -14 1015 84 10000 2 20 08:58 18.11.2019
3990 Clear -14 1015 84 10000 2 20 08:40 18.11.2019
3991 Clouds -14 1015 84 10000 2 20 08:19 18.11.2019
3992 Clouds -13 1014 84 10000 2 20 07:45 18.11.2019
3993 Clouds -13 1014 84 10000 2 20 07:26 18.11.2019
3994 Clouds -14 1014 84 10000 2 30 06:49 18.11.2019
3995 Clouds -12 1014 85 10000 3 10 06:28 18.11.2019
3996 Clouds -11 1014 92 10000 2 20 05:45 18.11.2019
3997 Clouds -11 1013 92 10000 3.75 340 04:35 18.11.2019
3998 Clouds -9 1012 92 10000 4 10 01:49 18.11.2019
3999 Clouds -8 1012 85 10000 4 360 01:30 18.11.2019
4000 Clouds -9 1012 92 10000 3 340 00:22 18.11.2019
4001 Clouds -9 1012 85 10000 4 350 23:43 17.11.2019
4002 Clouds -9 1012 85 10000 2 360 23:24 17.11.2019
4003 Clouds -9 1012 85 10000 2 350 22:58 17.11.2019
4004 Clouds -9 1012 85 10000 2 350 22:40 17.11.2019
4005 Clouds -9 1012 85 10000 1 360 22:22 17.11.2019
4006 Clouds -9 1012 85 10000 3 350 21:57 17.11.2019
4007 Clouds -9 1012 85 10000 3 350 21:39 17.11.2019
4008 Clouds -8 1011 85 10000 3 350 21:19 17.11.2019
4009 Clouds -8 1011 85 10000 2 360 20:56 17.11.2019
4010 Clouds -8 1011 85 10000 2 360 20:37 17.11.2019
4011 Clouds -8 1011 85 10000 2 360 20:19 17.11.2019
4012 Clouds -8 1011 85 10000 3 360 19:56 17.11.2019
4013 Clouds -8 1011 85 10000 3 360 19:56 17.11.2019
4014 Clouds -8 1011 85 10000 3 360 19:37 17.11.2019
4015 Clouds -8 1011 85 10000 3 360 19:37 17.11.2019
4016 Clouds -8 1011 85 10000 3 360 19:19 17.11.2019
4017 Clouds -8 1011 85 10000 2 360 18:55 17.11.2019
4018 Clouds -8 1011 85 10000 2 360 18:36 17.11.2019
4019 Clouds -8 1011 85 10000 2 360 18:18 17.11.2019
4020 Clouds -8 1011 85 10000 2 360 18:18 17.11.2019
4021 Clouds -8 1011 85 10000 2 360 17:57 17.11.2019
4022 Clouds -8 1011 85 10000 2 360 17:38 17.11.2019
4023 Clouds -8 1011 85 10000 2 360 17:19 17.11.2019
4024 Clouds -9 1010 92 10000 1 10 16:57 17.11.2019
4025 Clouds -9 1010 92 10000 1 10 16:38 17.11.2019
4026 Clouds -9 1010 92 10000 1 10 16:20 17.11.2019
4027 Clouds -10 1010 85 10000 2 20 15:55 17.11.2019
4028 Clouds -10 1010 85 10000 2 20 15:36 17.11.2019
4029 Clouds -10 1010 85 10000 2 20 15:18 17.11.2019
4030 Clouds -11 1010 85 10000 3 20 14:55 17.11.2019
4031 Clouds -11 1010 85 10000 3 20 14:36 17.11.2019
4032 Clouds -11 1010 85 10000 3 20 14:18 17.11.2019
4033 Clouds -13 1011 84 10000 3 20 13:41 17.11.2019
4034 Clouds -13 1011 84 10000 3 20 13:21 17.11.2019
4035 Clouds -12 1011 85 10000 2 30 12:59 17.11.2019
4036 Clouds -12 1011 85 10000 2 30 12:38 17.11.2019
4037 Clouds -12 1011 85 10000 2 30 12:19 17.11.2019
4038 Clouds -13 1011 84 10000 2 50 11:55 17.11.2019
4039 Clouds -13 1011 84 10000 2 50 11:37 17.11.2019
4040 Clouds -13 1011 84 10000 2 50 11:18 17.11.2019
4041 Clouds -11 1011 85 10000 2 350 10:41 17.11.2019
4042 Clouds -11 1011 85 10000 2 350 10:22 17.11.2019
4043 Clouds -11 1011 85 10000 2 340 09:43 17.11.2019
4044 Clouds -11 1011 85 10000 2 340 09:24 17.11.2019
4045 Clouds -11 1011 85 10000 1 30 08:57 17.11.2019
4046 Clouds -11 1011 85 10000 1 30 08:37 17.11.2019
4047 Clouds -11 1011 85 10000 1 30 08:18 17.11.2019
4048 Clouds -10 1011 85 10000 2 330 07:42 17.11.2019
4049 Clouds -10 1011 85 10000 2 330 07:42 17.11.2019
4050 Clouds -10 1011 85 10000 2 330 07:21 17.11.2019
4051 Clouds -7 1011 79 10000 2 340 06:55 17.11.2019
4052 Clouds -7 1011 79 10000 2 340 06:30 17.11.2019
4053 Clouds -7 1011 79 10000 2 340 06:30 17.11.2019
4054 Clouds -9 1011 78 10000 2 100 05:39 17.11.2019
4055 Clouds -10 1010 85 10000 2 70 04:20 17.11.2019
4056 Clouds -8 1010 85 10000 4 20 03:40 17.11.2019
4057 Clouds -8 1010 85 10000 4 20 03:22 17.11.2019
4058 Clouds -8 1011 85 10000 3 10 02:19 17.11.2019
4059 Clouds -7 1011 85 10000 5 30 01:22 17.11.2019
4060 Clouds -8 1011 79 10000 5 10 00:43 17.11.2019
4061 Clouds -8 1011 85 10000 5 10 00:21 17.11.2019
4062 Clouds -8 1011 85 10000 3 350 23:42 16.11.2019
4063 Clouds -8 1012 78 10000 3 350 23:19 16.11.2019
4064 Clouds -9 1012 85 10000 4 30 22:56 16.11.2019
4065 Clouds -9 1012 78 10000 5 10 22:38 16.11.2019
4066 Clouds -8 1012 78 10000 5 10 22:18 16.11.2019
4067 Clouds -7 1012 79 10000 5 310 21:41 16.11.2019
4068 Clouds -7 1012 79 10000 5 310 21:23 16.11.2019
4069 Clouds -7 1012 79 10000 5 330 20:58 16.11.2019
4070 Clouds -7 1012 79 10000 5 330 20:39 16.11.2019
4071 Clouds -7 1012 79 10000 5 330 20:19 16.11.2019
4072 Clouds -6 1012 79 10000 4 340 19:56 16.11.2019
4073 Clouds -6 1012 79 10000 4 340 19:37 16.11.2019
4074 Clouds -6 1012 79 10000 4 340 19:19 16.11.2019
4075 Clouds -7 1012 85 10000 5 10 18:43 16.11.2019
4076 Clouds -7 1012 85 10000 5 10 18:25 16.11.2019
4077 Clouds -9 1012 78 10000 2 30 17:56 16.11.2019
4078 Clouds -9 1012 78 10000 2 30 17:56 16.11.2019
4079 Clouds -9 1012 78 10000 2 30 17:37 16.11.2019
4080 Clouds -9 1012 78 10000 2 30 17:18 16.11.2019
4081 Clouds -11 1012 85 10000 3 110 16:45 16.11.2019
4082 Clouds -11 1012 85 10000 3 110 16:27 16.11.2019
4083 Clouds -9 1012 85 10000 1 100 15:56 16.11.2019
4084 Clouds -9 1012 85 10000 1 100 15:38 16.11.2019
4085 Clouds -9 1012 85 10000 1 100 15:19 16.11.2019
4086 Clouds -7 1011 79 10000 6 10 14:41 16.11.2019
4087 Clouds -7 1011 79 10000 6 10 14:22 16.11.2019
4088 Clouds -7 1011 79 10000 6 10 14:22 16.11.2019
4089 Clouds -7 1012 67 10000 1 170 13:57 16.11.2019
4090 Clouds -7 1012 67 10000 1 170 13:39 16.11.2019
4091 Clouds -7 1012 67 10000 1 170 13:19 16.11.2019
4092 Clouds -7 1012 79 10000 3 170 12:59 16.11.2019
4093 Clouds -7 1012 79 10000 3 170 12:40 16.11.2019
4094 Clouds -7 1012 79 10000 3 170 12:20 16.11.2019
4095 Clouds -6 1012 79 10000 9 50 11:46 16.11.2019
4096 Clouds -6 1012 79 10000 9 50 11:28 16.11.2019
4097 Clouds -6 1012 79 10000 11 50 10:58 16.11.2019
4098 Clouds -6 1012 79 10000 11 50 10:39 16.11.2019
4099 Clouds -6 1012 79 10000 11 50 10:21 16.11.2019
4100 Clouds -8 1012 78 10000 7 60 09:45 16.11.2019
4101 Clouds -8 1012 78 10000 7 60 09:22 16.11.2019
4102 Clouds -6 1012 79 10000 11 30 08:59 16.11.2019
4103 Clouds -6 1012 79 10000 11 30 08:40 16.11.2019
4104 Clouds -6 1012 79 10000 11 30 08:19 16.11.2019
4105 Clouds -9 1012 85 10000 8 20 07:43 16.11.2019
4106 Clouds -9 1012 85 10000 8 20 07:43 16.11.2019
4107 Clouds -9 1012 85 10000 8 20 07:21 16.11.2019
4108 Clouds -8 1012 78 10000 9 20 06:56 16.11.2019
4109 Clouds -7 1012 73 10000 1 50 06:34 16.11.2019
4110 Clouds -9 1012 78 10000 2 300 05:42 16.11.2019
4111 Clouds -10 1013 85 10000 3 280 04:20 16.11.2019
4112 Clouds -10 1013 85 10000 3 270 03:26 16.11.2019
4113 Clouds -10 1013 85 10000 2 270 02:35 16.11.2019
4114 Clouds -7 1014 79 10000 3 320 01:29 16.11.2019
4115 Clouds -8 1013 85 10000 3 350 00:47 16.11.2019
4116 Clouds -5 1014 73 10000 11 40 00:27 16.11.2019
4117 Clouds -7 1014 73 10000 11 30 23:43 15.11.2019
4118 Clouds -7 1014 79 10000 5 330 23:22 15.11.2019
4119 Clouds -8 1014 85 10000 4 320 22:59 15.11.2019
4120 Clouds -8 1014 78 10000 4 340 22:39 15.11.2019
4121 Clouds -8 1014 78 10000 4 340 22:19 15.11.2019
4122 Clouds -10 1014 85 10000 5 320 21:55 15.11.2019
4123 Clouds -10 1014 85 10000 5 320 21:36 15.11.2019
4124 Clouds -10 1014 85 10000 5 320 21:18 15.11.2019
4125 Snow -8 1014 78 10000 5 360 20:55 15.11.2019
4126 Snow -8 1014 78 10000 5 360 20:37 15.11.2019
4127 Snow -8 1014 78 10000 5 360 20:19 15.11.2019
4128 Clouds -8 1014 85 10000 4 20 19:56 15.11.2019
4129 Clouds -8 1014 85 10000 4 20 19:37 15.11.2019
4130 Clouds -8 1014 85 10000 4 20 19:18 15.11.2019
4131 Clouds -8 1014 78 10000 3 40 18:42 15.11.2019
4132 Clouds -8 1014 78 10000 3 40 18:24 15.11.2019
4133 Clouds -8 1015 78 10000 2 20 17:57 15.11.2019
4134 Clouds -8 1015 78 10000 2 20 17:39 15.11.2019
4135 Clouds -8 1015 78 10000 2 20 17:20 15.11.2019
4136 Clouds -9 1015 85 10000 4 20 16:54 15.11.2019
4137 Clouds -9 1015 85 10000 4 20 16:36 15.11.2019
4138 Clouds -9 1015 85 10000 4 20 16:18 15.11.2019
4139 Clouds -6 1015 73 10000 1 20 15:37 15.11.2019
4140 Clouds -6 1015 73 10000 1 20 15:37 15.11.2019
4141 Clouds -6 1015 73 10000 1 20 15:19 15.11.2019
4142 Clouds -8 1016 78 10000 6 20 14:56 15.11.2019
4143 Clouds -8 1016 78 10000 6 20 14:37 15.11.2019
4144 Clear -8 1016 78 10000 6 20 14:18 15.11.2019
4145 Clear -10 1016 85 10000 4 350 13:55 15.11.2019
4146 Clear -10 1016 85 10000 4 350 13:55 15.11.2019
4147 Clear -10 1016 85 10000 4 350 13:36 15.11.2019
4148 Clouds -10 1016 85 10000 4 350 13:18 15.11.2019
4149 Clouds -10 1016 85 10000 5 350 12:56 15.11.2019
4150 Clouds -10 1016 85 10000 5 350 12:37 15.11.2019
4151 Clouds -10 1016 85 10000 5 350 12:18 15.11.2019
4152 Clouds -10 1016 85 10000 5 350 12:18 15.11.2019
4153 Clouds -9 1017 85 10000 1 90 11:40 15.11.2019
4154 Clouds -9 1017 85 10000 1 90 11:21 15.11.2019
4155 Clouds -9 1017 85 10000 1 90 11:21 15.11.2019
4156 Clouds -11 1017 85 10000 7 350 10:59 15.11.2019
4157 Clouds -11 1017 85 10000 7 350 10:39 15.11.2019
4158 Clouds -11 1017 85 10000 7 350 10:20 15.11.2019
4159 Clouds -11 1018 85 10000 4 350 09:42 15.11.2019
4160 Clouds -11 1018 85 10000 4 350 09:21 15.11.2019
4161 Clouds -11 1018 85 10000 3 330 08:58 15.11.2019
4162 Clouds -11 1018 85 10000 3 330 08:40 15.11.2019
4163 Clear -11 1018 85 10000 3 330 08:21 15.11.2019
4164 Clear -11 1018 85 10000 4 330 07:44 15.11.2019
4165 Clear -11 1019 85 10000 5 330 07:25 15.11.2019
4166 Clear -10 1019 78 10000 5 360 06:36 15.11.2019
4167 Clear -10 1019 85 10000 4 20 05:54 15.11.2019
4168 Clear -11 1019 85 10000 4 350 05:35 15.11.2019
4169 Clear -11 1020 85 10000 4 340 04:54 15.11.2019
4170 Clear -10 1020 85 10000 3 340 03:43 15.11.2019
4171 Clear -8 1020 72 10000 2 350 02:34 15.11.2019
4172 Clouds -8 1020 72 10000 4 340 01:57 15.11.2019
4173 Clouds -8 1021 72 10000 2 30 01:32 15.11.2019
4174 Clouds -9 1021 72 10000 3 10 00:41 15.11.2019
4175 Clouds -8 1021 72 10000 3 10 00:23 15.11.2019
4176 Clouds -8 1022 72 10000 3 320 23:46 14.11.2019
4177 Clouds -8 1022 72 10000 3 320 23:26 14.11.2019
4178 Clouds -10 1022 78 10000 4 300 22:42 14.11.2019
4179 Clouds -9 1022 72 10000 4 290 22:23 14.11.2019
4180 Clouds -9 1022 72 10000 4 290 22:23 14.11.2019
4181 Clouds -10 1022 78 10000 5 350 21:59 14.11.2019
4182 Clouds -10 1022 78 10000 5 350 21:41 14.11.2019
4183 Clouds -11 1022 85 10000 5 360 21:22 14.11.2019
4184 Clouds -11 1023 85 10000 5 340 20:55 14.11.2019
4185 Clouds -11 1023 85 10000 5 340 20:55 14.11.2019
4186 Clouds -11 1023 85 10000 5 340 20:37 14.11.2019
4187 Clouds -11 1023 85 10000 5 340 20:19 14.11.2019
4188 Clouds -10 1023 78 10000 3 330 19:56 14.11.2019
4189 Clouds -10 1023 78 10000 3 330 19:37 14.11.2019
4190 Clouds -10 1023 78 10000 3 330 19:18 14.11.2019
4191 Clouds -9 1023 88 0 4.82 355 18:42 14.11.2019
4192 Clouds -5 1024 62 10000 7 50 18:24 14.11.2019
4193 Clouds -5 1024 62 10000 7 50 17:57 14.11.2019
4194 Clouds -5 1024 62 10000 7 50 17:38 14.11.2019
4195 Clouds -5 1024 62 10000 5 50 17:20 14.11.2019
4196 Clouds -5 1024 62 10000 5 50 16:58 14.11.2019
4197 Clouds -5 1024 62 10000 5 50 16:37 14.11.2019
4198 Clouds -5 1024 62 10000 5 50 16:19 14.11.2019
4199 Clouds -6 1025 67 10000 7 80 15:58 14.11.2019
4200 Clouds -6 1025 67 10000 7 80 15:38 14.11.2019
4201 Clouds -6 1025 67 10000 7 80 15:20 14.11.2019
4202 Clouds -5 1025 62 10000 5 70 14:57 14.11.2019
4203 Clouds -5 1025 62 10000 5 70 14:38 14.11.2019
4204 Clouds -5 1025 62 10000 5 70 14:38 14.11.2019
4205 Clouds -5 1025 62 10000 5 70 14:20 14.11.2019
4206 Clouds -6 1025 73 10000 1 340 13:42 14.11.2019
4207 Clouds -6 1025 73 10000 1 340 13:23 14.11.2019
4208 Clouds -5 1025 67 10000 4 60 12:57 14.11.2019
4209 Clouds -5 1025 67 10000 4 60 12:38 14.11.2019
4210 Clouds -5 1025 67 10000 4 60 12:38 14.11.2019
4211 Clouds -5 1025 67 10000 4 60 12:20 14.11.2019
4212 Snow -5 1025 67 10000 6 70 11:55 14.11.2019
4213 Snow -5 1025 67 10000 6 70 11:36 14.11.2019
4214 Snow -5 1025 67 10000 6 70 11:18 14.11.2019
4215 Clouds -5 1024 67 10000 8 70 10:42 14.11.2019
4216 Clouds -5 1024 67 10000 8 70 10:21 14.11.2019
4217 Clouds -5 1025 67 10000 7 70 09:59 14.11.2019
4218 Clouds -5 1025 67 0 8.68 51 09:41 14.11.2019
4219 Snow -5 1024 67 10000 7 60 09:23 14.11.2019
4220 Snow -5 1024 67 10000 7 60 08:49 14.11.2019
4221 Snow -5 1024 67 10000 7 60 08:28 14.11.2019
4222 Clouds -5 1024 73 10000 9 80 07:59 14.11.2019
4223 Clouds -5 1024 73 10000 9 80 07:38 14.11.2019
4224 Clouds -5 1024 73 10000 9 80 07:20 14.11.2019
4225 Clouds -5 1024 73 10000 11 80 06:45 14.11.2019
4226 Clouds -4 1024 68 10000 6 70 06:19 14.11.2019
4227 Clouds -4 1023 68 10000 6 70 05:20 14.11.2019
4228 Clouds -5 1023 78 0 7.98 58 04:35 14.11.2019
4229 Clouds -4 1021 73 10000 7 70 02:50 14.11.2019
4230 Clouds -4 1021 73 10000 10 80 02:29 14.11.2019
4231 Clouds -4 1021 73 10000 9 50 01:40 14.11.2019
4232 Clouds -3 1021 68 10000 5 50 00:55 14.11.2019
4233 Clouds -2 1021 63 10000 6 60 00:36 14.11.2019
4234 Clouds -2 1021 63 10000 6 60 00:18 14.11.2019
4235 Clouds -2 1020 68 10000 5 10 23:37 13.11.2019
4236 Clouds -2 1020 68 10000 5 10 23:19 13.11.2019
4237 Clouds -2 1020 68 10000 5 10 23:19 13.11.2019
4238 Clouds -2 1020 74 10000 6 10 22:41 13.11.2019
4239 Clouds -1 1019 68 10000 8 30 22:23 13.11.2019
4240 Clouds -1 1019 68 10000 9 30 21:57 13.11.2019
4241 Clouds 0 1019 76 10000 12 50 21:39 13.11.2019
4242 Clouds 0 1019 76 10000 12 50 21:20 13.11.2019
4243 Clouds 0 1017 76 10000 8 50 20:58 13.11.2019
4244 Clouds 0 1017 76 10000 8 50 20:58 13.11.2019
4245 Clouds 0 1017 76 10000 8 50 20:38 13.11.2019
4246 Clouds 0 1017 79 10000 8 50 20:19 13.11.2019
4247 Clouds 0 1017 79 10000 6 20 19:59 13.11.2019
4248 Clouds 0 1017 79 10000 6 20 19:40 13.11.2019
4249 Clouds 0 1017 79 10000 6 20 19:18 13.11.2019
4250 Snow 0 1017 79 10000 8 360 18:55 13.11.2019
4251 Snow 0 1017 79 10000 8 360 18:37 13.11.2019
4252 Snow 0 1017 79 10000 8 360 18:37 13.11.2019
4253 Snow 0 1017 79 10000 8 360 18:18 13.11.2019
4254 Snow 0 1016 79 9000 6 360 17:56 13.11.2019
4255 Snow 0 1016 79 9000 6 360 17:56 13.11.2019
4256 Snow 0 1016 79 9000 6 360 17:37 13.11.2019
4257 Snow 0 1016 95 9000 6 360 17:19 13.11.2019
4258 Snow 0 1016 91 9000 7 30 16:56 13.11.2019
4259 Snow 0 1016 95 9000 7 30 16:37 13.11.2019
4260 Snow 0 1016 95 9000 7 30 16:18 13.11.2019
4261 Snow 0 1015 91 10000 7 70 15:56 13.11.2019
4262 Snow 0 1015 95 10000 7 70 15:37 13.11.2019
4263 Snow 0 1015 91 10000 7 70 15:18 13.11.2019
4264 Snow 1 1015 80 10000 6 10 14:41 13.11.2019
4265 Snow 1 1015 80 10000 6 10 14:20 13.11.2019
4266 Snow 1 1015 80 10000 6 10 14:20 13.11.2019
4267 Snow 1 1015 80 9000 8 70 13:38 13.11.2019
4268 Snow 1 1015 80 9000 8 70 13:20 13.11.2019
4269 Snow 1 1015 80 10000 7 60 12:58 13.11.2019
4270 Snow 1 1015 80 10000 7 60 12:40 13.11.2019
4271 Snow 1 1015 80 10000 7 60 12:21 13.11.2019
4272 Snow 1 1014 86 7000 7 70 11:55 13.11.2019
4273 Snow 1 1014 86 7000 7 70 11:36 13.11.2019
4274 Snow 1 1014 86 7000 7 70 11:18 13.11.2019
4275 Snow 1 1014 86 10000 8 60 10:54 13.11.2019
4276 Snow 1 1014 86 10000 8 60 10:36 13.11.2019
4277 Snow 1 1014 86 10000 8 60 10:18 13.11.2019
4278 Clouds 2 1014 80 10000 5 60 09:41 13.11.2019
4279 Clouds 2 1014 80 10000 5 60 09:20 13.11.2019
4280 Clouds 2 1014 80 10000 5 60 09:20 13.11.2019
4281 Clouds 1 1014 86 10000 4 10 08:41 13.11.2019
4282 Clouds 1 1014 86 10000 4 10 08:22 13.11.2019
4283 Clouds 0 1013 91 10000 5 360 07:57 13.11.2019
4284 Clouds 0 1013 91 10000 5 360 07:38 13.11.2019
4285 Clouds 0 1013 91 10000 5 360 07:18 13.11.2019
4286 Clouds 1 1013 86 10000 4 40 06:40 13.11.2019
4287 Clouds 2 1013 80 10000 3 30 06:18 13.11.2019
4288 Clouds 1 1012 80 10000 7 20 05:46 13.11.2019
4289 Clouds 2 1012 80 10000 8 40 04:56 13.11.2019
4290 Rain 1 1011 86 10000 7 30 03:51 13.11.2019
4291 Rain 2 1011 80 10000 6 80 01:50 13.11.2019
4292 Clouds 3 1011 74 10000 6 10 01:25 13.11.2019
4293 Clouds 1 1010 86 10000 6 20 00:42 13.11.2019
4294 Clouds 2 1010 74 10000 4 30 23:56 12.11.2019
4295 Clouds 2 1010 74 10000 7 360 23:37 12.11.2019
4296 Clouds 2 1010 74 10000 7 360 23:18 12.11.2019
4297 Clouds 1 1010 80 10000 6 350 22:40 12.11.2019
4298 Clouds 1 1010 80 10000 6 60 22:18 12.11.2019
4299 Clouds 1 1009 80 10000 7 70 21:56 12.11.2019
4300 Clouds 1 1009 80 10000 8 40 21:36 12.11.2019
4301 Clouds 1 1009 80 10000 8 40 21:18 12.11.2019
4302 Clouds 1 1009 80 10000 8 50 20:55 12.11.2019
4303 Clouds 1 1009 80 10000 8 50 20:36 12.11.2019
4304 Clouds 1 1009 80 10000 8 50 20:18 12.11.2019
4305 Snow 1 1009 86 9000 8 50 19:54 12.11.2019
4306 Snow 1 1009 86 9000 8 50 19:36 12.11.2019
4307 Snow 1 1009 86 9000 8 50 19:18 12.11.2019
4308 Snow 2 1008 74 10000 6 70 18:54 12.11.2019
4309 Snow 2 1008 74 10000 6 70 18:36 12.11.2019
4310 Snow 2 1008 74 10000 6 70 18:18 12.11.2019
4311 Clouds 2 1008 74 10000 6 30 17:54 12.11.2019
4312 Clouds 2 1008 74 10000 6 30 17:36 12.11.2019
4313 Clouds 2 1008 74 10000 6 30 17:18 12.11.2019
4314 Clouds 1 1008 86 10000 12 30 16:41 12.11.2019
4315 Clouds 1 1008 86 10000 12 30 16:23 12.11.2019
4316 Clouds 2 1008 74 10000 12 30 15:42 12.11.2019
4317 Clouds 2 1008 74 10000 12 30 15:23 12.11.2019
4318 Clouds 2 1007 80 10000 6 50 14:58 12.11.2019
4319 Clouds 2 1007 80 10000 6 50 14:39 12.11.2019
4320 Clouds 2 1007 80 10000 6 50 14:19 12.11.2019
4321 Clouds 2 1007 80 10000 11 60 13:57 12.11.2019
4322 Clouds 2 1007 80 10000 11 60 13:39 12.11.2019
4323 Clouds 2 1007 80 10000 11 60 13:19 12.11.2019
4324 Clouds 2 1006 80 10000 14 50 12:55 12.11.2019
4325 Clouds 2 1006 80 10000 14 50 12:37 12.11.2019
4326 Clouds 2 1006 80 10000 14 50 12:18 12.11.2019
4327 Clouds 2 1007 87 10000 12 40 11:42 12.11.2019
4328 Clouds 2 1007 88 10000 12 40 11:22 12.11.2019
4329 Clouds 1 1007 86 10000 12 40 10:57 12.11.2019
4330 Clouds 1 1007 86 10000 12 40 10:39 12.11.2019
4331 Clouds 1 1007 86 10000 12 40 10:39 12.11.2019
4332 Clouds 1 1007 86 10000 12 40 10:39 12.11.2019
4333 Clouds 1 1007 86 10000 12 40 10:21 12.11.2019
4334 Clouds 3 1006 88 10000 7 60 09:56 12.11.2019
4335 Clouds 3 1006 88 10000 7 60 09:38 12.11.2019
4336 Clouds 3 1006 87 10000 7 60 09:18 12.11.2019
4337 Clouds -1 1006 88 0 4.39 28 08:42 12.11.2019
4338 Clouds 3 1006 74 10000 9 60 08:24 12.11.2019
4339 Snow 3 1006 74 10000 9 60 07:41 12.11.2019
4340 Snow 3 1006 74 10000 9 60 07:23 12.11.2019
4341 Clouds 3 1006 74 10000 8 60 06:47 12.11.2019
4342 Clouds 2 1006 88 10000 11 60 06:23 12.11.2019
4343 Clouds 2 1006 80 10000 8 60 05:52 12.11.2019
4344 Rain 2 1005 74 10000 7 40 04:50 12.11.2019
4345 Clouds 3 1006 74 10000 5 40 03:53 12.11.2019
4346 Clouds 3 1006 74 10000 5 40 03:53 12.11.2019
4347 Clouds 1 1006 80 10000 6 20 01:50 12.11.2019
4348 Clouds 0 1005 88 10000 5 20 01:23 12.11.2019
4349 Clouds 2 1006 80 10000 8 60 00:52 12.11.2019
4350 Clouds 1 1006 80 10000 6 30 00:32 12.11.2019
4351 Rain 1 1006 80 10000 7 350 23:48 11.11.2019
4352 Clouds 1 1006 80 10000 6 10 23:25 11.11.2019
4353 Clouds 1 1006 80 10000 6 10 23:25 11.11.2019
4354 Clouds 2 1006 80 10000 4 20 22:58 11.11.2019
4355 Clouds 1 1006 80 10000 5 20 22:38 11.11.2019
4356 Clouds 1 1006 80 10000 5 20 22:19 11.11.2019
4357 Clouds 1 1006 80 10000 6 40 21:57 11.11.2019
4358 Clouds 1 1006 80 10000 8 50 21:38 11.11.2019
4359 Clouds 1 1006 80 10000 8 50 21:20 11.11.2019
4360 Snow 1 1006 86 10000 6 30 20:55 11.11.2019
4361 Snow 1 1006 86 10000 6 30 20:36 11.11.2019
4362 Snow 1 1006 86 10000 6 30 20:18 11.11.2019
4363 Snow 1 1006 86 10000 6 30 20:18 11.11.2019
4364 Clouds 2 1006 80 10000 5 30 19:42 11.11.2019
4365 Clouds 2 1006 80 10000 5 30 19:19 11.11.2019
4366 Clouds 2 1006 80 10000 5 350 18:57 11.11.2019
4367 Clouds 2 1006 80 10000 5 350 18:57 11.11.2019
4368 Clouds 2 1006 80 10000 5 350 18:39 11.11.2019
4369 Clouds 2 1006 80 10000 5 350 18:20 11.11.2019
4370 Clouds 1 1006 86 10000 4 20 17:44 11.11.2019
4371 Clouds 1 1006 86 10000 4 20 17:25 11.11.2019
4372 Clouds 1 1006 86 10000 4 10 16:55 11.11.2019
4373 Clouds 1 1006 86 10000 4 10 16:36 11.11.2019
4374 Clouds 1 1006 86 10000 4 10 16:18 11.11.2019
4375 Clouds 2 1005 87 10000 6 20 15:41 11.11.2019
4376 Clouds 2 1005 87 10000 6 20 15:20 11.11.2019
4377 Rain 2 1006 80 10000 3 10 14:54 11.11.2019
4378 Rain 2 1006 80 10000 3 10 14:54 11.11.2019
4379 Rain 2 1006 80 10000 3 10 14:36 11.11.2019
4380 Rain 2 1006 80 10000 3 10 14:18 11.11.2019
4381 Clouds 4 1006 92 10000 6 60 13:39 11.11.2019
4382 Clouds 4 1006 92 10000 6 60 13:39 11.11.2019
4383 Clouds 4 1006 94 10000 6 60 13:21 11.11.2019
4384 Clouds 1 1006 86 10000 4 30 12:58 11.11.2019
4385 Clouds 1 1006 86 10000 4 30 12:58 11.11.2019
4386 Clouds 1 1006 86 10000 4 30 12:40 11.11.2019
4387 Clouds 1 1006 86 10000 4 30 12:22 11.11.2019
4388 Rain 0 1006 94 10000 4 20 11:57 11.11.2019
4389 Rain 0 1006 94 10000 4 20 11:38 11.11.2019
4390 Rain 0 1006 93 10000 4 20 11:20 11.11.2019
4391 Clouds 1 1007 86 10000 2 20 10:42 11.11.2019
4392 Clouds 1 1007 86 10000 2 20 10:18 11.11.2019
4393 Clouds 0 1007 93 10000 3 340 09:56 11.11.2019
4394 Clouds 0 1007 93 10000 3 340 09:37 11.11.2019
4395 Clouds 0 1007 93 10000 3 340 09:18 11.11.2019
4396 Clouds 0 1007 93 10000 3 340 09:18 11.11.2019
4397 Clouds 2 1007 93 10000 2 40 08:40 11.11.2019
4398 Clouds 2 1007 92 10000 2 40 08:21 11.11.2019
4399 Clouds 2 1007 93 10000 3 350 07:57 11.11.2019
4400 Clouds 2 1007 93 10000 3 350 07:37 11.11.2019
4401 Clouds 2 1007 93 10000 3 350 07:18 11.11.2019
4402 Clouds 2 1007 93 10000 3 10 06:47 11.11.2019
4403 Clouds 3 1007 86 10000 2 30 06:22 11.11.2019
4404 Clouds 3 1007 86 10000 6 20 05:51 11.11.2019
4405 Clouds 4 1007 86 10000 9 90 04:30 11.11.2019
4406 Clouds 3 1007 93 10000 10 80 03:23 11.11.2019
4407 Clouds 3 1008 93 10000 10 80 02:24 11.11.2019
4408 Clouds 3 1008 93 10000 10 80 02:24 11.11.2019
4409 Clouds 3 1007 93 10000 9 80 01:56 11.11.2019
4410 Clouds 3 1007 93 6000 10 100 01:34 11.11.2019
4411 Rain 3 1007 93 7000 11 90 00:49 11.11.2019
4412 Rain 3 1007 93 9000 10 90 00:21 11.11.2019
4413 Rain 3 1008 86 10000 11 100 23:40 10.11.2019
4414 Rain 3 1008 86 10000 11 100 23:40 10.11.2019
4415 Clouds 3 1008 86 7000 10 100 23:20 10.11.2019
4416 Rain 3 1008 86 9000 11 90 22:58 10.11.2019
4417 Rain 3 1008 86 9000 11 90 22:38 10.11.2019
4418 Rain 3 1007 93 9000 10 90 22:20 10.11.2019
4419 Rain 3 1007 86 10000 12 90 21:58 10.11.2019
4420 Rain 3 1007 86 10000 12 90 21:58 10.11.2019
4421 Rain 3 1007 86 10000 12 90 21:58 10.11.2019
4422 Rain 3 1007 86 10000 12 90 21:39 10.11.2019
4423 Rain 3 1007 86 10000 12 80 21:21 10.11.2019
4424 Clouds 3 1007 86 10000 3 30 20:58 10.11.2019
4425 Clouds 3 1007 86 10000 3 30 20:38 10.11.2019
4426 Clouds 3 1007 86 10000 3 30 20:20 10.11.2019
4427 Clouds 3 1007 93 10000 4 30 19:55 10.11.2019
4428 Clouds 3 1007 93 10000 4 30 19:37 10.11.2019
4429 Clouds 3 1007 93 10000 4 30 19:18 10.11.2019
4430 Clouds 3 1007 93 10000 10 90 18:54 10.11.2019
4431 Clouds 3 1007 93 10000 10 90 18:36 10.11.2019
4432 Clouds 3 1007 93 10000 10 90 18:18 10.11.2019
4433 Clouds 3 1007 93 10000 11 100 17:55 10.11.2019
4434 Clouds 3 1007 93 10000 11 100 17:55 10.11.2019
4435 Rain 3 1007 93 0 9.83 90 17:37 10.11.2019
4436 Clouds 3 1007 93 10000 12 90 17:18 10.11.2019
4437 Clouds 3 1007 93 10000 12 90 16:43 10.11.2019
4438 Clouds 3 1007 93 10000 12 90 16:25 10.11.2019
4439 Rain 3 1006 93 10000 13 90 15:56 10.11.2019
4440 Rain 3 1006 93 10000 13 90 15:38 10.11.2019
4441 Rain 3 1006 93 10000 13 90 15:38 10.11.2019
4442 Rain 3 1006 93 10000 13 90 15:19 10.11.2019
4443 Clouds 3 1007 93 10000 9 100 14:58 10.11.2019
4444 Clouds 3 1007 93 10000 9 100 14:38 10.11.2019
4445 Clouds 3 1007 93 10000 9 100 14:20 10.11.2019
4446 Rain 2 1007 93 10000 11 100 13:55 10.11.2019
4447 Rain 2 1007 93 10000 11 100 13:36 10.11.2019
4448 Rain 2 1007 93 10000 11 100 13:18 10.11.2019
4449 Clouds 3 1006 86 10000 8 100 12:41 10.11.2019
4450 Clouds 3 1006 86 10000 8 100 12:19 10.11.2019
4451 Clouds 2 1006 93 10000 7 90 11:56 10.11.2019
4452 Clouds 2 1006 93 10000 7 90 11:38 10.11.2019
4453 Clouds 2 1006 93 10000 7 90 11:19 10.11.2019
4454 Clouds 1 1007 94 10000 3 350 10:42 10.11.2019
4455 Clouds 1 1007 94 10000 3 350 10:22 10.11.2019
4456 Snow 2 1007 93 7000 3 360 09:57 10.11.2019
4457 Snow 2 1007 93 7000 3 360 09:39 10.11.2019
4458 Snow 2 1007 93 7000 3 360 09:19 10.11.2019
4459 Snow 0 1007 94 5000 3 10 08:39 10.11.2019
4460 Snow 0 1007 95 5000 3 10 08:20 10.11.2019
4461 Snow -2 1007 92 9000 2 20 07:46 10.11.2019
4462 Snow -2 1007 92 9000 2 20 07:27 10.11.2019
4463 Snow -3 1007 92 8000 5 10 06:59 10.11.2019
4464 Snow -3 1007 92 3700 4 360 05:57 10.11.2019
4465 Clouds -4 1008 85 10000 5 10 03:38 10.11.2019
4466 Clouds -4 1008 85 10000 4 360 02:30 10.11.2019
4467 Clouds -4 1008 85 10000 4 20 01:37 10.11.2019
4468 Clouds -4 1009 79 10000 4 10 01:18 10.11.2019
4469 Clouds -4 1009 85 10000 3 30 00:25 10.11.2019
4470 Clouds -4 1009 79 10000 3 20 23:42 09.11.2019
4471 Clouds -4 1009 79 10000 2 30 23:19 09.11.2019
4472 Clouds -5 1009 85 10000 3 40 22:43 09.11.2019
4473 Clouds -4 1009 79 10000 4 40 22:23 09.11.2019
4474 Clouds -4 1009 79 10000 4 40 22:23 09.11.2019
4475 Clouds -3 1009 73 10000 3 70 21:58 09.11.2019
4476 Clouds -3 1009 73 10000 3 70 21:40 09.11.2019
4477 Clouds -3 1009 73 10000 3 70 21:21 09.11.2019
4478 Clouds -4 1009 79 10000 4 50 20:56 09.11.2019
4479 Clouds -4 1009 79 10000 4 50 20:38 09.11.2019
4480 Clouds -4 1009 79 10000 4 50 20:20 09.11.2019
4481 Clouds -5 1009 85 10000 3 30 19:54 09.11.2019
4482 Clouds -5 1009 85 10000 3 30 19:36 09.11.2019
4483 Clouds -5 1009 85 10000 3 30 19:18 09.11.2019
4484 Clouds -5 1009 85 10000 2 30 18:39 09.11.2019
4485 Clouds -5 1009 85 10000 2 30 18:19 09.11.2019
4486 Clouds -4 1009 79 10000 3 50 17:56 09.11.2019
4487 Clouds -4 1009 79 10000 3 50 17:37 09.11.2019
4488 Clouds -4 1009 79 10000 3 50 17:18 09.11.2019
4489 Clouds -6 1009 92 10000 2 30 16:42 09.11.2019
4490 Clouds -6 1009 92 10000 2 30 16:20 09.11.2019
4491 Clouds -7 1009 85 10000 2 360 15:54 09.11.2019
4492 Clouds -7 1009 85 10000 2 360 15:36 09.11.2019
4493 Clouds -7 1009 85 10000 2 360 15:18 09.11.2019
4494 Clouds -8 1009 92 10000 2 10 14:41 09.11.2019
4495 Clouds -8 1009 92 10000 2 10 14:20 09.11.2019
4496 Clouds -8 1009 85 10000 2 350 13:57 09.11.2019
4497 Clouds -8 1009 85 10000 2 350 13:57 09.11.2019
4498 Clouds -8 1009 85 10000 2 350 13:37 09.11.2019
4499 Clouds -8 1009 85 10000 2 350 13:18 09.11.2019
4500 Clouds -9 1009 92 10000 3 340 12:47 09.11.2019
4501 Clouds -9 1009 92 10000 3 340 12:29 09.11.2019
4502 Clouds -9 1008 85 10000 3 320 11:57 09.11.2019
4503 Clouds -9 1008 85 10000 3 320 11:38 09.11.2019
4504 Clouds -9 1008 85 10000 3 320 11:19 09.11.2019
4505 Clouds -8 1008 85 10000 3 340 10:41 09.11.2019
4506 Clouds -8 1008 85 10000 3 340 10:19 09.11.2019
4507 Clouds -9 1008 92 10000 1 350 09:59 09.11.2019
4508 Clouds -9 1008 92 10000 1 350 09:40 09.11.2019
4509 Clouds -9 1008 92 10000 1 350 09:19 09.11.2019
4510 Snow -9 1009 92 10000 1 280 08:43 09.11.2019
4511 Snow -9 1009 92 10000 1 280 08:24 09.11.2019
4512 Clouds -9 1008 92 10000 2 330 07:48 09.11.2019
4513 Clouds -9 1008 92 10000 2 330 07:24 09.11.2019
4514 Clouds -9 1008 85 10000 2 330 06:56 09.11.2019
4515 Clouds -9 1008 85 10000 2 330 06:38 09.11.2019
4516 Clouds -9 1008 85 10000 2 330 06:19 09.11.2019
4517 Clouds -9 1008 85 10000 1 20 05:37 09.11.2019
4518 Clouds -9 1008 85 10000 3 360 03:57 09.11.2019
4519 Clouds -9 1008 85 10000 3 360 03:57 09.11.2019
4520 Clouds -11 1009 92 10000 2 320 02:46 09.11.2019
4521 Clouds -11 1009 92 10000 2 320 02:24 09.11.2019
4522 Clear -12 1009 85 10000 2 330 01:18 09.11.2019
4523 Clear -13 1010 84 10000 2 310 00:39 09.11.2019
4524 Clear -13 1010 84 10000 2 310 00:21 09.11.2019
4525 Clear -14 1010 92 10000 3 330 23:40 08.11.2019
4526 Clear -14 1010 92 10000 3 330 23:22 08.11.2019
4527 Clear -13 1011 84 10000 4 350 22:50 08.11.2019
4528 Clear -13 1011 84 10000 4 350 22:22 08.11.2019
4529 Clear -14 1011 92 10000 3 10 21:59 08.11.2019
4530 Clear -14 1011 92 10000 3 10 21:40 08.11.2019
4531 Clear -14 1011 92 10000 3 10 21:22 08.11.2019
4532 Clear -14 1012 84 10000 3 10 20:57 08.11.2019
4533 Clear -14 1012 84 10000 3 10 20:38 08.11.2019
4534 Clear -14 1012 84 10000 3 10 20:18 08.11.2019
4535 Clear -14 1012 84 10000 4 360 19:40 08.11.2019
4536 Clear -14 1012 84 10000 4 360 19:19 08.11.2019
4537 Clear -14 1013 84 10000 3 360 18:56 08.11.2019
4538 Clear -14 1013 84 10000 3 360 18:38 08.11.2019
4539 Clear -14 1013 84 10000 3 360 18:20 08.11.2019
4540 Clear -13 1013 84 10000 2 30 17:56 08.11.2019
4541 Clear -13 1013 84 10000 2 30 17:38 08.11.2019
4542 Clear -13 1013 84 10000 2 30 17:20 08.11.2019
4543 Clear -13 1013 84 10000 2 30 17:20 08.11.2019
4544 Clear -13 1014 84 10000 4 30 16:58 08.11.2019
4545 Clear -13 1014 84 10000 4 30 16:58 08.11.2019
4546 Clear -13 1014 84 10000 4 30 16:40 08.11.2019
4547 Clear -13 1014 84 10000 4 30 16:40 08.11.2019
4548 Clear -13 1014 84 10000 4 30 16:20 08.11.2019
4549 Clear -13 1015 84 10000 3 20 15:59 08.11.2019
4550 Clear -13 1015 84 10000 3 20 15:40 08.11.2019
4551 Clear -13 1015 84 10000 3 20 15:22 08.11.2019
4552 Clear -14 1015 92 10000 2 30 14:56 08.11.2019
4553 Clear -14 1015 92 10000 2 30 14:37 08.11.2019
4554 Clear -14 1015 92 10000 2 30 14:19 08.11.2019
4555 Clear -13 1016 84 10000 3 20 13:58 08.11.2019
4556 Clear -13 1016 84 10000 3 20 13:38 08.11.2019
4557 Clear -13 1016 84 10000 3 20 13:19 08.11.2019
4558 Clear -13 1016 84 10000 2 40 12:43 08.11.2019
4559 Clear -13 1016 84 10000 2 40 12:25 08.11.2019
4560 Clear -12 1017 85 10000 2 50 11:57 08.11.2019
4561 Clear -12 1017 85 10000 2 50 11:39 08.11.2019
4562 Clear -12 1017 85 10000 2 50 11:20 08.11.2019
4563 Clear -12 1017 85 10000 2 50 11:20 08.11.2019
4564 Clear -10 1017 78 10000 2 10 10:57 08.11.2019
4565 Clear -10 1017 78 10000 2 10 10:39 08.11.2019
4566 Clear -10 1017 78 10000 2 10 10:20 08.11.2019
4567 Clear -11 1017 85 10000 4 360 09:42 08.11.2019
4568 Clear -11 1017 85 10000 4 360 09:24 08.11.2019
4569 Clear -11 1018 85 10000 3 20 08:59 08.11.2019
4570 Clear -11 1018 85 10000 3 20 08:38 08.11.2019
4571 Clear -11 1018 85 10000 3 20 08:19 08.11.2019
4572 Clear -12 1018 85 10000 3 20 07:41 08.11.2019
4573 Clear -12 1018 85 10000 3 20 07:22 08.11.2019
4574 Clear -12 1018 85 10000 3 20 07:22 08.11.2019
4575 Clear -12 1018 85 10000 2 20 06:43 08.11.2019
4576 Clear -11 1018 85 10000 3 40 06:24 08.11.2019
4577 Clear -10 1018 85 10000 3 30 05:56 08.11.2019
4578 Clear -10 1018 85 10000 2 30 05:25 08.11.2019
4579 Clear -8 1017 85 10000 4 20 03:58 08.11.2019
4580 Clear -8 1017 85 10000 4 20 03:58 08.11.2019
4581 Clear -8 1017 85 10000 4 20 03:58 08.11.2019
4582 Clear -7 1017 79 10000 4 20 03:36 08.11.2019
4583 Clear -7 1018 85 10000 3 20 02:52 08.11.2019
4584 Clear -7 1018 85 10000 4 20 01:49 08.11.2019
4585 Clear -7 1018 85 10000 3 30 01:31 08.11.2019
4586 Clear -8 1018 85 10000 3 20 00:37 08.11.2019
4587 Clear -8 1018 85 10000 3 20 00:19 08.11.2019
4588 Clear -10 1018 92 10000 2 10 23:43 07.11.2019
4589 Clear -10 1019 92 10000 3 30 23:24 07.11.2019
4590 Clear -10 1018 85 10000 2 20 22:55 07.11.2019
4591 Clear -11 1018 85 10000 3 30 22:36 07.11.2019
4592 Clear -11 1018 85 10000 3 30 22:18 07.11.2019
4593 Clear -11 1018 92 10000 5 360 21:38 07.11.2019
4594 Clear -11 1018 92 10000 5 360 21:20 07.11.2019
4595 Clear -11 1018 92 10000 4 360 20:58 07.11.2019
4596 Clear -11 1018 92 10000 4 360 20:40 07.11.2019
4597 Clear -11 1018 92 10000 4 360 20:40 07.11.2019
4598 Clouds -11 1018 92 10000 4 360 20:21 07.11.2019
4599 Clouds -11 1018 85 10000 4 360 19:56 07.11.2019
4600 Clouds -11 1018 85 10000 4 360 19:37 07.11.2019
4601 Clouds -11 1018 85 10000 4 360 19:19 07.11.2019
4602 Clouds -10 1018 85 10000 4 360 18:56 07.11.2019
4603 Clouds -10 1018 85 10000 4 360 18:38 07.11.2019
4604 Clouds -10 1018 85 10000 4 360 18:19 07.11.2019
4605 Clouds -9 1018 85 10000 6 20 17:41 07.11.2019
4606 Clouds -9 1019 85 10000 5 20 17:23 07.11.2019
4607 Clouds -9 1019 85 10000 5 20 16:59 07.11.2019
4608 Clouds -9 1019 85 10000 5 20 16:41 07.11.2019
4609 Clouds -9 1019 85 10000 5 20 16:22 07.11.2019
4610 Clouds -8 1019 85 10000 6 30 15:59 07.11.2019
4611 Clouds -8 1019 85 10000 6 30 15:40 07.11.2019
4612 Clouds -8 1019 85 10000 6 30 15:19 07.11.2019
4613 Clouds -6 1019 85 10000 5 360 14:54 07.11.2019
4614 Clouds -6 1019 85 10000 5 360 14:36 07.11.2019
4615 Clouds -6 1019 85 10000 5 360 14:18 07.11.2019
4616 Clouds -9 1019 85 10000 3.38 349 13:54 07.11.2019
4617 Clouds -9 1019 85 10000 3.38 349 13:36 07.11.2019
4618 Clouds -9 1019 85 10000 3.36 352 13:18 07.11.2019
4619 Clear -9 1020 92 10000 2 60 12:54 07.11.2019
4620 Clear -9 1020 92 10000 2 60 12:54 07.11.2019
4621 Clear -9 1020 92 10000 2 60 12:36 07.11.2019
4622 Clear -9 1020 92 10000 2 60 12:18 07.11.2019
4623 Clear -9 1020 78 10000 2 20 11:40 07.11.2019
4624 Clear -9 1020 78 10000 2 20 11:22 07.11.2019
4625 Clear -12 1020 85 10000 3 80 10:42 07.11.2019
4626 Clear -12 1020 85 10000 3 80 10:19 07.11.2019
4627 Clear -11 1020 85 10000 1 360 09:45 07.11.2019
4628 -273 0 0 0 0 0 09:25 07.11.2019
4629 Clear -11 1020 85 10000 1 360 09:24 07.11.2019
4630 Clear -12 1020 92 10000 2 30 08:58 07.11.2019
4631 -273 0 0 0 0 0 08:56 07.11.2019
4632 Clear -12 1020 92 10000 2 30 08:56 07.11.2019
4633 Clear -12 1020 92 10000 2 30 08:56 07.11.2019
4634 Clear -12 1020 92 10000 2 30 08:37 07.11.2019
4635 Clear -12 1020 92 10000 2 30 08:19 07.11.2019
4636 Clear -12 1020 92 10000 3 40 07:41 07.11.2019
4637 Clear -12 1020 92 10000 3 40 07:22 07.11.2019
4638 Clear -11 1020 92 10000 2 20 06:49 07.11.2019
4639 Clear -11 1020 85 10000 2 20 06:29 07.11.2019
4640 Clear -10 1020 92 10000 2 20 05:57 07.11.2019
4641 Clear -10 1020 92 10000 2 20 05:57 07.11.2019
4642 Clear -10 1020 92 10000 2 40 05:38 07.11.2019
4643 Clear -10 1020 92 10000 2 40 05:19 07.11.2019
4644 Clear -10 1020 92 10000 2 40 05:19 07.11.2019
4645 Clear -10 1020 92 10000 2 10 04:41 07.11.2019
4646 Clear -6 1021 79 10000 3 20 02:58 07.11.2019
4647 Clear -6 1021 79 10000 3 20 02:57 07.11.2019
4648 Clear -7 1021 85 10000 3 30 00:47 07.11.2019
4649 Clear -8 1021 85 10000 3 10 00:20 07.11.2019
4650 Clear -9 1022 92 10000 4 30 23:47 06.11.2019
4651 Clear -10 1022 92 10000 4 30 23:22 06.11.2019
4652 Clear -10 1021 92 10000 2 10 22:56 06.11.2019
4653 Clear -10 1022 92 10000 1 280 22:37 06.11.2019
4654 Clear -10 1022 92 10000 1 280 22:18 06.11.2019
4655 Clear -10 1022 92 10000 1 280 22:18 06.11.2019
4656 Clear -12 1022 85 10000 2 60 21:42 06.11.2019
4657 Clear -12 1022 85 10000 2 60 21:21 06.11.2019
4658 Clear -11 1022 85 10000 3 50 20:59 06.11.2019
4659 Clear -11 1022 85 10000 3 50 20:40 06.11.2019
4660 Clear -11 1022 85 10000 3 50 20:40 06.11.2019
4661 Clouds -11 1022 85 10000 3 50 20:21 06.11.2019
4662 Clouds -9 1022 92 10000 2.4 336 19:58 06.11.2019
4663 Clouds -9 1022 92 10000 2.4 336 19:39 06.11.2019
4664 Clouds -9 1022 92 10000 2.4 336 19:21 06.11.2019
4665 Clouds -9 1022 92 10000 1 150 18:58 06.11.2019
4666 Clouds -9 1022 92 10000 1 150 18:38 06.11.2019
4667 Clouds -9 1022 92 10000 1 150 18:19 06.11.2019
4668 Clouds -10 1022 85 10000 1 100 17:56 06.11.2019
4669 Clouds -10 1022 85 10000 1 100 17:37 06.11.2019
4670 Clouds -10 1022 85 10000 1 100 17:18 06.11.2019
4671 Clouds -9 1022 92 10000 2 80 16:54 06.11.2019
4672 Clouds -9 1022 92 10000 2 80 16:36 06.11.2019
4673 Clouds -9 1022 92 10000 2 80 16:18 06.11.2019
4674 Clouds -9 1022 92 10000 1 80 15:54 06.11.2019
4675 Clouds -9 1022 92 10000 1 80 15:36 06.11.2019
4676 Clouds -9 1022 92 10000 1 80 15:18 06.11.2019
4677 Clouds -9 1022 85 10000 2 50 14:55 06.11.2019
4678 Clouds -9 1022 85 10000 2 50 14:36 06.11.2019
4679 Clouds -9 1022 85 10000 2 50 14:18 06.11.2019
4680 Clouds -7 1022 85 10000 4 20 13:38 06.11.2019
4681 Clouds -7 1022 85 10000 4 20 13:20 06.11.2019
4682 Clouds -6 1022 85 10000 4 20 12:57 06.11.2019
4683 Clouds -6 1022 85 10000 4 20 12:39 06.11.2019
4684 Clouds -6 1022 85 10000 4 20 12:20 06.11.2019
4685 Clouds -4 1023 79 10000 3 350 11:58 06.11.2019
4686 Clouds -4 1023 79 10000 3 350 11:37 06.11.2019
4687 Clouds -4 1023 79 10000 3 350 11:18 06.11.2019
4688 Clouds -4 1023 79 10000 3 350 11:18 06.11.2019
4689 Clouds -4 1023 79 10000 5 10 10:56 06.11.2019
4690 Clouds -4 1023 79 10000 5 10 10:38 06.11.2019
4691 Clouds -4 1023 79 10000 5 10 10:19 06.11.2019
4692 Clouds -3 1023 79 10000 4 30 09:43 06.11.2019
4693 Clouds -3 1023 79 10000 4 30 09:22 06.11.2019
4694 Clouds -3 1023 86 10000 3 30 08:58 06.11.2019
4695 Clouds -3 1023 86 10000 3 30 08:38 06.11.2019
4696 Clouds -3 1023 86 10000 3 30 08:20 06.11.2019
4697 Clouds -2 1023 79 10000 1 130 07:56 06.11.2019
4698 Clouds -2 1023 79 10000 1 130 07:37 06.11.2019
4699 Clouds -2 1023 79 10000 1 130 07:19 06.11.2019
4700 Clouds -2 1024 79 10000 1 140 06:42 06.11.2019
4701 Clouds -2 1024 79 10000 1 90 06:23 06.11.2019
4702 Clouds -2 1024 79 10000 1 80 03:58 06.11.2019
4703 Clouds -1 1025 74 10000 3 60 02:19 06.11.2019
4704 Clouds -1 1025 80 10000 4 90 01:31 06.11.2019
4705 Clouds -1 1025 80 10000 4 100 00:35 06.11.2019
4706 Clouds -1 1025 80 10000 4 100 00:35 06.11.2019
4707 Clouds -2 1025 86 10000 4 100 23:57 05.11.2019
4708 Clouds -2 1025 86 10000 5 100 23:37 05.11.2019
4709 Clouds -2 1025 86 10000 5 100 23:19 05.11.2019
4710 Clouds -2 1026 86 10000 6 100 22:43 05.11.2019
4711 Clouds -2 1026 79 10000 6 100 22:19 05.11.2019
4712 Clouds -2 1026 86 10000 5 100 21:58 05.11.2019
4713 Clouds -2 1026 86 10000 5 100 21:40 05.11.2019
4714 Clouds -2 1026 86 10000 5 100 21:20 05.11.2019
4715 Snow -2 1026 86 10000 6 100 20:57 05.11.2019
4716 Snow -2 1026 86 10000 6 100 20:38 05.11.2019
4717 Snow -2 1026 86 10000 6 100 20:20 05.11.2019
4718 Clouds -2 1026 86 10000 5 100 19:55 05.11.2019
4719 Clouds -2 1026 86 10000 5 100 19:37 05.11.2019
4720 Clouds -2 1026 86 10000 5 100 19:18 05.11.2019
4721 Clouds -2 1026 79 10000 4 100 18:56 05.11.2019
4722 Clouds -2 1026 79 10000 4 100 18:38 05.11.2019
4723 Clouds -2 1026 79 10000 4 100 18:19 05.11.2019
4724 Clouds -2 1026 79 10000 4 100 18:19 05.11.2019
4725 Clouds -2 1027 79 10000 4 100 17:55 05.11.2019
4726 Clouds -2 1027 79 10000 4 100 17:37 05.11.2019
4727 Clouds -2 1027 79 10000 4 100 17:18 05.11.2019
4728 Clouds -2 1027 79 10000 4 100 16:41 05.11.2019
4729 Clouds -2 1027 79 10000 4 100 16:20 05.11.2019
4730 Clouds -2 1027 74 10000 4 80 15:57 05.11.2019
4731 Clouds -2 1027 74 10000 4 80 15:36 05.11.2019
4732 Clouds -2 1027 74 10000 4 80 15:18 05.11.2019
4733 Clouds -2 1028 74 10000 3 110 14:54 05.11.2019
4734 Clouds -2 1028 74 10000 3 110 14:36 05.11.2019
4735 Clouds -2 1028 74 10000 3 110 14:18 05.11.2019
4736 Clouds -2 1028 79 10000 4 110 13:43 05.11.2019
4737 Clouds -2 1028 79 10000 4 110 13:24 05.11.2019
4738 Clouds -2 1028 79 10000 5 100 12:42 05.11.2019
4739 Clouds -2 1028 79 10000 5 100 12:22 05.11.2019
4740 Clouds -2 1028 79 10000 4 120 11:58 05.11.2019
4741 Clouds -2 1028 79 10000 4 120 11:39 05.11.2019
4742 Clouds -2 1028 79 10000 4 120 11:21 05.11.2019
4743 Clouds -2 1028 79 10000 5 100 10:56 05.11.2019
4744 Clouds -2 1028 79 10000 5 100 10:56 05.11.2019
4745 Clouds -7 1028 94 0 1.59 109 10:38 05.11.2019
4746 Clouds -2 1028 79 10000 4 120 10:19 05.11.2019
4747 Clouds -2 1028 79 10000 4 120 09:55 05.11.2019
4748 Clouds -2 1028 79 10000 4 120 09:37 05.11.2019
4749 Clouds -2 1028 79 10000 4 120 09:18 05.11.2019
4750 Clouds -2 1028 79 10000 4 120 09:18 05.11.2019
4751 Clouds -2 1028 79 10000 2 110 08:39 05.11.2019
4752 Clouds -2 1028 79 10000 2 110 08:20 05.11.2019
4753 Clouds -2 1029 79 10000 3 140 07:57 05.11.2019
4754 Clouds -2 1029 79 10000 3 140 07:38 05.11.2019
4755 Clouds -2 1029 79 10000 3 140 07:19 05.11.2019
4756 Clouds -2 1029 79 10000 3 140 07:19 05.11.2019
4757 Clouds -2 1029 79 10000 3 150 06:46 05.11.2019
4758 Clouds -1 1029 74 10000 3 150 05:51 05.11.2019
4759 Clouds -2 1029 79 10000 2 150 05:22 05.11.2019
4760 Clouds -2 1029 79 10000 3 160 04:25 05.11.2019
4761 Clouds -1 1029 74 10000 2 180 03:49 05.11.2019
4762 Clouds -1 1029 74 10000 2 150 02:44 05.11.2019
4763 Clouds -2 1029 74 10000 2 160 01:59 05.11.2019
4764 Clouds -2 1029 79 10000 3 180 00:50 05.11.2019
4765 Clouds -1 1029 68 10000 2 150 00:29 05.11.2019
4766 Clouds -2 1029 74 10000 2 130 23:56 04.11.2019
4767 Clouds -2 1029 74 10000 2 160 23:37 04.11.2019
4768 Clouds -2 1029 74 10000 2 160 23:18 04.11.2019
4769 Clouds -2 1029 74 10000 3 150 22:41 04.11.2019
4770 Clouds -3 1029 79 10000 3 160 22:23 04.11.2019
4771 Clouds -3 1029 79 10000 3 160 22:23 04.11.2019
4772 Clouds -3 1029 79 10000 3 150 21:56 04.11.2019
4773 Clouds -3 1029 79 10000 3 170 21:38 04.11.2019
4774 Clouds -3 1029 79 10000 3 170 21:19 04.11.2019
4775 Clouds -3 1029 73 10000 3 170 20:58 04.11.2019
4776 Clouds -3 1029 73 10000 3 170 20:39 04.11.2019
4777 Clouds -3 1029 73 10000 3 170 20:21 04.11.2019
4778 Clouds -3 1029 73 10000 2 160 19:59 04.11.2019
4779 Clouds -3 1029 73 10000 2 160 19:40 04.11.2019
4780 Clouds -3 1029 73 10000 2 160 19:21 04.11.2019
4781 Clouds -3 1029 79 10000 4 170 18:57 04.11.2019
4782 Clouds -3 1029 79 10000 4 170 18:38 04.11.2019
4783 Clouds -3 1029 79 10000 4 170 18:19 04.11.2019
4784 Clouds -3 1029 79 10000 3 170 17:39 04.11.2019
4785 Clouds -3 1029 79 10000 3 170 17:39 04.11.2019
4786 Clouds -3 1029 79 10000 3 170 17:21 04.11.2019
4787 Clouds -3 1029 73 10000 4 170 16:57 04.11.2019
4788 Clouds -3 1029 73 10000 4 170 16:39 04.11.2019
4789 Clouds -3 1029 73 10000 4 170 16:21 04.11.2019
4790 Clouds -3 1029 73 10000 3 160 15:55 04.11.2019
4791 Clouds -3 1029 73 10000 3 160 15:36 04.11.2019
4792 Clouds -3 1029 73 10000 3 160 15:18 04.11.2019
4793 Clouds -3 1029 73 10000 2 150 14:54 04.11.2019
4794 Clouds -3 1029 73 10000 2 150 14:36 04.11.2019
4795 Clouds -3 1029 73 10000 2 150 14:18 04.11.2019
4796 Clouds -3 1029 79 10000 3 160 13:42 04.11.2019
4797 Clouds -3 1029 79 10000 3 160 13:22 04.11.2019
4798 Clouds -4 1029 85 10000 3 160 12:59 04.11.2019
4799 Clouds -4 1029 85 10000 3 160 12:41 04.11.2019
4800 Clouds -4 1029 85 10000 3 160 12:22 04.11.2019
4801 Clouds -4 1030 85 10000 4 170 11:57 04.11.2019
4802 Clouds -4 1030 85 10000 4 170 11:38 04.11.2019
4803 Clouds -4 1030 85 10000 4 170 11:20 04.11.2019
4804 Clouds -4 1029 85 10000 4 160 10:44 04.11.2019
4805 Clouds -4 1029 85 10000 4 160 10:25 04.11.2019
4806 Clouds -5 1029 92 10000 2 160 09:54 04.11.2019
4807 Clouds -5 1029 92 10000 2 160 09:36 04.11.2019
4808 Clouds -5 1029 92 10000 2 160 09:18 04.11.2019
4809 Clouds -5 1029 92 10000 3 150 08:41 04.11.2019
4810 Clouds -5 1029 92 10000 3 150 08:21 04.11.2019
4811 Clouds -5 1029 92 10000 2 140 07:45 04.11.2019
4812 Clouds -5 1029 92 10000 3 170 07:25 04.11.2019
4813 Clouds -5 1029 92 10000 3 170 06:59 04.11.2019
4814 Clouds -5 1029 92 10000 2 170 06:36 04.11.2019
4815 Clouds -5 1029 92 10000 3 170 05:59 04.11.2019
4816 Clouds -5 1029 92 10000 1 160 04:50 04.11.2019
4817 Clouds -6 1029 92 10000 2 150 04:24 04.11.2019
4818 Clouds -6 1029 92 10000 1 10 02:59 04.11.2019
4819 Fog -7 1030 92 10000 1 330 01:22 04.11.2019
4820 Fog -8 1030 92 10000 2.73 249 00:51 04.11.2019
4821 Fog -8 1030 85 10000 1 70 00:21 04.11.2019
4822 Fog -8 1030 85 10000 1 360 23:56 03.11.2019
4823 Fog -8 1030 85 10000 1 360 23:36 03.11.2019
4824 Fog -8 1030 85 10000 1 360 23:18 03.11.2019
4825 Clouds -10 1030 85 10000 1 360 22:54 03.11.2019
4826 Clouds -10 1030 85 10000 1 360 22:36 03.11.2019
4827 Clouds -10 1030 85 10000 1 360 22:18 03.11.2019
4828 Clouds -12 1031 92 10000 2 40 21:41 03.11.2019
4829 Clouds -12 1031 92 10000 2 40 21:21 03.11.2019
4830 Clouds -12 1031 92 10000 2 40 21:21 03.11.2019
4831 Fog -10 1030 92 550 1 50 20:56 03.11.2019
4832 Fog -10 1030 92 550 1 50 20:37 03.11.2019
4833 Fog -10 1030 92 550 1 50 20:18 03.11.2019
4834 Fog -10 1030 92 550 1 50 20:18 03.11.2019
4835 Fog -10 1030 92 100 1 40 19:56 03.11.2019
4836 Fog -10 1030 92 100 1 40 19:38 03.11.2019
4837 Fog -10 1030 92 100 1 40 19:19 03.11.2019
4838 Clear -8 1030 92 10000 2 170 18:39 03.11.2019
4839 Clear -8 1030 92 10000 2 170 18:19 03.11.2019
4840 Clouds -9 1030 92 10000 2 160 17:59 03.11.2019
4841 Clouds -9 1030 92 10000 2 160 17:40 03.11.2019
4842 Clouds -9 1030 92 10000 2 160 17:19 03.11.2019
4843 Clear -6 1031 92 10000 2 160 16:56 03.11.2019
4844 Clear -6 1031 92 10000 2 160 16:38 03.11.2019
4845 Clear -6 1031 92 10000 2 160 16:19 03.11.2019
4846 Clouds -6 1031 92 10000 2 150 15:56 03.11.2019
4847 Clouds -6 1031 92 10000 2 150 15:38 03.11.2019
4848 Clouds -6 1031 92 10000 2 150 15:20 03.11.2019
4849 Clouds -5 1031 85 10000 2 170 14:41 03.11.2019
4850 Clouds -5 1031 85 10000 2 170 14:19 03.11.2019
4851 Clouds -5 1031 85 10000 2 170 14:19 03.11.2019
4852 Clouds -4 1031 85 10000 2 170 13:56 03.11.2019
4853 Clouds -4 1031 85 10000 2 170 13:37 03.11.2019
4854 Clouds -4 1031 85 10000 2 170 13:18 03.11.2019
4855 Clouds -4 1031 85 10000 2 170 13:18 03.11.2019
4856 Clouds -5 1031 92 10000 1 180 12:38 03.11.2019
4857 Clouds -5 1031 92 10000 1 180 12:19 03.11.2019
4858 Clouds -4 1031 85 10000 1 170 11:57 03.11.2019
4859 Clouds -4 1031 85 10000 1 170 11:39 03.11.2019
4860 Clouds -4 1031 85 10000 1 170 11:20 03.11.2019
4861 Clouds -5 1032 92 10000 1 140 10:42 03.11.2019
4862 Clouds -5 1032 92 10000 1 140 10:22 03.11.2019
4863 Clouds -5 1032 92 10000 1 170 09:58 03.11.2019
4864 Clouds -5 1032 92 10000 1 170 09:40 03.11.2019
4865 Clouds -5 1032 92 10000 1 170 09:22 03.11.2019
4866 Clouds -6 1032 92 10000 1 140 08:48 03.11.2019
4867 Clouds -6 1032 92 10000 1 140 08:25 03.11.2019
4868 Clouds -7 1032 92 10000 1 120 07:47 03.11.2019
4869 Clouds -7 1032 92 10000 1 120 07:29 03.11.2019
4870 Clouds -7 1032 85 10000 2 210 06:54 03.11.2019
4871 Clouds -7 1032 85 10000 2 210 06:35 03.11.2019
4872 Clouds -7 1031 85 10000 3 90 05:40 03.11.2019
4873 Clouds -7 1031 85 10000 3 90 05:18 03.11.2019
4874 Clouds -9 1031 85 10000 2 50 04:47 03.11.2019
4875 Clouds -9 1032 92 10000 1 10 03:39 03.11.2019
4876 Clouds -8 1032 92 10000 1 350 02:46 03.11.2019
4877 Clouds -8 1032 92 10000 1 350 02:21 03.11.2019
4878 Clouds -8 1032 92 10000 1 350 02:21 03.11.2019
4879 Clouds -6 1032 92 10000 2 40 01:44 03.11.2019
4880 Clouds -6 1032 92 10000 2 40 01:21 03.11.2019
4881 Clouds -7 1032 92 10000 1 340 00:46 03.11.2019
4882 Clouds -7 1032 92 10000 1 340 00:28 03.11.2019
4883 Snow -7 1032 92 10000 1 360 23:59 02.11.2019
4884 Snow -7 1032 92 10000 1 360 23:39 02.11.2019
4885 Snow -7 1032 92 10000 1 360 23:19 02.11.2019
4886 Clouds -8 1032 92 10000 1 10 22:56 02.11.2019
4887 Clouds -8 1032 92 10000 1 10 22:56 02.11.2019
4888 Clouds -8 1032 92 10000 1 10 22:38 02.11.2019
4889 Clouds -8 1032 92 10000 1 10 22:19 02.11.2019
4890 Clouds -8 1032 92 10000 1 10 21:56 02.11.2019
4891 Clouds -8 1032 92 10000 1 10 21:38 02.11.2019
4892 Clouds -8 1032 92 10000 1 10 21:18 02.11.2019
4893 Clouds -8 1032 92 10000 1 10 21:18 02.11.2019
4894 Clouds -8 1032 92 10000 1 10 21:18 02.11.2019
4895 Clouds -9 1032 92 10000 1 360 20:59 02.11.2019
4896 Clouds -9 1032 92 10000 1 360 20:39 02.11.2019
4897 Clouds -9 1032 92 10000 1 360 20:20 02.11.2019
4898 Snow -9 1032 92 10000 1 340 19:55 02.11.2019
4899 Snow -9 1032 92 10000 1 340 19:36 02.11.2019
4900 Snow -9 1032 92 10000 1 340 19:18 02.11.2019
4901 Snow -9 1032 92 10000 1 340 19:18 02.11.2019
4902 Clouds -11 1031 92 10000 1 290 18:42 02.11.2019
4903 Clouds -11 1031 92 10000 1 290 18:24 02.11.2019
4904 Clouds -11 1031 85 10000 2 350 17:59 02.11.2019
4905 Clouds -11 1031 85 10000 2 350 17:40 02.11.2019
4906 Clouds -11 1031 85 10000 2 350 17:22 02.11.2019
4907 Clouds -12 1031 85 10000 3 20 16:58 02.11.2019
4908 Clouds -12 1031 85 10000 3 20 16:38 02.11.2019
4909 Clouds -12 1031 85 10000 3 20 16:38 02.11.2019
4910 Clouds -12 1031 85 10000 3 20 16:20 02.11.2019
4911 Clouds -13 1031 84 10000 2 300 15:42 02.11.2019
4912 Clouds -13 1031 84 10000 2 300 15:20 02.11.2019
4913 Clouds -13 1031 92 10000 2 340 14:43 02.11.2019
4914 Clouds -13 1031 92 10000 2 340 14:24 02.11.2019
4915 Clouds -11 1030 85 10000 3 20 13:58 02.11.2019
4916 Clouds -11 1030 85 10000 3 20 13:39 02.11.2019
4917 Clouds -11 1030 85 10000 3 20 13:20 02.11.2019
4918 Clouds -12 1030 92 10000 3 10 12:56 02.11.2019
4919 Clouds -12 1030 92 10000 3 10 12:37 02.11.2019
4920 Clouds -12 1030 92 10000 3 10 12:18 02.11.2019
4921 Clouds -11 1030 85 10000 3 50 11:41 02.11.2019
4922 Clouds -11 1030 85 10000 3 50 11:23 02.11.2019
4923 Clouds -12 1030 92 10000 3 30 10:56 02.11.2019
4924 Clouds -12 1030 92 10000 3 30 10:38 02.11.2019
4925 Clouds -12 1030 92 10000 3 30 10:18 02.11.2019
4926 Clouds -12 1030 92 10000 3 20 09:40 02.11.2019
4927 Clouds -12 1030 92 10000 2 20 09:22 02.11.2019
4928 Clouds -12 1029 92 10000 2 350 08:51 02.11.2019
4929 Clouds -11 1029 92 10000 2 350 08:24 02.11.2019
4930 Clouds -11 1029 92 10000 2 350 08:24 02.11.2019
4931 Clear -10 1029 85 10000 2 20 07:57 02.11.2019
4932 Clear -10 1029 85 10000 2 20 07:57 02.11.2019
4933 Clear -10 1029 85 10000 2 20 07:39 02.11.2019
4934 Clear -10 1029 85 10000 2 20 07:20 02.11.2019
4935 Clear -9 1029 85 10000 3 30 06:46 02.11.2019
4936 Clear -9 1029 85 10000 3 30 06:21 02.11.2019
4937 Clear -9 1028 85 10000 1 360 05:38 02.11.2019
4938 Clouds -8 1028 85 10000 2 350 04:24 02.11.2019
4939 Clouds -7 1027 85 10000 1 340 03:51 02.11.2019
4940 Clouds -7 1027 85 10000 1 340 03:28 02.11.2019
4941 Clouds -8 1027 85 10000 2 340 01:57 02.11.2019
4942 Clouds -8 1027 85 10000 1 10 01:27 02.11.2019
4943 Clouds -8 1027 85 10000 1 10 00:55 02.11.2019
4944 Clouds -8 1027 85 10000 1 10 00:29 02.11.2019
4945 Clouds -8 1027 85 10000 2 340 23:55 01.11.2019
4946 Clouds -8 1027 85 10000 2 340 23:37 01.11.2019
4947 Clouds -8 1027 85 10000 2 340 23:18 01.11.2019
4948 Clouds -9 1027 85 10000 1 20 22:41 01.11.2019
4949 Clouds -9 1027 85 10000 1 20 22:20 01.11.2019
4950 Clouds -10 1026 85 10000 1 10 21:42 01.11.2019
4951 Clouds -10 1026 85 10000 1 10 21:24 01.11.2019
4952 Clouds -10 1026 85 10000 2 30 20:59 01.11.2019
4953 Clouds -10 1026 85 10000 2 30 20:41 01.11.2019
4954 Clouds -10 1026 85 10000 2 30 20:21 01.11.2019
4955 Clouds -11 1025 85 10000 2 360 19:57 01.11.2019
4956 Clouds -11 1025 85 10000 2 360 19:39 01.11.2019
4957 Clouds -11 1025 85 10000 2 360 19:20 01.11.2019
4958 Clouds -12 1025 85 10000 2 40 18:40 01.11.2019
4959 Clouds -12 1025 85 10000 2 40 18:21 01.11.2019
4960 Clear -14 1025 84 10000 3 50 17:56 01.11.2019
4961 Clear -14 1025 84 10000 3 50 17:38 01.11.2019
4962 Clear -14 1025 84 10000 3 50 17:19 01.11.2019
4963 Clear -13 1025 84 10000 3 360 16:39 01.11.2019
4964 Clear -13 1025 84 10000 3 360 16:20 01.11.2019
4965 Clear -14 1024 92 10000 2 10 15:56 01.11.2019
4966 Clear -14 1024 92 10000 2 10 15:38 01.11.2019
4967 Clear -14 1024 92 10000 2 10 15:19 01.11.2019
4968 Clear -14 1024 84 10000 2 20 14:43 01.11.2019
4969 Clear -14 1024 84 10000 2 20 14:24 01.11.2019
4970 Clear -14 1024 84 10000 2 340 13:57 01.11.2019
4971 Clear -14 1024 84 10000 2 340 13:39 01.11.2019
4972 Clear -14 1024 84 10000 2 340 13:21 01.11.2019
4973 Clear -13 1024 84 10000 4 340 12:44 01.11.2019
4974 Clear -13 1024 84 10000 4 340 12:26 01.11.2019
4975 Clear -14 1024 92 10000 3 360 11:59 01.11.2019
4976 Clear -14 1024 92 10000 3 360 11:40 01.11.2019
4977 Clear -14 1024 92 10000 3 360 11:22 01.11.2019
4978 Clear -14 1023 84 10000 3 360 10:42 01.11.2019
4979 Clear -14 1023 84 10000 3 360 10:24 01.11.2019
4980 Clear -14 1023 84 10000 3 40 09:58 01.11.2019
4981 Clear -14 1023 84 10000 3 40 09:58 01.11.2019
4982 Clear -14 1023 84 10000 3 40 09:40 01.11.2019
4983 Clear -14 1023 84 10000 3 40 09:20 01.11.2019
4984 Clear -14 1023 84 10000 3 40 09:20 01.11.2019
4985 Clear -13 1023 84 10000 2 20 08:45 01.11.2019
4986 Clouds -13 1023 84 10000 2 20 08:22 01.11.2019
4987 Clouds -13 1023 92 10000 3 340 07:57 01.11.2019
4988 Clouds -13 1023 92 10000 3 340 07:38 01.11.2019
4989 Clouds -13 1023 92 10000 3 340 07:20 01.11.2019
4990 Clouds -12 1022 92 10000 4 340 06:46 01.11.2019
4991 Clouds -12 1022 85 10000 3 360 06:22 01.11.2019
4992 Clouds -11 1022 85 10000 4 360 05:44 01.11.2019
4993 Clouds -11 1022 85 10000 4 360 05:44 01.11.2019
4994 Clouds -10 1022 92 10000 2 360 04:28 01.11.2019
4995 Clouds -8 1022 85 10000 3 330 02:49 01.11.2019
4996 Clouds -8 1021 85 10000 2 50 01:35 01.11.2019
4997 Clouds -7 1022 79 10000 1 10 00:42 01.11.2019
4998 Clouds -8 1022 85 10000 2 320 00:18 01.11.2019
4999 Clouds -8 1022 85 10000 2 330 23:43 31.10.2019
5000 Clouds -8 1021 85 10000 2 320 23:23 31.10.2019
5001 Clouds -8 1022 92 10000 2 350 22:56 31.10.2019
5002 Clouds -8 1021 85 10000 1 360 22:38 31.10.2019
5003 Clouds -7 1021 85 10000 1 360 22:19 31.10.2019
5004 Clouds -7 1021 85 10000 2 350 21:43 31.10.2019
5005 Snow -7 1021 85 10000 2 360 21:20 31.10.2019
5006 Clouds -7 1021 85 10000 2 340 20:57 31.10.2019
5007 Clouds -7 1021 85 10000 2 340 20:39 31.10.2019
5008 Clouds -7 1021 85 10000 2 340 20:20 31.10.2019
5009 Clouds -7 1020 92 10000 3 350 19:42 31.10.2019
5010 Clouds -7 1020 92 10000 3 350 19:22 31.10.2019
5011 Clouds -6 1020 85 10000 2 360 18:57 31.10.2019
5012 Clouds -6 1020 85 10000 2 360 18:39 31.10.2019
5013 Clouds -6 1020 85 10000 2 360 18:19 31.10.2019
5014 Snow -6 1020 85 10000 3 340 17:42 31.10.2019
5015 Snow -6 1020 79 10000 3 340 17:22 31.10.2019
5016 Snow -6 1020 79 10000 3 340 16:58 31.10.2019
5017 Snow -6 1020 79 10000 3 340 16:40 31.10.2019
5018 Snow -6 1020 79 10000 3 340 16:20 31.10.2019
5019 Clouds -6 1020 85 10000 1 330 15:56 31.10.2019
5020 Clouds -6 1020 85 10000 1 330 15:37 31.10.2019
5021 Clouds -6 1020 85 10000 1 330 15:19 31.10.2019
5022 Clouds -6 1020 85 10000 1 330 15:19 31.10.2019
5023 Clouds -6 1020 85 10000 1 330 15:19 31.10.2019
5024 Clouds -5 1020 79 10000 2 30 14:54 31.10.2019
5025 Clouds -5 1020 79 10000 2 30 14:36 31.10.2019
5026 Clouds -5 1020 79 10000 2 30 14:18 31.10.2019
5027 Clouds -7 1020 92 10000 2 350 13:40 31.10.2019
5028 Clouds -7 1020 92 10000 2 350 13:20 31.10.2019
5029 Clouds -7 1020 92 10000 2 350 13:20 31.10.2019
5030 Clouds -7 1020 85 10000 2 10 12:59 31.10.2019
5031 Clouds -7 1020 85 10000 2 10 12:41 31.10.2019
5032 Clouds -7 1020 85 10000 2 10 12:22 31.10.2019
5033 Clouds -8 1020 85 10000 2 340 11:55 31.10.2019
5034 Clouds -8 1020 85 10000 2 340 11:36 31.10.2019
5035 Clouds -8 1020 85 10000 2 340 11:18 31.10.2019
5036 Clouds -7 1019 85 10000 2 330 10:40 31.10.2019
5037 Clouds -7 1019 85 10000 2 330 10:22 31.10.2019
5038 Clouds -7 1019 85 10000 2 330 09:59 31.10.2019
5039 Clouds -7 1019 85 10000 2 330 09:41 31.10.2019
5040 Clouds -7 1019 85 10000 2 330 09:18 31.10.2019
5041 Clouds -7 1019 85 10000 1 310 08:49 31.10.2019
5042 Clouds -7 1019 85 10000 1 310 08:30 31.10.2019
5043 Clouds -7 1019 85 10000 2 30 07:55 31.10.2019
5044 Clouds -7 1019 85 10000 2 30 07:36 31.10.2019
5045 Clouds -7 1019 85 10000 2 30 07:18 31.10.2019
5046 Clouds -7 1019 79 10000 2 320 06:38 31.10.2019
5047 Clouds -7 1019 79 10000 2 320 06:19 31.10.2019
5048 Clouds -7 1018 73 10000 2 360 03:43 31.10.2019
5049 Clouds -8 1018 78 10000 2 10 02:41 31.10.2019
5050 Clouds -7 1018 73 10000 2 330 01:53 31.10.2019
5051 Clouds -7 1018 73 10000 2 330 01:53 31.10.2019
5052 Clouds -8 1018 72 10000 2 20 00:39 31.10.2019
5053 Clouds -8 1018 72 10000 2 20 00:20 31.10.2019
5054 Clouds -8 1018 72 10000 1 20 23:30 30.10.2019
5055 Clouds -9 1018 72 10000 2 20 22:44 30.10.2019
5056 Clouds -9 1017 72 10000 1 10 22:23 30.10.2019
5057 Clouds -9 1017 72 10000 2 10 21:57 30.10.2019
5058 Clouds -9 1017 72 10000 2 360 21:38 30.10.2019
5059 Clouds -9 1017 72 10000 2 360 21:19 30.10.2019
5060 Clouds -10 1017 72 10000 3 360 20:59 30.10.2019
5061 Clouds -10 1017 72 10000 3 360 20:41 30.10.2019
5062 Clouds -10 1017 72 10000 3 360 20:22 30.10.2019
5063 Clouds -9 1016 72 10000 2 360 19:58 30.10.2019
5064 Clouds -12 1017 77 0 1.87 340 19:39 30.10.2019
5065 Clouds -10 1016 72 10000 1 330 19:20 30.10.2019
5066 Clouds -10 1016 72 10000 1 330 18:58 30.10.2019
5067 Clouds -10 1016 72 10000 1 330 18:37 30.10.2019
5068 Clouds -10 1016 72 10000 1 330 18:37 30.10.2019
5069 Clouds -10 1016 72 10000 1 330 18:18 30.10.2019
5070 Clouds -11 1016 72 10000 2 320 17:41 30.10.2019
5071 Clouds -11 1016 72 10000 2 320 17:20 30.10.2019
5072 Clouds -11 1016 72 10000 1 20 16:59 30.10.2019
5073 Clouds -11 1016 72 10000 1 20 16:40 30.10.2019
5074 Clouds -11 1016 72 10000 1 20 16:22 30.10.2019
5075 Clouds -13 1016 71 10000 2 340 15:57 30.10.2019
5076 Clouds -13 1016 71 10000 2 340 15:38 30.10.2019
5077 Clouds -13 1016 71 10000 2 340 15:19 30.10.2019
5078 Clouds -15 1016 71 10000 3 20 14:56 30.10.2019
5079 Clouds -15 1016 71 10000 3 20 14:56 30.10.2019
5080 Clouds -15 1016 71 10000 3 20 14:38 30.10.2019
5081 Clear -15 1016 71 10000 3 20 14:19 30.10.2019
5082 Clear -15 1016 77 10000 2 10 13:42 30.10.2019
5083 Clear -15 1016 77 10000 2 10 13:21 30.10.2019
5084 Clear -15 1016 71 10000 4 30 12:59 30.10.2019
5085 Clear -15 1016 71 10000 4 30 12:59 30.10.2019
5086 Clear -15 1016 71 10000 4 30 12:41 30.10.2019
5087 Clear -15 1016 71 10000 4 30 12:23 30.10.2019
5088 Clear -15 1016 71 10000 4 30 11:46 30.10.2019
5089 Clear -15 1016 71 10000 4 30 11:28 30.10.2019
5090 Clear -14 1016 71 10000 5 30 10:59 30.10.2019
5091 Clear -14 1016 71 10000 5 30 10:41 30.10.2019
5092 Clear -14 1016 71 10000 5 30 10:22 30.10.2019
5093 Clear -14 1016 71 10000 3 30 09:41 30.10.2019
5094 Clear -15 1016 71 10000 3 40 09:22 30.10.2019
5095 Clear -14 1016 71 10000 3 30 08:56 30.10.2019
5096 Clear -15 1016 71 10000 3 50 08:38 30.10.2019
5097 Clear -15 1016 71 10000 3 50 08:18 30.10.2019
5098 Clear -16 1016 77 10000 2 20 07:43 30.10.2019
5099 Clear -16 1016 77 10000 2 10 06:59 30.10.2019
5100 Clear -16 1016 77 10000 2 10 06:40 30.10.2019
5101 Clear -16 1016 77 10000 2 360 05:56 30.10.2019
5102 Clear -16 1016 77 10000 2 360 05:56 30.10.2019
5103 Clear -15 1015 71 10000 1 20 05:38 30.10.2019
5104 Clear -13 1015 71 10000 2 360 03:54 30.10.2019
5105 Clear -13 1015 71 10000 4 330 03:23 30.10.2019
5106 Clear -13 1015 78 10000 3 340 02:49 30.10.2019
5107 Clear -13 1015 78 10000 3 360 01:49 30.10.2019
5108 Clear -14 1016 77 10000 2 10 00:38 30.10.2019
5109 Clear -14 1016 77 10000 2 10 00:19 30.10.2019
5110 Clear -14 1016 77 10000 2 30 23:41 29.10.2019
5111 Clear -15 1016 77 10000 1 40 23:22 29.10.2019
5112 Clear -15 1016 77 10000 3 30 22:42 29.10.2019
5113 Clear -16 1016 77 10000 3 20 22:19 29.10.2019
5114 Clear -17 1015 84 10000 4 350 21:55 29.10.2019
5115 Clear -17 1015 84 10000 3 20 21:37 29.10.2019
5116 Clear -17 1015 84 10000 3 20 21:19 29.10.2019
5117 Clear -18 1015 84 10000 4 360 20:42 29.10.2019
5118 Clear -18 1015 84 10000 4 360 20:23 29.10.2019
5119 Clear -17 1015 77 10000 5 360 19:59 29.10.2019
5120 Clear -17 1015 77 10000 5 360 19:40 29.10.2019
5121 Clear -17 1015 77 10000 5 360 19:22 29.10.2019
5122 Clear -17 1014 77 10000 3 360 18:59 29.10.2019
5123 Clear -17 1014 77 10000 3 360 18:40 29.10.2019
5124 Clear -17 1014 77 10000 3 360 18:21 29.10.2019
5125 Clear -15 1014 77 10000 4 330 17:57 29.10.2019
5126 Clear -15 1014 77 10000 4 330 17:39 29.10.2019
5127 Clear -15 1014 77 10000 4 330 17:21 29.10.2019
5128 Clear -15 1014 77 10000 3 340 16:57 29.10.2019
5129 Clear -15 1014 77 10000 3 340 16:38 29.10.2019
5130 Clear -15 1014 77 10000 3 340 16:18 29.10.2019
5131 Clear -16 1014 84 10000 4 330 15:42 29.10.2019
5132 Clear -16 1014 84 10000 4 330 15:21 29.10.2019
5133 Clear -15 1014 77 10000 3 320 14:58 29.10.2019
5134 Clear -15 1014 77 10000 3 320 14:39 29.10.2019
5135 Clear -15 1014 77 10000 3 320 14:39 29.10.2019
5136 Clear -15 1014 77 10000 3 320 14:39 29.10.2019
5137 Clear -15 1014 77 10000 3 320 14:21 29.10.2019
5138 Clear -14 1013 77 10000 5 310 13:57 29.10.2019
5139 Clear -14 1013 77 10000 5 310 13:38 29.10.2019
5140 Clear -14 1013 77 10000 5 310 13:20 29.10.2019
5141 Clear -14 1013 77 10000 6 290 12:43 29.10.2019
5142 Clear -14 1013 77 10000 6 290 12:25 29.10.2019
5143 Clear -14 1013 77 10000 7 290 11:55 29.10.2019
5144 Clear -14 1013 77 10000 7 290 11:37 29.10.2019
5145 Clear -14 1013 77 10000 7 290 11:18 29.10.2019
5146 Clear -13 1013 71 10000 7 290 10:56 29.10.2019
5147 Clear -13 1013 71 10000 7 290 10:38 29.10.2019
5148 Clear -13 1013 71 10000 7 290 10:19 29.10.2019
5149 Clear -13 1012 78 10000 6 290 09:42 29.10.2019
5150 Clear -13 1012 78 10000 6 290 09:23 29.10.2019
5151 Clear -13 1012 78 10000 9 300 08:57 29.10.2019
5152 Clear -13 1012 78 10000 9 300 08:38 29.10.2019
5153 Clear -13 1012 78 10000 9 300 08:20 29.10.2019
5154 Clear -13 1011 78 10000 6 300 07:48 29.10.2019
5155 Clear -13 1011 78 10000 6 300 07:20 29.10.2019
5156 Clear -13 1011 78 10000 6 290 06:53 29.10.2019
5157 Clear -12 1011 78 10000 3 310 06:29 29.10.2019
5158 Clear -12 1011 78 10000 6 300 05:54 29.10.2019
5159 Clear -11 1010 78 10000 7 290 05:36 29.10.2019
5160 Clear -11 1010 78 10000 9 300 04:41 29.10.2019
5161 Clear -10 1009 78 10000 6 310 02:39 29.10.2019
5162 Clear -10 1009 78 10000 8 300 01:56 29.10.2019
5163 Clear -10 1009 72 10000 7 290 01:35 29.10.2019
5164 Clear -10 1009 78 10000 6 300 00:53 29.10.2019
5165 Clear -10 1009 78 10000 5 310 00:24 29.10.2019
5166 Clear -10 1008 78 10000 6 310 23:38 28.10.2019
5167 Clear -10 1008 78 10000 6 310 23:20 28.10.2019
5168 Clear -11 1008 78 10000 7 310 22:40 28.10.2019
5169 Clear -11 1008 78 10000 7 310 22:20 28.10.2019
5170 Clear -11 1007 78 10000 6 320 21:59 28.10.2019
5171 Clear -11 1007 78 10000 6 320 21:41 28.10.2019
5172 Clear -11 1007 78 10000 8 310 21:22 28.10.2019
5173 Clear -11 1007 78 10000 6 320 20:59 28.10.2019
5174 Clear -11 1007 78 10000 6 320 20:40 28.10.2019
5175 Clear -11 1007 78 10000 6 320 20:21 28.10.2019
5176 Clear -11 1006 78 10000 5 320 19:55 28.10.2019
5177 Clear -11 1006 78 10000 5 320 19:36 28.10.2019
5178 Clear -11 1006 78 10000 5 320 19:36 28.10.2019
5179 Clear -11 1006 78 10000 5 320 19:36 28.10.2019
5180 Clear -11 1006 78 10000 5 320 19:18 28.10.2019
5181 Clear -11 1006 78 10000 6 310 18:57 28.10.2019
5182 Clear -11 1006 78 10000 6 310 18:38 28.10.2019
5183 Clear -11 1006 78 10000 6 310 18:20 28.10.2019
5184 Clear -11 1005 78 10000 8 310 17:55 28.10.2019
5185 Clear -11 1005 78 10000 8 310 17:36 28.10.2019
5186 Clear -11 1005 78 10000 8 310 17:18 28.10.2019
5187 Clear -12 1004 78 10000 8 330 16:54 28.10.2019
5188 Clear -12 1004 78 10000 8 330 16:36 28.10.2019
5189 Clear -12 1004 78 10000 8 330 16:18 28.10.2019
5190 Clear -11 1004 78 10000 6 330 15:55 28.10.2019
5191 Clear -11 1004 78 10000 6 330 15:37 28.10.2019
5192 Clear -11 1004 78 10000 6 330 15:18 28.10.2019
5193 Clear -12 1004 78 10000 5 320 14:54 28.10.2019
5194 Clear -12 1004 78 10000 5 320 14:36 28.10.2019
5195 Clouds -12 1004 78 10000 5 320 14:18 28.10.2019
5196 Clouds -12 1005 78 10000 3 330 13:41 28.10.2019
5197 Clouds -12 1005 78 10000 3 330 13:18 28.10.2019
5198 Clouds -12 1005 78 10000 3 330 13:18 28.10.2019
5199 Clouds -12 1004 78 10000 7 350 12:59 28.10.2019
5200 Clouds -12 1004 78 10000 7 350 12:40 28.10.2019
5201 Clouds -12 1004 78 10000 7 350 12:19 28.10.2019
5202 Clouds -12 1004 78 10000 6 340 11:38 28.10.2019
5203 Clouds -12 1004 78 10000 6 340 11:38 28.10.2019
5204 Clouds -12 1004 78 10000 6 340 11:19 28.10.2019
5205 Clouds -12 1004 78 10000 8 350 10:42 28.10.2019
5206 Clouds -12 1004 78 10000 8 350 10:24 28.10.2019
5207 Clouds -13 1004 84 10000 7 360 09:58 28.10.2019
5208 Clouds -13 1004 84 10000 7 360 09:39 28.10.2019
5209 Clouds -13 1004 84 10000 7 360 09:20 28.10.2019
5210 Clouds -12 1004 78 10000 8 360 08:57 28.10.2019
5211 Clouds -12 1004 78 10000 8 360 08:39 28.10.2019
5212 Clouds -12 1004 78 10000 8 360 08:19 28.10.2019
5213 Clouds -12 1004 78 10000 8 350 07:57 28.10.2019
5214 Clouds -12 1004 78 10000 8 350 07:38 28.10.2019
5215 Clouds -12 1004 78 10000 8 350 07:20 28.10.2019
5216 Clouds -12 1004 78 10000 7 360 06:40 28.10.2019
5217 Clouds -12 1005 78 10000 8 350 05:57 28.10.2019
5218 Clouds -13 1005 84 10000 7 340 04:25 28.10.2019
5219 Clouds -13 1005 78 10000 8 340 03:40 28.10.2019
5220 Clouds -13 1006 84 10000 7 350 02:45 28.10.2019
5221 Clouds -14 1008 84 10000 6 350 01:27 28.10.2019
5222 Clouds -14 1008 84 10000 4 350 00:46 28.10.2019
5223 Clouds -15 1009 84 10000 3 360 00:22 28.10.2019
5224 Clouds -15 1009 84 10000 3 30 23:43 27.10.2019
5225 Clouds -15 1010 84 10000 7 340 23:20 27.10.2019
5226 Clouds -16 1010 84 7000 5 350 22:44 27.10.2019
5227 Clouds -16 1011 84 10000 5 360 22:23 27.10.2019
5228 Clouds -17 1011 84 10000 6 350 21:59 27.10.2019
5229 Clouds -17 1011 84 10000 6 350 21:39 27.10.2019
5230 Clouds -16 1011 84 10000 6 330 21:21 27.10.2019
5231 Clouds -17 1012 84 10000 3 360 20:58 27.10.2019
5232 Clouds -17 1012 84 10000 3 360 20:58 27.10.2019
5233 Clouds -17 1012 84 10000 3 360 20:40 27.10.2019
5234 Clouds -17 1012 84 10000 3 360 20:22 27.10.2019
5235 Clouds -17 1013 84 10000 3 10 19:56 27.10.2019
5236 Clouds -17 1013 84 10000 3 10 19:37 27.10.2019
5237 Clouds -17 1013 84 10000 3 10 19:19 27.10.2019
5238 Clear -16 1014 84 10000 3 10 18:55 27.10.2019
5239 Clear -16 1014 84 10000 3 10 18:37 27.10.2019
5240 Clear -16 1014 84 10000 3 10 18:19 27.10.2019
5241 Clear -17 1015 91 10000 4 330 17:41 27.10.2019
5242 Clear -17 1015 91 10000 4 330 17:21 27.10.2019
5243 Clear -17 1016 84 10000 1 40 16:59 27.10.2019
5244 Clear -17 1016 84 10000 1 40 16:40 27.10.2019
5245 Clear -17 1016 84 10000 1 40 16:22 27.10.2019
5246 Clear -17 1016 84 10000 5 340 15:57 27.10.2019
5247 Clear -17 1016 84 10000 5 340 15:39 27.10.2019
5248 Clear -17 1016 84 10000 5 340 15:20 27.10.2019
5249 Clear -17 1018 84 10000 4 360 14:43 27.10.2019
5250 Clear -17 1018 84 10000 4 360 14:23 27.10.2019
5251 Clouds -17 1018 84 10000 5 350 13:58 27.10.2019
5252 Clouds -17 1018 84 10000 5 350 13:39 27.10.2019
5253 Clouds -17 1018 84 10000 5 350 13:21 27.10.2019
5254 Clouds -17 1019 84 10000 3 20 12:59 27.10.2019
5255 Clouds -17 1019 84 10000 3 20 12:40 27.10.2019
5256 Clouds -17 1019 84 10000 3 20 12:40 27.10.2019
5257 Clouds -17 1019 84 10000 2 20 12:22 27.10.2019
5258 Clouds -17 1019 84 10000 1 10 11:41 27.10.2019
5259 Clouds -17 1020 91 10000 2 360 11:23 27.10.2019
5260 Clear -16 1021 84 10000 1 70 10:45 27.10.2019
5261 Clear -17 1020 84 10000 2 360 10:26 27.10.2019
5262 Clear -18 1021 84 10000 3 340 09:58 27.10.2019
5263 Clear -17 1021 84 10000 1 30 09:39 27.10.2019
5264 Clear -17 1021 84 10000 1 30 09:19 27.10.2019
5265 Clouds -16 1021 84 10000 5 350 08:56 27.10.2019
5266 Clouds -16 1021 84 10000 5 350 08:37 27.10.2019
5267 Clouds -16 1021 84 10000 5 350 08:37 27.10.2019
5268 Clouds -16 1021 84 10000 5 350 08:18 27.10.2019
5269 Clear -16 1021 84 10000 5 340 07:45 27.10.2019
5270 Clear -16 1022 84 10000 6 340 07:25 27.10.2019
5271 Clear -15 1022 84 10000 4 340 06:52 27.10.2019
5272 Clear -15 1022 84 10000 2 340 06:29 27.10.2019
5273 Clear -15 1022 84 10000 5 360 05:45 27.10.2019
5274 Clear -15 1022 84 10000 5 360 05:45 27.10.2019
5275 Clear -14 1022 84 10000 8 350 04:55 27.10.2019
5276 Clear -15 1023 84 10000 9 360 03:24 27.10.2019
5277 Clear -15 1023 84 10000 9 350 02:21 27.10.2019
5278 Clear -17 1024 84 10000 5 320 01:54 27.10.2019
5279 Clear -17 1024 84 10000 5 320 01:23 27.10.2019
5280 Fog -17 1025 84 10000 3 330 00:51 27.10.2019
5281 Fog -17 1025 84 10000 3 330 00:28 27.10.2019
5282 Fog -17 1025 84 10000 3 350 23:57 26.10.2019
5283 Fog -17 1025 84 10000 3 350 23:39 26.10.2019
5284 Fog -17 1025 84 10000 3 350 23:21 26.10.2019
5285 Fog -19 1025 84 10000 5 330 22:56 26.10.2019
5286 Fog -19 1025 84 10000 5 330 22:37 26.10.2019
5287 Fog -19 1025 84 10000 5 330 22:18 26.10.2019
5288 Fog -18 1025 84 10000 3 310 21:43 26.10.2019
5289 Fog -18 1025 84 10000 3 310 21:22 26.10.2019
5290 Clear -17 1025 84 10000 4 340 20:58 26.10.2019
5291 Clear -17 1025 84 10000 4 340 20:38 26.10.2019
5292 Clear -17 1025 84 10000 4 340 20:18 26.10.2019
5293 Clear -17 1026 84 10000 2 50 19:42 26.10.2019
5294 Clear -17 1026 84 10000 2 50 19:20 26.10.2019
5295 Clear -17 1026 84 10000 2 50 19:20 26.10.2019
5296 Clear -16 1026 84 10000 3 320 18:57 26.10.2019
5297 Clear -16 1026 84 10000 3 320 18:39 26.10.2019
5298 Clear -16 1026 84 10000 3 320 18:19 26.10.2019
5299 Clear -17 1026 84 10000 3 310 17:56 26.10.2019
5300 Clear -17 1026 84 10000 3 310 17:37 26.10.2019
5301 Clear -17 1026 84 10000 3 310 17:19 26.10.2019
5302 Clear -17 1026 84 10000 2 320 16:43 26.10.2019
5303 Clear -17 1026 84 10000 2 320 16:25 26.10.2019
5304 Clear -17 1026 84 10000 2 320 16:25 26.10.2019
5305 Clear -17 1026 84 10000 3 310 15:59 26.10.2019
5306 Clear -17 1026 84 10000 3 310 15:59 26.10.2019
5307 Clear -17 1026 84 10000 3 310 15:37 26.10.2019
5308 Clear -17 1026 84 10000 3 310 15:18 26.10.2019
5309 Clear -17 1026 91 10000 4 330 14:38 26.10.2019
5310 Clear -17 1026 91 10000 4 330 14:19 26.10.2019
5311 Clear -10 1026 87 0 8.45 338 13:55 26.10.2019
5312 Clear -16 1026 84 10000 4 340 13:36 26.10.2019
5313 Clear -10 1026 87 0 8.45 338 13:18 26.10.2019
5314 Clear -16 1026 84 10000 4 320 12:42 26.10.2019
5315 Clear -17 1026 84 10000 6 350 12:18 26.10.2019
5316 Clear -17 1026 84 10000 6 350 11:45 26.10.2019
5317 Clear -17 1026 84 10000 6 350 11:24 26.10.2019
5318 Clear -16 1026 84 10000 4 310 10:46 26.10.2019
5319 Clear -16 1026 84 10000 4 310 10:25 26.10.2019
5320 Clear -15 1026 84 10000 7 330 09:49 26.10.2019
5321 Clear -15 1026 84 10000 7 330 09:30 26.10.2019
5322 Clear -15 1026 84 10000 6 350 08:55 26.10.2019
5323 Clear -15 1026 84 10000 6 350 08:36 26.10.2019
5324 Clear -15 1026 84 10000 6 350 08:18 26.10.2019
5325 Clear -14 1026 77 10000 5 360 07:42 26.10.2019
5326 Clear -14 1026 77 10000 5 360 07:22 26.10.2019
5327 Clear -13 1026 78 10000 4 360 06:40 26.10.2019
5328 Clear -12 1026 78 10000 5 350 05:56 26.10.2019
5329 Clear -12 1026 78 10000 5 350 05:19 26.10.2019
5330 Clear -12 1026 85 10000 5 360 03:45 26.10.2019
5331 Clear -12 1026 85 10000 5 360 02:33 26.10.2019
5332 Clear -13 1027 84 10000 4 360 01:47 26.10.2019
5333 Clear -13 1027 84 10000 3 360 00:52 26.10.2019
5334 Clear -14 1026 84 10000 5 360 23:56 25.10.2019
5335 Clear -14 1026 84 10000 5 360 23:37 25.10.2019
5336 Clear -14 1026 84 10000 5 360 23:18 25.10.2019
5337 Clear -15 1026 84 10000 4 10 22:39 25.10.2019
5338 Clear -15 1026 84 10000 4 10 22:21 25.10.2019
5339 Clear -17 1026 84 10000 4 360 21:56 25.10.2019
5340 Clear -17 1026 84 10000 4 360 21:38 25.10.2019
5341 Clear -17 1026 84 10000 4 360 21:19 25.10.2019
5342 Clear -15 1026 84 10000 4 20 20:43 25.10.2019
5343 Clear -15 1026 84 10000 4 20 20:20 25.10.2019
5344 Clear -15 1025 84 10000 4 350 19:47 25.10.2019
5345 Clear -15 1025 84 10000 4 350 19:47 25.10.2019
5346 Clear -15 1025 84 10000 4 350 19:29 25.10.2019
5347 Clear -14 1025 84 10000 5 10 18:58 25.10.2019
5348 Clear -14 1025 84 10000 5 10 18:40 25.10.2019
5349 Clear -14 1025 84 10000 5 10 18:20 25.10.2019
5350 Clear -16 1024 84 10000 4 20 17:40 25.10.2019
5351 Clear -16 1024 84 10000 4 20 17:20 25.10.2019
5352 Clouds -16 1024 84 10000 4 360 16:47 25.10.2019
5353 Clouds -16 1024 84 10000 4 360 16:23 25.10.2019
5354 Clear -15 1024 84 10000 4 350 15:57 25.10.2019
5355 Clear -15 1024 84 10000 4 350 15:39 25.10.2019
5356 Clear -15 1024 84 10000 4 350 15:21 25.10.2019
5357 Clear -16 1024 84 10000 4 360 14:43 25.10.2019
5358 Clear -16 1024 84 10000 4 360 14:43 25.10.2019
5359 Clear -16 1024 84 10000 4 360 14:23 25.10.2019
5360 Clear -16 1024 84 10000 4 360 14:23 25.10.2019
5361 Clear -14 1023 84 10000 3 20 13:59 25.10.2019
5362 Clear -14 1023 84 10000 3 20 13:39 25.10.2019
5363 Clear -14 1023 84 10000 3 20 13:21 25.10.2019
5364 Clear -14 1023 84 10000 4 10 12:54 25.10.2019
5365 Clear -14 1023 84 10000 4 10 12:36 25.10.2019
5366 Clear -14 1023 84 10000 4 10 12:18 25.10.2019
5367 Clear -13 1023 84 10000 5 360 11:39 25.10.2019
5368 Clear -13 1023 84 10000 5 360 11:39 25.10.2019
5369 Clear -13 1023 84 10000 5 360 11:20 25.10.2019
5370 Clear -12 1022 78 10000 6 10 10:42 25.10.2019
5371 Clear -12 1022 78 10000 6 10 10:23 25.10.2019
5372 Clear -13 1022 84 10000 5 30 09:59 25.10.2019
5373 Clear -13 1022 84 10000 5 30 09:39 25.10.2019
5374 Clouds -13 1022 84 10000 5 30 09:20 25.10.2019
5375 Clouds -11 1021 85 10000 6 320 08:52 25.10.2019
5376 Clouds -11 1021 85 10000 6 320 08:33 25.10.2019
5377 Clouds -11 1020 85 10000 6 310 07:58 25.10.2019
5378 Clouds -11 1020 85 10000 6 310 07:40 25.10.2019
5379 Clouds -11 1020 85 10000 4 320 07:22 25.10.2019
5380 Clouds -10 1020 78 10000 7 320 06:36 25.10.2019
5381 Clouds -10 1020 78 10000 7 320 05:48 25.10.2019
5382 Clouds -10 1020 78 10000 6 330 05:21 25.10.2019
5383 Clouds -9 1019 72 10000 6 320 04:19 25.10.2019
5384 Snow -10 1020 78 10000 6 320 02:34 25.10.2019
5385 Clouds -10 1020 85 10000 4 330 01:52 25.10.2019
5386 Clouds -11 1020 85 10000 3 330 00:30 25.10.2019
5387 Clouds -14 1020 84 10000 3 350 23:42 24.10.2019
5388 Clouds -14 1019 84 10000 4 330 23:24 24.10.2019
5389 Clouds -14 1019 84 10000 3 10 22:57 24.10.2019
5390 Clouds -14 1019 84 10000 4 10 22:38 24.10.2019
5391 Clouds -14 1019 84 10000 4 10 22:19 24.10.2019
5392 Clouds -16 1019 91 10000 4 10 21:57 24.10.2019
5393 Clouds -16 1019 91 10000 4 10 21:57 24.10.2019
5394 Clouds -16 1019 91 10000 4 10 21:38 24.10.2019
5395 Clouds -16 1019 91 10000 4 10 21:19 24.10.2019
5396 Clouds -15 1018 92 10000 3 10 20:57 24.10.2019
5397 Clouds -15 1018 92 10000 3 10 20:38 24.10.2019
5398 Clouds -15 1018 92 10000 3 10 20:20 24.10.2019
5399 Clouds -14 1018 92 10000 3 10 19:55 24.10.2019
5400 Clouds -14 1018 92 10000 3 10 19:37 24.10.2019
5401 Clouds -13 1018 92 10000 3 10 19:18 24.10.2019
5402 Clouds -12 1018 85 10000 2 360 18:41 24.10.2019
5403 Clouds -12 1018 85 10000 2 360 18:23 24.10.2019
5404 Clouds -10 1018 85 10000 4 320 17:59 24.10.2019
5405 Clouds -10 1018 85 10000 4 320 17:40 24.10.2019
5406 Clouds -10 1018 85 10000 4 320 17:20 24.10.2019
5407 Clouds -10 1018 85 10000 5 320 16:56 24.10.2019
5408 Clouds -10 1018 85 10000 5 320 16:37 24.10.2019
5409 Clouds -10 1018 85 10000 5 320 16:19 24.10.2019
5410 Clouds -10 1018 85 10000 4 340 15:56 24.10.2019
5411 Clouds -10 1018 85 10000 4 340 15:56 24.10.2019
5412 Clouds -10 1018 85 10000 4 340 15:38 24.10.2019
5413 Clouds -10 1018 85 10000 4 340 15:19 24.10.2019
5414 Clouds -11 1018 92 10000 3 350 14:55 24.10.2019
5415 Clouds -11 1018 92 10000 3 350 14:36 24.10.2019
5416 Clouds -11 1018 92 10000 3 350 14:18 24.10.2019
5417 Clouds -11 1018 85 10000 3 10 13:39 24.10.2019
5418 Clouds -11 1018 85 10000 3 10 13:19 24.10.2019
5419 Clouds -12 1018 92 10000 2 40 12:57 24.10.2019
5420 Clouds -12 1018 92 10000 2 40 12:38 24.10.2019
5421 Clouds -13 1018 92 10000 2 40 12:19 24.10.2019
5422 Clouds -13 1018 84 10000 2 30 11:56 24.10.2019
5423 Clouds -13 1018 84 10000 2 30 11:36 24.10.2019
5424 Clouds -13 1018 84 10000 2 30 11:36 24.10.2019
5425 Clouds -13 1018 84 10000 2 30 11:18 24.10.2019
5426 Clouds -13 1018 84 10000 3 20 10:42 24.10.2019
5427 Clouds -13 1018 84 10000 3 20 10:23 24.10.2019
5428 Clouds -14 1018 92 10000 3 10 09:55 24.10.2019
5429 Clouds -14 1018 92 10000 3 10 09:36 24.10.2019
5430 Clear -14 1018 92 10000 3 10 09:18 24.10.2019
5431 Clouds -14 1018 84 10000 3 20 08:42 24.10.2019
5432 Clouds -14 1018 84 10000 3 20 08:20 24.10.2019
5433 Clear -15 1018 92 10000 3 10 07:48 24.10.2019
5434 Clear -14 1018 92 10000 3 360 07:24 24.10.2019
5435 Clear -13 1018 84 10000 3 360 06:57 24.10.2019
5436 Clear -11 1018 85 10000 3 10 06:36 24.10.2019
5437 Clear -11 1018 85 10000 2 10 05:55 24.10.2019
5438 Clouds -10 1018 78 10000 3 350 05:33 24.10.2019
5439 Clouds -10 1018 85 10000 4 350 04:33 24.10.2019
5440 Clouds -10 1018 85 10000 4 350 03:36 24.10.2019
5441 Clouds -10 1018 85 10000 4 340 02:41 24.10.2019
5442 Clouds -10 1018 78 10000 4 350 02:20 24.10.2019
5443 Clouds -11 1019 85 10000 4 350 01:31 24.10.2019
5444 Clouds -11 1019 85 10000 3 360 00:57 24.10.2019
5445 Clouds -11 1019 85 10000 5 350 00:30 24.10.2019
5446 Clouds -12 1019 85 10000 5 350 23:57 23.10.2019
5447 Clouds -12 1019 92 10000 3 350 23:38 23.10.2019
5448 Clouds -12 1019 92 10000 3 350 23:19 23.10.2019
5449 Clouds -13 1019 84 10000 3 350 22:56 23.10.2019
5450 Clouds -12 1019 92 10000 3 330 22:37 23.10.2019
5451 Clouds -12 1019 92 10000 3 330 22:18 23.10.2019
5452 Clouds -11 1019 85 10000 3 350 21:56 23.10.2019
5453 Clouds -11 1019 85 10000 3 350 21:37 23.10.2019
5454 Clouds -11 1019 85 10000 3 350 21:19 23.10.2019
5455 Clouds -11 1020 85 10000 4 10 20:54 23.10.2019
5456 Clouds -11 1020 85 10000 4 10 20:36 23.10.2019
5457 Clouds -10 1020 85 10000 4 10 20:18 23.10.2019
5458 Clouds -10 1020 85 10000 4 30 19:42 23.10.2019
5459 Clouds -10 1020 85 10000 4 30 19:19 23.10.2019
5460 Clouds -9 1020 92 10000 4 360 18:57 23.10.2019
5461 Clouds -9 1020 92 10000 4 360 18:39 23.10.2019
5462 Clouds -9 1020 92 10000 4 360 18:19 23.10.2019
5463 Snow -9 1020 85 10000 1 30 17:46 23.10.2019
5464 Snow -9 1020 85 10000 1 30 17:21 23.10.2019
5465 Snow -9 1020 85 10000 3 20 16:59 23.10.2019
5466 Snow -9 1020 85 10000 3 20 16:40 23.10.2019
5467 Snow -9 1020 85 10000 3 20 16:40 23.10.2019
5468 Snow -9 1020 85 10000 3 20 16:20 23.10.2019
5469 Clouds -8 1021 92 10000 4 10 15:56 23.10.2019
5470 Clouds -8 1021 92 10000 4 10 15:56 23.10.2019
5471 Clouds -8 1021 92 10000 4 10 15:37 23.10.2019
5472 Clouds -8 1021 92 10000 4 10 15:18 23.10.2019
5473 Clouds -8 1021 92 10000 5 360 14:55 23.10.2019
5474 Clouds -8 1021 92 10000 5 360 14:37 23.10.2019
5475 Clouds -8 1021 92 10000 5 360 14:18 23.10.2019
5476 Clouds -8 1021 92 10000 5 360 14:18 23.10.2019
5477 Snow -7 1021 92 10000 4 350 13:42 23.10.2019
5478 Snow -7 1021 92 10000 4 350 13:24 23.10.2019
5479 Clouds -6 1021 92 10000 5 350 12:57 23.10.2019
5480 Clouds -6 1021 92 10000 5 350 12:38 23.10.2019
5481 Clouds -6 1021 92 10000 5 350 12:19 23.10.2019
5482 Clouds -6 1021 92 10000 4 340 11:57 23.10.2019
5483 Clouds -6 1021 92 10000 4 340 11:39 23.10.2019
5484 Clouds -6 1021 92 10000 4 340 11:20 23.10.2019
5485 Clouds -6 1021 92 10000 4 340 10:46 23.10.2019
5486 Clouds -6 1021 92 10000 4 340 10:46 23.10.2019
5487 Clouds -5 1021 92 10000 4 340 10:26 23.10.2019
5488 Snow -5 1021 92 10000 2 310 09:58 23.10.2019
5489 Snow -5 1021 92 10000 2 310 09:58 23.10.2019
5490 Snow -5 1021 92 10000 2 310 09:39 23.10.2019
5491 Snow -5 1021 92 10000 2 310 09:20 23.10.2019
5492 Snow -5 1020 92 10000 3 310 08:43 23.10.2019
5493 Snow -5 1020 92 10000 3 310 08:25 23.10.2019
5494 Snow -5 1020 92 10000 5 350 07:47 23.10.2019
5495 Snow -5 1020 92 9000 3 330 07:26 23.10.2019
5496 Snow -5 1020 92 8000 3 330 06:48 23.10.2019
5497 Snow -5 1020 92 8000 4 340 06:23 23.10.2019
5498 Snow -5 1020 92 8000 4 350 05:55 23.10.2019
5499 Snow -5 1020 92 8000 5 350 05:18 23.10.2019
5500 Snow -5 1019 85 7000 5 350 03:36 23.10.2019
5501 Snow -5 1020 85 10000 5 350 02:41 23.10.2019
5502 Snow -6 1019 85 10000 4 330 01:34 23.10.2019
5503 Clouds -6 1019 85 10000 5 320 00:58 23.10.2019
5504 Clouds -7 1019 92 10000 5 350 00:32 23.10.2019
5505 Clouds -8 1019 85 10000 5 350 23:42 22.10.2019
5506 Clouds -8 1019 92 10000 4 340 23:19 22.10.2019
5507 Clouds -8 1019 85 10000 2 360 22:58 22.10.2019
5508 Clouds -8 1019 85 10000 2 360 22:40 22.10.2019
5509 Clouds -8 1019 85 10000 2 360 22:40 22.10.2019
5510 Clouds -8 1019 85 10000 5 350 22:21 22.10.2019
5511 Snow -8 1018 85 10000 4 340 21:56 22.10.2019
5512 Snow -8 1018 85 10000 4 340 21:38 22.10.2019
5513 Snow -8 1018 85 10000 4 340 21:18 22.10.2019
5514 Snow -10 1018 92 10000 3 10 20:58 22.10.2019
5515 Snow -10 1018 92 10000 3 10 20:40 22.10.2019
5516 Snow -10 1018 92 10000 3 10 20:21 22.10.2019
5517 Clouds -10 1018 85 10000 2 350 19:55 22.10.2019
5518 Clouds -10 1018 85 10000 2 350 19:37 22.10.2019
5519 Clouds -10 1018 85 10000 2 350 19:19 22.10.2019
5520 Clouds -10 1018 92 10000 3 350 18:41 22.10.2019
5521 Clouds -10 1018 92 10000 3 350 18:22 22.10.2019
5522 Clouds -10 1017 85 10000 3 340 17:59 22.10.2019
5523 Clouds -10 1017 85 10000 3 340 17:39 22.10.2019
5524 Clouds -10 1017 85 10000 3 340 17:39 22.10.2019
5525 Clouds -10 1017 85 10000 3 340 17:20 22.10.2019
5526 Clouds -10 1017 85 10000 4 340 16:58 22.10.2019
5527 Clouds -10 1017 85 10000 4 340 16:39 22.10.2019
5528 Clouds -10 1017 85 10000 4 340 16:19 22.10.2019
5529 Clouds -9 1017 85 10000 3 360 15:58 22.10.2019
5530 Clouds -9 1017 85 10000 3 360 15:39 22.10.2019
5531 Clouds -9 1017 85 10000 3 360 15:18 22.10.2019
5532 Clouds -10 1017 85 10000 2 360 14:43 22.10.2019
5533 Clouds -10 1017 85 10000 2 360 14:20 22.10.2019
5534 Clouds -10 1016 92 10000 3 350 13:43 22.10.2019
5535 Clouds -10 1016 92 10000 3 350 13:23 22.10.2019
5536 Clouds -11 1016 92 10000 5 330 12:59 22.10.2019
5537 Clouds -11 1016 92 10000 5 330 12:41 22.10.2019
5538 Clouds -11 1016 92 10000 5 330 12:21 22.10.2019
5539 Clouds -10 1015 85 10000 4 340 11:57 22.10.2019
5540 Clouds -10 1015 85 10000 4 340 11:38 22.10.2019
5541 Clouds -10 1015 85 10000 4 340 11:20 22.10.2019
5542 Clouds -11 1015 85 10000 3 330 10:57 22.10.2019
5543 Clouds -11 1015 85 10000 3 330 10:37 22.10.2019
5544 Clouds -11 1015 85 10000 3 330 10:18 22.10.2019
5545 Clouds -9 1015 85 10000 4 340 09:55 22.10.2019
5546 Clouds -9 1015 85 10000 4 340 09:36 22.10.2019
5547 Clouds -9 1015 85 10000 4 340 09:18 22.10.2019
5548 Clouds -9 1014 85 10000 4 330 08:42 22.10.2019
5549 Clouds -9 1014 85 10000 4 330 08:21 22.10.2019
5550 Clouds -9 1014 85 10000 4 330 08:21 22.10.2019
5551 Clouds -9 1014 92 10000 4 350 07:46 22.10.2019
5552 Clouds -9 1014 92 10000 3 350 07:26 22.10.2019
5553 Clouds -8 1014 92 10000 7 350 06:51 22.10.2019
5554 Clouds -7 1013 85 10000 7 340 06:31 22.10.2019
5555 Snow -7 1013 79 10000 7 350 05:56 22.10.2019
5556 Snow -7 1013 79 10000 5 350 05:20 22.10.2019
5557 Snow -6 1013 85 10000 6 340 02:47 22.10.2019
5558 Clouds -6 1013 85 10000 6 340 02:28 22.10.2019
5559 Clouds -7 1013 92 10000 4 340 01:27 22.10.2019
5560 Clouds -7 1013 85 10000 5 340 00:57 22.10.2019
5561 Clouds -7 1013 85 10000 5 340 00:39 22.10.2019
5562 Clouds -7 1013 85 10000 5 340 00:20 22.10.2019
5563 Clouds -7 1013 92 10000 3 330 23:54 21.10.2019
5564 Clouds -7 1013 92 10000 4 340 23:36 21.10.2019
5565 Clouds -7 1013 92 10000 4 340 23:18 21.10.2019
5566 Clouds -7 1012 92 10000 4 350 22:54 21.10.2019
5567 Clouds -7 1012 92 10000 4 350 22:54 21.10.2019
5568 Clouds -7 1012 92 10000 4 340 22:36 21.10.2019
5569 Clouds -7 1012 92 10000 4 340 22:18 21.10.2019
5570 Snow -7 1012 92 10000 4 350 21:40 21.10.2019
5571 Snow -7 1012 92 10000 4 350 21:22 21.10.2019
5572 Snow -7 1012 92 10000 6 350 20:58 21.10.2019
5573 Snow -7 1012 92 10000 6 350 20:40 21.10.2019
5574 Snow -7 1012 92 10000 6 350 20:21 21.10.2019
5575 Snow -7 1012 92 9000 5 10 19:58 21.10.2019
5576 Snow -7 1012 92 9000 5 10 19:40 21.10.2019
5577 Snow -7 1012 92 9000 5 10 19:40 21.10.2019
5578 Snow -7 1012 92 9000 5 10 19:21 21.10.2019
5579 Snow -7 1011 92 10000 4 360 18:56 21.10.2019
5580 Snow -7 1011 92 10000 4 360 18:37 21.10.2019
5581 Snow -7 1011 92 10000 4 360 18:19 21.10.2019
5582 Snow -6 1011 85 10000 5 360 17:55 21.10.2019
5583 Snow -6 1011 85 10000 5 360 17:37 21.10.2019
5584 Snow -6 1011 85 10000 5 360 17:18 21.10.2019
5585 Snow -6 1011 92 10000 4 350 16:56 21.10.2019
5586 Snow -6 1011 92 10000 4 350 16:37 21.10.2019
5587 Snow -6 1011 92 10000 4 350 16:19 21.10.2019
5588 Clouds -6 1011 92 10000 4 360 15:42 21.10.2019
5589 Clouds -6 1011 92 10000 4 360 15:24 21.10.2019
5590 Snow -6 1011 92 10000 2 20 14:57 21.10.2019
5591 Snow -6 1011 92 10000 2 20 14:38 21.10.2019
5592 Snow -6 1011 92 10000 2 20 14:19 21.10.2019
5593 Clouds -6 1011 92 10000 3 360 13:55 21.10.2019
5594 Clouds -6 1011 92 10000 3 360 13:37 21.10.2019
5595 Clouds -6 1011 92 10000 3 360 13:18 21.10.2019
5596 Snow -5 1011 85 10000 5 350 12:41 21.10.2019
5597 Snow -5 1011 85 10000 5 350 12:22 21.10.2019
5598 Snow -5 1010 92 10000 3 340 11:55 21.10.2019
5599 Snow -5 1010 92 10000 3 340 11:37 21.10.2019
5600 Snow -5 1010 92 10000 3 340 11:18 21.10.2019
5601 Snow -6 1010 92 10000 5 360 10:55 21.10.2019
5602 Snow -6 1010 92 10000 5 360 10:37 21.10.2019
5603 Snow -6 1010 92 10000 5 360 10:18 21.10.2019
5604 Snow -5 1010 85 10000 6 10 09:43 21.10.2019
5605 Snow -5 1010 85 10000 6 360 09:23 21.10.2019
5606 Snow -6 1010 92 8000 4 350 08:43 21.10.2019
5607 Snow -6 1010 92 2600 4 360 08:23 21.10.2019
5608 Snow -5 1010 92 2100 4 350 07:59 21.10.2019
5609 Snow -5 1010 92 3800 5 350 07:37 21.10.2019
5610 Snow -5 1010 92 3800 5 350 07:19 21.10.2019
5611 Snow -5 1009 85 4300 5 340 06:51 21.10.2019
5612 Snow -5 1009 92 3000 4 340 06:32 21.10.2019
5613 Snow -5 1009 92 6000 5 340 05:46 21.10.2019
5614 Snow -5 1009 92 10000 5 330 04:42 21.10.2019
5615 Snow -4 1009 85 10000 5 330 02:41 21.10.2019
5616 Snow -4 1009 85 8000 5 320 02:21 21.10.2019
5617 Snow -4 1009 92 8000 5 310 01:49 21.10.2019
5618 Snow -3 1008 92 2900 4 330 01:22 21.10.2019
5619 Snow -3 1008 92 2500 5 330 00:42 21.10.2019
5620 Snow -3 1008 92 2500 5 330 00:42 21.10.2019
5621 Snow -3 1008 92 6000 4 350 00:23 21.10.2019
5622 Snow -3 1008 92 6000 4 350 00:23 21.10.2019
5623 Snow -3 1008 92 9000 4 350 23:40 20.10.2019
5624 Snow -3 1008 92 10000 3 360 23:22 20.10.2019
5625 Snow -3 1008 92 10000 3 350 22:56 20.10.2019
5626 Snow -3 1008 86 9000 2 350 22:37 20.10.2019
5627 Snow -3 1008 86 9000 2 350 22:18 20.10.2019
5628 Clouds -3 1007 86 10000 3 360 21:56 20.10.2019
5629 Clouds -3 1007 86 10000 3 360 21:38 20.10.2019
5630 Clouds -3 1007 86 10000 3 360 21:19 20.10.2019
5631 Snow -3 1007 86 10000 4 340 20:39 20.10.2019
5632 Snow -3 1007 86 10000 4 340 20:18 20.10.2019
5633 Clouds -3 1007 86 10000 4 350 19:56 20.10.2019
5634 Clouds -3 1007 86 10000 4 350 19:37 20.10.2019
5635 Clouds -3 1007 86 10000 4 350 19:19 20.10.2019
5636 Clouds -2 1007 79 10000 6 10 18:42 20.10.2019
5637 Clouds -2 1007 79 10000 6 10 18:24 20.10.2019
5638 Clouds -2 1006 79 10000 2 40 17:59 20.10.2019
5639 Clouds -2 1006 79 10000 2 40 17:59 20.10.2019
5640 Clouds -2 1006 79 10000 2 40 17:41 20.10.2019
5641 Clouds -2 1006 79 10000 2 40 17:22 20.10.2019
5642 Clear -2 1006 79 10000 2 10 16:56 20.10.2019
5643 Clear -2 1006 79 10000 2 10 16:38 20.10.2019
5644 Clear -2 1006 79 10000 2 10 16:19 20.10.2019
5645 Snow -3 1006 86 10000 1 310 15:55 20.10.2019
5646 Snow -3 1006 86 10000 1 310 15:36 20.10.2019
5647 Snow -3 1006 86 10000 1 310 15:18 20.10.2019
5648 Snow -3 1005 86 10000 2 360 14:41 20.10.2019
5649 Snow -3 1005 86 10000 2 360 14:23 20.10.2019
5650 Clouds -3 1005 86 10000 1 290 13:56 20.10.2019
5651 Clouds -3 1005 86 10000 1 290 13:37 20.10.2019
5652 Clouds -3 1005 86 10000 1 290 13:19 20.10.2019
5653 Clouds -3 1005 86 10000 2 340 12:58 20.10.2019
5654 Clouds -3 1005 86 10000 2 340 12:39 20.10.2019
5655 Clouds -3 1005 86 10000 2 340 12:21 20.10.2019
5656 Clouds -3 1005 86 10000 4 20 11:59 20.10.2019
5657 Clouds -3 1005 86 10000 4 20 11:40 20.10.2019
5658 Clouds -3 1005 86 10000 4 20 11:22 20.10.2019
5659 Snow -2 1005 86 10000 3 270 10:58 20.10.2019
5660 Snow -2 1005 86 10000 3 270 10:39 20.10.2019
5661 Snow -2 1005 86 10000 3 270 10:39 20.10.2019
5662 Snow -2 1005 86 10000 3 270 10:20 20.10.2019
5663 Clear -2 1004 86 10000 8 360 09:55 20.10.2019
5664 Clear -2 1004 86 10000 8 360 09:37 20.10.2019
5665 Clear -2 1004 86 10000 8 360 09:18 20.10.2019
5666 Clear -2 1004 86 10000 8 350 08:39 20.10.2019
5667 Clear -2 1004 86 10000 8 350 08:20 20.10.2019
5668 Clouds -2 1004 92 10000 8 360 07:47 20.10.2019
5669 Clouds -2 1004 92 10000 8 360 07:26 20.10.2019
5670 Clear -2 1004 92 10000 8 360 06:30 20.10.2019
5671 Clouds -2 1004 92 10000 6 360 04:29 20.10.2019
5672 Clouds -2 1004 100 10000 4 350 03:50 20.10.2019
5673 Clear -2 1004 100 10000 4 360 03:22 20.10.2019
5674 Clear -2 1004 92 10000 4 360 02:48 20.10.2019
5675 Snow -2 1004 92 10000 4 340 02:22 20.10.2019
5676 Clear -3 1004 92 10000 4 340 01:47 20.10.2019
5677 Clear -3 1004 100 10000 5 340 01:20 20.10.2019
5678 Clear -3 1005 100 10000 5 350 00:47 20.10.2019
5679 Clear -3 1005 92 10000 1 340 00:20 20.10.2019
5680 Clear -4 1005 92 10000 1 360 23:44 19.10.2019
5681 Clear -5 1005 100 10000 5.78 306.446 23:24 19.10.2019
5682 Clear -5 1005 92 10000 5.78 306.446 22:59 19.10.2019
5683 Clear -5 1005 92 10000 5.78 306.446 22:40 19.10.2019
5684 Clear -5 1005 92 10000 5.78 306.446 22:20 19.10.2019
5685 Clear -6 1004 92 10000 5.78 306.446 21:54 19.10.2019
5686 Clear -6 1004 92 10000 5.78 306.446 21:36 19.10.2019
5687 Clear -6 1004 92 10000 6.02 305.311 21:18 19.10.2019
5688 Fog -6 1005 92 10000 5.92 304.823 20:41 19.10.2019
5689 Fog -6 1005 92 10000 5.92 304.823 20:20 19.10.2019
5690 Fog -6 1004 92 10000 5.92 304.823 19:42 19.10.2019
5691 Fog -6 1004 92 10000 5.92 304.823 19:24 19.10.2019
5692 Fog -6 1004 92 250 5.92 304.823 18:55 19.10.2019
5693 Fog -6 1004 92 250 5.92 304.823 18:37 19.10.2019
5694 Fog -6 1004 92 250 5.65 300.698 18:18 19.10.2019
5695 Fog -6 1004 92 250 5.65 300.698 17:41 19.10.2019
5696 Fog -6 1004 92 250 5.65 300.698 17:21 19.10.2019
5697 Fog -6 1004 92 250 5.65 300.698 17:21 19.10.2019
5698 Fog -6 1004 92 400 5.65 300.698 16:56 19.10.2019
5699 Fog -6 1004 92 400 5.65 300.698 16:37 19.10.2019
5700 Fog -6 1004 92 400 5.65 300.698 16:18 19.10.2019
5701 Fog -6 1004 92 400 5.65 300.698 16:18 19.10.2019
5702 Mist -7 1004 92 2200 1 350 15:41 19.10.2019
5703 Mist -7 1004 92 2200 1 350 15:23 19.10.2019
5704 Fog -7 1003 92 400 1 10 14:39 19.10.2019
5705 Fog -7 1003 92 400 1 10 14:20 19.10.2019
5706 Mist -5 1003 92 4000 2 10 13:58 19.10.2019
5707 Mist -5 1003 92 4000 2 10 13:40 19.10.2019
5708 Mist -5 1003 92 4000 2 10 13:19 19.10.2019
5709 Fog -7 1003 92 10000 2 10 12:57 19.10.2019
5710 Fog -7 1003 92 10000 2 10 12:37 19.10.2019
5711 Fog -7 1003 92 10000 2 10 12:18 19.10.2019
5712 Fog -7 1003 92 10000 2 360 11:41 19.10.2019
5713 Fog -7 1003 92 10000 2 360 11:41 19.10.2019
5714 Fog -7 1003 92 10000 2 360 11:23 19.10.2019
5715 Mist -7 1003 92 10000 2 330 10:56 19.10.2019
5716 Mist -7 1003 92 10000 2 330 10:38 19.10.2019
5717 Mist -7 1003 92 10000 2 330 10:20 19.10.2019
5718 Fog -6 1002 92 700 2 340 09:42 19.10.2019
5719 Fog -6 1002 92 700 2 340 09:24 19.10.2019
5720 Fog -6 1002 92 550 2 340 08:59 19.10.2019
5721 Fog -6 1002 92 550 2 340 08:59 19.10.2019
5722 Fog -6 1002 92 550 2 340 08:40 19.10.2019
5723 Fog -6 1002 92 550 2 340 08:40 19.10.2019
5724 Fog -6 1002 92 550 2 340 08:21 19.10.2019
5725 Fog -6 1001 92 250 1 350 07:44 19.10.2019
5726 Fog -6 1001 92 250 1 350 07:25 19.10.2019
5727 Mist -6 1001 92 1100 3 350 06:47 19.10.2019
5728 Fog -6 1000 92 8000 3 320 05:58 19.10.2019
5729 Fog -6 1000 92 8000 3 320 05:32 19.10.2019
5730 Fog -5 999 100 10000 5 350 04:21 19.10.2019
5731 Fog -5 999 92 1100 2 340 02:46 19.10.2019
5732 Mist -5 999 100 2800 2 360 01:53 19.10.2019
5733 Fog -4 999 92 9000 2 360 01:20 19.10.2019
5734 Fog -4 999 92 9000 2 360 01:20 19.10.2019
5735 Fog -5 999 100 400 2 340 00:48 19.10.2019
5736 Fog -4 998 92 300 2 350 00:26 19.10.2019
5737 Fog -4 998 92 1400 2 350 23:45 18.10.2019
5738 Fog -4 998 92 1400 2 350 23:26 18.10.2019
5739 Snow -5 998 92 1400 1 30 22:57 18.10.2019
5740 Snow -5 998 92 1400 1 30 22:39 18.10.2019
5741 Snow -5 998 92 1400 1 30 22:20 18.10.2019
5742 Fog -4 997 100 350 2 10 21:58 18.10.2019
5743 Fog -4 997 100 350 2 10 21:38 18.10.2019
5744 Fog -4 997 100 350 2 10 21:20 18.10.2019
5745 Fog -3 997 92 250 1 40 20:56 18.10.2019
5746 Fog -3 997 92 250 1 40 20:38 18.10.2019
5747 Fog -3 997 92 250 1 40 20:20 18.10.2019
5748 Fog -3 996 100 1100 1 360 19:55 18.10.2019
5749 Fog -3 996 100 1100 1 360 19:37 18.10.2019
5750 Fog -3 996 100 1100 1 360 19:37 18.10.2019
5751 Fog -3 996 100 1100 1 360 19:19 18.10.2019
5752 Mist -3 996 100 7000 2 350 18:55 18.10.2019
5753 Mist -3 996 100 7000 2 350 18:37 18.10.2019
5754 Mist -3 996 100 7000 2 350 18:19 18.10.2019
5755 Snow -3 996 100 10000 2 350 17:39 18.10.2019
5756 Snow -3 996 100 10000 2 350 17:20 18.10.2019
5757 Snow -3 996 100 10000 2 350 16:56 18.10.2019
5758 Snow -3 996 100 10000 2 350 16:37 18.10.2019
5759 Snow -3 996 100 10000 2 350 16:19 18.10.2019
5760 Snow -3 995 100 7000 1 350 15:40 18.10.2019
5761 Snow -3 995 100 7000 1 350 15:21 18.10.2019
5762 Snow -3 995 92 6000 1 360 14:58 18.10.2019
5763 Snow -3 995 92 6000 1 360 14:58 18.10.2019
5764 Snow -3 995 92 6000 1 360 14:58 18.10.2019
5765 Snow -3 995 92 6000 1 360 14:58 18.10.2019
5766 Snow -3 995 92 6000 1 360 14:40 18.10.2019
5767 Snow -3 995 92 6000 1 360 14:22 18.10.2019
5768 Snow -3 995 92 6000 1 330 13:59 18.10.2019
5769 Snow -3 995 92 6000 1 330 13:40 18.10.2019
5770 Snow -3 995 92 6000 1 330 13:22 18.10.2019
5771 Snow -3 995 92 3500 1 340 12:56 18.10.2019
5772 Snow -3 995 92 3500 1 340 12:38 18.10.2019
5773 Snow -3 995 92 3500 1 340 12:38 18.10.2019
5774 Snow -3 995 92 3500 1 340 12:38 18.10.2019
5775 Snow -3 995 92 3500 1 340 12:20 18.10.2019
5776 Snow -3 995 92 9000 2 330 11:56 18.10.2019
5777 Snow -3 995 92 9000 2 330 11:37 18.10.2019
5778 Snow -3 995 92 9000 2 330 11:19 18.10.2019
5779 Snow -3 995 92 9000 1 340 10:43 18.10.2019
5780 Snow -3 995 92 9000 1 340 10:43 18.10.2019
5781 Snow -3 995 92 9000 1 340 10:23 18.10.2019
5782 Snow -4 995 92 10000 2 330 09:59 18.10.2019
5783 Snow -4 995 92 10000 2 330 09:59 18.10.2019
5784 Snow -4 995 92 10000 2 330 09:40 18.10.2019
5785 Snow -4 995 92 10000 2 330 09:21 18.10.2019
5786 Snow -4 995 92 10000 2 340 08:58 18.10.2019
5787 Snow -4 995 92 10000 2 340 08:58 18.10.2019
5788 Snow -4 995 92 10000 2 340 08:58 18.10.2019
5789 Snow -4 995 92 10000 2 340 08:40 18.10.2019
5790 Snow -4 995 92 10000 2 340 08:21 18.10.2019
5791 Clouds -4 995 92 10000 3 330 07:42 18.10.2019
5792 Clouds -4 994 92 10000 4 350 07:21 18.10.2019
5793 Clouds -4 994 86 10000 4 330 06:39 18.10.2019
5794 Clouds -3 994 86 10000 4 330 06:21 18.10.2019
5795 Snow -3 994 86 10000 5 340 05:56 18.10.2019
5796 Snow -3 994 86 10000 4 330 05:23 18.10.2019
5797 Snow -3 994 86 10000 5 320 04:25 18.10.2019
5798 Snow -3 994 86 10000 5 330 03:29 18.10.2019
5799 Snow -2 994 86 9000 5 340 02:33 18.10.2019
5800 Snow -2 994 79 8000 5 340 01:44 18.10.2019
5801 Snow -2 994 79 10000 4 350 01:26 18.10.2019
5802 Snow -2 994 79 10000 4 350 00:45 18.10.2019
5803 Clouds -3 994 79 10000 3 350 00:21 18.10.2019
5804 Clouds -3 994 79 10000 4 340 23:55 17.10.2019
5805 Clear -3 994 79 10000 4 350 23:36 17.10.2019
5806 Clear -3 994 79 10000 4 350 23:18 17.10.2019
5807 Clear -4 994 85 10000 5 360 22:54 17.10.2019
5808 Clear -4 994 79 10000 4 10 22:36 17.10.2019
5809 Clear -4 994 79 10000 4 10 22:18 17.10.2019
5810 Clear -5 994 85 10000 4 350 21:55 17.10.2019
5811 Clear -5 994 85 10000 4 350 21:55 17.10.2019
5812 Clear -5 994 85 10000 4 350 21:37 17.10.2019
5813 Clear -5 994 85 10000 4 350 21:19 17.10.2019
5814 Clear -5 994 85 10000 5 360 20:56 17.10.2019
5815 Clear -5 994 85 10000 5 360 20:56 17.10.2019
5816 Clear -5 994 85 10000 5 360 20:56 17.10.2019
5817 Clear -5 994 85 10000 5 360 20:37 17.10.2019
5818 Clear -5 994 85 10000 5 360 20:18 17.10.2019
5819 Clear -5 994 85 10000 5 360 20:18 17.10.2019
5820 Clear -5 994 92 10000 3 40 19:42 17.10.2019
5821 Clear -5 994 92 10000 3 40 19:20 17.10.2019
5822 Clouds -4 994 85 10000 5 350 18:59 17.10.2019
5823 Clouds -4 994 85 10000 5 350 18:39 17.10.2019
5824 Clouds -4 994 85 10000 5 350 18:20 17.10.2019
5825 Clouds -3 994 86 10000 3 330 17:44 17.10.2019
5826 Clouds -3 994 86 10000 3 330 17:25 17.10.2019
5827 Clouds -3 994 92 10000 3 360 16:59 17.10.2019
5828 Clouds -3 994 92 10000 3 360 16:41 17.10.2019
5829 Clouds -3 994 92 10000 3 360 16:19 17.10.2019
5830 Clouds -2 994 86 10000 4 10 15:57 17.10.2019
5831 Clouds -2 994 86 10000 4 10 15:38 17.10.2019
5832 Clouds -2 994 86 10000 4 10 15:20 17.10.2019
5833 Snow -2 993 86 10000 4 10 14:57 17.10.2019
5834 Snow -2 993 86 10000 4 10 14:38 17.10.2019
5835 Snow -2 993 86 10000 4 10 14:20 17.10.2019
5836 Clouds -1 993 86 10000 4 10 13:41 17.10.2019
5837 Clouds -1 993 86 10000 4 10 13:20 17.10.2019
5838 Snow -1 993 86 10000 5 10 12:58 17.10.2019
5839 Snow -1 993 86 10000 5 10 12:39 17.10.2019
5840 Snow -1 993 86 10000 5 10 12:19 17.10.2019
5841 Snow -1 993 86 10000 3 360 11:56 17.10.2019
5842 Snow -1 993 86 10000 3 360 11:37 17.10.2019
5843 Snow -1 993 86 10000 3 360 11:18 17.10.2019
5844 Snow -1 993 86 10000 3 360 10:42 17.10.2019
5845 Snow -1 993 86 10000 3 360 10:20 17.10.2019
5846 Clouds -1 993 86 10000 4 360 09:57 17.10.2019
5847 Clouds -1 993 86 10000 4 360 09:38 17.10.2019
5848 Clouds -1 993 86 10000 4 360 09:20 17.10.2019
5849 Clouds -1 993 80 10000 5 350 08:56 17.10.2019
5850 Snow -1 993 80 10000 3 50 08:37 17.10.2019
5851 Snow -1 993 80 10000 3 50 08:18 17.10.2019
5852 Snow -1 993 80 10000 3 50 08:18 17.10.2019
5853 Snow -1 993 86 10000 3 40 07:43 17.10.2019
5854 Snow 0 992 84 10000 6 20 07:21 17.10.2019
5855 Snow 0 992 84 10000 6 20 07:21 17.10.2019
5856 Clouds 0 992 84 10000 6 20 06:56 17.10.2019
5857 Clouds 0 992 84 10000 6 20 06:38 17.10.2019
5858 Clouds 0 992 96 10000 6 20 06:19 17.10.2019
5859 Clouds 1 992 86 10000 5 30 05:41 17.10.2019
5860 Clouds 2 991 96 10000 1 20 05:20 17.10.2019
5861 Rain 1 991 96 10000 3 30 04:48 17.10.2019
5862 Rain 3 991 96 10000 3 110 03:49 17.10.2019
5863 Clouds 3 990 74 10000 2 350 02:32 17.10.2019
5864 Clouds 3 990 74 10000 3 30 00:43 17.10.2019
5865 Clouds 3 990 87 10000 5 10 00:21 17.10.2019
5866 Clouds 3 989 87 10000 5 30 23:59 16.10.2019
5867 Clouds 3 989 87 10000 5 30 23:41 16.10.2019
5868 Clouds 2 989 80 10000 6 70 23:19 16.10.2019
5869 Clouds 2 989 80 10000 6 70 23:19 16.10.2019
5870 -273 0 0 0 0 0 22:54 16.10.2019
5871 Clouds 2 988 80 10000 6 70 22:36 16.10.2019
5872 Clouds 2 988 80 10000 6 70 22:36 16.10.2019
5873 Clouds 2 988 80 10000 6 70 22:18 16.10.2019
5874 Clouds 2 988 87 10000 6 60 21:55 16.10.2019
5875 Clouds 2 988 87 10000 6 60 21:54 16.10.2019
5876 Clouds 2 988 87 10000 6 60 21:54 16.10.2019
5877 Clouds 2 988 80 10000 6 60 21:36 16.10.2019
5878 Clouds 2 988 78 10000 6 60 21:18 16.10.2019
5879 Clouds 3 987 86 10000 4 50 20:55 16.10.2019
5880 Clouds 3 987 86 10000 4 50 20:37 16.10.2019
5881 Clouds 3 987 86 10000 4 50 20:37 16.10.2019
5882 Clouds 3 987 86 10000 4 50 20:19 16.10.2019
5883 Clouds 3 986 86 10000 7 80 19:40 16.10.2019
5884 Clouds 3 986 86 10000 7 80 19:40 16.10.2019
5885 Clouds 3 986 86 10000 7 80 19:21 16.10.2019
5886 Clouds 3 986 86 10000 7 80 19:21 16.10.2019
5887 Clouds 3 985 86 10000 6 80 18:58 16.10.2019
5888 Clouds 3 985 86 10000 6 80 18:37 16.10.2019
5889 Clouds 3 985 86 10000 6 80 18:18 16.10.2019
5890 Rain 2 984 93 9000 8 80 17:55 16.10.2019
5891 Rain 2 984 93 9000 8 80 17:37 16.10.2019
5892 Rain 2 984 93 9000 8 80 17:18 16.10.2019
5893 -273 0 0 0 0 0 16:56 16.10.2019
5894 Rain 2 983 93 9000 8 80 16:37 16.10.2019
5895 Rain 2 983 93 9000 8 80 16:18 16.10.2019
5896 Rain 2 983 93 9000 9 70 15:40 16.10.2019
5897 Rain 2 983 93 9000 9 70 15:40 16.10.2019
5898 Rain 2 982 86 7000 12 80 15:19 16.10.2019
5899 Rain 3 982 86 7000 12 80 14:59 16.10.2019
5900 Rain 3 982 86 7000 12 80 14:40 16.10.2019
5901 Rain 3 982 86 7000 12 80 14:21 16.10.2019
5902 Rain 3 981 93 8000 10 70 13:58 16.10.2019
5903 Rain 3 981 93 8000 10 70 13:40 16.10.2019
5904 Rain 3 981 93 8000 10 70 13:21 16.10.2019
5905 Rain 3 980 93 10000 11 60 12:44 16.10.2019
5906 Rain 3 980 93 10000 11 60 12:20 16.10.2019
5907 Rain 3 979 86 10000 14 70 11:55 16.10.2019
5908 Rain 3 979 86 10000 14 70 11:37 16.10.2019
5909 Rain 3 979 86 10000 14 70 11:18 16.10.2019
5910 Clouds 3 977 86 10000 14 60 10:37 16.10.2019
5911 Clouds 3 977 86 10000 14 60 10:18 16.10.2019
5912 Rain 3 976 86 10000 15 60 09:41 16.10.2019
5913 Rain 3 976 86 10000 15 60 09:22 16.10.2019
5914 Rain 2 974 93 10000 19 70 08:57 16.10.2019
5915 Rain 2 974 93 10000 19 70 08:39 16.10.2019
5916 Rain 2 974 93 10000 19 70 08:39 16.10.2019
5917 Rain 2 974 93 10000 19 70 08:20 16.10.2019
5918 Rain 2 974 93 10000 19 70 08:20 16.10.2019
5919 Rain 3 974 89 10000 20 70 07:43 16.10.2019
5920 Rain 3 974 89 10000 20 70 07:24 16.10.2019
5921 Rain 3 973 89 10000 20 70 06:55 16.10.2019
5922 Clouds 3 973 89 10000 22 70 06:31 16.10.2019
5923 Clouds 4 973 94 10000 21 70 05:22 16.10.2019
5924 Rain 4 976 92 10000 14 60 02:53 16.10.2019
5925 Clouds 4 977 94 10000 14 60 01:38 16.10.2019
5926 Clouds 4 977 94 10000 14 60 01:18 16.10.2019
5927 Clouds 4 977 94 10000 13 60 00:42 16.10.2019
5928 Clouds 3 978 96 10000 13 60 23:59 15.10.2019
5929 Rain 3 979 96 10000 12 60 23:39 15.10.2019
5930 Rain 3 979 96 10000 12 60 23:21 15.10.2019
5931 Rain 3 979 96 10000 11 60 22:55 15.10.2019
5932 Rain 3 979 96 10000 11 60 22:55 15.10.2019
5933 Rain 3 979 96 10000 11 60 22:55 15.10.2019
5934 Rain 3 979 96 10000 14 70 22:37 15.10.2019
5935 Rain 3 979 96 10000 14 70 22:19 15.10.2019
5936 -273 0 0 0 0 0 21:55 15.10.2019
5937 Rain 3 979 96 10000 14 70 21:55 15.10.2019
5938 Rain 3 979 94 10000 14 70 21:36 15.10.2019
5939 Rain 3 979 96 10000 14 70 21:18 15.10.2019
5940 Rain 3 980 96 10000 15 80 20:55 15.10.2019
5941 Rain 3 980 96 10000 15 80 20:55 15.10.2019
5942 Rain 3 980 96 10000 15 80 20:37 15.10.2019
5943 Rain 3 980 96 10000 15 80 20:19 15.10.2019
5944 Rain 3 980 96 10000 15 80 19:55 15.10.2019
5945 Rain 3 980 96 10000 15 80 19:55 15.10.2019
5946 Rain 3 980 96 10000 15 80 19:37 15.10.2019
5947 Rain 3 980 96 10000 15 80 19:37 15.10.2019
5948 Rain 3 980 96 10000 15 80 19:18 15.10.2019
5949 Rain 3 981 86 10000 11 60 18:44 15.10.2019
5950 -273 0 0 0 0 0 18:25 15.10.2019
5951 Rain 4 981 80 10000 10 60 17:55 15.10.2019
5952 Rain 4 981 80 10000 10 60 17:55 15.10.2019
5953 Rain 4 981 80 10000 10 60 17:37 15.10.2019
5954 Rain 4 981 80 10000 10 60 17:19 15.10.2019
5955 Rain 4 981 80 10000 11 60 16:45 15.10.2019
5956 Rain 4 981 80 10000 11 60 16:22 15.10.2019
5957 Rain 3 982 86 10000 12 60 15:58 15.10.2019
5958 Rain 3 982 86 10000 12 60 15:39 15.10.2019
5959 Rain 3 982 86 10000 12 60 15:19 15.10.2019
5960 Rain 2 983 96 9000 10 60 14:56 15.10.2019
5961 Rain 2 983 96 9000 10 60 14:37 15.10.2019
5962 Rain 2 983 96 9000 10 60 14:37 15.10.2019
5963 Rain 2 983 96 9000 10 60 14:19 15.10.2019
5964 Rain 3 983 96 10000 11 70 13:43 15.10.2019
5965 Rain 3 983 96 10000 11 70 13:43 15.10.2019
5966 Rain 3 983 96 10000 11 70 13:21 15.10.2019
5967 Rain 3 984 96 10000 12 80 12:57 15.10.2019
5968 Rain 3 984 96 10000 12 80 12:38 15.10.2019
5969 Rain 3 984 90 10000 12 80 12:20 15.10.2019
5970 Rain 3 984 90 10000 16 90 11:43 15.10.2019
5971 Rain 3 984 90 10000 16 90 11:20 15.10.2019
5972 Clouds 3 984 90 10000 13 80 10:56 15.10.2019
5973 Clouds 3 984 86 10000 13 80 10:38 15.10.2019
5974 Clouds 3 984 86 10000 13 80 10:18 15.10.2019
5975 Rain 2 984 93 10000 11 70 09:55 15.10.2019
5976 -273 0 0 0 0 0 09:55 15.10.2019
5977 Rain 2 984 93 10000 11 70 09:36 15.10.2019
5978 Rain 2 984 93 10000 11 70 09:36 15.10.2019
5979 Rain 2 984 93 10000 11 70 09:18 15.10.2019
5980 Rain 3 984 94 10000 12 80 08:41 15.10.2019
5981 Rain 3 984 94 10000 12 80 08:20 15.10.2019
5982 Clouds 3 984 94 10000 12 80 07:48 15.10.2019
5983 Clouds 3 985 94 10000 13 70 07:23 15.10.2019
5984 Clouds 3 985 94 10000 10 70 06:58 15.10.2019
5985 Rain 3 985 94 10000 10 60 06:40 15.10.2019
5986 Rain 3 985 86 10000 10 70 05:58 15.10.2019
5987 Rain 3 984 86 10000 15 90 05:37 15.10.2019
5988 Rain 3 984 86 6000 16 90 04:53 15.10.2019
5989 Rain 3 984 86 9000 12 80 04:20 15.10.2019
5990 Rain 3 984 93 8000 8 90 03:35 15.10.2019
5991 Rain 3 985 93 9000 9 100 02:19 15.10.2019
5992 Rain 4 985 93 9000 12 100 01:41 15.10.2019
5993 Clouds 4 984 86 10000 15 100 01:18 15.10.2019
5994 Clouds 4 985 86 10000 13 110 00:26 15.10.2019
5995 Rain 3 985 93 6000 14 110 23:59 14.10.2019
5996 Rain 3 985 86 8000 13 100 23:38 14.10.2019
5997 Rain 3 985 86 8000 13 100 23:19 14.10.2019
5998 Rain 3 985 86 8000 13 100 23:19 14.10.2019
5999 Rain 3 986 93 7000 13 100 22:40 14.10.2019
6000 Rain 3 986 86 6000 12 110 22:21 14.10.2019
6001 Rain 2 987 93 6000 12 100 21:59 14.10.2019
6002 Rain 2 987 93 6000 12 100 21:40 14.10.2019
6003 Rain 2 987 93 6000 12 100 21:40 14.10.2019
6004 Rain 2 987 93 6000 12 100 21:21 14.10.2019
6005 Rain 2 987 93 6000 11 100 20:58 14.10.2019
6006 Rain 2 987 93 6000 11 100 20:38 14.10.2019
6007 Rain 2 987 93 6000 11 100 20:19 14.10.2019
6008 Rain 3 987 93 7000 12 110 19:56 14.10.2019
6009 Rain 3 987 93 7000 12 110 19:37 14.10.2019
6010 Rain 3 987 93 7000 12 110 19:19 14.10.2019
6011 Rain 3 988 93 9000 8 110 18:57 14.10.2019
6012 Rain 3 988 93 9000 8 110 18:37 14.10.2019
6013 Rain 3 988 93 9000 8 110 18:18 14.10.2019
6014 Rain 3 989 93 9000 5 120 17:41 14.10.2019
6015 Rain 3 989 93 9000 5 120 17:23 14.10.2019
6016 Rain 2 990 93 10000 1 80 16:54 14.10.2019
6017 Rain 2 990 93 10000 1 80 16:36 14.10.2019
6018 Rain 2 990 93 10000 1 80 16:18 14.10.2019
6019 Rain 2 991 93 10000 1 70 15:40 14.10.2019
6020 Rain 2 991 93 10000 1 70 15:21 14.10.2019
6021 Clouds 3 992 93 10000 3 70 14:44 14.10.2019
6022 Clouds 3 992 93 10000 3 70 14:25 14.10.2019
6023 Clear 2 993 93 10000 4 100 13:58 14.10.2019
6024 Clear 2 993 93 10000 4 100 13:40 14.10.2019
6025 Clear 2 993 93 10000 4 100 13:20 14.10.2019
6026 Clear 2 993 93 10000 4 100 13:20 14.10.2019
6027 Clear 2 993 93 10000 5 110 12:41 14.10.2019
6028 Clear 2 993 89 10000 5 110 12:21 14.10.2019
6029 Clear 2 993 80 10000 3 110 11:55 14.10.2019
6030 Clear 2 993 80 10000 3 110 11:36 14.10.2019
6031 Clear 2 993 80 10000 3 110 11:18 14.10.2019
6032 Clear 3 994 74 10000 5 140 10:44 14.10.2019
6033 Clear 3 994 74 10000 5 140 10:44 14.10.2019
6034 Clear 3 994 74 10000 5 140 10:21 14.10.2019
6035 Clear 3 994 89 10000 6 150 09:59 14.10.2019
6036 Clear 3 994 89 10000 6 150 09:38 14.10.2019
6037 Clear 3 994 87 10000 6 150 09:20 14.10.2019
6038 Clear 3 994 86 10000 7 160 08:48 14.10.2019
6039 Clear 3 994 86 10000 7 160 08:23 14.10.2019
6040 Clouds 3 993 93 10000 7 150 07:44 14.10.2019
6041 Clouds 3 993 93 10000 7 150 07:22 14.10.2019
6042 Clouds 3 993 100 9000 7 140 06:55 14.10.2019
6043 Clouds 4 993 93 9000 8 140 06:27 14.10.2019
6044 Rain 4 993 93 3900 12 130 05:52 14.10.2019
6045 Rain 3 994 93 5000 10 130 04:51 14.10.2019
6046 Rain 3 995 93 7000 12 120 03:48 14.10.2019
6047 Rain 3 996 93 5000 13 120 03:22 14.10.2019
6048 Rain 3 998 86 5000 14 120 01:52 14.10.2019
6049 Rain 3 999 86 5000 14 120 01:18 14.10.2019
6050 Clouds 3 1000 86 10000 12 120 00:36 14.10.2019
6051 Clouds 3 1000 86 10000 12 120 00:18 14.10.2019
6052 Clouds 3 1000 86 10000 12 120 23:40 13.10.2019
6053 Clouds 3 1001 86 10000 13 120 23:19 13.10.2019
6054 Clouds 3 1002 86 10000 14 120 22:54 13.10.2019
6055 Clouds 3 1002 86 10000 14 130 22:36 13.10.2019
6056 Clouds 3 1002 86 10000 14 130 22:18 13.10.2019
6057 Clouds 3 1002 86 10000 14 130 22:18 13.10.2019
6058 Clouds 3 1003 86 10000 14 120 21:55 13.10.2019
6059 Clouds 3 1003 86 10000 14 120 21:36 13.10.2019
6060 Clouds 3 1003 81 10000 14 120 21:18 13.10.2019
6061 Clouds 3 1003 81 10000 14 120 21:18 13.10.2019
6062 Rain 3 1005 86 10000 12 120 20:55 13.10.2019
6063 Rain 3 1005 86 10000 12 120 20:55 13.10.2019
6064 Rain 3 1005 86 10000 12 120 20:36 13.10.2019
6065 Rain 3 1005 86 10000 12 120 20:18 13.10.2019
6066 Clouds 3 1005 86 10000 13 120 19:40 13.10.2019
6067 Clouds 3 1005 86 10000 13 120 19:22 13.10.2019
6068 Clouds 3 1006 86 10000 12 120 18:59 13.10.2019
6069 Clouds 3 1006 86 10000 12 120 18:38 13.10.2019
6070 Clouds 3 1006 86 10000 12 120 18:20 13.10.2019
6071 Clouds 3 1008 83 10000 11 120 17:59 13.10.2019
6072 Clouds 3 1008 83 10000 11 120 17:40 13.10.2019
6073 Clouds 3 1008 83 10000 11 120 17:22 13.10.2019
6074 Clouds 3 1008 83 10000 11 120 16:43 13.10.2019
6075 Clouds 3 1008 83 10000 11 120 16:19 13.10.2019
6076 Clouds 3 1009 86 10000 12 130 15:57 13.10.2019
6077 Clouds 3 1009 86 10000 12 130 15:39 13.10.2019
6078 Clouds 3 1009 86 10000 12 130 15:20 13.10.2019
6079 Clear 3 1010 86 10000 12 140 14:58 13.10.2019
6080 Clear 3 1010 86 10000 12 140 14:39 13.10.2019
6081 Clear 3 1010 86 10000 12 140 14:20 13.10.2019
6082 Clear 3 1011 86 10000 10 140 13:55 13.10.2019
6083 Clear 3 1011 86 10000 10 140 13:37 13.10.2019
6084 Clear 3 1011 86 10000 10 140 13:37 13.10.2019
6085 Clear 3 1011 86 10000 10 140 13:18 13.10.2019
6086 Clear 3 1011 86 10000 10 140 13:18 13.10.2019
6087 Clear 2 1011 93 10000 9 140 12:55 13.10.2019
6088 Clear 2 1011 93 10000 9 140 12:55 13.10.2019
6089 Clear 2 1011 93 10000 9 140 12:36 13.10.2019
6090 Clear 2 1011 93 10000 9 140 12:36 13.10.2019
6091 Clear 2 1011 93 10000 9 140 12:18 13.10.2019
6092 Clear 2 1012 85 10000 9 130 11:54 13.10.2019
6093 Clear 2 1012 85 10000 9 130 11:36 13.10.2019
6094 Clear 2 1012 85 10000 9 130 11:18 13.10.2019
6095 Clear 2 1013 80 10000 8 140 10:41 13.10.2019
6096 Clear 2 1013 80 10000 8 140 10:22 13.10.2019
6097 Clear 2 1013 80 10000 8 140 10:22 13.10.2019
6098 Clear 2 1013 80 10000 8 140 10:22 13.10.2019
6099 Clouds 2 1014 80 10000 6 120 09:40 13.10.2019
6100 Clouds 2 1014 80 10000 6 120 09:21 13.10.2019
6101 Clouds 1 1014 80 10000 6 110 08:57 13.10.2019
6102 Clouds 1 1014 80 10000 6 110 08:27 13.10.2019
6103 Clouds 1 1015 80 10000 4 110 07:56 13.10.2019
6104 Clouds 1 1015 80 10000 4 110 07:38 13.10.2019
6105 Clouds 1 1016 80 10000 5 120 06:55 13.10.2019
6106 Clouds 1 1016 80 10000 5 120 06:26 13.10.2019
6107 Clear 2 1016 69 10000 5 130 05:29 13.10.2019
6108 Clear 3 1017 59 10000 5 120 04:38 13.10.2019
6109 Clear 2 1018 64 10000 5 120 03:37 13.10.2019
6110 Clear 2 1018 64 10000 5 120 02:32 13.10.2019
6111 Clear 1 1019 74 10000 5 110 01:51 13.10.2019
6112 Clear 1 1019 74 10000 5 110 01:21 13.10.2019
6113 Clear 0 1019 82 10000 6 100 00:43 13.10.2019
6114 Clear 0 1019 84 10000 6 100 00:20 13.10.2019
6115 Clear 0 1019 84 10000 6 110 23:54 12.10.2019
6116 -273 0 0 0 0 0 23:54 12.10.2019
6117 Clear 0 1019 84 10000 6 110 23:36 12.10.2019
6118 Clear 0 1019 84 10000 6 110 23:36 12.10.2019
6119 Clear 0 1019 84 10000 6 110 23:18 12.10.2019
6120 Clear -2 1019 79 10000 6 110 22:54 12.10.2019
6121 Clear -2 1019 79 10000 6 110 22:36 12.10.2019
6122 Clear -2 1019 79 10000 6 110 22:18 12.10.2019
6123 Clear -3 1020 79 10000 5 100 21:41 12.10.2019
6124 Clear -3 1020 79 10000 5 100 21:23 12.10.2019
6125 Clear -3 1020 79 10000 2 120 20:56 12.10.2019
6126 Clear -3 1020 79 10000 2 120 20:38 12.10.2019
6127 Clear -3 1020 79 10000 2 120 20:38 12.10.2019
6128 Clear -3 1020 79 10000 2 120 20:20 12.10.2019
6129 Clear -5 1020 85 10000 3 110 19:37 12.10.2019
6130 Clear -5 1020 85 10000 3 110 19:18 12.10.2019
6131 Clear -3 1021 79 10000 3 120 18:44 12.10.2019
6132 Clear -3 1021 79 10000 3 120 18:26 12.10.2019
6133 -273 0 0 0 0 0 17:56 12.10.2019
6134 Clear -2 1021 79 10000 1 160 17:56 12.10.2019
6135 Clear -2 1021 79 10000 1 160 17:37 12.10.2019
6136 Clear -2 1021 79 10000 1 160 17:18 12.10.2019
6137 Clear -3 1021 86 10000 4 160 16:41 12.10.2019
6138 Clear -3 1021 86 10000 4 160 16:21 12.10.2019
6139 Clear -3 1021 86 10000 4 170 15:57 12.10.2019
6140 Clear -3 1021 86 10000 4 170 15:38 12.10.2019
6141 Clear -3 1021 86 10000 4 170 15:19 12.10.2019
6142 Clear -2 1021 79 10000 4 170 14:41 12.10.2019
6143 Clear -2 1021 79 10000 4 170 14:21 12.10.2019
6144 Clear -2 1021 79 10000 4 170 14:21 12.10.2019
6145 Clear -2 1022 79 10000 4 170 13:52 12.10.2019
6146 Clear -2 1022 79 10000 4 170 13:33 12.10.2019
6147 Clear -2 1022 86 10000 4 160 12:59 12.10.2019
6148 Clear -2 1022 86 10000 4 160 12:38 12.10.2019
6149 Clear -2 1022 86 10000 4 160 12:20 12.10.2019
6150 Clear -1 1021 80 10000 2 110 11:47 12.10.2019
6151 Clear -1 1021 80 10000 2 110 11:26 12.10.2019
6152 Clear -1 1021 80 10000 2 140 10:59 12.10.2019
6153 Clear -1 1021 80 10000 2 140 10:40 12.10.2019
6154 Clear -1 1021 80 10000 2 140 10:21 12.10.2019
6155 Clear -1 1021 80 10000 4 160 09:57 12.10.2019
6156 -273 0 0 0 0 0 09:57 12.10.2019
6157 Clear -1 1021 80 10000 4 160 09:38 12.10.2019
6158 Clear -1 1021 80 10000 4 160 09:19 12.10.2019
6159 Clear -1 1021 80 10000 2 170 08:45 12.10.2019
6160 Clear -1 1021 80 10000 2 170 08:25 12.10.2019
6161 Clear -1 1021 80 10000 3 170 07:59 12.10.2019
6162 Clear -1 1021 80 10000 3 170 07:31 12.10.2019
6163 Clear 0 1022 85 10000 4 170 06:37 12.10.2019
6164 Clear -1 1022 86 10000 5 160 05:44 12.10.2019
6165 Clear 0 1022 84 10000 5 180 04:43 12.10.2019
6166 Clear -1 1022 80 10000 5 180 03:56 12.10.2019
6167 Clear -2 1022 86 10000 5 180 02:50 12.10.2019
6168 Clear -2 1022 86 10000 6 180 01:35 12.10.2019
6169 Clear -2 1022 86 10000 6 170 00:56 12.10.2019
6170 Clear -2 1022 86 10000 6 170 00:38 12.10.2019
6171 Clear -2 1022 86 10000 3 170 23:55 11.10.2019
6172 Clear -2 1022 86 10000 3 170 23:37 11.10.2019
6173 Clear -2 1022 86 10000 3 170 23:18 11.10.2019
6174 Clear -5 1022 85 10000 2 140 22:39 11.10.2019
6175 Clear -5 1022 85 10000 2 140 22:20 11.10.2019
6176 Clear -5 1022 92 10000 2 160 21:55 11.10.2019
6177 Clear -5 1022 92 10000 2 160 21:36 11.10.2019
6178 Clear -5 1022 92 10000 2 160 21:18 11.10.2019
6179 Clear -7 1022 92 10000 2 150 20:42 11.10.2019
6180 Clear -7 1022 92 10000 2 150 20:24 11.10.2019
6181 Clear -7 1022 92 10000 2 130 19:56 11.10.2019
6182 Clear -7 1022 92 10000 2 130 19:38 11.10.2019
6183 Clear -8 1022 92 10000 2 130 19:18 11.10.2019
6184 Clear -8 1022 92 10000 2 130 19:18 11.10.2019
6185 Clear -8 1022 92 10000 2 120 18:56 11.10.2019
6186 Clear -8 1022 92 10000 2 120 18:37 11.10.2019
6187 Clear -8 1022 92 10000 2 120 18:18 11.10.2019
6188 Clear -8 1023 92 10000 2 120 17:57 11.10.2019
6189 Clear -8 1023 92 10000 2 120 17:37 11.10.2019
6190 Clear -8 1023 92 10000 2 120 17:18 11.10.2019
6191 Clear -8 1023 92 10000 2 110 16:41 11.10.2019
6192 Clear -8 1023 92 10000 2 110 16:21 11.10.2019
6193 Clear -8 1022 85 10000 3 110 15:59 11.10.2019
6194 Clear -8 1022 85 10000 3 110 15:59 11.10.2019
6195 Clear -8 1022 85 10000 3 110 15:38 11.10.2019
6196 Clear -8 1022 85 10000 3 110 15:38 11.10.2019
6197 Clear -8 1022 85 10000 3 110 15:19 11.10.2019
6198 Clear -8 1023 85 10000 2 140 14:47 11.10.2019
6199 Clear -8 1023 85 10000 2 140 14:29 11.10.2019
6200 Clear -7 1023 85 10000 2 110 13:57 11.10.2019
6201 Clear -7 1023 85 10000 2 110 13:38 11.10.2019
6202 Clear -7 1023 85 10000 2 110 13:19 11.10.2019
6203 Clear -10 1023 85 10000 3 90 12:56 11.10.2019
6204 Clear -10 1023 85 10000 3 90 12:38 11.10.2019
6205 Clear -10 1023 85 10000 3 90 12:18 11.10.2019
6206 Clear -9 1023 92 10000 1 70 11:41 11.10.2019
6207 Clear -9 1023 92 10000 1 70 11:22 11.10.2019
6208 Clear -9 1023 92 10000 1 70 11:22 11.10.2019
6209 Clear -7 1023 85 10000 1 60 10:58 11.10.2019
6210 Clear -7 1023 85 10000 1 60 10:40 11.10.2019
6211 Clear -7 1023 85 10000 1 60 10:22 11.10.2019
6212 Clear -6 1022 85 10000 2 350 09:56 11.10.2019
6213 Clear -6 1022 85 10000 2 350 09:37 11.10.2019
6214 Clear -6 1022 85 10000 2 350 09:19 11.10.2019
6215 Clear -7 1022 92 10000 2 40 08:55 11.10.2019
6216 Clear -7 1022 92 10000 2 40 08:36 11.10.2019
6217 Clear -7 1022 92 10000 2 40 08:18 11.10.2019
6218 Clear -5 1022 85 10000 3 360 07:44 11.10.2019
6219 Clear -4 1022 85 10000 3 360 07:25 11.10.2019
6220 Clear -3 1022 79 10000 4 350 06:48 11.10.2019
6221 Clear -2 1022 74 10000 3 350 06:23 11.10.2019
6222 Clear -2 1022 74 10000 3 350 05:39 11.10.2019
6223 Clear -2 1022 74 10000 3 360 04:59 11.10.2019
6224 Clear -2 1022 74 10000 2 360 04:24 11.10.2019
6225 Clear -2 1022 79 10000 2 340 02:40 11.10.2019
6226 Clouds -3 1022 86 10000 2 350 00:50 11.10.2019
6227 Clouds -3 1022 86 10000 2 350 00:29 11.10.2019
6228 Clouds -5 1022 85 10000 2 10 23:44 10.10.2019
6229 Clear -5 1022 85 10000 2 10 23:22 10.10.2019
6230 Clear -6 1022 85 10000 2 10 22:58 10.10.2019
6231 Clear -7 1022 85 10000 2 30 22:39 10.10.2019
6232 Clear -7 1022 85 10000 2 30 22:21 10.10.2019
6233 Clear -9 1022 85 10000 3 30 21:58 10.10.2019
6234 Clear -9 1022 85 10000 3 30 21:58 10.10.2019
6235 Clear -9 1022 85 10000 3 30 21:39 10.10.2019
6236 Clear -9 1022 85 10000 3 30 21:21 10.10.2019
6237 Clear -9 1022 85 10000 3 30 21:21 10.10.2019
6238 Clouds -8 1022 92 10000 3 30 20:43 10.10.2019
6239 Clouds -8 1022 92 10000 3 30 20:22 10.10.2019
6240 Clouds -6 1023 85 10000 2 340 19:59 10.10.2019
6241 Clouds -6 1023 85 10000 2 340 19:41 10.10.2019
6242 Clouds -6 1023 85 10000 2 340 19:21 10.10.2019
6243 Clouds -6 1023 92 10000 2 20 18:59 10.10.2019
6244 Clouds -6 1023 92 10000 2 20 18:40 10.10.2019
6245 Clouds -6 1023 92 10000 2 20 18:20 10.10.2019
6246 Clouds -7 1023 85 10000 2 30 17:55 10.10.2019
6247 Clouds -7 1023 85 10000 2 30 17:55 10.10.2019
6248 Clouds -7 1023 85 10000 2 30 17:37 10.10.2019
6249 Clouds -7 1023 85 10000 2 30 17:18 10.10.2019
6250 Clouds -6 1023 85 10000 1 60 16:46 10.10.2019
6251 Clouds -6 1023 85 10000 1 60 16:26 10.10.2019
6252 Clear -8 1023 85 10000 3 50 15:58 10.10.2019
6253 Clear -8 1023 85 0 2.68 20 15:38 10.10.2019
6254 Clear -9 1023 85 10000 3 50 15:19 10.10.2019
6255 Clear -9 1023 85 10000 3 50 14:55 10.10.2019
6256 Clear -9 1023 85 0 3.58 40 14:36 10.10.2019
6257 Clear -7 1024 85 10000 3 10 14:18 10.10.2019
6258 Clear -7 1024 85 10000 3 10 13:42 10.10.2019
6259 Clear -7 1024 85 10000 3 10 13:24 10.10.2019
6260 Clear -9 1024 85 10000 2 60 12:57 10.10.2019
6261 Clear -9 1024 85 10000 2 60 12:57 10.10.2019
6262 Clear -9 1024 85 10000 2 60 12:39 10.10.2019
6263 Clear -9 1024 85 10000 2 60 12:20 10.10.2019
6264 Clear -9 1024 85 10000 2 60 12:20 10.10.2019
6265 Clear -9 1024 85 10000 2 70 11:57 10.10.2019
6266 Clouds -9 1024 92 10000 2 50 11:38 10.10.2019
6267 Clouds -8 1024 92 10000 2 50 11:19 10.10.2019
6268 Clouds -6 1024 85 10000 2 350 10:44 10.10.2019
6269 Clouds -6 1024 85 10000 2 350 10:26 10.10.2019
6270 Clouds -6 1024 85 10000 2 350 09:56 10.10.2019
6271 Clouds -5 1024 79 10000 2 350 09:38 10.10.2019
6272 Clouds -4 1024 79 10000 2 350 09:20 10.10.2019
6273 Clouds -7 1024 85 10000 3 10 08:57 10.10.2019
6274 Clear -6 1024 85 10000 4 10 08:37 10.10.2019
6275 Clear -6 1024 85 10000 4 10 08:18 10.10.2019
6276 Clear -4 1024 79 10000 4 360 07:44 10.10.2019
6277 Clear -3 1024 73 10000 3 360 07:21 10.10.2019
6278 Clear -2 1024 68 10000 3 340 06:48 10.10.2019
6279 Clear -2 1024 68 10000 3 360 06:29 10.10.2019
6280 Clear -1 1024 63 10000 4 350 05:28 10.10.2019
6281 Clear -1 1024 63 10000 4 340 04:47 10.10.2019
6282 Clear -1 1025 63 10000 4 340 04:26 10.10.2019
6283 Clear -3 1025 74 10000 3 340 01:44 10.10.2019
6284 Clear -3 1025 74 10000 3 340 01:44 10.10.2019
6285 Clear -3 1025 73 10000 3 340 01:25 10.10.2019
6286 Clear -3 1025 79 10000 2 350 00:54 10.10.2019
6287 Clear -3 1025 79 10000 2 350 00:54 10.10.2019
6288 Clear -4 1025 79 10000 3 350 00:22 10.10.2019
6289 Clear -4 1024 79 10000 3 350 23:40 09.10.2019
6290 Clear -5 1024 85 10000 3 320 23:21 09.10.2019
6291 Clear -5 1024 85 10000 2 360 22:56 09.10.2019
6292 Clear -5 1024 85 10000 3 10 22:37 09.10.2019
6293 Clear -5 1024 85 10000 3 10 22:19 09.10.2019
6294 Clear -5 1023 85 10000 3 10 21:40 09.10.2019
6295 Clear -5 1023 85 10000 3 10 21:21 09.10.2019
6296 Clear -4 1022 85 10000 5 340 20:56 09.10.2019
6297 Clear -4 1022 85 10000 5 340 20:38 09.10.2019
6298 Clear -4 1022 85 10000 5 340 20:19 09.10.2019
6299 Clear -4 1022 85 10000 6 320 19:58 09.10.2019
6300 Clear -4 1022 85 10000 6 320 19:39 09.10.2019
6301 Clear -4 1022 85 10000 6 320 19:20 09.10.2019
6302 Clear -4 1022 85 10000 5 320 18:38 09.10.2019
6303 Clear -4 1022 85 10000 5 320 18:19 09.10.2019
6304 Clear -3 1021 86 10000 6 310 17:57 09.10.2019
6305 Clear -3 1021 86 10000 6 310 17:37 09.10.2019
6306 Clear -3 1021 86 10000 6 310 17:19 09.10.2019
6307 Clear -3 1021 86 10000 6 310 17:19 09.10.2019
6308 Clear -3 1021 86 10000 6 310 16:55 09.10.2019
6309 Clear -3 1021 86 10000 6 310 16:36 09.10.2019
6310 Clear -3 1021 86 10000 6 310 16:18 09.10.2019
6311 Clear -2 1020 86 10000 4 320 15:55 09.10.2019
6312 Clear -2 1020 86 10000 4 320 15:36 09.10.2019
6313 Clear -2 1020 86 10000 4 320 15:36 09.10.2019
6314 Clear -2 1020 86 10000 4 320 15:18 09.10.2019
6315 Clear -2 1020 86 10000 4 320 15:18 09.10.2019
6316 Clear -2 1020 86 10000 1 340 14:41 09.10.2019
6317 Clear -2 1020 86 10000 1 340 14:18 09.10.2019
6318 -273 0 0 0 0 0 13:55 09.10.2019
6319 Clear -1 1019 86 10000 2 330 13:36 09.10.2019
6320 Clear -1 1019 86 10000 2 330 13:18 09.10.2019
6321 Clear 0 1018 86 10000 3 10 12:42 09.10.2019
6322 Clear 0 1018 79 10000 3 10 12:22 09.10.2019
6323 Clear 0 1017 79 10000 1 120 11:57 09.10.2019
6324 Clear 0 1017 79 10000 1 120 11:39 09.10.2019
6325 Clear 0 1017 79 10000 1 120 11:20 09.10.2019
6326 Clear 0 1016 79 10000 3 360 10:55 09.10.2019
6327 Clear 0 1016 79 10000 3 360 10:37 09.10.2019
6328 Clear 0 1016 79 10000 3 360 10:18 09.10.2019
6329 Clouds 0 1014 79 10000 3 300 09:42 09.10.2019
6330 Clouds 0 1014 75 10000 3 300 09:19 09.10.2019
6331 Clouds 1 1013 86 10000 4 20 08:56 09.10.2019
6332 Clouds 1 1013 86 10000 4 20 08:37 09.10.2019
6333 Clouds 1 1013 86 10000 4 20 08:18 09.10.2019
6334 Clouds 1 1013 86 10000 4 20 08:18 09.10.2019
6335 Clouds 2 1012 78 10000 4 360 07:43 09.10.2019
6336 Clouds 2 1011 78 10000 5 340 07:23 09.10.2019
6337 Clouds 2 1011 78 10000 5 340 06:52 09.10.2019
6338 Clouds 2 1010 78 10000 4 340 06:20 09.10.2019
6339 Clouds 2 1009 78 10000 6 340 05:46 09.10.2019
6340 Clouds 2 1009 78 10000 6 340 05:46 09.10.2019
6341 Clouds 3 1007 78 10000 7 330 04:27 09.10.2019
6342 Clouds 2 1006 80 10000 6 320 02:54 09.10.2019
6343 Clouds 1 1005 80 10000 7 310 01:44 09.10.2019
6344 Clouds 1 1005 80 10000 7 300 01:21 09.10.2019
6345 Clouds 1 1004 80 10000 7 300 00:58 09.10.2019
6346 Clouds 0 1004 80 10000 7 300 00:40 09.10.2019
6347 Clouds 0 1004 81 10000 7 300 00:21 09.10.2019
6348 Clouds 0 1004 81 10000 6 290 23:57 08.10.2019
6349 Clouds 0 1004 81 10000 6 290 23:36 08.10.2019
6350 Clouds 0 1004 81 10000 6 290 23:18 08.10.2019
6351 Clouds -1 1003 92 10000 8 290 22:39 08.10.2019
6352 Clouds -1 1003 92 10000 8 290 22:20 08.10.2019
6353 Clouds -1 1002 92 10000 8 280 21:57 08.10.2019
6354 Clouds -1 1002 92 10000 8 280 21:39 08.10.2019
6355 Clouds -1 1002 92 10000 8 280 21:19 08.10.2019
6356 Clouds -1 1002 86 10000 10 290 20:56 08.10.2019
6357 Clouds -1 1002 86 10000 10 290 20:38 08.10.2019
6358 Clouds -1 1002 86 10000 10 290 20:20 08.10.2019
6359 Clouds -1 1001 86 10000 11 290 19:58 08.10.2019
6360 Clouds -1 1001 86 10000 11 290 19:58 08.10.2019
6361 Clouds -1 1001 86 10000 11 290 19:40 08.10.2019
6362 Clouds -1 1001 86 10000 11 290 19:21 08.10.2019
6363 Clouds -1 1001 86 10000 11 290 19:21 08.10.2019
6364 Clouds -2 1001 92 10000 10 290 18:55 08.10.2019
6365 Clouds -2 1001 92 10000 10 290 18:55 08.10.2019
6366 Clouds -2 1001 92 10000 10 290 18:36 08.10.2019
6367 Clouds -2 1001 92 10000 10 290 18:18 08.10.2019
6368 Clouds -1 1000 86 10000 10 290 17:40 08.10.2019
6369 Clouds -1 1000 86 10000 10 290 17:21 08.10.2019
6370 Clouds -1 999 86 10000 10 290 16:59 08.10.2019
6371 Clouds -1 999 86 10000 10 290 16:40 08.10.2019
6372 Clouds -1 999 86 10000 10 290 16:22 08.10.2019
6373 Clouds -1 999 92 10000 10 290 15:41 08.10.2019
6374 Clouds -1 999 92 10000 10 290 15:22 08.10.2019
6375 Clouds 0 998 90 10000 7 290 14:59 08.10.2019
6376 Clouds 0 998 90 10000 7 290 14:41 08.10.2019
6377 Clouds 0 998 90 10000 7 290 14:21 08.10.2019
6378 Mist 0 998 90 2800 7 300 13:57 08.10.2019
6379 Mist 0 998 90 2800 7 300 13:38 08.10.2019
6380 Mist 0 998 90 2800 7 300 13:19 08.10.2019
6381 Fog 1 997 100 900 5 330 12:58 08.10.2019
6382 Fog 1 997 100 900 5 330 12:38 08.10.2019
6383 Fog 1 997 100 900 5 330 12:18 08.10.2019
6384 Fog 1 996 97 800 6 350 11:42 08.10.2019
6385 Fog 1 996 97 800 6 350 11:24 08.10.2019
6386 Fog 1 996 97 800 6 350 11:24 08.10.2019
6387 Clouds 1 995 100 10000 3 350 10:58 08.10.2019
6388 Clouds 1 995 100 10000 3 350 10:38 08.10.2019
6389 Clouds 1 995 100 10000 3 350 10:19 08.10.2019
6390 Fog 2 995 93 8000 3 320 09:56 08.10.2019
6391 Fog 2 995 93 8000 3 320 09:37 08.10.2019
6392 Fog 2 995 93 8000 3 320 09:19 08.10.2019
6393 Fog 2 994 100 300 4 340 08:42 08.10.2019
6394 Fog 2 994 100 300 4 340 08:23 08.10.2019
6395 Fog 2 994 100 300 4 340 08:23 08.10.2019
6396 Fog 2 994 100 300 4 340 08:23 08.10.2019
6397 Fog 3 994 93 650 3 330 07:45 08.10.2019
6398 Fog 3 993 100 350 3 340 07:21 08.10.2019
6399 Fog 3 993 100 10000 3 340 06:53 08.10.2019
6400 Fog 4 993 93 10000 2 10 06:29 08.10.2019
6401 Fog 4 993 93 10000 3 20 05:55 08.10.2019
6402 Fog 4 993 93 10000 3 20 05:55 08.10.2019
6403 Rain 5 992 93 10000 3 10 05:36 08.10.2019
6404 Clouds 5 992 86 10000 2 60 04:31 08.10.2019
6405 Clouds 6 992 87 10000 3 110 03:29 08.10.2019
6406 Clouds 5 992 86 10000 2 100 02:37 08.10.2019
6407 Rain 5 992 93 10000 1 100 01:47 08.10.2019
6408 Rain 5 993 86 10000 3 100 01:28 08.10.2019
6409 Rain 4 993 93 10000 4 110 00:48 08.10.2019
6410 Rain 4 992 93 10000 4 100 00:21 08.10.2019
6411 Rain 4 992 93 10000 5 100 23:41 07.10.2019
6412 Rain 4 992 93 10000 4 100 23:20 07.10.2019
6413 Rain 4 992 93 10000 4 100 23:20 07.10.2019
6414 Rain 4 992 93 9000 5 110 22:57 07.10.2019
6415 Rain 4 993 93 10000 5 100 22:39 07.10.2019
6416 Rain 4 993 93 10000 5 100 22:20 07.10.2019
6417 Clouds 4 993 93 9000 5 110 21:57 07.10.2019
6418 Clouds 4 993 93 9000 5 110 21:38 07.10.2019
6419 Clouds 4 993 93 9000 5 110 21:20 07.10.2019
6420 Rain 4 993 93 9000 4 120 20:58 07.10.2019
6421 Rain 4 993 93 9000 4 120 20:39 07.10.2019
6422 Rain 4 993 93 9000 4 120 20:20 07.10.2019
6423 Rain 3 993 100 6000 6 110 19:58 07.10.2019
6424 Rain 3 993 100 6000 6 110 19:39 07.10.2019
6425 Rain 3 993 100 6000 6 110 19:19 07.10.2019
6426 Clouds 4 993 93 9000 7 110 18:56 07.10.2019
6427 Clouds 4 993 93 9000 7 110 18:56 07.10.2019
6428 Clouds 4 993 93 9000 7 110 18:38 07.10.2019
6429 Clouds 4 993 93 9000 7 110 18:18 07.10.2019
6430 Clouds 4 993 93 9000 7 110 18:18 07.10.2019
6431 Fog 4 994 93 9000 8 100 17:43 07.10.2019
6432 Fog 4 994 93 9000 8 100 17:20 07.10.2019
6433 Rain 3 994 100 3700 7 110 16:57 07.10.2019
6434 Rain 3 994 100 3700 7 110 16:38 07.10.2019
6435 Rain 3 994 100 3700 7 110 16:20 07.10.2019
6436 Clouds 3 995 93 3900 11 110 15:45 07.10.2019
6437 Clouds 3 995 93 3900 11 110 15:25 07.10.2019
6438 Clouds 2 996 93 6000 14 100 14:55 07.10.2019
6439 Clouds 2 996 93 6000 14 100 14:37 07.10.2019
6440 Clouds 2 996 93 6000 14 100 14:19 07.10.2019
6441 Snow 1 997 100 2400 17 100 13:41 07.10.2019
6442 Snow 1 997 100 2400 17 100 13:20 07.10.2019
6443 Snow 1 997 97 1400 19 100 12:55 07.10.2019
6444 Snow 1 997 97 1400 19 100 12:37 07.10.2019
6445 Snow 1 997 95 1400 19 100 12:19 07.10.2019
6446 Snow 1 999 95 1900 22 100 11:57 07.10.2019
6447 Snow 1 999 95 1900 22 100 11:37 07.10.2019
6448 Snow 1 999 95 1900 22 100 11:18 07.10.2019
6449 Snow 1 1001 95 2100 21 100 10:41 07.10.2019
6450 Snow 1 1001 95 2100 21 100 10:41 07.10.2019
6451 Snow 1 1001 95 2100 21 100 10:41 07.10.2019
6452 Snow 1 1001 95 2100 21 100 10:20 07.10.2019
6453 Snow 1 1002 95 3000 20 110 09:42 07.10.2019
6454 Snow 1 1002 90 3000 20 110 09:23 07.10.2019
6455 Snow 1 1004 90 3200 17 100 08:57 07.10.2019
6456 Snow 1 1004 90 3200 17 100 08:57 07.10.2019
6457 Snow 1 1004 89 3200 17 100 08:38 07.10.2019
6458 Snow 1 1004 89 3200 17 100 08:19 07.10.2019
6459 Snow 0 1006 89 2500 19 100 07:41 07.10.2019
6460 Snow 0 1007 89 1100 19 110 07:23 07.10.2019
6461 Snow 0 1008 89 1300 17 110 06:54 07.10.2019
6462 Snow 0 1009 89 1700 14 120 06:34 07.10.2019
6463 Snow 1 1010 86 3300 11 110 05:49 07.10.2019
6464 Snow 1 1011 80 1900 10 110 05:23 07.10.2019
6465 Clouds 1 1013 80 10000 7 100 04:28 07.10.2019
6466 Clouds 1 1014 80 10000 8 110 03:45 07.10.2019
6467 Clouds 1 1015 74 10000 7 120 03:21 07.10.2019
6468 Clouds 1 1016 74 10000 5 120 02:22 07.10.2019
6469 Clouds 0 1017 82 10000 5 110 01:52 07.10.2019
6470 Clear 0 1018 83 10000 6 110 01:22 07.10.2019
6471 Clear -1 1018 80 10000 6 120 00:41 07.10.2019
6472 Clear -1 1018 80 10000 5 110 00:22 07.10.2019
6473 Clear -1 1019 80 10000 6 100 23:54 06.10.2019
6474 Clear -2 1019 86 10000 6 120 23:36 06.10.2019
6475 Clear -2 1019 86 10000 6 120 23:18 06.10.2019
6476 Clear -2 1020 79 10000 4.07 59.906 22:41 06.10.2019
6477 Clouds -6 1020 92 10000 2 150 22:22 06.10.2019
6478 Clouds -8 1020 92 10000 2 30 21:58 06.10.2019
6479 Clouds -8 1020 92 10000 2 30 21:38 06.10.2019
6480 Clouds -8 1020 92 10000 2 30 21:19 06.10.2019
6481 Clouds -9 1021 92 10000 3 30 20:58 06.10.2019
6482 Clouds -9 1021 92 10000 3 30 20:58 06.10.2019
6483 Clouds -9 1021 92 10000 3 30 20:40 06.10.2019
6484 Clouds -9 1021 92 10000 3 30 20:21 06.10.2019
6485 Fog -11 1022 92 10000 2 40 19:58 06.10.2019
6486 Fog -11 1022 92 10000 2 40 19:38 06.10.2019
6487 Fog -11 1022 92 10000 2 40 19:19 06.10.2019
6488 Clear -12 1022 92 10000 1 50 18:57 06.10.2019
6489 Clear -12 1022 92 10000 1 50 18:39 06.10.2019
6490 Clear -12 1022 92 10000 1 50 18:19 06.10.2019
6491 Clear -11 1022 92 10000 1 40 17:58 06.10.2019
6492 Clear -11 1022 92 10000 1 40 17:39 06.10.2019
6493 Clear -11 1022 92 10000 1 40 17:19 06.10.2019
6494 Clear -8 1023 92 10000 2 310 16:42 06.10.2019
6495 Clear -8 1023 92 10000 2 310 16:24 06.10.2019
6496 Clear -8 1023 92 10000 3 330 15:58 06.10.2019
6497 Clear -8 1023 92 10000 3 330 15:39 06.10.2019
6498 Clear -8 1023 92 10000 3 330 15:18 06.10.2019
6499 Clear -8 1023 92 10000 4 350 14:43 06.10.2019
6500 Clear -8 1023 92 10000 4 350 14:24 06.10.2019
6501 Clear -6 1023 85 10000 4 10 13:58 06.10.2019
6502 Clear -6 1023 85 10000 4 10 13:39 06.10.2019
6503 Clear -6 1023 85 10000 4 10 13:20 06.10.2019
6504 Clear -6 1023 85 10000 3 10 12:57 06.10.2019
6505 Clear -6 1023 85 10000 3 10 12:57 06.10.2019
6506 Clear -6 1023 85 10000 3 10 12:57 06.10.2019
6507 Clear -6 1023 85 10000 3 10 12:38 06.10.2019
6508 Clear -6 1023 85 10000 3 10 12:20 06.10.2019
6509 Clear -4 1022 79 10000 4 340 11:56 06.10.2019
6510 Clear -4 1022 79 10000 4 340 11:37 06.10.2019
6511 Clear -4 1022 79 10000 4 340 11:18 06.10.2019
6512 Clear -3 1022 73 10000 5 320 10:43 06.10.2019
6513 Clear -3 1022 73 10000 5 320 10:25 06.10.2019
6514 Clear -3 1021 79 10000 7 310 09:58 06.10.2019
6515 Clear -3 1021 79 10000 7 310 09:39 06.10.2019
6516 Clear -3 1021 79 10000 7 310 09:18 06.10.2019
6517 Clear -2 1021 74 10000 6 310 08:43 06.10.2019
6518 Clear -2 1021 74 10000 6 310 08:20 06.10.2019
6519 Clear -1 1019 68 10000 8 320 07:44 06.10.2019
6520 Clear -1 1019 68 10000 8 320 07:19 06.10.2019
6521 Clear -1 1019 74 10000 10 310 06:20 06.10.2019
6522 Clear -1 1019 74 10000 10 300 05:34 06.10.2019
6523 Clouds -2 1017 74 10000 12 300 03:42 06.10.2019
6524 Clear -2 1017 74 10000 11 300 02:43 06.10.2019
6525 Clouds -2 1016 74 10000 11 300 02:21 06.10.2019
6526 Clouds -2 1016 74 10000 11 300 01:44 06.10.2019
6527 Clouds -2 1016 74 10000 11 300 01:26 06.10.2019
6528 Clouds -2 1015 74 10000 11 300 00:52 06.10.2019
6529 Clouds -3 1015 79 10000 11 300 00:26 06.10.2019
6530 Clouds -3 1014 73 10000 11 300 23:45 05.10.2019
6531 Clouds -4 1014 79 10000 11 300 23:22 05.10.2019
6532 Clouds -4 1013 79 10000 11 300 22:58 05.10.2019
6533 Clouds -4 1013 79 10000 11 300 22:40 05.10.2019
6534 Clouds -4 1013 79 10000 11 300 22:20 05.10.2019
6535 Clouds -4 1012 79 10000 11 290 21:56 05.10.2019
6536 Clouds -4 1012 79 10000 11 290 21:38 05.10.2019
6537 Clouds -4 1012 79 10000 11 290 21:18 05.10.2019
6538 Clouds -4 1011 73 10000 12 300 20:55 05.10.2019
6539 Clouds -4 1011 73 10000 12 300 20:37 05.10.2019
6540 Clouds -4 1011 73 10000 12 300 20:18 05.10.2019
6541 Clear -4 1010 73 10000 12 290 19:38 05.10.2019
6542 Clear -4 1010 73 10000 12 290 19:19 05.10.2019
6543 Clear -4 1010 73 10000 12 290 19:19 05.10.2019
6544 Clear -4 1009 73 10000 13 290 18:55 05.10.2019
6545 Clear -4 1009 73 10000 13 290 18:55 05.10.2019
6546 Clear -4 1009 73 10000 13 290 18:37 05.10.2019
6547 Clear -4 1009 73 10000 13 290 18:19 05.10.2019
6548 Clear -3 1009 73 10000 13 290 17:43 05.10.2019
6549 Clear -3 1009 73 10000 13 290 17:25 05.10.2019
6550 Clear -3 1008 73 10000 13 290 16:58 05.10.2019
6551 Clear -3 1008 73 10000 13 290 16:40 05.10.2019
6552 Clear -3 1008 73 10000 13 290 16:21 05.10.2019
6553 Clear -3 1008 73 10000 14 290 15:57 05.10.2019
6554 Clear -3 1008 73 10000 14 290 15:38 05.10.2019
6555 Clear -3 1008 73 10000 14 290 15:20 05.10.2019
6556 Clear -3 1007 73 10000 14 290 14:44 05.10.2019
6557 Clear -3 1007 73 10000 14 290 14:26 05.10.2019
6558 Clear -3 1007 73 10000 14 290 14:26 05.10.2019
6559 Clear -2 1007 68 10000 14 290 13:59 05.10.2019
6560 Clear -2 1007 68 10000 14 290 13:40 05.10.2019
6561 Clear -2 1007 68 10000 14 290 13:20 05.10.2019
6562 Clear -2 1006 68 10000 15 290 12:44 05.10.2019
6563 Clear -2 1006 68 10000 15 290 12:20 05.10.2019
6564 Clear -2 1006 68 10000 14 290 11:45 05.10.2019
6565 Clear -2 1006 68 10000 14 290 11:23 05.10.2019
6566 Clear -2 1005 74 10000 15 290 10:59 05.10.2019
6567 Clear -2 1005 74 10000 15 290 10:41 05.10.2019
6568 Clear -2 1005 74 10000 15 290 10:23 05.10.2019
6569 Clear -1 1004 68 10000 13 290 09:56 05.10.2019
6570 Clear -1 1004 68 10000 13 290 09:38 05.10.2019
6571 Clear -1 1004 68 10000 13 290 09:20 05.10.2019
6572 Clear -1 1004 68 10000 14 290 08:39 05.10.2019
6573 Clear -1 1004 68 10000 14 290 08:19 05.10.2019
6574 Clear -1 1003 68 10000 15 290 07:53 05.10.2019
6575 Clear -1 1003 68 10000 15 290 07:32 05.10.2019
6576 Clear 0 1003 73 10000 14 290 06:57 05.10.2019
6577 Clear 0 1003 73 10000 14 290 06:26 05.10.2019
6578 Clear 0 1002 72 10000 14 290 05:40 05.10.2019
6579 Clouds -1 1001 80 10000 15 280 03:41 05.10.2019
6580 Clouds -1 1001 80 10000 15 280 03:22 05.10.2019
6581 Clouds -2 999 79 10000 15 280 01:30 05.10.2019
6582 Clouds -2 999 79 10000 16 280 00:58 05.10.2019
6583 Clouds -2 999 79 10000 16 280 00:40 05.10.2019
6584 Clouds -2 999 79 10000 16 280 00:22 05.10.2019
6585 Clouds -3 999 86 10000 15 280 23:43 04.10.2019
6586 Clouds -3 999 86 10000 15 280 23:24 04.10.2019
6587 Clouds -3 998 79 10000 16 280 22:58 04.10.2019
6588 Clouds -3 998 79 10000 16 280 22:38 04.10.2019
6589 Clouds -3 998 79 10000 16 280 22:19 04.10.2019
6590 Clouds -3 997 79 10000 14 270 21:55 04.10.2019
6591 Clouds -3 997 79 10000 14 270 21:36 04.10.2019
6592 Clouds -3 997 79 10000 14 270 21:18 04.10.2019
6593 Clouds -3 997 73 10000 15 280 20:42 04.10.2019
6594 Clouds -3 997 73 10000 15 280 20:23 04.10.2019
6595 Clouds -3 996 73 10000 15 270 19:58 04.10.2019
6596 Clouds -3 996 73 10000 15 270 19:39 04.10.2019
6597 Clouds -3 996 73 10000 15 270 19:21 04.10.2019
6598 Clouds -3 996 73 10000 14 270 18:56 04.10.2019
6599 Clouds -3 996 73 10000 14 270 18:37 04.10.2019
6600 Clouds -3 996 73 10000 14 270 18:18 04.10.2019
6601 Clouds -3 996 73 10000 14 270 18:18 04.10.2019
6602 Clouds -2 996 74 10000 12 270 17:41 04.10.2019
6603 Clouds -2 996 74 10000 12 270 17:41 04.10.2019
6604 Clouds -2 996 74 10000 12 270 17:22 04.10.2019
6605 Clouds -2 996 74 10000 14 270 16:59 04.10.2019
6606 Clouds -2 996 74 10000 14 270 16:41 04.10.2019
6607 Clouds -2 996 74 10000 14 270 16:19 04.10.2019
6608 Clouds -2 996 74 10000 14 270 16:19 04.10.2019
6609 Clouds -2 996 74 10000 13 280 15:57 04.10.2019
6610 Clouds -2 996 74 10000 13 280 15:39 04.10.2019
6611 Clouds -2 996 74 10000 13 280 15:20 04.10.2019
6612 Clouds -2 996 74 10000 15 280 14:56 04.10.2019
6613 Clouds -2 996 74 10000 15 280 14:38 04.10.2019
6614 Clouds -2 996 74 10000 15 280 14:20 04.10.2019
6615 Clouds -2 996 74 10000 14 280 13:45 04.10.2019
6616 Clouds -2 996 74 10000 14 280 13:22 04.10.2019
6617 Clouds -2 995 74 10000 13 280 12:55 04.10.2019
6618 Clouds -2 995 74 10000 13 280 12:55 04.10.2019
6619 Clouds -2 995 74 10000 13 280 12:36 04.10.2019
6620 Clouds -2 995 74 10000 13 280 12:18 04.10.2019
6621 Clouds -2 995 68 10000 14 290 11:42 04.10.2019
6622 Clouds -2 995 68 10000 14 290 11:22 04.10.2019
6623 Clouds -3 995 68 10000 12 280 10:55 04.10.2019
6624 Clouds -3 995 68 10000 12 280 10:37 04.10.2019
6625 Clouds -3 995 68 10000 12 280 10:18 04.10.2019
6626 Clouds -2 995 63 10000 12 290 09:41 04.10.2019
6627 Clouds -2 995 63 10000 12 290 09:23 04.10.2019
6628 Clouds -2 994 68 10000 13 290 08:45 04.10.2019
6629 Clouds -2 994 68 10000 13 290 08:26 04.10.2019
6630 Clouds -3 994 73 10000 11 290 07:47 04.10.2019
6631 Clouds -3 994 73 10000 11 280 07:26 04.10.2019
6632 Clouds -3 994 73 10000 11 290 06:59 04.10.2019
6633 Clouds -3 994 73 10000 12 290 06:39 04.10.2019
6634 Clouds -3 994 73 10000 12 290 06:21 04.10.2019
6635 Clouds -4 994 79 9000 13 280 05:21 04.10.2019
6636 Clouds -3 993 79 9000 14 280 04:38 04.10.2019
6637 Clouds -4 993 79 9000 11 280 03:28 04.10.2019
6638 Clouds -4 993 79 9000 11 280 02:44 04.10.2019
6639 Clouds -4 993 79 7000 13 280 01:54 04.10.2019
6640 Clouds -5 993 85 6000 14 290 01:26 04.10.2019
6641 Clouds -4 993 85 10000 12 280 00:34 04.10.2019
6642 Clouds -4 993 85 9000 13 290 23:41 03.10.2019
6643 Clouds -4 992 92 6000 12 290 23:22 03.10.2019
6644 Clouds -4 992 92 6000 12 290 23:22 03.10.2019
6645 Clouds -3 992 86 4400 12 290 22:58 03.10.2019
6646 Clouds -3 992 86 4400 12 290 22:58 03.10.2019
6647 Clouds -3 992 92 4400 13 290 22:39 03.10.2019
6648 Clouds -3 992 92 4400 13 290 22:39 03.10.2019
6649 Clouds -3 992 92 4400 13 290 22:39 03.10.2019
6650 Clouds -3 992 92 4400 13 290 22:21 03.10.2019
6651 Clouds -3 992 92 4400 13 290 22:21 03.10.2019
6652 Snow -3 991 92 2600 13 290 21:58 03.10.2019
6653 Snow -3 991 92 2600 13 290 21:40 03.10.2019
6654 Snow -3 991 92 2600 13 290 21:20 03.10.2019
6655 Snow -2 990 92 1300 12 310 20:58 03.10.2019
6656 Snow -2 990 92 1300 12 310 20:39 03.10.2019
6657 Snow -2 990 92 1300 12 310 20:20 03.10.2019
6658 Snow -2 990 100 750 14 320 19:57 03.10.2019
6659 Snow -2 990 100 750 14 320 19:39 03.10.2019
6660 Snow -2 990 100 750 14 320 19:20 03.10.2019
6661 Snow -2 989 92 700 12 340 18:56 03.10.2019
6662 Snow -2 989 92 700 12 340 18:37 03.10.2019
6663 Snow -2 989 92 700 12 340 18:18 03.10.2019
6664 Snow -2 989 92 700 13 350 17:42 03.10.2019
6665 Snow -2 989 92 700 13 350 17:22 03.10.2019
6666 Snow -2 990 100 800 10 10 16:58 03.10.2019
6667 Snow -2 990 100 800 10 10 16:39 03.10.2019
6668 Snow -2 990 100 800 10 10 16:21 03.10.2019
6669 Snow -2 992 100 450 7 360 15:45 03.10.2019
6670 Snow -2 992 100 450 7 360 15:24 03.10.2019
6671 Snow 0 993 71 1300 6 60 14:59 03.10.2019
6672 Snow 0 993 71 1300 6 60 14:37 03.10.2019
6673 Snow 0 993 71 1300 6 60 14:19 03.10.2019
6674 Snow 0 995 71 3100 8 80 13:44 03.10.2019
6675 Snow 0 995 73 3100 8 80 13:26 03.10.2019
6676 Snow 0 996 73 8000 8 90 12:59 03.10.2019
6677 Snow 0 996 73 8000 8 90 12:40 03.10.2019
6678 Snow 0 996 73 8000 8 90 12:40 03.10.2019
6679 Snow 0 996 58 8000 8 90 12:20 03.10.2019
6680 Clouds 0 998 58 10000 5 100 11:58 03.10.2019
6681 Clouds 0 998 58 10000 5 100 11:58 03.10.2019
6682 Clouds 0 998 58 10000 5 100 11:40 03.10.2019
6683 Clouds 0 998 58 10000 5 100 11:21 03.10.2019
6684 Clouds 0 999 58 10000 3 100 10:57 03.10.2019
6685 Clouds 0 999 58 10000 3 100 10:38 03.10.2019
6686 Clouds 0 999 58 10000 3 100 10:18 03.10.2019
6687 Clouds 0 1000 58 10000 2 150 09:56 03.10.2019
6688 Clouds 0 1000 58 10000 2 150 09:37 03.10.2019
6689 Clouds 0 1000 59 10000 2 150 09:19 03.10.2019
6690 Clouds -1 1001 74 10000 1 70 08:43 03.10.2019
6691 Clouds -1 1001 74 10000 1 70 08:24 03.10.2019
6692 Clouds -1 1001 74 10000 1 70 08:24 03.10.2019
6693 -273 0 0 0 0 0 08:24 03.10.2019
6694 Clouds 0 1001 60 10000 2 261.517 07:42 03.10.2019
6695 Clouds 0 1001 60 10000 2 261.517 07:20 03.10.2019
6696 Clouds 0 1001 60 10000 3 180 06:53 03.10.2019
6697 Clouds 0 1002 60 10000 3 220 06:27 03.10.2019
6698 Clouds 0 1002 57 10000 3 250 05:49 03.10.2019
6699 Clouds 0 1002 57 10000 3 260 05:27 03.10.2019
6700 Clouds 1 1002 64 10000 4 260 04:45 03.10.2019
6701 Clouds 0 1003 57 10000 5 260 03:54 03.10.2019
6702 Clouds 0 1003 61 10000 5 270 03:19 03.10.2019
6703 Clouds 1 1003 69 10000 7 270 02:22 03.10.2019
6704 Clouds 0 1003 69 10000 8 280 01:40 03.10.2019
6705 Clouds 0 1003 62 10000 9 290 00:53 03.10.2019
6706 Clouds 0 1003 62 10000 9 280 00:31 03.10.2019
6707 Clouds 0 1003 69 10000 9 290 23:55 02.10.2019
6708 Clouds 0 1003 69 10000 8 290 23:36 02.10.2019
6709 Clouds 0 1003 69 10000 8 290 23:18 02.10.2019
6710 Clouds -1 1003 80 10000 7 290 22:41 02.10.2019
6711 Clouds -1 1003 80 10000 7 290 22:20 02.10.2019
6712 Clouds -2 1002 79 10000 8 290 21:55 02.10.2019
6713 Clouds -2 1002 79 10000 8 290 21:55 02.10.2019
6714 Clouds -2 1002 79 10000 8 290 21:37 02.10.2019
6715 Clouds -2 1002 79 10000 8 290 21:18 02.10.2019
6716 Clouds -2 1002 79 10000 8 290 21:18 02.10.2019
6717 Clouds -2 1002 86 10000 8 300 20:55 02.10.2019
6718 Clouds -2 1002 86 10000 8 300 20:55 02.10.2019
6719 Clouds -2 1002 86 10000 8 300 20:54 02.10.2019
6720 Clouds -2 1002 86 10000 8 300 20:36 02.10.2019
6721 Clouds -2 1002 86 10000 8 300 20:36 02.10.2019
6722 Clouds -2 1002 86 10000 8 300 20:18 02.10.2019
6723 Clouds -1 1002 80 10000 7 290 19:43 02.10.2019
6724 Clouds -1 1002 80 10000 7 290 19:22 02.10.2019
6725 Clouds -1 1001 86 10000 7 290 18:57 02.10.2019
6726 Clouds -1 1001 86 10000 7 290 18:39 02.10.2019
6727 Clouds -1 1001 86 10000 7 290 18:20 02.10.2019
6728 Clouds -1 1001 86 10000 8 290 17:57 02.10.2019
6729 Clouds -1 1001 86 10000 8 290 17:38 02.10.2019
6730 Clouds -1 1001 86 10000 8 290 17:19 02.10.2019
6731 Clouds -1 1001 86 10000 7 290 16:45 02.10.2019
6732 Clouds -1 1001 86 10000 5 300 16:22 02.10.2019
6733 Clouds -1 1001 86 10000 5 300 15:59 02.10.2019
6734 Clouds -1 1001 86 10000 5 300 15:40 02.10.2019
6735 Clouds -1 1001 86 10000 5 300 15:22 02.10.2019
6736 Clouds 0 1001 76 10000 5 290 14:57 02.10.2019
6737 Clouds 0 1001 76 10000 5 290 14:39 02.10.2019
6738 Clouds 0 1001 76 10000 5 290 14:39 02.10.2019
6739 Clouds 0 1001 76 10000 5 290 14:20 02.10.2019
6740 Clouds 0 1001 76 10000 2 350 13:45 02.10.2019
6741 Clouds 0 1001 76 10000 2 350 13:26 02.10.2019
6742 Clouds 0 1000 76 10000 2 310 12:58 02.10.2019
6743 Clouds 0 1000 76 10000 2 310 12:38 02.10.2019
6744 Clouds 0 1000 75 10000 2 310 12:20 02.10.2019
6745 Clouds 1 1000 80 10000 3 320 11:44 02.10.2019
6746 Clouds 1 1000 80 10000 3 320 11:23 02.10.2019
6747 Clouds 1 1000 86 10000 3 320 10:42 02.10.2019
6748 Clouds 1 1000 86 10000 3 320 10:20 02.10.2019
6749 Clouds 2 1000 75 10000 2 320 09:59 02.10.2019
6750 Clouds 2 1000 75 10000 2 320 09:38 02.10.2019
6751 Clouds 2 1000 71 10000 2 320 09:19 02.10.2019
6752 Clouds 3 1000 86 10000 2 320 08:45 02.10.2019
6753 Clouds 3 1000 86 10000 2 320 08:25 02.10.2019
6754 Clouds 3 1000 86 10000 2 320 08:25 02.10.2019
6755 Clouds 3 1000 86 10000 2 340 07:59 02.10.2019
6756 Clouds 4 1000 80 10000 2 330 07:38 02.10.2019
6757 Clouds 4 1000 80 10000 2 330 07:20 02.10.2019
6758 Clouds 4 999 80 10000 3 340 06:36 02.10.2019
6759 Clouds 5 999 75 10000 3 320 05:55 02.10.2019
6760 Clouds 5 999 80 10000 3 300 05:24 02.10.2019
6761 Clouds 6 999 75 10000 3 300 04:50 02.10.2019
6762 Clouds 6 1000 75 10000 2 270 03:52 02.10.2019
6763 Clouds 5 1000 80 10000 4 190 02:41 02.10.2019
6764 Clouds 5 1000 80 10000 4 190 02:23 02.10.2019
6765 Clouds 6 1000 75 10000 2 220 01:24 02.10.2019
6766 Clouds 5 1000 80 10000 2 200 00:49 02.10.2019
6767 Clouds 6 1000 70 10000 4 270 00:25 02.10.2019
6768 Clouds 5 999 80 10000 4 240 23:43 01.10.2019
6769 Clouds 5 999 80 10000 4 240 23:25 01.10.2019
6770 Clouds 5 999 80 10000 2 210 22:59 01.10.2019
6771 Clouds 5 999 80 10000 4 220 22:39 01.10.2019
6772 Clouds 5 999 80 10000 4 220 22:19 01.10.2019
6773 Clouds 3 999 93 10000 5 230 21:56 01.10.2019
6774 Clouds 3 999 93 10000 5 230 21:37 01.10.2019
6775 Clouds 3 999 93 10000 5 230 21:19 01.10.2019
6776 Clouds 3 999 93 10000 5 210 20:55 01.10.2019
6777 Clouds 3 999 93 10000 5 210 20:36 01.10.2019
6778 Clouds 3 999 93 10000 5 210 20:18 01.10.2019
6779 Clouds 4 998